<?xml version="1.0" encoding="UTF-8" standalone="no" ?>
<gpx xmlns="http://www.topografix.com/GPX/1/1" xmlns:xsi="http://www.w3.org/2001/XMLSchema-instance" xsi:schemaLocation="http://www.topografix.com/GPX/1/1 http://www.topografix.com/GPX/1/1/gpx.xsd" version="1.1" creator="VisuGPX - https://www.visugpx.com">
  <metadata>
    <name>Fourvière   Croix Rousse n°2</name>
    <desc><![CDATA[2 fois fourvière et 1 fois croix rousse]]></desc>
  </metadata>
  <wpt lat="45.76953" lon="4.82494">
    <ele>249</ele>
    <name><![CDATA[Start]]></name>
  </wpt>
  <wpt lat="45.76739" lon="4.83359">
    <ele>242</ele>
    <name><![CDATA[Pause]]></name>
  </wpt>
  <wpt lat="45.76752" lon="4.83349">
    <ele>234</ele>
    <name><![CDATA[Resume]]></name>
  </wpt>
  <wpt lat="45.76753" lon="4.83346">
    <ele>236</ele>
    <name><![CDATA[Pause]]></name>
  </wpt>
  <wpt lat="45.76765" lon="4.83332">
    <ele>227</ele>
    <name><![CDATA[Resume]]></name>
  </wpt>
  <wpt lat="45.76697" lon="4.83001">
    <ele>212</ele>
    <name><![CDATA[Pause]]></name>
  </wpt>
  <wpt lat="45.7668" lon="4.82991">
    <ele>215</ele>
    <name><![CDATA[Resume]]></name>
  </wpt>
  <wpt lat="45.76555" lon="4.81497">
    <ele>269</ele>
    <name><![CDATA[Pause]]></name>
  </wpt>
  <wpt lat="45.76534" lon="4.81489">
    <ele>270</ele>
    <name><![CDATA[Resume]]></name>
  </wpt>
  <wpt lat="45.76492" lon="4.81479">
    <ele>273</ele>
    <name><![CDATA[Pause]]></name>
  </wpt>
  <wpt lat="45.76478" lon="4.81469">
    <ele>275</ele>
    <name><![CDATA[Resume]]></name>
  </wpt>
  <wpt lat="45.76469" lon="4.81468">
    <ele>280</ele>
    <name><![CDATA[Pause]]></name>
  </wpt>
  <wpt lat="45.76452" lon="4.81468">
    <ele>293</ele>
    <name><![CDATA[Resume]]></name>
  </wpt>
  <wpt lat="45.76241" lon="4.82576">
    <ele>235</ele>
    <name><![CDATA[Pause]]></name>
  </wpt>
  <wpt lat="45.76251" lon="4.82557">
    <ele>244</ele>
    <name><![CDATA[Resume]]></name>
  </wpt>
  <wpt lat="45.76268" lon="4.82527">
    <ele>258</ele>
    <name><![CDATA[Pause]]></name>
  </wpt>
  <wpt lat="45.76257" lon="4.82511">
    <ele>264</ele>
    <name><![CDATA[Resume]]></name>
  </wpt>
  <wpt lat="45.76265" lon="4.82413">
    <ele>283</ele>
    <name><![CDATA[Pause]]></name>
  </wpt>
  <wpt lat="45.76254" lon="4.82393">
    <ele>284</ele>
    <name><![CDATA[Resume]]></name>
  </wpt>
  <wpt lat="45.76277" lon="4.82359">
    <ele>296</ele>
    <name><![CDATA[Pause]]></name>
  </wpt>
  <wpt lat="45.76261" lon="4.82346">
    <ele>298</ele>
    <name><![CDATA[Resume]]></name>
  </wpt>
  <wpt lat="45.76288" lon="4.82327">
    <ele>319</ele>
    <name><![CDATA[Pause]]></name>
  </wpt>
  <wpt lat="45.76272" lon="4.82311">
    <ele>323</ele>
    <name><![CDATA[Resume]]></name>
  </wpt>
  <wpt lat="45.76255" lon="4.82286">
    <ele>332</ele>
    <name><![CDATA[Pause]]></name>
  </wpt>
  <wpt lat="45.76265" lon="4.82268">
    <ele>332</ele>
    <name><![CDATA[Resume]]></name>
  </wpt>
  <wpt lat="45.76982" lon="4.82517">
    <ele>278</ele>
    <name><![CDATA[End]]></name>
  </wpt>
  <trk>
    <name><![CDATA[Fourvière   Croix Rousse n°2_1]]></name>
    <trkseg>
      <trkpt lat="45.76953" lon="4.82494">
        <ele>249</ele>
        <time>2010-11-19T17:50:18Z</time>
      </trkpt>
      <trkpt lat="45.76952" lon="4.82496">
        <ele>252</ele>
        <time>2010-11-19T17:50:19Z</time>
      </trkpt>
      <trkpt lat="45.76952" lon="4.82498">
        <ele>255</ele>
        <time>2010-11-19T17:50:20Z</time>
      </trkpt>
      <trkpt lat="45.76947" lon="4.82502">
        <ele>258</ele>
        <time>2010-11-19T17:50:21Z</time>
      </trkpt>
      <trkpt lat="45.7695" lon="4.82503">
        <ele>257</ele>
        <time>2010-11-19T17:50:22Z</time>
      </trkpt>
      <trkpt lat="45.76956" lon="4.82504">
        <ele>253</ele>
        <time>2010-11-19T17:50:23Z</time>
      </trkpt>
      <trkpt lat="45.76955" lon="4.82507">
        <ele>253</ele>
        <time>2010-11-19T17:50:24Z</time>
      </trkpt>
      <trkpt lat="45.76952" lon="4.82512">
        <ele>253</ele>
        <time>2010-11-19T17:50:25Z</time>
      </trkpt>
      <trkpt lat="45.76952" lon="4.82515">
        <ele>252</ele>
        <time>2010-11-19T17:50:26Z</time>
      </trkpt>
      <trkpt lat="45.7695" lon="4.82515">
        <ele>252</ele>
        <time>2010-11-19T17:50:27Z</time>
      </trkpt>
      <trkpt lat="45.76949" lon="4.82516">
        <ele>252</ele>
        <time>2010-11-19T17:50:28Z</time>
      </trkpt>
      <trkpt lat="45.76948" lon="4.82518">
        <ele>253</ele>
        <time>2010-11-19T17:50:29Z</time>
      </trkpt>
      <trkpt lat="45.76948" lon="4.82521">
        <ele>253</ele>
        <time>2010-11-19T17:50:30Z</time>
      </trkpt>
      <trkpt lat="45.76949" lon="4.82526">
        <ele>252</ele>
        <time>2010-11-19T17:50:31Z</time>
      </trkpt>
      <trkpt lat="45.7695" lon="4.82529">
        <ele>251</ele>
        <time>2010-11-19T17:50:32Z</time>
      </trkpt>
      <trkpt lat="45.7695" lon="4.82532">
        <ele>251</ele>
        <time>2010-11-19T17:50:33Z</time>
      </trkpt>
      <trkpt lat="45.76951" lon="4.82535">
        <ele>251</ele>
        <time>2010-11-19T17:50:34Z</time>
      </trkpt>
      <trkpt lat="45.7695" lon="4.82539">
        <ele>252</ele>
        <time>2010-11-19T17:50:35Z</time>
      </trkpt>
      <trkpt lat="45.7695" lon="4.82544">
        <ele>251</ele>
        <time>2010-11-19T17:50:36Z</time>
      </trkpt>
      <trkpt lat="45.7695" lon="4.82547">
        <ele>251</ele>
        <time>2010-11-19T17:50:37Z</time>
      </trkpt>
      <trkpt lat="45.7695" lon="4.8255">
        <ele>251</ele>
        <time>2010-11-19T17:50:38Z</time>
      </trkpt>
      <trkpt lat="45.76951" lon="4.82555">
        <ele>250</ele>
        <time>2010-11-19T17:50:39Z</time>
      </trkpt>
      <trkpt lat="45.7695" lon="4.82558">
        <ele>249</ele>
        <time>2010-11-19T17:50:40Z</time>
      </trkpt>
      <trkpt lat="45.7695" lon="4.82562">
        <ele>249</ele>
        <time>2010-11-19T17:50:41Z</time>
      </trkpt>
      <trkpt lat="45.7695" lon="4.82565">
        <ele>248</ele>
        <time>2010-11-19T17:50:42Z</time>
      </trkpt>
      <trkpt lat="45.7695" lon="4.82568">
        <ele>247</ele>
        <time>2010-11-19T17:50:43Z</time>
      </trkpt>
      <trkpt lat="45.7695" lon="4.82571">
        <ele>246</ele>
        <time>2010-11-19T17:50:44Z</time>
      </trkpt>
      <trkpt lat="45.76949" lon="4.82574">
        <ele>247</ele>
        <time>2010-11-19T17:50:45Z</time>
      </trkpt>
      <trkpt lat="45.76948" lon="4.82578">
        <ele>246</ele>
        <time>2010-11-19T17:50:46Z</time>
      </trkpt>
      <trkpt lat="45.76949" lon="4.82581">
        <ele>246</ele>
        <time>2010-11-19T17:50:47Z</time>
      </trkpt>
      <trkpt lat="45.76948" lon="4.82584">
        <ele>245</ele>
        <time>2010-11-19T17:50:48Z</time>
      </trkpt>
      <trkpt lat="45.76948" lon="4.82587">
        <ele>245</ele>
        <time>2010-11-19T17:50:49Z</time>
      </trkpt>
      <trkpt lat="45.76946" lon="4.82591">
        <ele>245</ele>
        <time>2010-11-19T17:50:50Z</time>
      </trkpt>
      <trkpt lat="45.76947" lon="4.82593">
        <ele>244</ele>
        <time>2010-11-19T17:50:51Z</time>
      </trkpt>
      <trkpt lat="45.76948" lon="4.82597">
        <ele>244</ele>
        <time>2010-11-19T17:50:52Z</time>
      </trkpt>
      <trkpt lat="45.76948" lon="4.82602">
        <ele>244</ele>
        <time>2010-11-19T17:50:53Z</time>
      </trkpt>
      <trkpt lat="45.76947" lon="4.82605">
        <ele>244</ele>
        <time>2010-11-19T17:50:54Z</time>
      </trkpt>
      <trkpt lat="45.76947" lon="4.8261">
        <ele>244</ele>
        <time>2010-11-19T17:50:55Z</time>
      </trkpt>
      <trkpt lat="45.76947" lon="4.82614">
        <ele>245</ele>
        <time>2010-11-19T17:50:56Z</time>
      </trkpt>
      <trkpt lat="45.76946" lon="4.82618">
        <ele>245</ele>
        <time>2010-11-19T17:50:57Z</time>
      </trkpt>
      <trkpt lat="45.76947" lon="4.82621">
        <ele>245</ele>
        <time>2010-11-19T17:50:58Z</time>
      </trkpt>
      <trkpt lat="45.76947" lon="4.82625">
        <ele>245</ele>
        <time>2010-11-19T17:50:59Z</time>
      </trkpt>
      <trkpt lat="45.76947" lon="4.82628">
        <ele>245</ele>
        <time>2010-11-19T17:51:00Z</time>
      </trkpt>
      <trkpt lat="45.76946" lon="4.82631">
        <ele>245</ele>
        <time>2010-11-19T17:51:01Z</time>
      </trkpt>
      <trkpt lat="45.76946" lon="4.82635">
        <ele>246</ele>
        <time>2010-11-19T17:51:02Z</time>
      </trkpt>
      <trkpt lat="45.76945" lon="4.82639">
        <ele>246</ele>
        <time>2010-11-19T17:51:03Z</time>
      </trkpt>
      <trkpt lat="45.76945" lon="4.82643">
        <ele>246</ele>
        <time>2010-11-19T17:51:04Z</time>
      </trkpt>
      <trkpt lat="45.76946" lon="4.82648">
        <ele>246</ele>
        <time>2010-11-19T17:51:05Z</time>
      </trkpt>
      <trkpt lat="45.76946" lon="4.82651">
        <ele>246</ele>
        <time>2010-11-19T17:51:06Z</time>
      </trkpt>
      <trkpt lat="45.76946" lon="4.82654">
        <ele>246</ele>
        <time>2010-11-19T17:51:07Z</time>
      </trkpt>
      <trkpt lat="45.76947" lon="4.82658">
        <ele>247</ele>
        <time>2010-11-19T17:51:08Z</time>
      </trkpt>
      <trkpt lat="45.76946" lon="4.82662">
        <ele>246</ele>
        <time>2010-11-19T17:51:09Z</time>
      </trkpt>
      <trkpt lat="45.76947" lon="4.82665">
        <ele>246</ele>
        <time>2010-11-19T17:51:10Z</time>
      </trkpt>
      <trkpt lat="45.76947" lon="4.82667">
        <ele>247</ele>
        <time>2010-11-19T17:51:11Z</time>
      </trkpt>
      <trkpt lat="45.76948" lon="4.8267">
        <ele>247</ele>
        <time>2010-11-19T17:51:12Z</time>
      </trkpt>
      <trkpt lat="45.76949" lon="4.82673">
        <ele>247</ele>
        <time>2010-11-19T17:51:13Z</time>
      </trkpt>
      <trkpt lat="45.76949" lon="4.82677">
        <ele>246</ele>
        <time>2010-11-19T17:51:14Z</time>
      </trkpt>
      <trkpt lat="45.7695" lon="4.82683">
        <ele>246</ele>
        <time>2010-11-19T17:51:15Z</time>
      </trkpt>
      <trkpt lat="45.7695" lon="4.82688">
        <ele>245</ele>
        <time>2010-11-19T17:51:16Z</time>
      </trkpt>
      <trkpt lat="45.76951" lon="4.82692">
        <ele>245</ele>
        <time>2010-11-19T17:51:17Z</time>
      </trkpt>
      <trkpt lat="45.76952" lon="4.82697">
        <ele>244</ele>
        <time>2010-11-19T17:51:18Z</time>
      </trkpt>
      <trkpt lat="45.76954" lon="4.82702">
        <ele>243</ele>
        <time>2010-11-19T17:51:19Z</time>
      </trkpt>
      <trkpt lat="45.76955" lon="4.82705">
        <ele>243</ele>
        <time>2010-11-19T17:51:20Z</time>
      </trkpt>
      <trkpt lat="45.76956" lon="4.82709">
        <ele>243</ele>
        <time>2010-11-19T17:51:21Z</time>
      </trkpt>
      <trkpt lat="45.76957" lon="4.82712">
        <ele>242</ele>
        <time>2010-11-19T17:51:22Z</time>
      </trkpt>
      <trkpt lat="45.76958" lon="4.82717">
        <ele>242</ele>
        <time>2010-11-19T17:51:23Z</time>
      </trkpt>
      <trkpt lat="45.7696" lon="4.82721">
        <ele>242</ele>
        <time>2010-11-19T17:51:24Z</time>
      </trkpt>
      <trkpt lat="45.7696" lon="4.82726">
        <ele>242</ele>
        <time>2010-11-19T17:51:25Z</time>
      </trkpt>
      <trkpt lat="45.76961" lon="4.8273">
        <ele>241</ele>
        <time>2010-11-19T17:51:26Z</time>
      </trkpt>
      <trkpt lat="45.7696" lon="4.82733">
        <ele>241</ele>
        <time>2010-11-19T17:51:27Z</time>
      </trkpt>
      <trkpt lat="45.76961" lon="4.82735">
        <ele>241</ele>
        <time>2010-11-19T17:51:28Z</time>
      </trkpt>
      <trkpt lat="45.76961" lon="4.82736">
        <ele>241</ele>
        <time>2010-11-19T17:51:29Z</time>
      </trkpt>
      <trkpt lat="45.76961" lon="4.82738">
        <ele>241</ele>
        <time>2010-11-19T17:51:30Z</time>
      </trkpt>
      <trkpt lat="45.76961" lon="4.8274">
        <ele>242</ele>
        <time>2010-11-19T17:51:31Z</time>
      </trkpt>
      <trkpt lat="45.76962" lon="4.82743">
        <ele>242</ele>
        <time>2010-11-19T17:51:32Z</time>
      </trkpt>
      <trkpt lat="45.76963" lon="4.82747">
        <ele>243</ele>
        <time>2010-11-19T17:51:33Z</time>
      </trkpt>
      <trkpt lat="45.76963" lon="4.82749">
        <ele>243</ele>
        <time>2010-11-19T17:51:34Z</time>
      </trkpt>
      <trkpt lat="45.76963" lon="4.82752">
        <ele>243</ele>
        <time>2010-11-19T17:51:35Z</time>
      </trkpt>
      <trkpt lat="45.76963" lon="4.82753">
        <ele>243</ele>
        <time>2010-11-19T17:51:36Z</time>
      </trkpt>
      <trkpt lat="45.76963" lon="4.82754">
        <ele>244</ele>
        <time>2010-11-19T17:51:37Z</time>
      </trkpt>
      <trkpt lat="45.76963" lon="4.82756">
        <ele>244</ele>
        <time>2010-11-19T17:51:38Z</time>
      </trkpt>
      <trkpt lat="45.76966" lon="4.82762">
        <ele>244.79846191406</ele>
        <time>2010-11-19T17:51:39Z</time>
      </trkpt>
      <trkpt lat="45.76968" lon="4.82768">
        <ele>246</ele>
        <time>2010-11-19T17:51:40Z</time>
      </trkpt>
      <trkpt lat="45.7697" lon="4.82769">
        <ele>246</ele>
        <time>2010-11-19T17:51:41Z</time>
      </trkpt>
      <trkpt lat="45.76969" lon="4.82771">
        <ele>247</ele>
        <time>2010-11-19T17:51:42Z</time>
      </trkpt>
      <trkpt lat="45.76968" lon="4.82775">
        <ele>247</ele>
        <time>2010-11-19T17:51:43Z</time>
      </trkpt>
      <trkpt lat="45.76968" lon="4.82778">
        <ele>247</ele>
        <time>2010-11-19T17:51:44Z</time>
      </trkpt>
      <trkpt lat="45.76967" lon="4.8278">
        <ele>247</ele>
        <time>2010-11-19T17:51:45Z</time>
      </trkpt>
      <trkpt lat="45.76964" lon="4.82782">
        <ele>247</ele>
        <time>2010-11-19T17:51:46Z</time>
      </trkpt>
      <trkpt lat="45.76964" lon="4.82785">
        <ele>248</ele>
        <time>2010-11-19T17:51:47Z</time>
      </trkpt>
      <trkpt lat="45.76964" lon="4.82789">
        <ele>248</ele>
        <time>2010-11-19T17:51:48Z</time>
      </trkpt>
      <trkpt lat="45.76965" lon="4.82791">
        <ele>248</ele>
        <time>2010-11-19T17:51:49Z</time>
      </trkpt>
      <trkpt lat="45.76965" lon="4.82792">
        <ele>248</ele>
        <time>2010-11-19T17:51:50Z</time>
      </trkpt>
      <trkpt lat="45.76965" lon="4.82793">
        <ele>249</ele>
        <time>2010-11-19T17:51:51Z</time>
      </trkpt>
      <trkpt lat="45.76967" lon="4.82795">
        <ele>250</ele>
        <time>2010-11-19T17:51:52Z</time>
      </trkpt>
      <trkpt lat="45.76968" lon="4.828">
        <ele>250</ele>
        <time>2010-11-19T17:51:53Z</time>
      </trkpt>
      <trkpt lat="45.76969" lon="4.82805">
        <ele>250</ele>
        <time>2010-11-19T17:51:54Z</time>
      </trkpt>
      <trkpt lat="45.76969" lon="4.82808">
        <ele>250</ele>
        <time>2010-11-19T17:51:55Z</time>
      </trkpt>
      <trkpt lat="45.76969" lon="4.82811">
        <ele>249</ele>
        <time>2010-11-19T17:51:56Z</time>
      </trkpt>
      <trkpt lat="45.76969" lon="4.82815">
        <ele>249</ele>
        <time>2010-11-19T17:51:57Z</time>
      </trkpt>
      <trkpt lat="45.76969" lon="4.82819">
        <ele>249</ele>
        <time>2010-11-19T17:51:58Z</time>
      </trkpt>
      <trkpt lat="45.76972" lon="4.82824">
        <ele>249</ele>
        <time>2010-11-19T17:51:59Z</time>
      </trkpt>
      <trkpt lat="45.76972" lon="4.8283">
        <ele>249</ele>
        <time>2010-11-19T17:52:00Z</time>
      </trkpt>
      <trkpt lat="45.76973" lon="4.82832">
        <ele>249</ele>
        <time>2010-11-19T17:52:01Z</time>
      </trkpt>
      <trkpt lat="45.76975" lon="4.82839">
        <ele>248</ele>
        <time>2010-11-19T17:52:02Z</time>
      </trkpt>
      <trkpt lat="45.76978" lon="4.82849">
        <ele>244.67926025391</ele>
        <time>2010-11-19T17:52:03Z</time>
      </trkpt>
      <trkpt lat="45.76981" lon="4.82858">
        <ele>241.48616027832</ele>
        <time>2010-11-19T17:52:04Z</time>
      </trkpt>
      <trkpt lat="45.76982" lon="4.82864">
        <ele>240</ele>
        <time>2010-11-19T17:52:05Z</time>
      </trkpt>
      <trkpt lat="45.76984" lon="4.82869">
        <ele>239</ele>
        <time>2010-11-19T17:52:06Z</time>
      </trkpt>
      <trkpt lat="45.76986" lon="4.82873">
        <ele>238</ele>
        <time>2010-11-19T17:52:07Z</time>
      </trkpt>
      <trkpt lat="45.76989" lon="4.82876">
        <ele>237</ele>
        <time>2010-11-19T17:52:08Z</time>
      </trkpt>
      <trkpt lat="45.7699" lon="4.8288">
        <ele>236</ele>
        <time>2010-11-19T17:52:09Z</time>
      </trkpt>
      <trkpt lat="45.76992" lon="4.82885">
        <ele>235</ele>
        <time>2010-11-19T17:52:10Z</time>
      </trkpt>
      <trkpt lat="45.76992" lon="4.82889">
        <ele>235</ele>
        <time>2010-11-19T17:52:11Z</time>
      </trkpt>
      <trkpt lat="45.76993" lon="4.82893">
        <ele>234</ele>
        <time>2010-11-19T17:52:12Z</time>
      </trkpt>
      <trkpt lat="45.76992" lon="4.82896">
        <ele>232</ele>
        <time>2010-11-19T17:52:13Z</time>
      </trkpt>
      <trkpt lat="45.76994" lon="4.829">
        <ele>233</ele>
        <time>2010-11-19T17:52:14Z</time>
      </trkpt>
      <trkpt lat="45.76994" lon="4.82904">
        <ele>232</ele>
        <time>2010-11-19T17:52:15Z</time>
      </trkpt>
      <trkpt lat="45.76995" lon="4.82908">
        <ele>232</ele>
        <time>2010-11-19T17:52:16Z</time>
      </trkpt>
      <trkpt lat="45.76995" lon="4.82912">
        <ele>231</ele>
        <time>2010-11-19T17:52:17Z</time>
      </trkpt>
      <trkpt lat="45.76996" lon="4.82914">
        <ele>230</ele>
        <time>2010-11-19T17:52:18Z</time>
      </trkpt>
      <trkpt lat="45.76991" lon="4.82918">
        <ele>230</ele>
        <time>2010-11-19T17:52:19Z</time>
      </trkpt>
      <trkpt lat="45.76987" lon="4.82923">
        <ele>232</ele>
        <time>2010-11-19T17:52:20Z</time>
      </trkpt>
      <trkpt lat="45.76984" lon="4.82924">
        <ele>232</ele>
        <time>2010-11-19T17:52:21Z</time>
      </trkpt>
      <trkpt lat="45.76982" lon="4.82926">
        <ele>232</ele>
        <time>2010-11-19T17:52:22Z</time>
      </trkpt>
      <trkpt lat="45.76979" lon="4.82929">
        <ele>232</ele>
        <time>2010-11-19T17:52:23Z</time>
      </trkpt>
      <trkpt lat="45.76975" lon="4.8293">
        <ele>232</ele>
        <time>2010-11-19T17:52:24Z</time>
      </trkpt>
      <trkpt lat="45.76972" lon="4.82929">
        <ele>231</ele>
        <time>2010-11-19T17:52:25Z</time>
      </trkpt>
      <trkpt lat="45.76969" lon="4.82927">
        <ele>230</ele>
        <time>2010-11-19T17:52:26Z</time>
      </trkpt>
      <trkpt lat="45.76968" lon="4.82926">
        <ele>231</ele>
        <time>2010-11-19T17:52:27Z</time>
      </trkpt>
      <trkpt lat="45.76966" lon="4.82926">
        <ele>231</ele>
        <time>2010-11-19T17:52:28Z</time>
      </trkpt>
      <trkpt lat="45.76965" lon="4.82925">
        <ele>231</ele>
        <time>2010-11-19T17:52:29Z</time>
      </trkpt>
      <trkpt lat="45.76965" lon="4.82924">
        <ele>233</ele>
        <time>2010-11-19T17:52:30Z</time>
      </trkpt>
      <trkpt lat="45.76965" lon="4.82924">
        <ele>233</ele>
        <time>2010-11-19T17:52:31Z</time>
      </trkpt>
      <trkpt lat="45.76965" lon="4.82925">
        <ele>234</ele>
        <time>2010-11-19T17:52:32Z</time>
      </trkpt>
      <trkpt lat="45.76967" lon="4.8293">
        <ele>234</ele>
        <time>2010-11-19T17:52:33Z</time>
      </trkpt>
      <trkpt lat="45.76968" lon="4.82938">
        <ele>235</ele>
        <time>2010-11-19T17:52:34Z</time>
      </trkpt>
      <trkpt lat="45.76968" lon="4.82946">
        <ele>237</ele>
        <time>2010-11-19T17:52:35Z</time>
      </trkpt>
      <trkpt lat="45.76969" lon="4.82954">
        <ele>238</ele>
        <time>2010-11-19T17:52:36Z</time>
      </trkpt>
      <trkpt lat="45.76971" lon="4.82961">
        <ele>238</ele>
        <time>2010-11-19T17:52:37Z</time>
      </trkpt>
      <trkpt lat="45.76972" lon="4.82966">
        <ele>238</ele>
        <time>2010-11-19T17:52:38Z</time>
      </trkpt>
      <trkpt lat="45.76973" lon="4.8297">
        <ele>238</ele>
        <time>2010-11-19T17:52:39Z</time>
      </trkpt>
      <trkpt lat="45.76975" lon="4.82974">
        <ele>237</ele>
        <time>2010-11-19T17:52:40Z</time>
      </trkpt>
      <trkpt lat="45.76975" lon="4.82977">
        <ele>237</ele>
        <time>2010-11-19T17:52:41Z</time>
      </trkpt>
      <trkpt lat="45.76975" lon="4.8298">
        <ele>237</ele>
        <time>2010-11-19T17:52:42Z</time>
      </trkpt>
      <trkpt lat="45.76975" lon="4.82984">
        <ele>238</ele>
        <time>2010-11-19T17:52:43Z</time>
      </trkpt>
      <trkpt lat="45.76974" lon="4.82987">
        <ele>237</ele>
        <time>2010-11-19T17:52:44Z</time>
      </trkpt>
      <trkpt lat="45.76975" lon="4.82992">
        <ele>237</ele>
        <time>2010-11-19T17:52:45Z</time>
      </trkpt>
      <trkpt lat="45.76976" lon="4.82996">
        <ele>237</ele>
        <time>2010-11-19T17:52:46Z</time>
      </trkpt>
      <trkpt lat="45.76977" lon="4.82999">
        <ele>237</ele>
        <time>2010-11-19T17:52:47Z</time>
      </trkpt>
      <trkpt lat="45.76976" lon="4.83004">
        <ele>237</ele>
        <time>2010-11-19T17:52:48Z</time>
      </trkpt>
      <trkpt lat="45.76973" lon="4.83012">
        <ele>236</ele>
        <time>2010-11-19T17:52:49Z</time>
      </trkpt>
      <trkpt lat="45.76969" lon="4.83018">
        <ele>237</ele>
        <time>2010-11-19T17:52:50Z</time>
      </trkpt>
      <trkpt lat="45.76962" lon="4.83021">
        <ele>238</ele>
        <time>2010-11-19T17:52:51Z</time>
      </trkpt>
      <trkpt lat="45.76962" lon="4.83026">
        <ele>238</ele>
        <time>2010-11-19T17:52:52Z</time>
      </trkpt>
      <trkpt lat="45.76961" lon="4.83029">
        <ele>235</ele>
        <time>2010-11-19T17:52:53Z</time>
      </trkpt>
      <trkpt lat="45.76961" lon="4.83032">
        <ele>234</ele>
        <time>2010-11-19T17:52:54Z</time>
      </trkpt>
      <trkpt lat="45.76961" lon="4.83036">
        <ele>231</ele>
        <time>2010-11-19T17:52:55Z</time>
      </trkpt>
      <trkpt lat="45.76962" lon="4.83039">
        <ele>231</ele>
        <time>2010-11-19T17:52:56Z</time>
      </trkpt>
      <trkpt lat="45.76962" lon="4.83042">
        <ele>231</ele>
        <time>2010-11-19T17:52:57Z</time>
      </trkpt>
      <trkpt lat="45.76963" lon="4.83044">
        <ele>230</ele>
        <time>2010-11-19T17:52:58Z</time>
      </trkpt>
      <trkpt lat="45.76964" lon="4.83048">
        <ele>231</ele>
        <time>2010-11-19T17:52:59Z</time>
      </trkpt>
      <trkpt lat="45.76964" lon="4.83051">
        <ele>231</ele>
        <time>2010-11-19T17:53:00Z</time>
      </trkpt>
      <trkpt lat="45.76964" lon="4.83052">
        <ele>231</ele>
        <time>2010-11-19T17:53:01Z</time>
      </trkpt>
      <trkpt lat="45.76965" lon="4.83057">
        <ele>231</ele>
        <time>2010-11-19T17:53:02Z</time>
      </trkpt>
      <trkpt lat="45.76966" lon="4.83062">
        <ele>231</ele>
        <time>2010-11-19T17:53:03Z</time>
      </trkpt>
      <trkpt lat="45.76966" lon="4.83066">
        <ele>231</ele>
        <time>2010-11-19T17:53:04Z</time>
      </trkpt>
      <trkpt lat="45.76967" lon="4.8307">
        <ele>231</ele>
        <time>2010-11-19T17:53:05Z</time>
      </trkpt>
      <trkpt lat="45.76968" lon="4.83073">
        <ele>232</ele>
        <time>2010-11-19T17:53:06Z</time>
      </trkpt>
      <trkpt lat="45.76968" lon="4.83076">
        <ele>232</ele>
        <time>2010-11-19T17:53:07Z</time>
      </trkpt>
      <trkpt lat="45.7697" lon="4.8308">
        <ele>232</ele>
        <time>2010-11-19T17:53:08Z</time>
      </trkpt>
      <trkpt lat="45.76971" lon="4.83084">
        <ele>232</ele>
        <time>2010-11-19T17:53:09Z</time>
      </trkpt>
      <trkpt lat="45.76971" lon="4.83089">
        <ele>232</ele>
        <time>2010-11-19T17:53:10Z</time>
      </trkpt>
      <trkpt lat="45.76972" lon="4.83093">
        <ele>232</ele>
        <time>2010-11-19T17:53:11Z</time>
      </trkpt>
      <trkpt lat="45.7697" lon="4.83097">
        <ele>232</ele>
        <time>2010-11-19T17:53:12Z</time>
      </trkpt>
      <trkpt lat="45.76969" lon="4.83102">
        <ele>232</ele>
        <time>2010-11-19T17:53:13Z</time>
      </trkpt>
      <trkpt lat="45.76966" lon="4.83107">
        <ele>233</ele>
        <time>2010-11-19T17:53:14Z</time>
      </trkpt>
      <trkpt lat="45.76964" lon="4.83112">
        <ele>234</ele>
        <time>2010-11-19T17:53:15Z</time>
      </trkpt>
      <trkpt lat="45.76958" lon="4.83113">
        <ele>235</ele>
        <time>2010-11-19T17:53:16Z</time>
      </trkpt>
      <trkpt lat="45.76955" lon="4.83115">
        <ele>236</ele>
        <time>2010-11-19T17:53:17Z</time>
      </trkpt>
      <trkpt lat="45.76951" lon="4.83117">
        <ele>238</ele>
        <time>2010-11-19T17:53:18Z</time>
      </trkpt>
      <trkpt lat="45.76948" lon="4.83119">
        <ele>238</ele>
        <time>2010-11-19T17:53:19Z</time>
      </trkpt>
      <trkpt lat="45.76946" lon="4.83122">
        <ele>239</ele>
        <time>2010-11-19T17:53:20Z</time>
      </trkpt>
      <trkpt lat="45.76946" lon="4.83124">
        <ele>240</ele>
        <time>2010-11-19T17:53:21Z</time>
      </trkpt>
      <trkpt lat="45.76945" lon="4.83126">
        <ele>240</ele>
        <time>2010-11-19T17:53:22Z</time>
      </trkpt>
      <trkpt lat="45.76943" lon="4.83131">
        <ele>241</ele>
        <time>2010-11-19T17:53:23Z</time>
      </trkpt>
      <trkpt lat="45.7694" lon="4.83133">
        <ele>243</ele>
        <time>2010-11-19T17:53:24Z</time>
      </trkpt>
      <trkpt lat="45.76938" lon="4.83136">
        <ele>244</ele>
        <time>2010-11-19T17:53:25Z</time>
      </trkpt>
      <trkpt lat="45.76936" lon="4.83138">
        <ele>245</ele>
        <time>2010-11-19T17:53:26Z</time>
      </trkpt>
      <trkpt lat="45.76935" lon="4.83141">
        <ele>246</ele>
        <time>2010-11-19T17:53:27Z</time>
      </trkpt>
      <trkpt lat="45.76933" lon="4.83144">
        <ele>247</ele>
        <time>2010-11-19T17:53:28Z</time>
      </trkpt>
      <trkpt lat="45.76931" lon="4.83147">
        <ele>248</ele>
        <time>2010-11-19T17:53:29Z</time>
      </trkpt>
      <trkpt lat="45.7693" lon="4.83151">
        <ele>249</ele>
        <time>2010-11-19T17:53:30Z</time>
      </trkpt>
      <trkpt lat="45.76927" lon="4.83154">
        <ele>250</ele>
        <time>2010-11-19T17:53:31Z</time>
      </trkpt>
      <trkpt lat="45.76924" lon="4.83156">
        <ele>252</ele>
        <time>2010-11-19T17:53:32Z</time>
      </trkpt>
      <trkpt lat="45.76921" lon="4.83158">
        <ele>252</ele>
        <time>2010-11-19T17:53:33Z</time>
      </trkpt>
      <trkpt lat="45.76919" lon="4.83163">
        <ele>252</ele>
        <time>2010-11-19T17:53:34Z</time>
      </trkpt>
      <trkpt lat="45.76917" lon="4.83166">
        <ele>252</ele>
        <time>2010-11-19T17:53:35Z</time>
      </trkpt>
      <trkpt lat="45.76916" lon="4.8317">
        <ele>252</ele>
        <time>2010-11-19T17:53:36Z</time>
      </trkpt>
      <trkpt lat="45.76912" lon="4.83173">
        <ele>253</ele>
        <time>2010-11-19T17:53:37Z</time>
      </trkpt>
      <trkpt lat="45.76908" lon="4.83175">
        <ele>254</ele>
        <time>2010-11-19T17:53:38Z</time>
      </trkpt>
      <trkpt lat="45.76908" lon="4.83177">
        <ele>254</ele>
        <time>2010-11-19T17:53:39Z</time>
      </trkpt>
      <trkpt lat="45.76905" lon="4.83177">
        <ele>254</ele>
        <time>2010-11-19T17:53:40Z</time>
      </trkpt>
      <trkpt lat="45.76903" lon="4.83177">
        <ele>255</ele>
        <time>2010-11-19T17:53:41Z</time>
      </trkpt>
      <trkpt lat="45.769" lon="4.83175">
        <ele>256</ele>
        <time>2010-11-19T17:53:42Z</time>
      </trkpt>
      <trkpt lat="45.76897" lon="4.83175">
        <ele>256</ele>
        <time>2010-11-19T17:53:43Z</time>
      </trkpt>
      <trkpt lat="45.76897" lon="4.8317">
        <ele>254</ele>
        <time>2010-11-19T17:53:44Z</time>
      </trkpt>
      <trkpt lat="45.76892" lon="4.83168">
        <ele>253</ele>
        <time>2010-11-19T17:53:45Z</time>
      </trkpt>
      <trkpt lat="45.7689" lon="4.83169">
        <ele>253</ele>
        <time>2010-11-19T17:53:46Z</time>
      </trkpt>
      <trkpt lat="45.76886" lon="4.83168">
        <ele>253</ele>
        <time>2010-11-19T17:53:47Z</time>
      </trkpt>
      <trkpt lat="45.7688" lon="4.83168">
        <ele>252</ele>
        <time>2010-11-19T17:53:48Z</time>
      </trkpt>
      <trkpt lat="45.76875" lon="4.83168">
        <ele>252</ele>
        <time>2010-11-19T17:53:49Z</time>
      </trkpt>
      <trkpt lat="45.76872" lon="4.83168">
        <ele>252</ele>
        <time>2010-11-19T17:53:50Z</time>
      </trkpt>
      <trkpt lat="45.76868" lon="4.83167">
        <ele>252</ele>
        <time>2010-11-19T17:53:51Z</time>
      </trkpt>
      <trkpt lat="45.76866" lon="4.83168">
        <ele>252</ele>
        <time>2010-11-19T17:53:52Z</time>
      </trkpt>
      <trkpt lat="45.76863" lon="4.83169">
        <ele>252</ele>
        <time>2010-11-19T17:53:53Z</time>
      </trkpt>
      <trkpt lat="45.76859" lon="4.83169">
        <ele>252</ele>
        <time>2010-11-19T17:53:54Z</time>
      </trkpt>
      <trkpt lat="45.76856" lon="4.83168">
        <ele>252</ele>
        <time>2010-11-19T17:53:55Z</time>
      </trkpt>
      <trkpt lat="45.76853" lon="4.83168">
        <ele>251</ele>
        <time>2010-11-19T17:53:56Z</time>
      </trkpt>
      <trkpt lat="45.76851" lon="4.83167">
        <ele>249</ele>
        <time>2010-11-19T17:53:57Z</time>
      </trkpt>
      <trkpt lat="45.76845" lon="4.83166">
        <ele>245</ele>
        <time>2010-11-19T17:53:58Z</time>
      </trkpt>
      <trkpt lat="45.76842" lon="4.83167">
        <ele>244</ele>
        <time>2010-11-19T17:53:59Z</time>
      </trkpt>
      <trkpt lat="45.76838" lon="4.83168">
        <ele>243</ele>
        <time>2010-11-19T17:54:00Z</time>
      </trkpt>
      <trkpt lat="45.76836" lon="4.83167">
        <ele>243</ele>
        <time>2010-11-19T17:54:01Z</time>
      </trkpt>
      <trkpt lat="45.76834" lon="4.8317">
        <ele>240</ele>
        <time>2010-11-19T17:54:02Z</time>
      </trkpt>
      <trkpt lat="45.76832" lon="4.83172">
        <ele>239</ele>
        <time>2010-11-19T17:54:03Z</time>
      </trkpt>
      <trkpt lat="45.76829" lon="4.83173">
        <ele>240</ele>
        <time>2010-11-19T17:54:04Z</time>
      </trkpt>
      <trkpt lat="45.76827" lon="4.83173">
        <ele>240</ele>
        <time>2010-11-19T17:54:05Z</time>
      </trkpt>
      <trkpt lat="45.76825" lon="4.83173">
        <ele>241</ele>
        <time>2010-11-19T17:54:06Z</time>
      </trkpt>
      <trkpt lat="45.76824" lon="4.8317">
        <ele>243</ele>
        <time>2010-11-19T17:54:07Z</time>
      </trkpt>
      <trkpt lat="45.76822" lon="4.83171">
        <ele>244</ele>
        <time>2010-11-19T17:54:08Z</time>
      </trkpt>
      <trkpt lat="45.76817" lon="4.83175">
        <ele>246.84350585938</ele>
        <time>2010-11-19T17:54:09Z</time>
      </trkpt>
      <trkpt lat="45.76814" lon="4.83176">
        <ele>248</ele>
        <time>2010-11-19T17:54:10Z</time>
      </trkpt>
      <trkpt lat="45.7681" lon="4.83176">
        <ele>250</ele>
        <time>2010-11-19T17:54:11Z</time>
      </trkpt>
      <trkpt lat="45.76806" lon="4.83176">
        <ele>252</ele>
        <time>2010-11-19T17:54:12Z</time>
      </trkpt>
      <trkpt lat="45.76804" lon="4.83177">
        <ele>253</ele>
        <time>2010-11-19T17:54:13Z</time>
      </trkpt>
      <trkpt lat="45.76805" lon="4.8318">
        <ele>253</ele>
        <time>2010-11-19T17:54:14Z</time>
      </trkpt>
      <trkpt lat="45.76807" lon="4.83185">
        <ele>253</ele>
        <time>2010-11-19T17:54:15Z</time>
      </trkpt>
      <trkpt lat="45.76808" lon="4.83189">
        <ele>253</ele>
        <time>2010-11-19T17:54:16Z</time>
      </trkpt>
      <trkpt lat="45.76812" lon="4.83193">
        <ele>254</ele>
        <time>2010-11-19T17:54:17Z</time>
      </trkpt>
      <trkpt lat="45.76813" lon="4.83198">
        <ele>255</ele>
        <time>2010-11-19T17:54:18Z</time>
      </trkpt>
      <trkpt lat="45.76815" lon="4.83204">
        <ele>255</ele>
        <time>2010-11-19T17:54:19Z</time>
      </trkpt>
      <trkpt lat="45.76817" lon="4.83213">
        <ele>255</ele>
        <time>2010-11-19T17:54:20Z</time>
      </trkpt>
      <trkpt lat="45.76818" lon="4.83219">
        <ele>254</ele>
        <time>2010-11-19T17:54:21Z</time>
      </trkpt>
      <trkpt lat="45.7682" lon="4.83224">
        <ele>254</ele>
        <time>2010-11-19T17:54:22Z</time>
      </trkpt>
      <trkpt lat="45.7682" lon="4.83228">
        <ele>255</ele>
        <time>2010-11-19T17:54:23Z</time>
      </trkpt>
      <trkpt lat="45.76821" lon="4.83234">
        <ele>254</ele>
        <time>2010-11-19T17:54:24Z</time>
      </trkpt>
      <trkpt lat="45.76822" lon="4.83238">
        <ele>254</ele>
        <time>2010-11-19T17:54:25Z</time>
      </trkpt>
      <trkpt lat="45.76822" lon="4.83242">
        <ele>253</ele>
        <time>2010-11-19T17:54:26Z</time>
      </trkpt>
      <trkpt lat="45.76818" lon="4.83248">
        <ele>253.93977355957</ele>
        <time>2010-11-19T17:54:27Z</time>
      </trkpt>
      <trkpt lat="45.76814" lon="4.83253">
        <ele>254</ele>
        <time>2010-11-19T17:54:28Z</time>
      </trkpt>
      <trkpt lat="45.76809" lon="4.83254">
        <ele>254</ele>
        <time>2010-11-19T17:54:29Z</time>
      </trkpt>
      <trkpt lat="45.76806" lon="4.83256">
        <ele>254</ele>
        <time>2010-11-19T17:54:30Z</time>
      </trkpt>
      <trkpt lat="45.76802" lon="4.83256">
        <ele>255</ele>
        <time>2010-11-19T17:54:31Z</time>
      </trkpt>
      <trkpt lat="45.76799" lon="4.83257">
        <ele>255</ele>
        <time>2010-11-19T17:54:32Z</time>
      </trkpt>
      <trkpt lat="45.76795" lon="4.83257">
        <ele>254</ele>
        <time>2010-11-19T17:54:33Z</time>
      </trkpt>
      <trkpt lat="45.76792" lon="4.83257">
        <ele>254</ele>
        <time>2010-11-19T17:54:34Z</time>
      </trkpt>
      <trkpt lat="45.76788" lon="4.83255">
        <ele>254</ele>
        <time>2010-11-19T17:54:35Z</time>
      </trkpt>
      <trkpt lat="45.76786" lon="4.83257">
        <ele>255</ele>
        <time>2010-11-19T17:54:36Z</time>
      </trkpt>
      <trkpt lat="45.76781" lon="4.83258">
        <ele>255</ele>
        <time>2010-11-19T17:54:37Z</time>
      </trkpt>
      <trkpt lat="45.76777" lon="4.83258">
        <ele>255</ele>
        <time>2010-11-19T17:54:38Z</time>
      </trkpt>
      <trkpt lat="45.76773" lon="4.83259">
        <ele>255</ele>
        <time>2010-11-19T17:54:39Z</time>
      </trkpt>
      <trkpt lat="45.76771" lon="4.83259">
        <ele>255</ele>
        <time>2010-11-19T17:54:40Z</time>
      </trkpt>
      <trkpt lat="45.76769" lon="4.83258">
        <ele>255</ele>
        <time>2010-11-19T17:54:41Z</time>
      </trkpt>
      <trkpt lat="45.76766" lon="4.83259">
        <ele>255</ele>
        <time>2010-11-19T17:54:42Z</time>
      </trkpt>
      <trkpt lat="45.76761" lon="4.83263">
        <ele>255</ele>
        <time>2010-11-19T17:54:43Z</time>
      </trkpt>
      <trkpt lat="45.76757" lon="4.83268">
        <ele>253</ele>
        <time>2010-11-19T17:54:44Z</time>
      </trkpt>
      <trkpt lat="45.76754" lon="4.83271">
        <ele>252</ele>
        <time>2010-11-19T17:54:45Z</time>
      </trkpt>
      <trkpt lat="45.76752" lon="4.83275">
        <ele>252</ele>
        <time>2010-11-19T17:54:46Z</time>
      </trkpt>
      <trkpt lat="45.76754" lon="4.83276">
        <ele>249</ele>
        <time>2010-11-19T17:54:47Z</time>
      </trkpt>
      <trkpt lat="45.76751" lon="4.83279">
        <ele>248</ele>
        <time>2010-11-19T17:54:48Z</time>
      </trkpt>
      <trkpt lat="45.76751" lon="4.83279">
        <ele>247</ele>
        <time>2010-11-19T17:54:49Z</time>
      </trkpt>
      <trkpt lat="45.76748" lon="4.83281">
        <ele>245</ele>
        <time>2010-11-19T17:54:50Z</time>
      </trkpt>
      <trkpt lat="45.76748" lon="4.83284">
        <ele>241</ele>
        <time>2010-11-19T17:54:51Z</time>
      </trkpt>
      <trkpt lat="45.76747" lon="4.83287">
        <ele>238</ele>
        <time>2010-11-19T17:54:52Z</time>
      </trkpt>
      <trkpt lat="45.76747" lon="4.8329">
        <ele>237</ele>
        <time>2010-11-19T17:54:53Z</time>
      </trkpt>
      <trkpt lat="45.76748" lon="4.83294">
        <ele>236</ele>
        <time>2010-11-19T17:54:54Z</time>
      </trkpt>
      <trkpt lat="45.76747" lon="4.83297">
        <ele>235</ele>
        <time>2010-11-19T17:54:55Z</time>
      </trkpt>
      <trkpt lat="45.76747" lon="4.83299">
        <ele>234</ele>
        <time>2010-11-19T17:54:56Z</time>
      </trkpt>
      <trkpt lat="45.76746" lon="4.833">
        <ele>233</ele>
        <time>2010-11-19T17:54:57Z</time>
      </trkpt>
      <trkpt lat="45.76746" lon="4.83303">
        <ele>233</ele>
        <time>2010-11-19T17:54:58Z</time>
      </trkpt>
      <trkpt lat="45.76746" lon="4.83306">
        <ele>233</ele>
        <time>2010-11-19T17:54:59Z</time>
      </trkpt>
      <trkpt lat="45.76746" lon="4.83308">
        <ele>233</ele>
        <time>2010-11-19T17:55:00Z</time>
      </trkpt>
      <trkpt lat="45.76746" lon="4.8331">
        <ele>233</ele>
        <time>2010-11-19T17:55:01Z</time>
      </trkpt>
      <trkpt lat="45.76746" lon="4.83311">
        <ele>234</ele>
        <time>2010-11-19T17:55:02Z</time>
      </trkpt>
      <trkpt lat="45.76745" lon="4.83312">
        <ele>235</ele>
        <time>2010-11-19T17:55:03Z</time>
      </trkpt>
      <trkpt lat="45.76744" lon="4.83313">
        <ele>236</ele>
        <time>2010-11-19T17:55:04Z</time>
      </trkpt>
      <trkpt lat="45.76744" lon="4.83314">
        <ele>236.51637268066</ele>
        <time>2010-11-19T17:55:05Z</time>
      </trkpt>
      <trkpt lat="45.76743" lon="4.83316">
        <ele>238</ele>
        <time>2010-11-19T17:55:06Z</time>
      </trkpt>
      <trkpt lat="45.76743" lon="4.83317">
        <ele>239</ele>
        <time>2010-11-19T17:55:07Z</time>
      </trkpt>
      <trkpt lat="45.76741" lon="4.8332">
        <ele>240</ele>
        <time>2010-11-19T17:55:08Z</time>
      </trkpt>
      <trkpt lat="45.7674" lon="4.83322">
        <ele>240</ele>
        <time>2010-11-19T17:55:09Z</time>
      </trkpt>
      <trkpt lat="45.7674" lon="4.83324">
        <ele>241</ele>
        <time>2010-11-19T17:55:10Z</time>
      </trkpt>
      <trkpt lat="45.7674" lon="4.83327">
        <ele>240</ele>
        <time>2010-11-19T17:55:11Z</time>
      </trkpt>
      <trkpt lat="45.76739" lon="4.83329">
        <ele>240</ele>
        <time>2010-11-19T17:55:12Z</time>
      </trkpt>
      <trkpt lat="45.7674" lon="4.83333">
        <ele>240</ele>
        <time>2010-11-19T17:55:13Z</time>
      </trkpt>
      <trkpt lat="45.7674" lon="4.83337">
        <ele>239</ele>
        <time>2010-11-19T17:55:14Z</time>
      </trkpt>
      <trkpt lat="45.7674" lon="4.83341">
        <ele>238</ele>
        <time>2010-11-19T17:55:15Z</time>
      </trkpt>
      <trkpt lat="45.76742" lon="4.83344">
        <ele>237</ele>
        <time>2010-11-19T17:55:16Z</time>
      </trkpt>
      <trkpt lat="45.76742" lon="4.83346">
        <ele>237</ele>
        <time>2010-11-19T17:55:17Z</time>
      </trkpt>
      <trkpt lat="45.76743" lon="4.83348">
        <ele>237</ele>
        <time>2010-11-19T17:55:18Z</time>
      </trkpt>
      <trkpt lat="45.76742" lon="4.83349">
        <ele>238</ele>
        <time>2010-11-19T17:55:19Z</time>
      </trkpt>
      <trkpt lat="45.76741" lon="4.83349">
        <ele>238</ele>
        <time>2010-11-19T17:55:20Z</time>
      </trkpt>
      <trkpt lat="45.7674" lon="4.83348">
        <ele>238</ele>
        <time>2010-11-19T17:55:21Z</time>
      </trkpt>
      <trkpt lat="45.76741" lon="4.8335">
        <ele>238</ele>
        <time>2010-11-19T17:55:22Z</time>
      </trkpt>
      <trkpt lat="45.7674" lon="4.83352">
        <ele>239</ele>
        <time>2010-11-19T17:55:23Z</time>
      </trkpt>
      <trkpt lat="45.7674" lon="4.83354">
        <ele>239</ele>
        <time>2010-11-19T17:55:24Z</time>
      </trkpt>
      <trkpt lat="45.7674" lon="4.83354">
        <ele>239</ele>
        <time>2010-11-19T17:55:25Z</time>
      </trkpt>
      <trkpt lat="45.7674" lon="4.83358">
        <ele>239</ele>
        <time>2010-11-19T17:55:26Z</time>
      </trkpt>
      <trkpt lat="45.76739" lon="4.83358">
        <ele>239</ele>
        <time>2010-11-19T17:55:27Z</time>
      </trkpt>
      <trkpt lat="45.76739" lon="4.83357">
        <ele>239</ele>
        <time>2010-11-19T17:55:28Z</time>
      </trkpt>
      <trkpt lat="45.76739" lon="4.83358">
        <ele>240</ele>
        <time>2010-11-19T17:55:29Z</time>
      </trkpt>
      <trkpt lat="45.76739" lon="4.83357">
        <ele>240</ele>
        <time>2010-11-19T17:55:30Z</time>
      </trkpt>
      <trkpt lat="45.76739" lon="4.83358">
        <ele>240</ele>
        <time>2010-11-19T17:55:31Z</time>
      </trkpt>
      <trkpt lat="45.76739" lon="4.83359">
        <ele>241</ele>
        <time>2010-11-19T17:55:32Z</time>
      </trkpt>
      <trkpt lat="45.76739" lon="4.83359">
        <ele>241</ele>
        <time>2010-11-19T17:55:33Z</time>
      </trkpt>
      <trkpt lat="45.76739" lon="4.83359">
        <ele>242</ele>
        <time>2010-11-19T17:55:34Z</time>
      </trkpt>
      <trkpt lat="45.76752" lon="4.83349">
        <ele>234</ele>
        <time>2010-11-19T17:55:59Z</time>
      </trkpt>
      <trkpt lat="45.76754" lon="4.8335">
        <ele>234</ele>
        <time>2010-11-19T17:56:00Z</time>
      </trkpt>
      <trkpt lat="45.76754" lon="4.8335">
        <ele>234</ele>
        <time>2010-11-19T17:56:01Z</time>
      </trkpt>
      <trkpt lat="45.76754" lon="4.8335">
        <ele>235</ele>
        <time>2010-11-19T17:56:02Z</time>
      </trkpt>
      <trkpt lat="45.76754" lon="4.8335">
        <ele>235</ele>
        <time>2010-11-19T17:56:03Z</time>
      </trkpt>
      <trkpt lat="45.76754" lon="4.8335">
        <ele>235</ele>
        <time>2010-11-19T17:56:04Z</time>
      </trkpt>
      <trkpt lat="45.76754" lon="4.8335">
        <ele>235</ele>
        <time>2010-11-19T17:56:05Z</time>
      </trkpt>
      <trkpt lat="45.76752" lon="4.8335">
        <ele>235</ele>
        <time>2010-11-19T17:56:06Z</time>
      </trkpt>
      <trkpt lat="45.76753" lon="4.83349">
        <ele>235</ele>
        <time>2010-11-19T17:56:07Z</time>
      </trkpt>
      <trkpt lat="45.76754" lon="4.83349">
        <ele>235</ele>
        <time>2010-11-19T17:56:08Z</time>
      </trkpt>
      <trkpt lat="45.76754" lon="4.83349">
        <ele>235</ele>
        <time>2010-11-19T17:56:09Z</time>
      </trkpt>
      <trkpt lat="45.76754" lon="4.83347">
        <ele>236</ele>
        <time>2010-11-19T17:56:10Z</time>
      </trkpt>
      <trkpt lat="45.76753" lon="4.83347">
        <ele>236</ele>
        <time>2010-11-19T17:56:11Z</time>
      </trkpt>
      <trkpt lat="45.76754" lon="4.83346">
        <ele>236</ele>
        <time>2010-11-19T17:56:12Z</time>
      </trkpt>
      <trkpt lat="45.76754" lon="4.83346">
        <ele>236</ele>
        <time>2010-11-19T17:56:13Z</time>
      </trkpt>
      <trkpt lat="45.76754" lon="4.83346">
        <ele>236</ele>
        <time>2010-11-19T17:56:14Z</time>
      </trkpt>
      <trkpt lat="45.76753" lon="4.83346">
        <ele>236</ele>
        <time>2010-11-19T17:56:15Z</time>
      </trkpt>
      <trkpt lat="45.76753" lon="4.83346">
        <ele>236</ele>
        <time>2010-11-19T17:56:16Z</time>
      </trkpt>
      <trkpt lat="45.76765" lon="4.83332">
        <ele>227</ele>
        <time>2010-11-19T17:59:04Z</time>
      </trkpt>
      <trkpt lat="45.76766" lon="4.83331">
        <ele>226</ele>
        <time>2010-11-19T17:59:05Z</time>
      </trkpt>
      <trkpt lat="45.76769" lon="4.83329">
        <ele>225</ele>
        <time>2010-11-19T17:59:06Z</time>
      </trkpt>
      <trkpt lat="45.76769" lon="4.83326">
        <ele>225</ele>
        <time>2010-11-19T17:59:07Z</time>
      </trkpt>
      <trkpt lat="45.76771" lon="4.83324">
        <ele>223</ele>
        <time>2010-11-19T17:59:08Z</time>
      </trkpt>
      <trkpt lat="45.76772" lon="4.83323">
        <ele>223</ele>
        <time>2010-11-19T17:59:09Z</time>
      </trkpt>
      <trkpt lat="45.76773" lon="4.83322">
        <ele>222</ele>
        <time>2010-11-19T17:59:10Z</time>
      </trkpt>
      <trkpt lat="45.76774" lon="4.8332">
        <ele>222</ele>
        <time>2010-11-19T17:59:11Z</time>
      </trkpt>
      <trkpt lat="45.76776" lon="4.83317">
        <ele>221</ele>
        <time>2010-11-19T17:59:12Z</time>
      </trkpt>
      <trkpt lat="45.76776" lon="4.83315">
        <ele>221</ele>
        <time>2010-11-19T17:59:13Z</time>
      </trkpt>
      <trkpt lat="45.76776" lon="4.83314">
        <ele>221</ele>
        <time>2010-11-19T17:59:14Z</time>
      </trkpt>
      <trkpt lat="45.76776" lon="4.83311">
        <ele>220</ele>
        <time>2010-11-19T17:59:15Z</time>
      </trkpt>
      <trkpt lat="45.76776" lon="4.83309">
        <ele>220</ele>
        <time>2010-11-19T17:59:16Z</time>
      </trkpt>
      <trkpt lat="45.76776" lon="4.83307">
        <ele>220</ele>
        <time>2010-11-19T17:59:17Z</time>
      </trkpt>
      <trkpt lat="45.76776" lon="4.83306">
        <ele>219</ele>
        <time>2010-11-19T17:59:18Z</time>
      </trkpt>
      <trkpt lat="45.76775" lon="4.83303">
        <ele>219</ele>
        <time>2010-11-19T17:59:19Z</time>
      </trkpt>
      <trkpt lat="45.76774" lon="4.83302">
        <ele>219</ele>
        <time>2010-11-19T17:59:20Z</time>
      </trkpt>
      <trkpt lat="45.76775" lon="4.833">
        <ele>219</ele>
        <time>2010-11-19T17:59:21Z</time>
      </trkpt>
      <trkpt lat="45.76774" lon="4.83298">
        <ele>219</ele>
        <time>2010-11-19T17:59:22Z</time>
      </trkpt>
      <trkpt lat="45.76774" lon="4.83298">
        <ele>219</ele>
        <time>2010-11-19T17:59:23Z</time>
      </trkpt>
      <trkpt lat="45.76774" lon="4.83295">
        <ele>219</ele>
        <time>2010-11-19T17:59:24Z</time>
      </trkpt>
      <trkpt lat="45.76774" lon="4.83292">
        <ele>219</ele>
        <time>2010-11-19T17:59:25Z</time>
      </trkpt>
      <trkpt lat="45.76774" lon="4.8329">
        <ele>218</ele>
        <time>2010-11-19T17:59:26Z</time>
      </trkpt>
      <trkpt lat="45.76774" lon="4.83289">
        <ele>217</ele>
        <time>2010-11-19T17:59:27Z</time>
      </trkpt>
      <trkpt lat="45.76774" lon="4.83287">
        <ele>217</ele>
        <time>2010-11-19T17:59:28Z</time>
      </trkpt>
      <trkpt lat="45.76774" lon="4.83285">
        <ele>217</ele>
        <time>2010-11-19T17:59:29Z</time>
      </trkpt>
      <trkpt lat="45.76776" lon="4.83283">
        <ele>217</ele>
        <time>2010-11-19T17:59:30Z</time>
      </trkpt>
      <trkpt lat="45.76776" lon="4.83281">
        <ele>217</ele>
        <time>2010-11-19T17:59:31Z</time>
      </trkpt>
      <trkpt lat="45.76775" lon="4.83281">
        <ele>218</ele>
        <time>2010-11-19T17:59:32Z</time>
      </trkpt>
      <trkpt lat="45.76775" lon="4.83279">
        <ele>217</ele>
        <time>2010-11-19T17:59:33Z</time>
      </trkpt>
      <trkpt lat="45.76775" lon="4.83278">
        <ele>217</ele>
        <time>2010-11-19T17:59:34Z</time>
      </trkpt>
      <trkpt lat="45.76774" lon="4.83277">
        <ele>217</ele>
        <time>2010-11-19T17:59:35Z</time>
      </trkpt>
      <trkpt lat="45.76774" lon="4.83277">
        <ele>217</ele>
        <time>2010-11-19T17:59:36Z</time>
      </trkpt>
      <trkpt lat="45.76772" lon="4.83277">
        <ele>218</ele>
        <time>2010-11-19T17:59:37Z</time>
      </trkpt>
      <trkpt lat="45.76772" lon="4.83277">
        <ele>218</ele>
        <time>2010-11-19T17:59:38Z</time>
      </trkpt>
      <trkpt lat="45.76771" lon="4.83277">
        <ele>218</ele>
        <time>2010-11-19T17:59:39Z</time>
      </trkpt>
      <trkpt lat="45.76772" lon="4.83276">
        <ele>218</ele>
        <time>2010-11-19T17:59:40Z</time>
      </trkpt>
      <trkpt lat="45.76772" lon="4.83276">
        <ele>218</ele>
        <time>2010-11-19T17:59:41Z</time>
      </trkpt>
      <trkpt lat="45.76772" lon="4.83274">
        <ele>217</ele>
        <time>2010-11-19T17:59:42Z</time>
      </trkpt>
      <trkpt lat="45.76773" lon="4.8327">
        <ele>217</ele>
        <time>2010-11-19T17:59:43Z</time>
      </trkpt>
      <trkpt lat="45.76772" lon="4.83266">
        <ele>216</ele>
        <time>2010-11-19T17:59:44Z</time>
      </trkpt>
      <trkpt lat="45.76772" lon="4.83264">
        <ele>216</ele>
        <time>2010-11-19T17:59:45Z</time>
      </trkpt>
      <trkpt lat="45.76773" lon="4.83261">
        <ele>217</ele>
        <time>2010-11-19T17:59:46Z</time>
      </trkpt>
      <trkpt lat="45.76773" lon="4.83258">
        <ele>216</ele>
        <time>2010-11-19T17:59:47Z</time>
      </trkpt>
      <trkpt lat="45.76773" lon="4.83254">
        <ele>216</ele>
        <time>2010-11-19T17:59:48Z</time>
      </trkpt>
      <trkpt lat="45.76774" lon="4.8325">
        <ele>216</ele>
        <time>2010-11-19T17:59:49Z</time>
      </trkpt>
      <trkpt lat="45.76773" lon="4.83247">
        <ele>216</ele>
        <time>2010-11-19T17:59:50Z</time>
      </trkpt>
      <trkpt lat="45.76774" lon="4.83242">
        <ele>215</ele>
        <time>2010-11-19T17:59:51Z</time>
      </trkpt>
      <trkpt lat="45.76773" lon="4.8324">
        <ele>215</ele>
        <time>2010-11-19T17:59:52Z</time>
      </trkpt>
      <trkpt lat="45.76773" lon="4.83237">
        <ele>215</ele>
        <time>2010-11-19T17:59:53Z</time>
      </trkpt>
      <trkpt lat="45.76772" lon="4.83232">
        <ele>215</ele>
        <time>2010-11-19T17:59:54Z</time>
      </trkpt>
      <trkpt lat="45.76771" lon="4.83229">
        <ele>215</ele>
        <time>2010-11-19T17:59:55Z</time>
      </trkpt>
      <trkpt lat="45.7677" lon="4.83227">
        <ele>215</ele>
        <time>2010-11-19T17:59:56Z</time>
      </trkpt>
      <trkpt lat="45.76769" lon="4.83221">
        <ele>216</ele>
        <time>2010-11-19T17:59:57Z</time>
      </trkpt>
      <trkpt lat="45.76767" lon="4.83217">
        <ele>216</ele>
        <time>2010-11-19T17:59:58Z</time>
      </trkpt>
      <trkpt lat="45.76766" lon="4.83215">
        <ele>216</ele>
        <time>2010-11-19T17:59:59Z</time>
      </trkpt>
      <trkpt lat="45.76765" lon="4.83211">
        <ele>216</ele>
        <time>2010-11-19T18:00:00Z</time>
      </trkpt>
      <trkpt lat="45.76764" lon="4.83208">
        <ele>216</ele>
        <time>2010-11-19T18:00:01Z</time>
      </trkpt>
      <trkpt lat="45.76764" lon="4.83204">
        <ele>216</ele>
        <time>2010-11-19T18:00:02Z</time>
      </trkpt>
      <trkpt lat="45.76763" lon="4.832">
        <ele>216</ele>
        <time>2010-11-19T18:00:03Z</time>
      </trkpt>
      <trkpt lat="45.76765" lon="4.83197">
        <ele>216</ele>
        <time>2010-11-19T18:00:04Z</time>
      </trkpt>
      <trkpt lat="45.76763" lon="4.83195">
        <ele>216</ele>
        <time>2010-11-19T18:00:05Z</time>
      </trkpt>
      <trkpt lat="45.76763" lon="4.8319">
        <ele>216</ele>
        <time>2010-11-19T18:00:06Z</time>
      </trkpt>
      <trkpt lat="45.76762" lon="4.83185">
        <ele>216</ele>
        <time>2010-11-19T18:00:07Z</time>
      </trkpt>
      <trkpt lat="45.76761" lon="4.83183">
        <ele>217</ele>
        <time>2010-11-19T18:00:08Z</time>
      </trkpt>
      <trkpt lat="45.7676" lon="4.83178">
        <ele>216</ele>
        <time>2010-11-19T18:00:09Z</time>
      </trkpt>
      <trkpt lat="45.76761" lon="4.83176">
        <ele>216</ele>
        <time>2010-11-19T18:00:10Z</time>
      </trkpt>
      <trkpt lat="45.76762" lon="4.83173">
        <ele>217</ele>
        <time>2010-11-19T18:00:11Z</time>
      </trkpt>
      <trkpt lat="45.76759" lon="4.8317">
        <ele>217</ele>
        <time>2010-11-19T18:00:12Z</time>
      </trkpt>
      <trkpt lat="45.76757" lon="4.8317">
        <ele>216</ele>
        <time>2010-11-19T18:00:13Z</time>
      </trkpt>
      <trkpt lat="45.76754" lon="4.83167">
        <ele>217</ele>
        <time>2010-11-19T18:00:14Z</time>
      </trkpt>
      <trkpt lat="45.76752" lon="4.83165">
        <ele>217</ele>
        <time>2010-11-19T18:00:15Z</time>
      </trkpt>
      <trkpt lat="45.76753" lon="4.83163">
        <ele>216</ele>
        <time>2010-11-19T18:00:16Z</time>
      </trkpt>
      <trkpt lat="45.76752" lon="4.83161">
        <ele>216</ele>
        <time>2010-11-19T18:00:17Z</time>
      </trkpt>
      <trkpt lat="45.76752" lon="4.83159">
        <ele>216</ele>
        <time>2010-11-19T18:00:18Z</time>
      </trkpt>
      <trkpt lat="45.76754" lon="4.83155">
        <ele>217</ele>
        <time>2010-11-19T18:00:19Z</time>
      </trkpt>
      <trkpt lat="45.76754" lon="4.83152">
        <ele>217</ele>
        <time>2010-11-19T18:00:20Z</time>
      </trkpt>
      <trkpt lat="45.76755" lon="4.8315">
        <ele>216</ele>
        <time>2010-11-19T18:00:21Z</time>
      </trkpt>
      <trkpt lat="45.76755" lon="4.83148">
        <ele>216</ele>
        <time>2010-11-19T18:00:22Z</time>
      </trkpt>
      <trkpt lat="45.76754" lon="4.83144">
        <ele>216</ele>
        <time>2010-11-19T18:00:23Z</time>
      </trkpt>
      <trkpt lat="45.76752" lon="4.83139">
        <ele>216</ele>
        <time>2010-11-19T18:00:24Z</time>
      </trkpt>
      <trkpt lat="45.76753" lon="4.83136">
        <ele>216</ele>
        <time>2010-11-19T18:00:25Z</time>
      </trkpt>
      <trkpt lat="45.76752" lon="4.83132">
        <ele>215</ele>
        <time>2010-11-19T18:00:26Z</time>
      </trkpt>
      <trkpt lat="45.76751" lon="4.83129">
        <ele>215</ele>
        <time>2010-11-19T18:00:27Z</time>
      </trkpt>
      <trkpt lat="45.76751" lon="4.83127">
        <ele>215</ele>
        <time>2010-11-19T18:00:28Z</time>
      </trkpt>
      <trkpt lat="45.7675" lon="4.83125">
        <ele>215</ele>
        <time>2010-11-19T18:00:29Z</time>
      </trkpt>
      <trkpt lat="45.7675" lon="4.83122">
        <ele>215</ele>
        <time>2010-11-19T18:00:30Z</time>
      </trkpt>
      <trkpt lat="45.7675" lon="4.83118">
        <ele>215</ele>
        <time>2010-11-19T18:00:31Z</time>
      </trkpt>
      <trkpt lat="45.76748" lon="4.83115">
        <ele>215</ele>
        <time>2010-11-19T18:00:32Z</time>
      </trkpt>
      <trkpt lat="45.76746" lon="4.83113">
        <ele>215</ele>
        <time>2010-11-19T18:00:33Z</time>
      </trkpt>
      <trkpt lat="45.76743" lon="4.83109">
        <ele>215</ele>
        <time>2010-11-19T18:00:34Z</time>
      </trkpt>
      <trkpt lat="45.76742" lon="4.83104">
        <ele>215</ele>
        <time>2010-11-19T18:00:35Z</time>
      </trkpt>
      <trkpt lat="45.76741" lon="4.83102">
        <ele>214</ele>
        <time>2010-11-19T18:00:36Z</time>
      </trkpt>
      <trkpt lat="45.76739" lon="4.83099">
        <ele>214</ele>
        <time>2010-11-19T18:00:37Z</time>
      </trkpt>
      <trkpt lat="45.76738" lon="4.83095">
        <ele>214</ele>
        <time>2010-11-19T18:00:38Z</time>
      </trkpt>
      <trkpt lat="45.76737" lon="4.83091">
        <ele>214</ele>
        <time>2010-11-19T18:00:39Z</time>
      </trkpt>
      <trkpt lat="45.76735" lon="4.83087">
        <ele>215</ele>
        <time>2010-11-19T18:00:40Z</time>
      </trkpt>
      <trkpt lat="45.76736" lon="4.83084">
        <ele>214</ele>
        <time>2010-11-19T18:00:41Z</time>
      </trkpt>
      <trkpt lat="45.76735" lon="4.83081">
        <ele>214</ele>
        <time>2010-11-19T18:00:42Z</time>
      </trkpt>
      <trkpt lat="45.76735" lon="4.8308">
        <ele>214</ele>
        <time>2010-11-19T18:00:43Z</time>
      </trkpt>
      <trkpt lat="45.76734" lon="4.83076">
        <ele>214</ele>
        <time>2010-11-19T18:00:44Z</time>
      </trkpt>
      <trkpt lat="45.76733" lon="4.83072">
        <ele>213</ele>
        <time>2010-11-19T18:00:45Z</time>
      </trkpt>
      <trkpt lat="45.76732" lon="4.83068">
        <ele>213</ele>
        <time>2010-11-19T18:00:46Z</time>
      </trkpt>
      <trkpt lat="45.7673" lon="4.83064">
        <ele>214</ele>
        <time>2010-11-19T18:00:47Z</time>
      </trkpt>
      <trkpt lat="45.76729" lon="4.83061">
        <ele>214</ele>
        <time>2010-11-19T18:00:48Z</time>
      </trkpt>
      <trkpt lat="45.76727" lon="4.83059">
        <ele>214</ele>
        <time>2010-11-19T18:00:49Z</time>
      </trkpt>
      <trkpt lat="45.76728" lon="4.83057">
        <ele>214</ele>
        <time>2010-11-19T18:00:50Z</time>
      </trkpt>
      <trkpt lat="45.76727" lon="4.83054">
        <ele>214</ele>
        <time>2010-11-19T18:00:51Z</time>
      </trkpt>
      <trkpt lat="45.76726" lon="4.8305">
        <ele>213</ele>
        <time>2010-11-19T18:00:52Z</time>
      </trkpt>
      <trkpt lat="45.76724" lon="4.83046">
        <ele>213</ele>
        <time>2010-11-19T18:00:53Z</time>
      </trkpt>
      <trkpt lat="45.76722" lon="4.83043">
        <ele>214</ele>
        <time>2010-11-19T18:00:54Z</time>
      </trkpt>
      <trkpt lat="45.7672" lon="4.83041">
        <ele>214</ele>
        <time>2010-11-19T18:00:55Z</time>
      </trkpt>
      <trkpt lat="45.76719" lon="4.83038">
        <ele>214</ele>
        <time>2010-11-19T18:00:56Z</time>
      </trkpt>
      <trkpt lat="45.76719" lon="4.83035">
        <ele>213</ele>
        <time>2010-11-19T18:00:57Z</time>
      </trkpt>
      <trkpt lat="45.76717" lon="4.8303">
        <ele>213</ele>
        <time>2010-11-19T18:00:58Z</time>
      </trkpt>
      <trkpt lat="45.76715" lon="4.83028">
        <ele>213</ele>
        <time>2010-11-19T18:00:59Z</time>
      </trkpt>
      <trkpt lat="45.76713" lon="4.83026">
        <ele>212</ele>
        <time>2010-11-19T18:01:00Z</time>
      </trkpt>
      <trkpt lat="45.7671" lon="4.83025">
        <ele>211.03768920898</ele>
        <time>2010-11-19T18:01:01Z</time>
      </trkpt>
      <trkpt lat="45.7671" lon="4.83021">
        <ele>211</ele>
        <time>2010-11-19T18:01:02Z</time>
      </trkpt>
      <trkpt lat="45.7671" lon="4.83016">
        <ele>209</ele>
        <time>2010-11-19T18:01:03Z</time>
      </trkpt>
      <trkpt lat="45.76708" lon="4.83013">
        <ele>209</ele>
        <time>2010-11-19T18:01:04Z</time>
      </trkpt>
      <trkpt lat="45.76706" lon="4.83011">
        <ele>209</ele>
        <time>2010-11-19T18:01:05Z</time>
      </trkpt>
      <trkpt lat="45.76705" lon="4.83008">
        <ele>209</ele>
        <time>2010-11-19T18:01:06Z</time>
      </trkpt>
      <trkpt lat="45.767" lon="4.83005">
        <ele>213</ele>
        <time>2010-11-19T18:01:07Z</time>
      </trkpt>
      <trkpt lat="45.76699" lon="4.83005">
        <ele>211</ele>
        <time>2010-11-19T18:01:08Z</time>
      </trkpt>
      <trkpt lat="45.76698" lon="4.83004">
        <ele>212</ele>
        <time>2010-11-19T18:01:09Z</time>
      </trkpt>
      <trkpt lat="45.76698" lon="4.83003">
        <ele>212</ele>
        <time>2010-11-19T18:01:10Z</time>
      </trkpt>
      <trkpt lat="45.76697" lon="4.83003">
        <ele>211</ele>
        <time>2010-11-19T18:01:11Z</time>
      </trkpt>
      <trkpt lat="45.76697" lon="4.83003">
        <ele>212</ele>
        <time>2010-11-19T18:01:12Z</time>
      </trkpt>
      <trkpt lat="45.76697" lon="4.83003">
        <ele>212</ele>
        <time>2010-11-19T18:01:13Z</time>
      </trkpt>
      <trkpt lat="45.76697" lon="4.83002">
        <ele>212</ele>
        <time>2010-11-19T18:01:14Z</time>
      </trkpt>
      <trkpt lat="45.76697" lon="4.83002">
        <ele>213</ele>
        <time>2010-11-19T18:01:15Z</time>
      </trkpt>
      <trkpt lat="45.76697" lon="4.83002">
        <ele>212</ele>
        <time>2010-11-19T18:01:16Z</time>
      </trkpt>
      <trkpt lat="45.76697" lon="4.83001">
        <ele>212</ele>
        <time>2010-11-19T18:01:17Z</time>
      </trkpt>
      <trkpt lat="45.76697" lon="4.83001">
        <ele>212</ele>
        <time>2010-11-19T18:01:18Z</time>
      </trkpt>
      <trkpt lat="45.76697" lon="4.83001">
        <ele>212</ele>
        <time>2010-11-19T18:01:19Z</time>
      </trkpt>
      <trkpt lat="45.76697" lon="4.83001">
        <ele>212</ele>
        <time>2010-11-19T18:01:20Z</time>
      </trkpt>
      <trkpt lat="45.76697" lon="4.83001">
        <ele>212</ele>
        <time>2010-11-19T18:01:21Z</time>
      </trkpt>
      <trkpt lat="45.76697" lon="4.83001">
        <ele>212</ele>
        <time>2010-11-19T18:01:22Z</time>
      </trkpt>
      <trkpt lat="45.76697" lon="4.83001">
        <ele>212</ele>
        <time>2010-11-19T18:01:23Z</time>
      </trkpt>
      <trkpt lat="45.76697" lon="4.83001">
        <ele>212</ele>
        <time>2010-11-19T18:01:24Z</time>
      </trkpt>
      <trkpt lat="45.7668" lon="4.82991">
        <ele>215</ele>
        <time>2010-11-19T18:01:42Z</time>
      </trkpt>
      <trkpt lat="45.76678" lon="4.82991">
        <ele>214</ele>
        <time>2010-11-19T18:01:43Z</time>
      </trkpt>
      <trkpt lat="45.76676" lon="4.82991">
        <ele>214</ele>
        <time>2010-11-19T18:01:44Z</time>
      </trkpt>
      <trkpt lat="45.76675" lon="4.82989">
        <ele>213</ele>
        <time>2010-11-19T18:01:45Z</time>
      </trkpt>
      <trkpt lat="45.76674" lon="4.82986">
        <ele>213</ele>
        <time>2010-11-19T18:01:46Z</time>
      </trkpt>
      <trkpt lat="45.76673" lon="4.82984">
        <ele>213</ele>
        <time>2010-11-19T18:01:47Z</time>
      </trkpt>
      <trkpt lat="45.76671" lon="4.82981">
        <ele>213</ele>
        <time>2010-11-19T18:01:48Z</time>
      </trkpt>
      <trkpt lat="45.76671" lon="4.82978">
        <ele>212</ele>
        <time>2010-11-19T18:01:49Z</time>
      </trkpt>
      <trkpt lat="45.76669" lon="4.82974">
        <ele>212</ele>
        <time>2010-11-19T18:01:50Z</time>
      </trkpt>
      <trkpt lat="45.76668" lon="4.8297">
        <ele>213</ele>
        <time>2010-11-19T18:01:51Z</time>
      </trkpt>
      <trkpt lat="45.76668" lon="4.82966">
        <ele>213</ele>
        <time>2010-11-19T18:01:52Z</time>
      </trkpt>
      <trkpt lat="45.76666" lon="4.82962">
        <ele>214</ele>
        <time>2010-11-19T18:01:53Z</time>
      </trkpt>
      <trkpt lat="45.76665" lon="4.82958">
        <ele>214</ele>
        <time>2010-11-19T18:01:54Z</time>
      </trkpt>
      <trkpt lat="45.76662" lon="4.82954">
        <ele>215</ele>
        <time>2010-11-19T18:01:55Z</time>
      </trkpt>
      <trkpt lat="45.76662" lon="4.82952">
        <ele>215</ele>
        <time>2010-11-19T18:01:56Z</time>
      </trkpt>
      <trkpt lat="45.7666" lon="4.82948">
        <ele>215</ele>
        <time>2010-11-19T18:01:57Z</time>
      </trkpt>
      <trkpt lat="45.76658" lon="4.82944">
        <ele>215</ele>
        <time>2010-11-19T18:01:58Z</time>
      </trkpt>
      <trkpt lat="45.76657" lon="4.8294">
        <ele>216</ele>
        <time>2010-11-19T18:01:59Z</time>
      </trkpt>
      <trkpt lat="45.76655" lon="4.82937">
        <ele>216</ele>
        <time>2010-11-19T18:02:00Z</time>
      </trkpt>
      <trkpt lat="45.76655" lon="4.82933">
        <ele>216</ele>
        <time>2010-11-19T18:02:01Z</time>
      </trkpt>
      <trkpt lat="45.76653" lon="4.8293">
        <ele>216</ele>
        <time>2010-11-19T18:02:02Z</time>
      </trkpt>
      <trkpt lat="45.76651" lon="4.82923">
        <ele>217</ele>
        <time>2010-11-19T18:02:03Z</time>
      </trkpt>
      <trkpt lat="45.7665" lon="4.82919">
        <ele>216</ele>
        <time>2010-11-19T18:02:04Z</time>
      </trkpt>
      <trkpt lat="45.76649" lon="4.82915">
        <ele>216</ele>
        <time>2010-11-19T18:02:05Z</time>
      </trkpt>
      <trkpt lat="45.76648" lon="4.82911">
        <ele>216</ele>
        <time>2010-11-19T18:02:06Z</time>
      </trkpt>
      <trkpt lat="45.76647" lon="4.82908">
        <ele>216</ele>
        <time>2010-11-19T18:02:07Z</time>
      </trkpt>
      <trkpt lat="45.76646" lon="4.82905">
        <ele>217</ele>
        <time>2010-11-19T18:02:08Z</time>
      </trkpt>
      <trkpt lat="45.76644" lon="4.82898">
        <ele>216</ele>
        <time>2010-11-19T18:02:09Z</time>
      </trkpt>
      <trkpt lat="45.76644" lon="4.82895">
        <ele>217</ele>
        <time>2010-11-19T18:02:10Z</time>
      </trkpt>
      <trkpt lat="45.76643" lon="4.82892">
        <ele>217</ele>
        <time>2010-11-19T18:02:11Z</time>
      </trkpt>
      <trkpt lat="45.76643" lon="4.82889">
        <ele>217</ele>
        <time>2010-11-19T18:02:12Z</time>
      </trkpt>
      <trkpt lat="45.76642" lon="4.82885">
        <ele>217</ele>
        <time>2010-11-19T18:02:13Z</time>
      </trkpt>
      <trkpt lat="45.76641" lon="4.82881">
        <ele>217</ele>
        <time>2010-11-19T18:02:14Z</time>
      </trkpt>
      <trkpt lat="45.7664" lon="4.82876">
        <ele>217</ele>
        <time>2010-11-19T18:02:15Z</time>
      </trkpt>
      <trkpt lat="45.76639" lon="4.82872">
        <ele>216</ele>
        <time>2010-11-19T18:02:16Z</time>
      </trkpt>
      <trkpt lat="45.76639" lon="4.82868">
        <ele>216</ele>
        <time>2010-11-19T18:02:17Z</time>
      </trkpt>
      <trkpt lat="45.76639" lon="4.82865">
        <ele>217</ele>
        <time>2010-11-19T18:02:18Z</time>
      </trkpt>
      <trkpt lat="45.76638" lon="4.82862">
        <ele>217</ele>
        <time>2010-11-19T18:02:19Z</time>
      </trkpt>
      <trkpt lat="45.76637" lon="4.8286">
        <ele>217</ele>
        <time>2010-11-19T18:02:20Z</time>
      </trkpt>
      <trkpt lat="45.76636" lon="4.82858">
        <ele>216</ele>
        <time>2010-11-19T18:02:21Z</time>
      </trkpt>
      <trkpt lat="45.76636" lon="4.82857">
        <ele>216</ele>
        <time>2010-11-19T18:02:22Z</time>
      </trkpt>
      <trkpt lat="45.76637" lon="4.82854">
        <ele>217</ele>
        <time>2010-11-19T18:02:23Z</time>
      </trkpt>
      <trkpt lat="45.76633" lon="4.82852">
        <ele>217</ele>
        <time>2010-11-19T18:02:24Z</time>
      </trkpt>
      <trkpt lat="45.76633" lon="4.82851">
        <ele>216</ele>
        <time>2010-11-19T18:02:25Z</time>
      </trkpt>
      <trkpt lat="45.76631" lon="4.82849">
        <ele>216</ele>
        <time>2010-11-19T18:02:26Z</time>
      </trkpt>
      <trkpt lat="45.76629" lon="4.82846">
        <ele>217</ele>
        <time>2010-11-19T18:02:27Z</time>
      </trkpt>
      <trkpt lat="45.76627" lon="4.82843">
        <ele>217</ele>
        <time>2010-11-19T18:02:28Z</time>
      </trkpt>
      <trkpt lat="45.76626" lon="4.82842">
        <ele>217</ele>
        <time>2010-11-19T18:02:29Z</time>
      </trkpt>
      <trkpt lat="45.76624" lon="4.82838">
        <ele>217</ele>
        <time>2010-11-19T18:02:30Z</time>
      </trkpt>
      <trkpt lat="45.76623" lon="4.82835">
        <ele>217</ele>
        <time>2010-11-19T18:02:31Z</time>
      </trkpt>
      <trkpt lat="45.76622" lon="4.82834">
        <ele>217</ele>
        <time>2010-11-19T18:02:32Z</time>
      </trkpt>
      <trkpt lat="45.76621" lon="4.82831">
        <ele>217</ele>
        <time>2010-11-19T18:02:33Z</time>
      </trkpt>
      <trkpt lat="45.7662" lon="4.8283">
        <ele>217</ele>
        <time>2010-11-19T18:02:34Z</time>
      </trkpt>
      <trkpt lat="45.76619" lon="4.82828">
        <ele>217</ele>
        <time>2010-11-19T18:02:35Z</time>
      </trkpt>
      <trkpt lat="45.76618" lon="4.82827">
        <ele>217</ele>
        <time>2010-11-19T18:02:36Z</time>
      </trkpt>
      <trkpt lat="45.76617" lon="4.82823">
        <ele>217</ele>
        <time>2010-11-19T18:02:37Z</time>
      </trkpt>
      <trkpt lat="45.76617" lon="4.8282">
        <ele>217</ele>
        <time>2010-11-19T18:02:38Z</time>
      </trkpt>
      <trkpt lat="45.76617" lon="4.82817">
        <ele>217</ele>
        <time>2010-11-19T18:02:39Z</time>
      </trkpt>
      <trkpt lat="45.76615" lon="4.82816">
        <ele>218</ele>
        <time>2010-11-19T18:02:40Z</time>
      </trkpt>
      <trkpt lat="45.76614" lon="4.82814">
        <ele>218</ele>
        <time>2010-11-19T18:02:41Z</time>
      </trkpt>
      <trkpt lat="45.76612" lon="4.82812">
        <ele>218</ele>
        <time>2010-11-19T18:02:42Z</time>
      </trkpt>
      <trkpt lat="45.76612" lon="4.82808">
        <ele>218</ele>
        <time>2010-11-19T18:02:43Z</time>
      </trkpt>
      <trkpt lat="45.76612" lon="4.82806">
        <ele>219</ele>
        <time>2010-11-19T18:02:44Z</time>
      </trkpt>
      <trkpt lat="45.76614" lon="4.82799">
        <ele>219.73522949219</ele>
        <time>2010-11-19T18:02:45Z</time>
      </trkpt>
      <trkpt lat="45.76615" lon="4.82789">
        <ele>220</ele>
        <time>2010-11-19T18:02:46Z</time>
      </trkpt>
      <trkpt lat="45.76618" lon="4.82783">
        <ele>221</ele>
        <time>2010-11-19T18:02:47Z</time>
      </trkpt>
      <trkpt lat="45.76617" lon="4.82776">
        <ele>221</ele>
        <time>2010-11-19T18:02:48Z</time>
      </trkpt>
      <trkpt lat="45.76615" lon="4.8277">
        <ele>221</ele>
        <time>2010-11-19T18:02:49Z</time>
      </trkpt>
      <trkpt lat="45.76614" lon="4.82765">
        <ele>221</ele>
        <time>2010-11-19T18:02:50Z</time>
      </trkpt>
      <trkpt lat="45.76611" lon="4.82761">
        <ele>222</ele>
        <time>2010-11-19T18:02:51Z</time>
      </trkpt>
      <trkpt lat="45.7661" lon="4.82757">
        <ele>224</ele>
        <time>2010-11-19T18:02:52Z</time>
      </trkpt>
      <trkpt lat="45.76609" lon="4.82753">
        <ele>223</ele>
        <time>2010-11-19T18:02:53Z</time>
      </trkpt>
      <trkpt lat="45.76608" lon="4.8275">
        <ele>224</ele>
        <time>2010-11-19T18:02:54Z</time>
      </trkpt>
      <trkpt lat="45.76607" lon="4.82748">
        <ele>223</ele>
        <time>2010-11-19T18:02:55Z</time>
      </trkpt>
      <trkpt lat="45.76604" lon="4.82744">
        <ele>223</ele>
        <time>2010-11-19T18:02:56Z</time>
      </trkpt>
      <trkpt lat="45.76602" lon="4.82741">
        <ele>223</ele>
        <time>2010-11-19T18:02:57Z</time>
      </trkpt>
      <trkpt lat="45.766" lon="4.82738">
        <ele>222</ele>
        <time>2010-11-19T18:02:58Z</time>
      </trkpt>
      <trkpt lat="45.76597" lon="4.82735">
        <ele>222</ele>
        <time>2010-11-19T18:02:59Z</time>
      </trkpt>
      <trkpt lat="45.76596" lon="4.82732">
        <ele>223</ele>
        <time>2010-11-19T18:03:00Z</time>
      </trkpt>
      <trkpt lat="45.76596" lon="4.82731">
        <ele>223</ele>
        <time>2010-11-19T18:03:01Z</time>
      </trkpt>
      <trkpt lat="45.76595" lon="4.82728">
        <ele>223</ele>
        <time>2010-11-19T18:03:02Z</time>
      </trkpt>
      <trkpt lat="45.76592" lon="4.82726">
        <ele>223</ele>
        <time>2010-11-19T18:03:03Z</time>
      </trkpt>
      <trkpt lat="45.76591" lon="4.82725">
        <ele>223</ele>
        <time>2010-11-19T18:03:04Z</time>
      </trkpt>
      <trkpt lat="45.7659" lon="4.82725">
        <ele>223</ele>
        <time>2010-11-19T18:03:05Z</time>
      </trkpt>
      <trkpt lat="45.76589" lon="4.82721">
        <ele>224</ele>
        <time>2010-11-19T18:03:06Z</time>
      </trkpt>
      <trkpt lat="45.76589" lon="4.82718">
        <ele>224</ele>
        <time>2010-11-19T18:03:07Z</time>
      </trkpt>
      <trkpt lat="45.76589" lon="4.82714">
        <ele>225</ele>
        <time>2010-11-19T18:03:08Z</time>
      </trkpt>
      <trkpt lat="45.76589" lon="4.82712">
        <ele>225</ele>
        <time>2010-11-19T18:03:09Z</time>
      </trkpt>
      <trkpt lat="45.76589" lon="4.82708">
        <ele>226</ele>
        <time>2010-11-19T18:03:10Z</time>
      </trkpt>
      <trkpt lat="45.76592" lon="4.82705">
        <ele>227</ele>
        <time>2010-11-19T18:03:11Z</time>
      </trkpt>
      <trkpt lat="45.76593" lon="4.82703">
        <ele>227</ele>
        <time>2010-11-19T18:03:12Z</time>
      </trkpt>
      <trkpt lat="45.76593" lon="4.82701">
        <ele>227</ele>
        <time>2010-11-19T18:03:13Z</time>
      </trkpt>
      <trkpt lat="45.76593" lon="4.82698">
        <ele>227</ele>
        <time>2010-11-19T18:03:14Z</time>
      </trkpt>
      <trkpt lat="45.76592" lon="4.82696">
        <ele>227</ele>
        <time>2010-11-19T18:03:15Z</time>
      </trkpt>
      <trkpt lat="45.76593" lon="4.82694">
        <ele>227</ele>
        <time>2010-11-19T18:03:16Z</time>
      </trkpt>
      <trkpt lat="45.76594" lon="4.82694">
        <ele>227</ele>
        <time>2010-11-19T18:03:17Z</time>
      </trkpt>
      <trkpt lat="45.76595" lon="4.82691">
        <ele>227</ele>
        <time>2010-11-19T18:03:18Z</time>
      </trkpt>
      <trkpt lat="45.76597" lon="4.82689">
        <ele>227</ele>
        <time>2010-11-19T18:03:19Z</time>
      </trkpt>
      <trkpt lat="45.76598" lon="4.82687">
        <ele>227</ele>
        <time>2010-11-19T18:03:20Z</time>
      </trkpt>
      <trkpt lat="45.76599" lon="4.82684">
        <ele>227</ele>
        <time>2010-11-19T18:03:21Z</time>
      </trkpt>
      <trkpt lat="45.766" lon="4.82682">
        <ele>227</ele>
        <time>2010-11-19T18:03:22Z</time>
      </trkpt>
      <trkpt lat="45.766" lon="4.8268">
        <ele>228</ele>
        <time>2010-11-19T18:03:23Z</time>
      </trkpt>
      <trkpt lat="45.766" lon="4.82676">
        <ele>228</ele>
        <time>2010-11-19T18:03:24Z</time>
      </trkpt>
      <trkpt lat="45.766" lon="4.82673">
        <ele>228</ele>
        <time>2010-11-19T18:03:25Z</time>
      </trkpt>
      <trkpt lat="45.766" lon="4.8267">
        <ele>229</ele>
        <time>2010-11-19T18:03:26Z</time>
      </trkpt>
      <trkpt lat="45.76601" lon="4.82667">
        <ele>229</ele>
        <time>2010-11-19T18:03:27Z</time>
      </trkpt>
      <trkpt lat="45.76601" lon="4.82665">
        <ele>229</ele>
        <time>2010-11-19T18:03:28Z</time>
      </trkpt>
      <trkpt lat="45.766" lon="4.82664">
        <ele>228</ele>
        <time>2010-11-19T18:03:29Z</time>
      </trkpt>
      <trkpt lat="45.76599" lon="4.82661">
        <ele>228</ele>
        <time>2010-11-19T18:03:30Z</time>
      </trkpt>
      <trkpt lat="45.766" lon="4.8266">
        <ele>228</ele>
        <time>2010-11-19T18:03:31Z</time>
      </trkpt>
      <trkpt lat="45.76599" lon="4.82658">
        <ele>228</ele>
        <time>2010-11-19T18:03:32Z</time>
      </trkpt>
      <trkpt lat="45.76595" lon="4.82654">
        <ele>230</ele>
        <time>2010-11-19T18:03:33Z</time>
      </trkpt>
      <trkpt lat="45.76594" lon="4.82652">
        <ele>231</ele>
        <time>2010-11-19T18:03:34Z</time>
      </trkpt>
      <trkpt lat="45.76595" lon="4.82652">
        <ele>232</ele>
        <time>2010-11-19T18:03:35Z</time>
      </trkpt>
      <trkpt lat="45.76594" lon="4.8265">
        <ele>233</ele>
        <time>2010-11-19T18:03:36Z</time>
      </trkpt>
      <trkpt lat="45.76594" lon="4.8265">
        <ele>233</ele>
        <time>2010-11-19T18:03:37Z</time>
      </trkpt>
      <trkpt lat="45.76594" lon="4.82648">
        <ele>232</ele>
        <time>2010-11-19T18:03:38Z</time>
      </trkpt>
      <trkpt lat="45.76594" lon="4.82646">
        <ele>231</ele>
        <time>2010-11-19T18:03:39Z</time>
      </trkpt>
      <trkpt lat="45.76593" lon="4.82644">
        <ele>231</ele>
        <time>2010-11-19T18:03:40Z</time>
      </trkpt>
      <trkpt lat="45.76593" lon="4.8264">
        <ele>231</ele>
        <time>2010-11-19T18:03:41Z</time>
      </trkpt>
      <trkpt lat="45.76593" lon="4.82639">
        <ele>231</ele>
        <time>2010-11-19T18:03:42Z</time>
      </trkpt>
      <trkpt lat="45.76593" lon="4.82637">
        <ele>231</ele>
        <time>2010-11-19T18:03:43Z</time>
      </trkpt>
      <trkpt lat="45.76593" lon="4.82636">
        <ele>231</ele>
        <time>2010-11-19T18:03:44Z</time>
      </trkpt>
      <trkpt lat="45.76593" lon="4.82635">
        <ele>231</ele>
        <time>2010-11-19T18:03:45Z</time>
      </trkpt>
      <trkpt lat="45.76593" lon="4.82634">
        <ele>232</ele>
        <time>2010-11-19T18:03:46Z</time>
      </trkpt>
      <trkpt lat="45.76593" lon="4.82632">
        <ele>232</ele>
        <time>2010-11-19T18:03:47Z</time>
      </trkpt>
      <trkpt lat="45.76594" lon="4.82632">
        <ele>232</ele>
        <time>2010-11-19T18:03:48Z</time>
      </trkpt>
      <trkpt lat="45.76594" lon="4.82631">
        <ele>232</ele>
        <time>2010-11-19T18:03:49Z</time>
      </trkpt>
      <trkpt lat="45.76594" lon="4.8263">
        <ele>232</ele>
        <time>2010-11-19T18:03:50Z</time>
      </trkpt>
      <trkpt lat="45.76594" lon="4.82628">
        <ele>232</ele>
        <time>2010-11-19T18:03:51Z</time>
      </trkpt>
      <trkpt lat="45.76602" lon="4.8259">
        <ele>231</ele>
        <time>2010-11-19T18:04:13Z</time>
      </trkpt>
      <trkpt lat="45.76602" lon="4.82586">
        <ele>232</ele>
        <time>2010-11-19T18:04:14Z</time>
      </trkpt>
      <trkpt lat="45.76607" lon="4.82584">
        <ele>232</ele>
        <time>2010-11-19T18:04:15Z</time>
      </trkpt>
      <trkpt lat="45.76608" lon="4.82583">
        <ele>232</ele>
        <time>2010-11-19T18:04:16Z</time>
      </trkpt>
      <trkpt lat="45.76609" lon="4.82581">
        <ele>232</ele>
        <time>2010-11-19T18:04:17Z</time>
      </trkpt>
      <trkpt lat="45.7661" lon="4.8258">
        <ele>232</ele>
        <time>2010-11-19T18:04:18Z</time>
      </trkpt>
      <trkpt lat="45.76609" lon="4.82579">
        <ele>232</ele>
        <time>2010-11-19T18:04:19Z</time>
      </trkpt>
      <trkpt lat="45.7661" lon="4.82576">
        <ele>233</ele>
        <time>2010-11-19T18:04:20Z</time>
      </trkpt>
      <trkpt lat="45.76609" lon="4.82572">
        <ele>233</ele>
        <time>2010-11-19T18:04:21Z</time>
      </trkpt>
      <trkpt lat="45.76609" lon="4.8257">
        <ele>233</ele>
        <time>2010-11-19T18:04:22Z</time>
      </trkpt>
      <trkpt lat="45.7661" lon="4.82568">
        <ele>234</ele>
        <time>2010-11-19T18:04:23Z</time>
      </trkpt>
      <trkpt lat="45.76611" lon="4.82567">
        <ele>234</ele>
        <time>2010-11-19T18:04:24Z</time>
      </trkpt>
      <trkpt lat="45.76611" lon="4.82564">
        <ele>234</ele>
        <time>2010-11-19T18:04:25Z</time>
      </trkpt>
      <trkpt lat="45.7661" lon="4.82562">
        <ele>234</ele>
        <time>2010-11-19T18:04:26Z</time>
      </trkpt>
      <trkpt lat="45.76612" lon="4.8256">
        <ele>235</ele>
        <time>2010-11-19T18:04:27Z</time>
      </trkpt>
      <trkpt lat="45.76614" lon="4.82556">
        <ele>235</ele>
        <time>2010-11-19T18:04:28Z</time>
      </trkpt>
      <trkpt lat="45.76616" lon="4.82556">
        <ele>236</ele>
        <time>2010-11-19T18:04:29Z</time>
      </trkpt>
      <trkpt lat="45.76617" lon="4.82555">
        <ele>237</ele>
        <time>2010-11-19T18:04:30Z</time>
      </trkpt>
      <trkpt lat="45.76618" lon="4.82556">
        <ele>238</ele>
        <time>2010-11-19T18:04:31Z</time>
      </trkpt>
      <trkpt lat="45.76618" lon="4.82553">
        <ele>238</ele>
        <time>2010-11-19T18:04:32Z</time>
      </trkpt>
      <trkpt lat="45.76618" lon="4.82551">
        <ele>240</ele>
        <time>2010-11-19T18:04:33Z</time>
      </trkpt>
      <trkpt lat="45.76618" lon="4.8255">
        <ele>240</ele>
        <time>2010-11-19T18:04:34Z</time>
      </trkpt>
      <trkpt lat="45.76617" lon="4.82548">
        <ele>240</ele>
        <time>2010-11-19T18:04:35Z</time>
      </trkpt>
      <trkpt lat="45.76619" lon="4.82545">
        <ele>240</ele>
        <time>2010-11-19T18:04:36Z</time>
      </trkpt>
      <trkpt lat="45.76616" lon="4.82544">
        <ele>240</ele>
        <time>2010-11-19T18:04:37Z</time>
      </trkpt>
      <trkpt lat="45.76616" lon="4.82542">
        <ele>241</ele>
        <time>2010-11-19T18:04:38Z</time>
      </trkpt>
      <trkpt lat="45.76614" lon="4.82541">
        <ele>242</ele>
        <time>2010-11-19T18:04:39Z</time>
      </trkpt>
      <trkpt lat="45.76615" lon="4.8254">
        <ele>241</ele>
        <time>2010-11-19T18:04:40Z</time>
      </trkpt>
      <trkpt lat="45.76614" lon="4.82539">
        <ele>243</ele>
        <time>2010-11-19T18:04:41Z</time>
      </trkpt>
      <trkpt lat="45.76615" lon="4.82535">
        <ele>244</ele>
        <time>2010-11-19T18:04:42Z</time>
      </trkpt>
      <trkpt lat="45.76616" lon="4.82534">
        <ele>245</ele>
        <time>2010-11-19T18:04:43Z</time>
      </trkpt>
      <trkpt lat="45.76615" lon="4.82532">
        <ele>246</ele>
        <time>2010-11-19T18:04:44Z</time>
      </trkpt>
      <trkpt lat="45.76614" lon="4.82532">
        <ele>245</ele>
        <time>2010-11-19T18:04:45Z</time>
      </trkpt>
      <trkpt lat="45.76616" lon="4.8253">
        <ele>247</ele>
        <time>2010-11-19T18:04:46Z</time>
      </trkpt>
      <trkpt lat="45.76617" lon="4.82528">
        <ele>247</ele>
        <time>2010-11-19T18:04:47Z</time>
      </trkpt>
      <trkpt lat="45.76617" lon="4.82527">
        <ele>248</ele>
        <time>2010-11-19T18:04:48Z</time>
      </trkpt>
      <trkpt lat="45.76617" lon="4.82526">
        <ele>248</ele>
        <time>2010-11-19T18:04:49Z</time>
      </trkpt>
      <trkpt lat="45.76618" lon="4.82525">
        <ele>249</ele>
        <time>2010-11-19T18:04:50Z</time>
      </trkpt>
      <trkpt lat="45.76618" lon="4.82522">
        <ele>249</ele>
        <time>2010-11-19T18:04:51Z</time>
      </trkpt>
      <trkpt lat="45.76618" lon="4.8252">
        <ele>249</ele>
        <time>2010-11-19T18:04:52Z</time>
      </trkpt>
      <trkpt lat="45.76618" lon="4.82519">
        <ele>249</ele>
        <time>2010-11-19T18:04:53Z</time>
      </trkpt>
      <trkpt lat="45.76617" lon="4.82516">
        <ele>250</ele>
        <time>2010-11-19T18:04:54Z</time>
      </trkpt>
      <trkpt lat="45.76616" lon="4.82513">
        <ele>250</ele>
        <time>2010-11-19T18:04:55Z</time>
      </trkpt>
      <trkpt lat="45.76616" lon="4.82511">
        <ele>250</ele>
        <time>2010-11-19T18:04:56Z</time>
      </trkpt>
      <trkpt lat="45.76616" lon="4.82511">
        <ele>251</ele>
        <time>2010-11-19T18:04:57Z</time>
      </trkpt>
      <trkpt lat="45.76614" lon="4.82507">
        <ele>250</ele>
        <time>2010-11-19T18:04:58Z</time>
      </trkpt>
      <trkpt lat="45.76614" lon="4.82504">
        <ele>251</ele>
        <time>2010-11-19T18:04:59Z</time>
      </trkpt>
      <trkpt lat="45.76614" lon="4.82502">
        <ele>253</ele>
        <time>2010-11-19T18:05:00Z</time>
      </trkpt>
      <trkpt lat="45.76612" lon="4.825">
        <ele>253</ele>
        <time>2010-11-19T18:05:01Z</time>
      </trkpt>
      <trkpt lat="45.76612" lon="4.82496">
        <ele>254</ele>
        <time>2010-11-19T18:05:02Z</time>
      </trkpt>
      <trkpt lat="45.76612" lon="4.82491">
        <ele>256</ele>
        <time>2010-11-19T18:05:03Z</time>
      </trkpt>
      <trkpt lat="45.76611" lon="4.82489">
        <ele>256</ele>
        <time>2010-11-19T18:05:04Z</time>
      </trkpt>
      <trkpt lat="45.76611" lon="4.82487">
        <ele>255</ele>
        <time>2010-11-19T18:05:05Z</time>
      </trkpt>
      <trkpt lat="45.76612" lon="4.82483">
        <ele>255</ele>
        <time>2010-11-19T18:05:06Z</time>
      </trkpt>
      <trkpt lat="45.76611" lon="4.82481">
        <ele>256</ele>
        <time>2010-11-19T18:05:07Z</time>
      </trkpt>
      <trkpt lat="45.76612" lon="4.82478">
        <ele>256</ele>
        <time>2010-11-19T18:05:08Z</time>
      </trkpt>
      <trkpt lat="45.76615" lon="4.82476">
        <ele>257</ele>
        <time>2010-11-19T18:05:09Z</time>
      </trkpt>
      <trkpt lat="45.76614" lon="4.82474">
        <ele>256</ele>
        <time>2010-11-19T18:05:10Z</time>
      </trkpt>
      <trkpt lat="45.76615" lon="4.82472">
        <ele>256</ele>
        <time>2010-11-19T18:05:11Z</time>
      </trkpt>
      <trkpt lat="45.76616" lon="4.82469">
        <ele>256</ele>
        <time>2010-11-19T18:05:12Z</time>
      </trkpt>
      <trkpt lat="45.76618" lon="4.82466">
        <ele>256</ele>
        <time>2010-11-19T18:05:13Z</time>
      </trkpt>
      <trkpt lat="45.76618" lon="4.82464">
        <ele>256</ele>
        <time>2010-11-19T18:05:14Z</time>
      </trkpt>
      <trkpt lat="45.7662" lon="4.82459">
        <ele>256</ele>
        <time>2010-11-19T18:05:15Z</time>
      </trkpt>
      <trkpt lat="45.76621" lon="4.82457">
        <ele>256</ele>
        <time>2010-11-19T18:05:16Z</time>
      </trkpt>
      <trkpt lat="45.7662" lon="4.82454">
        <ele>256</ele>
        <time>2010-11-19T18:05:17Z</time>
      </trkpt>
      <trkpt lat="45.7662" lon="4.82452">
        <ele>256</ele>
        <time>2010-11-19T18:05:18Z</time>
      </trkpt>
      <trkpt lat="45.76621" lon="4.82449">
        <ele>256</ele>
        <time>2010-11-19T18:05:19Z</time>
      </trkpt>
      <trkpt lat="45.76621" lon="4.82446">
        <ele>256</ele>
        <time>2010-11-19T18:05:20Z</time>
      </trkpt>
      <trkpt lat="45.76621" lon="4.82444">
        <ele>256</ele>
        <time>2010-11-19T18:05:21Z</time>
      </trkpt>
      <trkpt lat="45.76622" lon="4.82441">
        <ele>257</ele>
        <time>2010-11-19T18:05:22Z</time>
      </trkpt>
      <trkpt lat="45.76622" lon="4.82436">
        <ele>257</ele>
        <time>2010-11-19T18:05:23Z</time>
      </trkpt>
      <trkpt lat="45.76623" lon="4.82432">
        <ele>257</ele>
        <time>2010-11-19T18:05:24Z</time>
      </trkpt>
      <trkpt lat="45.76623" lon="4.82428">
        <ele>258</ele>
        <time>2010-11-19T18:05:25Z</time>
      </trkpt>
      <trkpt lat="45.76623" lon="4.82426">
        <ele>259</ele>
        <time>2010-11-19T18:05:26Z</time>
      </trkpt>
      <trkpt lat="45.76624" lon="4.82424">
        <ele>259</ele>
        <time>2010-11-19T18:05:27Z</time>
      </trkpt>
      <trkpt lat="45.76624" lon="4.82421">
        <ele>260</ele>
        <time>2010-11-19T18:05:28Z</time>
      </trkpt>
      <trkpt lat="45.76624" lon="4.82418">
        <ele>261</ele>
        <time>2010-11-19T18:05:29Z</time>
      </trkpt>
      <trkpt lat="45.76624" lon="4.82414">
        <ele>262</ele>
        <time>2010-11-19T18:05:30Z</time>
      </trkpt>
      <trkpt lat="45.76623" lon="4.8241">
        <ele>262</ele>
        <time>2010-11-19T18:05:31Z</time>
      </trkpt>
      <trkpt lat="45.76622" lon="4.82406">
        <ele>262</ele>
        <time>2010-11-19T18:05:32Z</time>
      </trkpt>
      <trkpt lat="45.76621" lon="4.82404">
        <ele>262</ele>
        <time>2010-11-19T18:05:33Z</time>
      </trkpt>
      <trkpt lat="45.76621" lon="4.82402">
        <ele>262</ele>
        <time>2010-11-19T18:05:34Z</time>
      </trkpt>
      <trkpt lat="45.76621" lon="4.82397">
        <ele>263</ele>
        <time>2010-11-19T18:05:35Z</time>
      </trkpt>
      <trkpt lat="45.76622" lon="4.82395">
        <ele>264</ele>
        <time>2010-11-19T18:05:36Z</time>
      </trkpt>
      <trkpt lat="45.7662" lon="4.82393">
        <ele>264</ele>
        <time>2010-11-19T18:05:37Z</time>
      </trkpt>
      <trkpt lat="45.76619" lon="4.82391">
        <ele>264</ele>
        <time>2010-11-19T18:05:38Z</time>
      </trkpt>
      <trkpt lat="45.76619" lon="4.82389">
        <ele>264</ele>
        <time>2010-11-19T18:05:39Z</time>
      </trkpt>
      <trkpt lat="45.76618" lon="4.82387">
        <ele>263</ele>
        <time>2010-11-19T18:05:40Z</time>
      </trkpt>
      <trkpt lat="45.76619" lon="4.82383">
        <ele>263</ele>
        <time>2010-11-19T18:05:41Z</time>
      </trkpt>
      <trkpt lat="45.76619" lon="4.82379">
        <ele>263</ele>
        <time>2010-11-19T18:05:42Z</time>
      </trkpt>
      <trkpt lat="45.76619" lon="4.82375">
        <ele>263</ele>
        <time>2010-11-19T18:05:43Z</time>
      </trkpt>
      <trkpt lat="45.7662" lon="4.82373">
        <ele>262</ele>
        <time>2010-11-19T18:05:44Z</time>
      </trkpt>
      <trkpt lat="45.76622" lon="4.82371">
        <ele>262</ele>
        <time>2010-11-19T18:05:45Z</time>
      </trkpt>
      <trkpt lat="45.76622" lon="4.82369">
        <ele>262</ele>
        <time>2010-11-19T18:05:46Z</time>
      </trkpt>
      <trkpt lat="45.76623" lon="4.82366">
        <ele>262</ele>
        <time>2010-11-19T18:05:47Z</time>
      </trkpt>
      <trkpt lat="45.76624" lon="4.82364">
        <ele>262</ele>
        <time>2010-11-19T18:05:48Z</time>
      </trkpt>
      <trkpt lat="45.76623" lon="4.82362">
        <ele>262</ele>
        <time>2010-11-19T18:05:49Z</time>
      </trkpt>
      <trkpt lat="45.76624" lon="4.82359">
        <ele>262</ele>
        <time>2010-11-19T18:05:50Z</time>
      </trkpt>
      <trkpt lat="45.76624" lon="4.82358">
        <ele>263</ele>
        <time>2010-11-19T18:05:51Z</time>
      </trkpt>
      <trkpt lat="45.76625" lon="4.82356">
        <ele>263</ele>
        <time>2010-11-19T18:05:52Z</time>
      </trkpt>
      <trkpt lat="45.76627" lon="4.82353">
        <ele>262</ele>
        <time>2010-11-19T18:05:53Z</time>
      </trkpt>
      <trkpt lat="45.76629" lon="4.8235">
        <ele>262</ele>
        <time>2010-11-19T18:05:54Z</time>
      </trkpt>
      <trkpt lat="45.7663" lon="4.82345">
        <ele>262</ele>
        <time>2010-11-19T18:05:55Z</time>
      </trkpt>
      <trkpt lat="45.76632" lon="4.82343">
        <ele>263</ele>
        <time>2010-11-19T18:05:56Z</time>
      </trkpt>
      <trkpt lat="45.76632" lon="4.82337">
        <ele>263</ele>
        <time>2010-11-19T18:05:57Z</time>
      </trkpt>
      <trkpt lat="45.76632" lon="4.82333">
        <ele>263</ele>
        <time>2010-11-19T18:05:58Z</time>
      </trkpt>
      <trkpt lat="45.76633" lon="4.82329">
        <ele>263</ele>
        <time>2010-11-19T18:05:59Z</time>
      </trkpt>
      <trkpt lat="45.76633" lon="4.82323">
        <ele>264</ele>
        <time>2010-11-19T18:06:00Z</time>
      </trkpt>
      <trkpt lat="45.76633" lon="4.82319">
        <ele>263.11419677734</ele>
        <time>2010-11-19T18:06:01Z</time>
      </trkpt>
      <trkpt lat="45.76635" lon="4.82316">
        <ele>263</ele>
        <time>2010-11-19T18:06:02Z</time>
      </trkpt>
      <trkpt lat="45.76636" lon="4.82312">
        <ele>263</ele>
        <time>2010-11-19T18:06:03Z</time>
      </trkpt>
      <trkpt lat="45.76636" lon="4.82308">
        <ele>264</ele>
        <time>2010-11-19T18:06:04Z</time>
      </trkpt>
      <trkpt lat="45.76638" lon="4.82306">
        <ele>263</ele>
        <time>2010-11-19T18:06:05Z</time>
      </trkpt>
      <trkpt lat="45.76639" lon="4.82304">
        <ele>263</ele>
        <time>2010-11-19T18:06:06Z</time>
      </trkpt>
      <trkpt lat="45.76638" lon="4.82298">
        <ele>263</ele>
        <time>2010-11-19T18:06:07Z</time>
      </trkpt>
      <trkpt lat="45.7664" lon="4.82296">
        <ele>263</ele>
        <time>2010-11-19T18:06:08Z</time>
      </trkpt>
      <trkpt lat="45.76639" lon="4.82292">
        <ele>263</ele>
        <time>2010-11-19T18:06:09Z</time>
      </trkpt>
      <trkpt lat="45.76639" lon="4.8229">
        <ele>263</ele>
        <time>2010-11-19T18:06:10Z</time>
      </trkpt>
      <trkpt lat="45.7664" lon="4.82287">
        <ele>263</ele>
        <time>2010-11-19T18:06:11Z</time>
      </trkpt>
      <trkpt lat="45.76638" lon="4.82283">
        <ele>263</ele>
        <time>2010-11-19T18:06:12Z</time>
      </trkpt>
      <trkpt lat="45.7664" lon="4.8228">
        <ele>263</ele>
        <time>2010-11-19T18:06:13Z</time>
      </trkpt>
      <trkpt lat="45.76638" lon="4.82276">
        <ele>264</ele>
        <time>2010-11-19T18:06:14Z</time>
      </trkpt>
      <trkpt lat="45.76638" lon="4.82274">
        <ele>263</ele>
        <time>2010-11-19T18:06:15Z</time>
      </trkpt>
      <trkpt lat="45.76635" lon="4.82268">
        <ele>263</ele>
        <time>2010-11-19T18:06:16Z</time>
      </trkpt>
      <trkpt lat="45.76636" lon="4.82264">
        <ele>263</ele>
        <time>2010-11-19T18:06:17Z</time>
      </trkpt>
      <trkpt lat="45.76634" lon="4.82257">
        <ele>264</ele>
        <time>2010-11-19T18:06:18Z</time>
      </trkpt>
      <trkpt lat="45.76633" lon="4.82254">
        <ele>264</ele>
        <time>2010-11-19T18:06:19Z</time>
      </trkpt>
      <trkpt lat="45.76632" lon="4.82249">
        <ele>263</ele>
        <time>2010-11-19T18:06:20Z</time>
      </trkpt>
      <trkpt lat="45.76633" lon="4.82245">
        <ele>264</ele>
        <time>2010-11-19T18:06:21Z</time>
      </trkpt>
      <trkpt lat="45.76632" lon="4.8224">
        <ele>263</ele>
        <time>2010-11-19T18:06:22Z</time>
      </trkpt>
      <trkpt lat="45.76632" lon="4.82237">
        <ele>264</ele>
        <time>2010-11-19T18:06:23Z</time>
      </trkpt>
      <trkpt lat="45.76632" lon="4.82233">
        <ele>265</ele>
        <time>2010-11-19T18:06:24Z</time>
      </trkpt>
      <trkpt lat="45.76631" lon="4.8223">
        <ele>265</ele>
        <time>2010-11-19T18:06:25Z</time>
      </trkpt>
      <trkpt lat="45.76631" lon="4.82227">
        <ele>266</ele>
        <time>2010-11-19T18:06:26Z</time>
      </trkpt>
      <trkpt lat="45.76632" lon="4.82225">
        <ele>266</ele>
        <time>2010-11-19T18:06:27Z</time>
      </trkpt>
      <trkpt lat="45.76632" lon="4.82223">
        <ele>266</ele>
        <time>2010-11-19T18:06:28Z</time>
      </trkpt>
      <trkpt lat="45.76633" lon="4.8222">
        <ele>266</ele>
        <time>2010-11-19T18:06:29Z</time>
      </trkpt>
      <trkpt lat="45.76634" lon="4.82218">
        <ele>266</ele>
        <time>2010-11-19T18:06:30Z</time>
      </trkpt>
      <trkpt lat="45.76636" lon="4.82215">
        <ele>265</ele>
        <time>2010-11-19T18:06:31Z</time>
      </trkpt>
      <trkpt lat="45.76637" lon="4.82212">
        <ele>266</ele>
        <time>2010-11-19T18:06:32Z</time>
      </trkpt>
      <trkpt lat="45.76638" lon="4.82209">
        <ele>266</ele>
        <time>2010-11-19T18:06:33Z</time>
      </trkpt>
      <trkpt lat="45.76638" lon="4.82206">
        <ele>265</ele>
        <time>2010-11-19T18:06:34Z</time>
      </trkpt>
      <trkpt lat="45.76638" lon="4.82202">
        <ele>265</ele>
        <time>2010-11-19T18:06:35Z</time>
      </trkpt>
      <trkpt lat="45.76639" lon="4.82198">
        <ele>264</ele>
        <time>2010-11-19T18:06:36Z</time>
      </trkpt>
      <trkpt lat="45.76641" lon="4.82196">
        <ele>264</ele>
        <time>2010-11-19T18:06:37Z</time>
      </trkpt>
      <trkpt lat="45.7664" lon="4.82193">
        <ele>264</ele>
        <time>2010-11-19T18:06:38Z</time>
      </trkpt>
      <trkpt lat="45.76641" lon="4.82189">
        <ele>265</ele>
        <time>2010-11-19T18:06:39Z</time>
      </trkpt>
      <trkpt lat="45.76641" lon="4.82183">
        <ele>266</ele>
        <time>2010-11-19T18:06:40Z</time>
      </trkpt>
      <trkpt lat="45.76641" lon="4.82181">
        <ele>266</ele>
        <time>2010-11-19T18:06:41Z</time>
      </trkpt>
      <trkpt lat="45.76641" lon="4.82177">
        <ele>267</ele>
        <time>2010-11-19T18:06:42Z</time>
      </trkpt>
      <trkpt lat="45.76641" lon="4.82174">
        <ele>267</ele>
        <time>2010-11-19T18:06:43Z</time>
      </trkpt>
      <trkpt lat="45.76641" lon="4.82171">
        <ele>267</ele>
        <time>2010-11-19T18:06:44Z</time>
      </trkpt>
      <trkpt lat="45.76641" lon="4.82167">
        <ele>267</ele>
        <time>2010-11-19T18:06:45Z</time>
      </trkpt>
      <trkpt lat="45.76641" lon="4.82164">
        <ele>267</ele>
        <time>2010-11-19T18:06:46Z</time>
      </trkpt>
      <trkpt lat="45.7664" lon="4.8216">
        <ele>267</ele>
        <time>2010-11-19T18:06:47Z</time>
      </trkpt>
      <trkpt lat="45.76639" lon="4.82157">
        <ele>267</ele>
        <time>2010-11-19T18:06:48Z</time>
      </trkpt>
      <trkpt lat="45.76638" lon="4.82154">
        <ele>267</ele>
        <time>2010-11-19T18:06:49Z</time>
      </trkpt>
      <trkpt lat="45.76634" lon="4.82152">
        <ele>266</ele>
        <time>2010-11-19T18:06:50Z</time>
      </trkpt>
      <trkpt lat="45.76632" lon="4.8215">
        <ele>266</ele>
        <time>2010-11-19T18:06:51Z</time>
      </trkpt>
      <trkpt lat="45.7663" lon="4.82147">
        <ele>266</ele>
        <time>2010-11-19T18:06:52Z</time>
      </trkpt>
      <trkpt lat="45.76629" lon="4.82145">
        <ele>266</ele>
        <time>2010-11-19T18:06:53Z</time>
      </trkpt>
      <trkpt lat="45.76627" lon="4.82143">
        <ele>266</ele>
        <time>2010-11-19T18:06:54Z</time>
      </trkpt>
      <trkpt lat="45.76626" lon="4.82141">
        <ele>267</ele>
        <time>2010-11-19T18:06:55Z</time>
      </trkpt>
      <trkpt lat="45.76624" lon="4.82138">
        <ele>266</ele>
        <time>2010-11-19T18:06:56Z</time>
      </trkpt>
      <trkpt lat="45.7662" lon="4.82136">
        <ele>265</ele>
        <time>2010-11-19T18:06:57Z</time>
      </trkpt>
      <trkpt lat="45.76617" lon="4.82133">
        <ele>264</ele>
        <time>2010-11-19T18:06:58Z</time>
      </trkpt>
      <trkpt lat="45.76615" lon="4.82131">
        <ele>263</ele>
        <time>2010-11-19T18:06:59Z</time>
      </trkpt>
      <trkpt lat="45.76611" lon="4.82129">
        <ele>263</ele>
        <time>2010-11-19T18:07:00Z</time>
      </trkpt>
      <trkpt lat="45.76609" lon="4.82128">
        <ele>263</ele>
        <time>2010-11-19T18:07:01Z</time>
      </trkpt>
      <trkpt lat="45.76607" lon="4.82125">
        <ele>263</ele>
        <time>2010-11-19T18:07:02Z</time>
      </trkpt>
      <trkpt lat="45.76604" lon="4.82125">
        <ele>262</ele>
        <time>2010-11-19T18:07:03Z</time>
      </trkpt>
      <trkpt lat="45.76602" lon="4.82125">
        <ele>262</ele>
        <time>2010-11-19T18:07:04Z</time>
      </trkpt>
      <trkpt lat="45.76601" lon="4.82123">
        <ele>262</ele>
        <time>2010-11-19T18:07:05Z</time>
      </trkpt>
      <trkpt lat="45.76598" lon="4.82123">
        <ele>262</ele>
        <time>2010-11-19T18:07:06Z</time>
      </trkpt>
      <trkpt lat="45.76595" lon="4.82123">
        <ele>262</ele>
        <time>2010-11-19T18:07:07Z</time>
      </trkpt>
      <trkpt lat="45.76593" lon="4.82122">
        <ele>262</ele>
        <time>2010-11-19T18:07:08Z</time>
      </trkpt>
      <trkpt lat="45.76591" lon="4.82121">
        <ele>262</ele>
        <time>2010-11-19T18:07:09Z</time>
      </trkpt>
      <trkpt lat="45.76589" lon="4.82121">
        <ele>261</ele>
        <time>2010-11-19T18:07:10Z</time>
      </trkpt>
      <trkpt lat="45.76586" lon="4.82121">
        <ele>261</ele>
        <time>2010-11-19T18:07:11Z</time>
      </trkpt>
      <trkpt lat="45.76585" lon="4.82121">
        <ele>261</ele>
        <time>2010-11-19T18:07:12Z</time>
      </trkpt>
      <trkpt lat="45.76582" lon="4.82121">
        <ele>261</ele>
        <time>2010-11-19T18:07:13Z</time>
      </trkpt>
      <trkpt lat="45.7658" lon="4.82121">
        <ele>261</ele>
        <time>2010-11-19T18:07:14Z</time>
      </trkpt>
      <trkpt lat="45.76578" lon="4.82118">
        <ele>262</ele>
        <time>2010-11-19T18:07:15Z</time>
      </trkpt>
      <trkpt lat="45.76574" lon="4.82118">
        <ele>261</ele>
        <time>2010-11-19T18:07:16Z</time>
      </trkpt>
      <trkpt lat="45.76573" lon="4.82117">
        <ele>261</ele>
        <time>2010-11-19T18:07:17Z</time>
      </trkpt>
      <trkpt lat="45.76572" lon="4.82116">
        <ele>261</ele>
        <time>2010-11-19T18:07:18Z</time>
      </trkpt>
      <trkpt lat="45.76567" lon="4.82117">
        <ele>261</ele>
        <time>2010-11-19T18:07:19Z</time>
      </trkpt>
      <trkpt lat="45.76566" lon="4.82117">
        <ele>261</ele>
        <time>2010-11-19T18:07:20Z</time>
      </trkpt>
      <trkpt lat="45.76564" lon="4.82114">
        <ele>261</ele>
        <time>2010-11-19T18:07:21Z</time>
      </trkpt>
      <trkpt lat="45.76563" lon="4.82112">
        <ele>260</ele>
        <time>2010-11-19T18:07:22Z</time>
      </trkpt>
      <trkpt lat="45.76562" lon="4.8211">
        <ele>260</ele>
        <time>2010-11-19T18:07:23Z</time>
      </trkpt>
      <trkpt lat="45.76561" lon="4.82105">
        <ele>260</ele>
        <time>2010-11-19T18:07:24Z</time>
      </trkpt>
      <trkpt lat="45.76559" lon="4.82103">
        <ele>260</ele>
        <time>2010-11-19T18:07:25Z</time>
      </trkpt>
      <trkpt lat="45.76557" lon="4.82103">
        <ele>260</ele>
        <time>2010-11-19T18:07:26Z</time>
      </trkpt>
      <trkpt lat="45.76556" lon="4.82101">
        <ele>260</ele>
        <time>2010-11-19T18:07:27Z</time>
      </trkpt>
      <trkpt lat="45.76553" lon="4.821">
        <ele>260</ele>
        <time>2010-11-19T18:07:28Z</time>
      </trkpt>
      <trkpt lat="45.76552" lon="4.82094">
        <ele>260</ele>
        <time>2010-11-19T18:07:29Z</time>
      </trkpt>
      <trkpt lat="45.76549" lon="4.82095">
        <ele>261</ele>
        <time>2010-11-19T18:07:30Z</time>
      </trkpt>
      <trkpt lat="45.76548" lon="4.82093">
        <ele>261</ele>
        <time>2010-11-19T18:07:31Z</time>
      </trkpt>
      <trkpt lat="45.76546" lon="4.82091">
        <ele>261</ele>
        <time>2010-11-19T18:07:32Z</time>
      </trkpt>
      <trkpt lat="45.76544" lon="4.82087">
        <ele>261</ele>
        <time>2010-11-19T18:07:33Z</time>
      </trkpt>
      <trkpt lat="45.76543" lon="4.82085">
        <ele>261</ele>
        <time>2010-11-19T18:07:34Z</time>
      </trkpt>
      <trkpt lat="45.76539" lon="4.82083">
        <ele>261</ele>
        <time>2010-11-19T18:07:35Z</time>
      </trkpt>
      <trkpt lat="45.76537" lon="4.82079">
        <ele>260</ele>
        <time>2010-11-19T18:07:36Z</time>
      </trkpt>
      <trkpt lat="45.76536" lon="4.82074">
        <ele>260</ele>
        <time>2010-11-19T18:07:37Z</time>
      </trkpt>
      <trkpt lat="45.76533" lon="4.82071">
        <ele>261</ele>
        <time>2010-11-19T18:07:38Z</time>
      </trkpt>
      <trkpt lat="45.76531" lon="4.82069">
        <ele>263</ele>
        <time>2010-11-19T18:07:39Z</time>
      </trkpt>
      <trkpt lat="45.7653" lon="4.82065">
        <ele>262</ele>
        <time>2010-11-19T18:07:40Z</time>
      </trkpt>
      <trkpt lat="45.76527" lon="4.82062">
        <ele>264</ele>
        <time>2010-11-19T18:07:41Z</time>
      </trkpt>
      <trkpt lat="45.76524" lon="4.82058">
        <ele>265</ele>
        <time>2010-11-19T18:07:42Z</time>
      </trkpt>
      <trkpt lat="45.76523" lon="4.82055">
        <ele>266</ele>
        <time>2010-11-19T18:07:43Z</time>
      </trkpt>
      <trkpt lat="45.7652" lon="4.82053">
        <ele>268</ele>
        <time>2010-11-19T18:07:44Z</time>
      </trkpt>
      <trkpt lat="45.76519" lon="4.82049">
        <ele>269</ele>
        <time>2010-11-19T18:07:45Z</time>
      </trkpt>
      <trkpt lat="45.76517" lon="4.82047">
        <ele>269</ele>
        <time>2010-11-19T18:07:46Z</time>
      </trkpt>
      <trkpt lat="45.76515" lon="4.82044">
        <ele>268</ele>
        <time>2010-11-19T18:07:47Z</time>
      </trkpt>
      <trkpt lat="45.76512" lon="4.82041">
        <ele>267</ele>
        <time>2010-11-19T18:07:48Z</time>
      </trkpt>
      <trkpt lat="45.7651" lon="4.82037">
        <ele>267</ele>
        <time>2010-11-19T18:07:49Z</time>
      </trkpt>
      <trkpt lat="45.76507" lon="4.82032">
        <ele>267</ele>
        <time>2010-11-19T18:07:50Z</time>
      </trkpt>
      <trkpt lat="45.76505" lon="4.82029">
        <ele>266</ele>
        <time>2010-11-19T18:07:51Z</time>
      </trkpt>
      <trkpt lat="45.76505" lon="4.82029">
        <ele>265</ele>
        <time>2010-11-19T18:07:52Z</time>
      </trkpt>
      <trkpt lat="45.76504" lon="4.82026">
        <ele>265</ele>
        <time>2010-11-19T18:07:53Z</time>
      </trkpt>
      <trkpt lat="45.76503" lon="4.82023">
        <ele>266</ele>
        <time>2010-11-19T18:07:54Z</time>
      </trkpt>
      <trkpt lat="45.76502" lon="4.8202">
        <ele>266</ele>
        <time>2010-11-19T18:07:55Z</time>
      </trkpt>
      <trkpt lat="45.76501" lon="4.82017">
        <ele>267</ele>
        <time>2010-11-19T18:07:56Z</time>
      </trkpt>
      <trkpt lat="45.765" lon="4.82014">
        <ele>266</ele>
        <time>2010-11-19T18:07:57Z</time>
      </trkpt>
      <trkpt lat="45.76499" lon="4.82012">
        <ele>267</ele>
        <time>2010-11-19T18:07:58Z</time>
      </trkpt>
      <trkpt lat="45.76497" lon="4.82009">
        <ele>267</ele>
        <time>2010-11-19T18:07:59Z</time>
      </trkpt>
      <trkpt lat="45.76496" lon="4.82003">
        <ele>268</ele>
        <time>2010-11-19T18:08:00Z</time>
      </trkpt>
      <trkpt lat="45.76496" lon="4.82003">
        <ele>268</ele>
        <time>2010-11-19T18:08:01Z</time>
      </trkpt>
      <trkpt lat="45.76498" lon="4.82">
        <ele>267</ele>
        <time>2010-11-19T18:08:02Z</time>
      </trkpt>
      <trkpt lat="45.76499" lon="4.81997">
        <ele>267</ele>
        <time>2010-11-19T18:08:03Z</time>
      </trkpt>
      <trkpt lat="45.76501" lon="4.81995">
        <ele>267</ele>
        <time>2010-11-19T18:08:04Z</time>
      </trkpt>
      <trkpt lat="45.76501" lon="4.81991">
        <ele>267</ele>
        <time>2010-11-19T18:08:05Z</time>
      </trkpt>
      <trkpt lat="45.76501" lon="4.81987">
        <ele>267</ele>
        <time>2010-11-19T18:08:06Z</time>
      </trkpt>
      <trkpt lat="45.76501" lon="4.81983">
        <ele>267</ele>
        <time>2010-11-19T18:08:07Z</time>
      </trkpt>
      <trkpt lat="45.76502" lon="4.8198">
        <ele>266</ele>
        <time>2010-11-19T18:08:08Z</time>
      </trkpt>
      <trkpt lat="45.76503" lon="4.81977">
        <ele>266</ele>
        <time>2010-11-19T18:08:09Z</time>
      </trkpt>
      <trkpt lat="45.76504" lon="4.81974">
        <ele>266</ele>
        <time>2010-11-19T18:08:10Z</time>
      </trkpt>
      <trkpt lat="45.76505" lon="4.81972">
        <ele>265</ele>
        <time>2010-11-19T18:08:11Z</time>
      </trkpt>
      <trkpt lat="45.76506" lon="4.81969">
        <ele>264</ele>
        <time>2010-11-19T18:08:12Z</time>
      </trkpt>
      <trkpt lat="45.76506" lon="4.81967">
        <ele>264</ele>
        <time>2010-11-19T18:08:13Z</time>
      </trkpt>
      <trkpt lat="45.76507" lon="4.81963">
        <ele>264</ele>
        <time>2010-11-19T18:08:14Z</time>
      </trkpt>
      <trkpt lat="45.76507" lon="4.8196">
        <ele>264</ele>
        <time>2010-11-19T18:08:15Z</time>
      </trkpt>
      <trkpt lat="45.76507" lon="4.81958">
        <ele>264</ele>
        <time>2010-11-19T18:08:16Z</time>
      </trkpt>
      <trkpt lat="45.76507" lon="4.81954">
        <ele>263</ele>
        <time>2010-11-19T18:08:17Z</time>
      </trkpt>
      <trkpt lat="45.76512" lon="4.81952">
        <ele>265</ele>
        <time>2010-11-19T18:08:18Z</time>
      </trkpt>
      <trkpt lat="45.76513" lon="4.81949">
        <ele>265</ele>
        <time>2010-11-19T18:08:19Z</time>
      </trkpt>
      <trkpt lat="45.76513" lon="4.81946">
        <ele>264</ele>
        <time>2010-11-19T18:08:20Z</time>
      </trkpt>
      <trkpt lat="45.76514" lon="4.81944">
        <ele>264</ele>
        <time>2010-11-19T18:08:21Z</time>
      </trkpt>
      <trkpt lat="45.76514" lon="4.81941">
        <ele>264</ele>
        <time>2010-11-19T18:08:22Z</time>
      </trkpt>
      <trkpt lat="45.76514" lon="4.81938">
        <ele>264</ele>
        <time>2010-11-19T18:08:23Z</time>
      </trkpt>
      <trkpt lat="45.76514" lon="4.81936">
        <ele>263</ele>
        <time>2010-11-19T18:08:24Z</time>
      </trkpt>
      <trkpt lat="45.76514" lon="4.81932">
        <ele>264</ele>
        <time>2010-11-19T18:08:25Z</time>
      </trkpt>
      <trkpt lat="45.76514" lon="4.81929">
        <ele>264</ele>
        <time>2010-11-19T18:08:26Z</time>
      </trkpt>
      <trkpt lat="45.76515" lon="4.81926">
        <ele>264</ele>
        <time>2010-11-19T18:08:27Z</time>
      </trkpt>
      <trkpt lat="45.76515" lon="4.81923">
        <ele>264</ele>
        <time>2010-11-19T18:08:28Z</time>
      </trkpt>
      <trkpt lat="45.76515" lon="4.8192">
        <ele>264</ele>
        <time>2010-11-19T18:08:29Z</time>
      </trkpt>
      <trkpt lat="45.76515" lon="4.81917">
        <ele>264</ele>
        <time>2010-11-19T18:08:30Z</time>
      </trkpt>
      <trkpt lat="45.76516" lon="4.81914">
        <ele>264</ele>
        <time>2010-11-19T18:08:31Z</time>
      </trkpt>
      <trkpt lat="45.76516" lon="4.81911">
        <ele>264</ele>
        <time>2010-11-19T18:08:32Z</time>
      </trkpt>
      <trkpt lat="45.76518" lon="4.81908">
        <ele>265</ele>
        <time>2010-11-19T18:08:33Z</time>
      </trkpt>
      <trkpt lat="45.76519" lon="4.81905">
        <ele>265</ele>
        <time>2010-11-19T18:08:34Z</time>
      </trkpt>
      <trkpt lat="45.76519" lon="4.81901">
        <ele>265</ele>
        <time>2010-11-19T18:08:35Z</time>
      </trkpt>
      <trkpt lat="45.7652" lon="4.81898">
        <ele>266</ele>
        <time>2010-11-19T18:08:36Z</time>
      </trkpt>
      <trkpt lat="45.7652" lon="4.81894">
        <ele>266</ele>
        <time>2010-11-19T18:08:37Z</time>
      </trkpt>
      <trkpt lat="45.76521" lon="4.81891">
        <ele>266</ele>
        <time>2010-11-19T18:08:38Z</time>
      </trkpt>
      <trkpt lat="45.76521" lon="4.81888">
        <ele>266</ele>
        <time>2010-11-19T18:08:39Z</time>
      </trkpt>
      <trkpt lat="45.76522" lon="4.81884">
        <ele>266</ele>
        <time>2010-11-19T18:08:40Z</time>
      </trkpt>
      <trkpt lat="45.76522" lon="4.81881">
        <ele>266</ele>
        <time>2010-11-19T18:08:41Z</time>
      </trkpt>
      <trkpt lat="45.76522" lon="4.81878">
        <ele>266</ele>
        <time>2010-11-19T18:08:42Z</time>
      </trkpt>
      <trkpt lat="45.76523" lon="4.81874">
        <ele>266</ele>
        <time>2010-11-19T18:08:43Z</time>
      </trkpt>
      <trkpt lat="45.76523" lon="4.81871">
        <ele>266</ele>
        <time>2010-11-19T18:08:44Z</time>
      </trkpt>
      <trkpt lat="45.76523" lon="4.81867">
        <ele>266</ele>
        <time>2010-11-19T18:08:45Z</time>
      </trkpt>
      <trkpt lat="45.76523" lon="4.81864">
        <ele>266</ele>
        <time>2010-11-19T18:08:46Z</time>
      </trkpt>
      <trkpt lat="45.76523" lon="4.81861">
        <ele>266</ele>
        <time>2010-11-19T18:08:47Z</time>
      </trkpt>
      <trkpt lat="45.76523" lon="4.81858">
        <ele>265</ele>
        <time>2010-11-19T18:08:48Z</time>
      </trkpt>
      <trkpt lat="45.76523" lon="4.81855">
        <ele>265</ele>
        <time>2010-11-19T18:08:49Z</time>
      </trkpt>
      <trkpt lat="45.76522" lon="4.81851">
        <ele>264</ele>
        <time>2010-11-19T18:08:50Z</time>
      </trkpt>
      <trkpt lat="45.76521" lon="4.81848">
        <ele>264</ele>
        <time>2010-11-19T18:08:51Z</time>
      </trkpt>
      <trkpt lat="45.76521" lon="4.81845">
        <ele>264</ele>
        <time>2010-11-19T18:08:52Z</time>
      </trkpt>
      <trkpt lat="45.76521" lon="4.81842">
        <ele>264</ele>
        <time>2010-11-19T18:08:53Z</time>
      </trkpt>
      <trkpt lat="45.7652" lon="4.81838">
        <ele>264</ele>
        <time>2010-11-19T18:08:54Z</time>
      </trkpt>
      <trkpt lat="45.76523" lon="4.81835">
        <ele>265</ele>
        <time>2010-11-19T18:08:55Z</time>
      </trkpt>
      <trkpt lat="45.76523" lon="4.81831">
        <ele>265</ele>
        <time>2010-11-19T18:08:56Z</time>
      </trkpt>
      <trkpt lat="45.76524" lon="4.81828">
        <ele>264</ele>
        <time>2010-11-19T18:08:57Z</time>
      </trkpt>
      <trkpt lat="45.76524" lon="4.81825">
        <ele>264</ele>
        <time>2010-11-19T18:08:58Z</time>
      </trkpt>
      <trkpt lat="45.76524" lon="4.81822">
        <ele>264</ele>
        <time>2010-11-19T18:08:59Z</time>
      </trkpt>
      <trkpt lat="45.76524" lon="4.81819">
        <ele>263</ele>
        <time>2010-11-19T18:09:00Z</time>
      </trkpt>
      <trkpt lat="45.76524" lon="4.81815">
        <ele>263</ele>
        <time>2010-11-19T18:09:01Z</time>
      </trkpt>
      <trkpt lat="45.76525" lon="4.81812">
        <ele>263</ele>
        <time>2010-11-19T18:09:02Z</time>
      </trkpt>
      <trkpt lat="45.76526" lon="4.81809">
        <ele>263</ele>
        <time>2010-11-19T18:09:03Z</time>
      </trkpt>
      <trkpt lat="45.76526" lon="4.81806">
        <ele>263</ele>
        <time>2010-11-19T18:09:04Z</time>
      </trkpt>
      <trkpt lat="45.76526" lon="4.81802">
        <ele>262</ele>
        <time>2010-11-19T18:09:05Z</time>
      </trkpt>
      <trkpt lat="45.76526" lon="4.81799">
        <ele>262</ele>
        <time>2010-11-19T18:09:06Z</time>
      </trkpt>
      <trkpt lat="45.76527" lon="4.81796">
        <ele>262</ele>
        <time>2010-11-19T18:09:07Z</time>
      </trkpt>
      <trkpt lat="45.76527" lon="4.81792">
        <ele>261</ele>
        <time>2010-11-19T18:09:08Z</time>
      </trkpt>
      <trkpt lat="45.76529" lon="4.81789">
        <ele>261</ele>
        <time>2010-11-19T18:09:09Z</time>
      </trkpt>
      <trkpt lat="45.76534" lon="4.81786">
        <ele>262</ele>
        <time>2010-11-19T18:09:10Z</time>
      </trkpt>
      <trkpt lat="45.76535" lon="4.81782">
        <ele>262</ele>
        <time>2010-11-19T18:09:11Z</time>
      </trkpt>
      <trkpt lat="45.76537" lon="4.81778">
        <ele>262</ele>
        <time>2010-11-19T18:09:12Z</time>
      </trkpt>
      <trkpt lat="45.76538" lon="4.81775">
        <ele>262</ele>
        <time>2010-11-19T18:09:13Z</time>
      </trkpt>
      <trkpt lat="45.7654" lon="4.81771">
        <ele>262</ele>
        <time>2010-11-19T18:09:14Z</time>
      </trkpt>
      <trkpt lat="45.76542" lon="4.81768">
        <ele>262</ele>
        <time>2010-11-19T18:09:15Z</time>
      </trkpt>
      <trkpt lat="45.76544" lon="4.81765">
        <ele>261</ele>
        <time>2010-11-19T18:09:16Z</time>
      </trkpt>
      <trkpt lat="45.76545" lon="4.81762">
        <ele>260</ele>
        <time>2010-11-19T18:09:17Z</time>
      </trkpt>
      <trkpt lat="45.76547" lon="4.81759">
        <ele>260</ele>
        <time>2010-11-19T18:09:18Z</time>
      </trkpt>
      <trkpt lat="45.76549" lon="4.81755">
        <ele>261</ele>
        <time>2010-11-19T18:09:19Z</time>
      </trkpt>
      <trkpt lat="45.76551" lon="4.81752">
        <ele>261</ele>
        <time>2010-11-19T18:09:20Z</time>
      </trkpt>
      <trkpt lat="45.76555" lon="4.81749">
        <ele>262</ele>
        <time>2010-11-19T18:09:21Z</time>
      </trkpt>
      <trkpt lat="45.76556" lon="4.81746">
        <ele>262</ele>
        <time>2010-11-19T18:09:22Z</time>
      </trkpt>
      <trkpt lat="45.76556" lon="4.81743">
        <ele>262</ele>
        <time>2010-11-19T18:09:23Z</time>
      </trkpt>
      <trkpt lat="45.76556" lon="4.8174">
        <ele>261</ele>
        <time>2010-11-19T18:09:24Z</time>
      </trkpt>
      <trkpt lat="45.76556" lon="4.81737">
        <ele>261</ele>
        <time>2010-11-19T18:09:25Z</time>
      </trkpt>
      <trkpt lat="45.76557" lon="4.81734">
        <ele>261</ele>
        <time>2010-11-19T18:09:26Z</time>
      </trkpt>
      <trkpt lat="45.76557" lon="4.81731">
        <ele>261</ele>
        <time>2010-11-19T18:09:27Z</time>
      </trkpt>
      <trkpt lat="45.76559" lon="4.81729">
        <ele>260</ele>
        <time>2010-11-19T18:09:28Z</time>
      </trkpt>
      <trkpt lat="45.76561" lon="4.81726">
        <ele>261</ele>
        <time>2010-11-19T18:09:29Z</time>
      </trkpt>
      <trkpt lat="45.76563" lon="4.81724">
        <ele>261</ele>
        <time>2010-11-19T18:09:30Z</time>
      </trkpt>
      <trkpt lat="45.76565" lon="4.81722">
        <ele>261</ele>
        <time>2010-11-19T18:09:31Z</time>
      </trkpt>
      <trkpt lat="45.76567" lon="4.81719">
        <ele>261</ele>
        <time>2010-11-19T18:09:32Z</time>
      </trkpt>
      <trkpt lat="45.76568" lon="4.81717">
        <ele>261</ele>
        <time>2010-11-19T18:09:33Z</time>
      </trkpt>
      <trkpt lat="45.7657" lon="4.81715">
        <ele>261</ele>
        <time>2010-11-19T18:09:34Z</time>
      </trkpt>
      <trkpt lat="45.76572" lon="4.81711">
        <ele>261</ele>
        <time>2010-11-19T18:09:35Z</time>
      </trkpt>
      <trkpt lat="45.76573" lon="4.81708">
        <ele>261</ele>
        <time>2010-11-19T18:09:36Z</time>
      </trkpt>
      <trkpt lat="45.76574" lon="4.81705">
        <ele>262</ele>
        <time>2010-11-19T18:09:37Z</time>
      </trkpt>
      <trkpt lat="45.76577" lon="4.81703">
        <ele>261</ele>
        <time>2010-11-19T18:09:38Z</time>
      </trkpt>
      <trkpt lat="45.76573" lon="4.817">
        <ele>261</ele>
        <time>2010-11-19T18:09:39Z</time>
      </trkpt>
      <trkpt lat="45.76573" lon="4.81697">
        <ele>261</ele>
        <time>2010-11-19T18:09:40Z</time>
      </trkpt>
      <trkpt lat="45.76574" lon="4.81694">
        <ele>261</ele>
        <time>2010-11-19T18:09:41Z</time>
      </trkpt>
      <trkpt lat="45.76576" lon="4.81691">
        <ele>261</ele>
        <time>2010-11-19T18:09:42Z</time>
      </trkpt>
      <trkpt lat="45.76579" lon="4.81687">
        <ele>261</ele>
        <time>2010-11-19T18:09:43Z</time>
      </trkpt>
      <trkpt lat="45.7658" lon="4.81685">
        <ele>261</ele>
        <time>2010-11-19T18:09:44Z</time>
      </trkpt>
      <trkpt lat="45.7658" lon="4.81681">
        <ele>261</ele>
        <time>2010-11-19T18:09:45Z</time>
      </trkpt>
      <trkpt lat="45.76581" lon="4.81678">
        <ele>261</ele>
        <time>2010-11-19T18:09:46Z</time>
      </trkpt>
      <trkpt lat="45.76581" lon="4.81675">
        <ele>260</ele>
        <time>2010-11-19T18:09:47Z</time>
      </trkpt>
      <trkpt lat="45.76581" lon="4.81672">
        <ele>260</ele>
        <time>2010-11-19T18:09:48Z</time>
      </trkpt>
      <trkpt lat="45.76581" lon="4.81668">
        <ele>261</ele>
        <time>2010-11-19T18:09:49Z</time>
      </trkpt>
      <trkpt lat="45.76581" lon="4.81665">
        <ele>261</ele>
        <time>2010-11-19T18:09:50Z</time>
      </trkpt>
      <trkpt lat="45.76582" lon="4.81661">
        <ele>260</ele>
        <time>2010-11-19T18:09:51Z</time>
      </trkpt>
      <trkpt lat="45.76582" lon="4.81657">
        <ele>260</ele>
        <time>2010-11-19T18:09:52Z</time>
      </trkpt>
      <trkpt lat="45.76583" lon="4.81653">
        <ele>260</ele>
        <time>2010-11-19T18:09:53Z</time>
      </trkpt>
      <trkpt lat="45.76584" lon="4.8165">
        <ele>260</ele>
        <time>2010-11-19T18:09:54Z</time>
      </trkpt>
      <trkpt lat="45.76583" lon="4.81646">
        <ele>260</ele>
        <time>2010-11-19T18:09:55Z</time>
      </trkpt>
      <trkpt lat="45.76584" lon="4.81643">
        <ele>260</ele>
        <time>2010-11-19T18:09:56Z</time>
      </trkpt>
      <trkpt lat="45.76582" lon="4.81639">
        <ele>260</ele>
        <time>2010-11-19T18:09:57Z</time>
      </trkpt>
      <trkpt lat="45.76584" lon="4.81635">
        <ele>260</ele>
        <time>2010-11-19T18:09:58Z</time>
      </trkpt>
      <trkpt lat="45.76586" lon="4.81631">
        <ele>261</ele>
        <time>2010-11-19T18:09:59Z</time>
      </trkpt>
      <trkpt lat="45.76587" lon="4.81628">
        <ele>262</ele>
        <time>2010-11-19T18:10:00Z</time>
      </trkpt>
      <trkpt lat="45.76588" lon="4.81625">
        <ele>263</ele>
        <time>2010-11-19T18:10:01Z</time>
      </trkpt>
      <trkpt lat="45.76588" lon="4.81622">
        <ele>264</ele>
        <time>2010-11-19T18:10:02Z</time>
      </trkpt>
      <trkpt lat="45.76589" lon="4.81619">
        <ele>264</ele>
        <time>2010-11-19T18:10:03Z</time>
      </trkpt>
      <trkpt lat="45.7659" lon="4.81615">
        <ele>263</ele>
        <time>2010-11-19T18:10:04Z</time>
      </trkpt>
      <trkpt lat="45.7659" lon="4.81611">
        <ele>264</ele>
        <time>2010-11-19T18:10:05Z</time>
      </trkpt>
      <trkpt lat="45.7659" lon="4.81607">
        <ele>264</ele>
        <time>2010-11-19T18:10:06Z</time>
      </trkpt>
      <trkpt lat="45.7659" lon="4.81604">
        <ele>263</ele>
        <time>2010-11-19T18:10:07Z</time>
      </trkpt>
      <trkpt lat="45.7659" lon="4.81601">
        <ele>264</ele>
        <time>2010-11-19T18:10:08Z</time>
      </trkpt>
      <trkpt lat="45.7659" lon="4.81598">
        <ele>263</ele>
        <time>2010-11-19T18:10:09Z</time>
      </trkpt>
      <trkpt lat="45.7659" lon="4.81595">
        <ele>263</ele>
        <time>2010-11-19T18:10:10Z</time>
      </trkpt>
      <trkpt lat="45.76591" lon="4.81591">
        <ele>263</ele>
        <time>2010-11-19T18:10:11Z</time>
      </trkpt>
      <trkpt lat="45.7659" lon="4.81587">
        <ele>263</ele>
        <time>2010-11-19T18:10:12Z</time>
      </trkpt>
      <trkpt lat="45.76591" lon="4.81585">
        <ele>263</ele>
        <time>2010-11-19T18:10:13Z</time>
      </trkpt>
      <trkpt lat="45.76591" lon="4.81582">
        <ele>263</ele>
        <time>2010-11-19T18:10:14Z</time>
      </trkpt>
      <trkpt lat="45.76589" lon="4.81578">
        <ele>263</ele>
        <time>2010-11-19T18:10:15Z</time>
      </trkpt>
      <trkpt lat="45.76589" lon="4.81575">
        <ele>263</ele>
        <time>2010-11-19T18:10:16Z</time>
      </trkpt>
      <trkpt lat="45.76589" lon="4.81572">
        <ele>263</ele>
        <time>2010-11-19T18:10:17Z</time>
      </trkpt>
      <trkpt lat="45.76592" lon="4.81568">
        <ele>263</ele>
        <time>2010-11-19T18:10:18Z</time>
      </trkpt>
      <trkpt lat="45.76592" lon="4.81564">
        <ele>262</ele>
        <time>2010-11-19T18:10:19Z</time>
      </trkpt>
      <trkpt lat="45.76592" lon="4.81561">
        <ele>262</ele>
        <time>2010-11-19T18:10:20Z</time>
      </trkpt>
      <trkpt lat="45.76591" lon="4.81558">
        <ele>262</ele>
        <time>2010-11-19T18:10:21Z</time>
      </trkpt>
      <trkpt lat="45.76591" lon="4.81554">
        <ele>262</ele>
        <time>2010-11-19T18:10:22Z</time>
      </trkpt>
      <trkpt lat="45.7659" lon="4.81551">
        <ele>262</ele>
        <time>2010-11-19T18:10:23Z</time>
      </trkpt>
      <trkpt lat="45.76591" lon="4.81548">
        <ele>262</ele>
        <time>2010-11-19T18:10:24Z</time>
      </trkpt>
      <trkpt lat="45.7659" lon="4.81544">
        <ele>262</ele>
        <time>2010-11-19T18:10:25Z</time>
      </trkpt>
      <trkpt lat="45.7659" lon="4.8154">
        <ele>263</ele>
        <time>2010-11-19T18:10:26Z</time>
      </trkpt>
      <trkpt lat="45.76589" lon="4.81537">
        <ele>263</ele>
        <time>2010-11-19T18:10:27Z</time>
      </trkpt>
      <trkpt lat="45.76589" lon="4.81534">
        <ele>263</ele>
        <time>2010-11-19T18:10:28Z</time>
      </trkpt>
      <trkpt lat="45.76588" lon="4.81531">
        <ele>263</ele>
        <time>2010-11-19T18:10:29Z</time>
      </trkpt>
      <trkpt lat="45.76587" lon="4.81528">
        <ele>263</ele>
        <time>2010-11-19T18:10:30Z</time>
      </trkpt>
      <trkpt lat="45.76586" lon="4.81525">
        <ele>263</ele>
        <time>2010-11-19T18:10:31Z</time>
      </trkpt>
      <trkpt lat="45.76585" lon="4.81523">
        <ele>263</ele>
        <time>2010-11-19T18:10:32Z</time>
      </trkpt>
      <trkpt lat="45.76584" lon="4.8152">
        <ele>263</ele>
        <time>2010-11-19T18:10:33Z</time>
      </trkpt>
      <trkpt lat="45.76582" lon="4.81518">
        <ele>263</ele>
        <time>2010-11-19T18:10:34Z</time>
      </trkpt>
      <trkpt lat="45.7658" lon="4.81514">
        <ele>263</ele>
        <time>2010-11-19T18:10:35Z</time>
      </trkpt>
      <trkpt lat="45.76579" lon="4.81511">
        <ele>263</ele>
        <time>2010-11-19T18:10:36Z</time>
      </trkpt>
      <trkpt lat="45.76577" lon="4.81508">
        <ele>263</ele>
        <time>2010-11-19T18:10:37Z</time>
      </trkpt>
      <trkpt lat="45.76577" lon="4.81506">
        <ele>263</ele>
        <time>2010-11-19T18:10:38Z</time>
      </trkpt>
      <trkpt lat="45.76576" lon="4.81504">
        <ele>263</ele>
        <time>2010-11-19T18:10:39Z</time>
      </trkpt>
      <trkpt lat="45.76576" lon="4.81501">
        <ele>264</ele>
        <time>2010-11-19T18:10:40Z</time>
      </trkpt>
      <trkpt lat="45.76575" lon="4.81499">
        <ele>265</ele>
        <time>2010-11-19T18:10:41Z</time>
      </trkpt>
      <trkpt lat="45.76574" lon="4.81496">
        <ele>266</ele>
        <time>2010-11-19T18:10:42Z</time>
      </trkpt>
      <trkpt lat="45.76573" lon="4.81494">
        <ele>266</ele>
        <time>2010-11-19T18:10:43Z</time>
      </trkpt>
      <trkpt lat="45.76573" lon="4.81492">
        <ele>267</ele>
        <time>2010-11-19T18:10:44Z</time>
      </trkpt>
      <trkpt lat="45.76572" lon="4.8149">
        <ele>267</ele>
        <time>2010-11-19T18:10:45Z</time>
      </trkpt>
      <trkpt lat="45.76569" lon="4.81488">
        <ele>267</ele>
        <time>2010-11-19T18:10:46Z</time>
      </trkpt>
      <trkpt lat="45.76568" lon="4.81493">
        <ele>266</ele>
        <time>2010-11-19T18:10:47Z</time>
      </trkpt>
      <trkpt lat="45.76567" lon="4.81494">
        <ele>266</ele>
        <time>2010-11-19T18:10:48Z</time>
      </trkpt>
      <trkpt lat="45.76567" lon="4.81495">
        <ele>266</ele>
        <time>2010-11-19T18:10:49Z</time>
      </trkpt>
      <trkpt lat="45.76566" lon="4.81496">
        <ele>265</ele>
        <time>2010-11-19T18:10:50Z</time>
      </trkpt>
      <trkpt lat="45.76566" lon="4.81497">
        <ele>265</ele>
        <time>2010-11-19T18:10:51Z</time>
      </trkpt>
      <trkpt lat="45.76564" lon="4.81498">
        <ele>266</ele>
        <time>2010-11-19T18:10:52Z</time>
      </trkpt>
      <trkpt lat="45.76563" lon="4.81499">
        <ele>266</ele>
        <time>2010-11-19T18:10:53Z</time>
      </trkpt>
      <trkpt lat="45.76563" lon="4.81499">
        <ele>266</ele>
        <time>2010-11-19T18:10:54Z</time>
      </trkpt>
      <trkpt lat="45.76562" lon="4.81499">
        <ele>267</ele>
        <time>2010-11-19T18:10:55Z</time>
      </trkpt>
      <trkpt lat="45.76561" lon="4.81499">
        <ele>267</ele>
        <time>2010-11-19T18:10:56Z</time>
      </trkpt>
      <trkpt lat="45.7656" lon="4.815">
        <ele>267</ele>
        <time>2010-11-19T18:10:57Z</time>
      </trkpt>
      <trkpt lat="45.76559" lon="4.81499">
        <ele>268</ele>
        <time>2010-11-19T18:10:58Z</time>
      </trkpt>
      <trkpt lat="45.76558" lon="4.815">
        <ele>268</ele>
        <time>2010-11-19T18:10:59Z</time>
      </trkpt>
      <trkpt lat="45.76558" lon="4.815">
        <ele>268</ele>
        <time>2010-11-19T18:11:00Z</time>
      </trkpt>
      <trkpt lat="45.76557" lon="4.81499">
        <ele>268</ele>
        <time>2010-11-19T18:11:01Z</time>
      </trkpt>
      <trkpt lat="45.76557" lon="4.815">
        <ele>268</ele>
        <time>2010-11-19T18:11:02Z</time>
      </trkpt>
      <trkpt lat="45.76557" lon="4.81499">
        <ele>268</ele>
        <time>2010-11-19T18:11:03Z</time>
      </trkpt>
      <trkpt lat="45.76556" lon="4.81498">
        <ele>268</ele>
        <time>2010-11-19T18:11:04Z</time>
      </trkpt>
      <trkpt lat="45.76556" lon="4.81497">
        <ele>268</ele>
        <time>2010-11-19T18:11:05Z</time>
      </trkpt>
      <trkpt lat="45.76555" lon="4.81497">
        <ele>269</ele>
        <time>2010-11-19T18:11:06Z</time>
      </trkpt>
      <trkpt lat="45.76534" lon="4.81489">
        <ele>270</ele>
        <time>2010-11-19T18:11:36Z</time>
      </trkpt>
      <trkpt lat="45.76531" lon="4.81488">
        <ele>270</ele>
        <time>2010-11-19T18:11:37Z</time>
      </trkpt>
      <trkpt lat="45.76528" lon="4.81488">
        <ele>270</ele>
        <time>2010-11-19T18:11:38Z</time>
      </trkpt>
      <trkpt lat="45.76527" lon="4.81487">
        <ele>270</ele>
        <time>2010-11-19T18:11:39Z</time>
      </trkpt>
      <trkpt lat="45.76524" lon="4.81486">
        <ele>270</ele>
        <time>2010-11-19T18:11:40Z</time>
      </trkpt>
      <trkpt lat="45.76524" lon="4.81485">
        <ele>270</ele>
        <time>2010-11-19T18:11:41Z</time>
      </trkpt>
      <trkpt lat="45.76523" lon="4.81484">
        <ele>270</ele>
        <time>2010-11-19T18:11:42Z</time>
      </trkpt>
      <trkpt lat="45.76522" lon="4.81484">
        <ele>270</ele>
        <time>2010-11-19T18:11:43Z</time>
      </trkpt>
      <trkpt lat="45.7652" lon="4.81486">
        <ele>270</ele>
        <time>2010-11-19T18:11:44Z</time>
      </trkpt>
      <trkpt lat="45.76519" lon="4.81487">
        <ele>270</ele>
        <time>2010-11-19T18:11:45Z</time>
      </trkpt>
      <trkpt lat="45.76519" lon="4.81487">
        <ele>270</ele>
        <time>2010-11-19T18:11:46Z</time>
      </trkpt>
      <trkpt lat="45.76517" lon="4.81488">
        <ele>271</ele>
        <time>2010-11-19T18:11:47Z</time>
      </trkpt>
      <trkpt lat="45.76516" lon="4.81489">
        <ele>270</ele>
        <time>2010-11-19T18:11:48Z</time>
      </trkpt>
      <trkpt lat="45.76515" lon="4.81489">
        <ele>270</ele>
        <time>2010-11-19T18:11:49Z</time>
      </trkpt>
      <trkpt lat="45.76515" lon="4.81489">
        <ele>271</ele>
        <time>2010-11-19T18:11:50Z</time>
      </trkpt>
      <trkpt lat="45.76515" lon="4.81486">
        <ele>271</ele>
        <time>2010-11-19T18:11:51Z</time>
      </trkpt>
      <trkpt lat="45.76513" lon="4.81489">
        <ele>271</ele>
        <time>2010-11-19T18:11:52Z</time>
      </trkpt>
      <trkpt lat="45.76512" lon="4.8149">
        <ele>271</ele>
        <time>2010-11-19T18:11:53Z</time>
      </trkpt>
      <trkpt lat="45.76511" lon="4.8149">
        <ele>271</ele>
        <time>2010-11-19T18:11:54Z</time>
      </trkpt>
      <trkpt lat="45.7651" lon="4.81489">
        <ele>271</ele>
        <time>2010-11-19T18:11:55Z</time>
      </trkpt>
      <trkpt lat="45.76509" lon="4.81489">
        <ele>272</ele>
        <time>2010-11-19T18:11:56Z</time>
      </trkpt>
      <trkpt lat="45.76507" lon="4.81489">
        <ele>272</ele>
        <time>2010-11-19T18:11:57Z</time>
      </trkpt>
      <trkpt lat="45.76506" lon="4.81488">
        <ele>272</ele>
        <time>2010-11-19T18:11:58Z</time>
      </trkpt>
      <trkpt lat="45.76504" lon="4.81486">
        <ele>272</ele>
        <time>2010-11-19T18:11:59Z</time>
      </trkpt>
      <trkpt lat="45.76501" lon="4.81483">
        <ele>272</ele>
        <time>2010-11-19T18:12:00Z</time>
      </trkpt>
      <trkpt lat="45.76499" lon="4.81486">
        <ele>272.99557495117</ele>
        <time>2010-11-19T18:12:01Z</time>
      </trkpt>
      <trkpt lat="45.76498" lon="4.81485">
        <ele>273</ele>
        <time>2010-11-19T18:12:02Z</time>
      </trkpt>
      <trkpt lat="45.76497" lon="4.81483">
        <ele>273</ele>
        <time>2010-11-19T18:12:03Z</time>
      </trkpt>
      <trkpt lat="45.76496" lon="4.81483">
        <ele>273</ele>
        <time>2010-11-19T18:12:04Z</time>
      </trkpt>
      <trkpt lat="45.76494" lon="4.81483">
        <ele>273</ele>
        <time>2010-11-19T18:12:05Z</time>
      </trkpt>
      <trkpt lat="45.76494" lon="4.81482">
        <ele>273</ele>
        <time>2010-11-19T18:12:06Z</time>
      </trkpt>
      <trkpt lat="45.76493" lon="4.81482">
        <ele>273</ele>
        <time>2010-11-19T18:12:07Z</time>
      </trkpt>
      <trkpt lat="45.76492" lon="4.81483">
        <ele>273</ele>
        <time>2010-11-19T18:12:08Z</time>
      </trkpt>
      <trkpt lat="45.76492" lon="4.81483">
        <ele>273</ele>
        <time>2010-11-19T18:12:09Z</time>
      </trkpt>
      <trkpt lat="45.76492" lon="4.81483">
        <ele>273</ele>
        <time>2010-11-19T18:12:10Z</time>
      </trkpt>
      <trkpt lat="45.76492" lon="4.81482">
        <ele>273</ele>
        <time>2010-11-19T18:12:11Z</time>
      </trkpt>
      <trkpt lat="45.76492" lon="4.81482">
        <ele>273</ele>
        <time>2010-11-19T18:12:12Z</time>
      </trkpt>
      <trkpt lat="45.76492" lon="4.81481">
        <ele>273</ele>
        <time>2010-11-19T18:12:13Z</time>
      </trkpt>
      <trkpt lat="45.76492" lon="4.81481">
        <ele>273</ele>
        <time>2010-11-19T18:12:14Z</time>
      </trkpt>
      <trkpt lat="45.76492" lon="4.81481">
        <ele>273</ele>
        <time>2010-11-19T18:12:15Z</time>
      </trkpt>
      <trkpt lat="45.76492" lon="4.81479">
        <ele>273</ele>
        <time>2010-11-19T18:12:16Z</time>
      </trkpt>
      <trkpt lat="45.76492" lon="4.81479">
        <ele>273</ele>
        <time>2010-11-19T18:12:17Z</time>
      </trkpt>
      <trkpt lat="45.76478" lon="4.81469">
        <ele>275</ele>
        <time>2010-11-19T18:12:29Z</time>
      </trkpt>
      <trkpt lat="45.76478" lon="4.81468">
        <ele>275</ele>
        <time>2010-11-19T18:12:30Z</time>
      </trkpt>
      <trkpt lat="45.76475" lon="4.81468">
        <ele>276</ele>
        <time>2010-11-19T18:12:31Z</time>
      </trkpt>
      <trkpt lat="45.76472" lon="4.81468">
        <ele>277</ele>
        <time>2010-11-19T18:12:32Z</time>
      </trkpt>
      <trkpt lat="45.76472" lon="4.81467">
        <ele>277</ele>
        <time>2010-11-19T18:12:33Z</time>
      </trkpt>
      <trkpt lat="45.76471" lon="4.81466">
        <ele>277</ele>
        <time>2010-11-19T18:12:34Z</time>
      </trkpt>
      <trkpt lat="45.7647" lon="4.81467">
        <ele>277</ele>
        <time>2010-11-19T18:12:35Z</time>
      </trkpt>
      <trkpt lat="45.7647" lon="4.81469">
        <ele>278</ele>
        <time>2010-11-19T18:12:36Z</time>
      </trkpt>
      <trkpt lat="45.7647" lon="4.81469">
        <ele>279</ele>
        <time>2010-11-19T18:12:37Z</time>
      </trkpt>
      <trkpt lat="45.76469" lon="4.81469">
        <ele>279</ele>
        <time>2010-11-19T18:12:38Z</time>
      </trkpt>
      <trkpt lat="45.76469" lon="4.81469">
        <ele>280</ele>
        <time>2010-11-19T18:12:39Z</time>
      </trkpt>
      <trkpt lat="45.76469" lon="4.81469">
        <ele>280</ele>
        <time>2010-11-19T18:12:40Z</time>
      </trkpt>
      <trkpt lat="45.76469" lon="4.81468">
        <ele>280</ele>
        <time>2010-11-19T18:12:41Z</time>
      </trkpt>
      <trkpt lat="45.76469" lon="4.81469">
        <ele>280</ele>
        <time>2010-11-19T18:12:42Z</time>
      </trkpt>
      <trkpt lat="45.76469" lon="4.81468">
        <ele>280</ele>
        <time>2010-11-19T18:12:43Z</time>
      </trkpt>
      <trkpt lat="45.76469" lon="4.81469">
        <ele>280</ele>
        <time>2010-11-19T18:12:44Z</time>
      </trkpt>
      <trkpt lat="45.76469" lon="4.81468">
        <ele>280</ele>
        <time>2010-11-19T18:12:45Z</time>
      </trkpt>
      <trkpt lat="45.76452" lon="4.81468">
        <ele>293</ele>
        <time>2010-11-19T18:12:55Z</time>
      </trkpt>
      <trkpt lat="45.76449" lon="4.81469">
        <ele>295</ele>
        <time>2010-11-19T18:12:56Z</time>
      </trkpt>
      <trkpt lat="45.76447" lon="4.81471">
        <ele>296</ele>
        <time>2010-11-19T18:12:57Z</time>
      </trkpt>
      <trkpt lat="45.76445" lon="4.81474">
        <ele>297</ele>
        <time>2010-11-19T18:12:58Z</time>
      </trkpt>
      <trkpt lat="45.76442" lon="4.81473">
        <ele>298</ele>
        <time>2010-11-19T18:12:59Z</time>
      </trkpt>
      <trkpt lat="45.76441" lon="4.81472">
        <ele>298</ele>
        <time>2010-11-19T18:13:00Z</time>
      </trkpt>
      <trkpt lat="45.7644" lon="4.81472">
        <ele>300</ele>
        <time>2010-11-19T18:13:01Z</time>
      </trkpt>
      <trkpt lat="45.76438" lon="4.81472">
        <ele>301</ele>
        <time>2010-11-19T18:13:02Z</time>
      </trkpt>
      <trkpt lat="45.76437" lon="4.81472">
        <ele>302</ele>
        <time>2010-11-19T18:13:03Z</time>
      </trkpt>
      <trkpt lat="45.76434" lon="4.81472">
        <ele>304</ele>
        <time>2010-11-19T18:13:04Z</time>
      </trkpt>
      <trkpt lat="45.76433" lon="4.8147">
        <ele>304</ele>
        <time>2010-11-19T18:13:05Z</time>
      </trkpt>
      <trkpt lat="45.76431" lon="4.8147">
        <ele>304</ele>
        <time>2010-11-19T18:13:06Z</time>
      </trkpt>
      <trkpt lat="45.76432" lon="4.81468">
        <ele>304</ele>
        <time>2010-11-19T18:13:07Z</time>
      </trkpt>
      <trkpt lat="45.76429" lon="4.81469">
        <ele>304</ele>
        <time>2010-11-19T18:13:08Z</time>
      </trkpt>
      <trkpt lat="45.76427" lon="4.81467">
        <ele>306</ele>
        <time>2010-11-19T18:13:09Z</time>
      </trkpt>
      <trkpt lat="45.76426" lon="4.81466">
        <ele>307</ele>
        <time>2010-11-19T18:13:10Z</time>
      </trkpt>
      <trkpt lat="45.76425" lon="4.81463">
        <ele>308</ele>
        <time>2010-11-19T18:13:11Z</time>
      </trkpt>
      <trkpt lat="45.76423" lon="4.81464">
        <ele>307</ele>
        <time>2010-11-19T18:13:12Z</time>
      </trkpt>
      <trkpt lat="45.76421" lon="4.81462">
        <ele>308</ele>
        <time>2010-11-19T18:13:13Z</time>
      </trkpt>
      <trkpt lat="45.7642" lon="4.81461">
        <ele>308</ele>
        <time>2010-11-19T18:13:14Z</time>
      </trkpt>
      <trkpt lat="45.76419" lon="4.8146">
        <ele>308</ele>
        <time>2010-11-19T18:13:15Z</time>
      </trkpt>
      <trkpt lat="45.76418" lon="4.81458">
        <ele>308</ele>
        <time>2010-11-19T18:13:16Z</time>
      </trkpt>
      <trkpt lat="45.76416" lon="4.81455">
        <ele>309</ele>
        <time>2010-11-19T18:13:17Z</time>
      </trkpt>
      <trkpt lat="45.76415" lon="4.81453">
        <ele>309</ele>
        <time>2010-11-19T18:13:18Z</time>
      </trkpt>
      <trkpt lat="45.76415" lon="4.81451">
        <ele>309</ele>
        <time>2010-11-19T18:13:19Z</time>
      </trkpt>
      <trkpt lat="45.76414" lon="4.81448">
        <ele>310</ele>
        <time>2010-11-19T18:13:20Z</time>
      </trkpt>
      <trkpt lat="45.76414" lon="4.81446">
        <ele>310</ele>
        <time>2010-11-19T18:13:21Z</time>
      </trkpt>
      <trkpt lat="45.76413" lon="4.81444">
        <ele>312</ele>
        <time>2010-11-19T18:13:22Z</time>
      </trkpt>
      <trkpt lat="45.76411" lon="4.81441">
        <ele>313</ele>
        <time>2010-11-19T18:13:23Z</time>
      </trkpt>
      <trkpt lat="45.76411" lon="4.81438">
        <ele>315</ele>
        <time>2010-11-19T18:13:24Z</time>
      </trkpt>
      <trkpt lat="45.76411" lon="4.81436">
        <ele>315</ele>
        <time>2010-11-19T18:13:25Z</time>
      </trkpt>
      <trkpt lat="45.76411" lon="4.81432">
        <ele>315</ele>
        <time>2010-11-19T18:13:26Z</time>
      </trkpt>
      <trkpt lat="45.7641" lon="4.81429">
        <ele>315</ele>
        <time>2010-11-19T18:13:27Z</time>
      </trkpt>
      <trkpt lat="45.7641" lon="4.81427">
        <ele>316</ele>
        <time>2010-11-19T18:13:28Z</time>
      </trkpt>
      <trkpt lat="45.76409" lon="4.81425">
        <ele>316</ele>
        <time>2010-11-19T18:13:29Z</time>
      </trkpt>
      <trkpt lat="45.76409" lon="4.81423">
        <ele>316</ele>
        <time>2010-11-19T18:13:30Z</time>
      </trkpt>
      <trkpt lat="45.76409" lon="4.81421">
        <ele>316</ele>
        <time>2010-11-19T18:13:31Z</time>
      </trkpt>
      <trkpt lat="45.76408" lon="4.81418">
        <ele>316</ele>
        <time>2010-11-19T18:13:32Z</time>
      </trkpt>
      <trkpt lat="45.76408" lon="4.81416">
        <ele>316</ele>
        <time>2010-11-19T18:13:33Z</time>
      </trkpt>
      <trkpt lat="45.76408" lon="4.81415">
        <ele>316</ele>
        <time>2010-11-19T18:13:34Z</time>
      </trkpt>
      <trkpt lat="45.76408" lon="4.81411">
        <ele>317</ele>
        <time>2010-11-19T18:13:35Z</time>
      </trkpt>
      <trkpt lat="45.76408" lon="4.81409">
        <ele>317</ele>
        <time>2010-11-19T18:13:36Z</time>
      </trkpt>
      <trkpt lat="45.76408" lon="4.81406">
        <ele>317</ele>
        <time>2010-11-19T18:13:37Z</time>
      </trkpt>
      <trkpt lat="45.76406" lon="4.81402">
        <ele>318</ele>
        <time>2010-11-19T18:13:38Z</time>
      </trkpt>
      <trkpt lat="45.76407" lon="4.814">
        <ele>318</ele>
        <time>2010-11-19T18:13:39Z</time>
      </trkpt>
      <trkpt lat="45.76406" lon="4.81398">
        <ele>318</ele>
        <time>2010-11-19T18:13:40Z</time>
      </trkpt>
      <trkpt lat="45.76406" lon="4.81396">
        <ele>318</ele>
        <time>2010-11-19T18:13:41Z</time>
      </trkpt>
      <trkpt lat="45.76404" lon="4.81394">
        <ele>319</ele>
        <time>2010-11-19T18:13:42Z</time>
      </trkpt>
      <trkpt lat="45.76403" lon="4.8139">
        <ele>319</ele>
        <time>2010-11-19T18:13:43Z</time>
      </trkpt>
      <trkpt lat="45.76403" lon="4.81387">
        <ele>320</ele>
        <time>2010-11-19T18:13:44Z</time>
      </trkpt>
      <trkpt lat="45.76404" lon="4.81384">
        <ele>320</ele>
        <time>2010-11-19T18:13:45Z</time>
      </trkpt>
      <trkpt lat="45.76403" lon="4.81381">
        <ele>321</ele>
        <time>2010-11-19T18:13:46Z</time>
      </trkpt>
      <trkpt lat="45.76402" lon="4.81378">
        <ele>321</ele>
        <time>2010-11-19T18:13:47Z</time>
      </trkpt>
      <trkpt lat="45.76402" lon="4.81374">
        <ele>322</ele>
        <time>2010-11-19T18:13:48Z</time>
      </trkpt>
      <trkpt lat="45.76402" lon="4.81372">
        <ele>322</ele>
        <time>2010-11-19T18:13:49Z</time>
      </trkpt>
      <trkpt lat="45.76402" lon="4.8137">
        <ele>322</ele>
        <time>2010-11-19T18:13:50Z</time>
      </trkpt>
      <trkpt lat="45.76402" lon="4.81366">
        <ele>323</ele>
        <time>2010-11-19T18:13:51Z</time>
      </trkpt>
      <trkpt lat="45.76402" lon="4.81364">
        <ele>323</ele>
        <time>2010-11-19T18:13:52Z</time>
      </trkpt>
      <trkpt lat="45.76402" lon="4.81361">
        <ele>324</ele>
        <time>2010-11-19T18:13:53Z</time>
      </trkpt>
      <trkpt lat="45.76402" lon="4.81357">
        <ele>325</ele>
        <time>2010-11-19T18:13:54Z</time>
      </trkpt>
      <trkpt lat="45.76402" lon="4.81354">
        <ele>324</ele>
        <time>2010-11-19T18:13:55Z</time>
      </trkpt>
      <trkpt lat="45.76401" lon="4.8135">
        <ele>325</ele>
        <time>2010-11-19T18:13:56Z</time>
      </trkpt>
      <trkpt lat="45.76399" lon="4.81347">
        <ele>325</ele>
        <time>2010-11-19T18:13:57Z</time>
      </trkpt>
      <trkpt lat="45.76397" lon="4.81344">
        <ele>325</ele>
        <time>2010-11-19T18:13:58Z</time>
      </trkpt>
      <trkpt lat="45.76397" lon="4.8134">
        <ele>326</ele>
        <time>2010-11-19T18:13:59Z</time>
      </trkpt>
      <trkpt lat="45.76396" lon="4.81337">
        <ele>326</ele>
        <time>2010-11-19T18:14:00Z</time>
      </trkpt>
      <trkpt lat="45.76394" lon="4.81335">
        <ele>325</ele>
        <time>2010-11-19T18:14:01Z</time>
      </trkpt>
      <trkpt lat="45.76392" lon="4.81333">
        <ele>325</ele>
        <time>2010-11-19T18:14:02Z</time>
      </trkpt>
      <trkpt lat="45.76389" lon="4.81332">
        <ele>325</ele>
        <time>2010-11-19T18:14:03Z</time>
      </trkpt>
      <trkpt lat="45.76387" lon="4.81332">
        <ele>325</ele>
        <time>2010-11-19T18:14:04Z</time>
      </trkpt>
      <trkpt lat="45.76384" lon="4.81332">
        <ele>325</ele>
        <time>2010-11-19T18:14:05Z</time>
      </trkpt>
      <trkpt lat="45.76382" lon="4.81332">
        <ele>324</ele>
        <time>2010-11-19T18:14:06Z</time>
      </trkpt>
      <trkpt lat="45.7638" lon="4.8133">
        <ele>324</ele>
        <time>2010-11-19T18:14:07Z</time>
      </trkpt>
      <trkpt lat="45.76377" lon="4.81331">
        <ele>325</ele>
        <time>2010-11-19T18:14:08Z</time>
      </trkpt>
      <trkpt lat="45.76374" lon="4.81329">
        <ele>325</ele>
        <time>2010-11-19T18:14:09Z</time>
      </trkpt>
      <trkpt lat="45.76372" lon="4.81327">
        <ele>326</ele>
        <time>2010-11-19T18:14:10Z</time>
      </trkpt>
      <trkpt lat="45.76369" lon="4.81326">
        <ele>327</ele>
        <time>2010-11-19T18:14:11Z</time>
      </trkpt>
      <trkpt lat="45.76367" lon="4.81325">
        <ele>327</ele>
        <time>2010-11-19T18:14:12Z</time>
      </trkpt>
      <trkpt lat="45.76365" lon="4.81323">
        <ele>327</ele>
        <time>2010-11-19T18:14:13Z</time>
      </trkpt>
      <trkpt lat="45.76362" lon="4.81323">
        <ele>327</ele>
        <time>2010-11-19T18:14:14Z</time>
      </trkpt>
      <trkpt lat="45.7636" lon="4.81322">
        <ele>327</ele>
        <time>2010-11-19T18:14:15Z</time>
      </trkpt>
      <trkpt lat="45.76358" lon="4.81321">
        <ele>327</ele>
        <time>2010-11-19T18:14:16Z</time>
      </trkpt>
      <trkpt lat="45.76356" lon="4.81321">
        <ele>327</ele>
        <time>2010-11-19T18:14:17Z</time>
      </trkpt>
      <trkpt lat="45.76354" lon="4.8132">
        <ele>328</ele>
        <time>2010-11-19T18:14:18Z</time>
      </trkpt>
      <trkpt lat="45.76352" lon="4.8132">
        <ele>328</ele>
        <time>2010-11-19T18:14:19Z</time>
      </trkpt>
      <trkpt lat="45.7635" lon="4.8132">
        <ele>328</ele>
        <time>2010-11-19T18:14:20Z</time>
      </trkpt>
      <trkpt lat="45.76349" lon="4.8132">
        <ele>328</ele>
        <time>2010-11-19T18:14:21Z</time>
      </trkpt>
      <trkpt lat="45.76347" lon="4.81321">
        <ele>328</ele>
        <time>2010-11-19T18:14:22Z</time>
      </trkpt>
      <trkpt lat="45.76345" lon="4.8132">
        <ele>328</ele>
        <time>2010-11-19T18:14:23Z</time>
      </trkpt>
      <trkpt lat="45.76344" lon="4.81321">
        <ele>328</ele>
        <time>2010-11-19T18:14:24Z</time>
      </trkpt>
      <trkpt lat="45.76342" lon="4.81321">
        <ele>328</ele>
        <time>2010-11-19T18:14:25Z</time>
      </trkpt>
      <trkpt lat="45.76339" lon="4.81321">
        <ele>328</ele>
        <time>2010-11-19T18:14:26Z</time>
      </trkpt>
      <trkpt lat="45.76337" lon="4.81322">
        <ele>328</ele>
        <time>2010-11-19T18:14:27Z</time>
      </trkpt>
      <trkpt lat="45.76334" lon="4.8132">
        <ele>328</ele>
        <time>2010-11-19T18:14:28Z</time>
      </trkpt>
      <trkpt lat="45.76332" lon="4.81318">
        <ele>328</ele>
        <time>2010-11-19T18:14:29Z</time>
      </trkpt>
      <trkpt lat="45.76329" lon="4.81318">
        <ele>329</ele>
        <time>2010-11-19T18:14:30Z</time>
      </trkpt>
      <trkpt lat="45.76327" lon="4.81316">
        <ele>329</ele>
        <time>2010-11-19T18:14:31Z</time>
      </trkpt>
      <trkpt lat="45.76324" lon="4.81313">
        <ele>330</ele>
        <time>2010-11-19T18:14:32Z</time>
      </trkpt>
      <trkpt lat="45.76322" lon="4.81314">
        <ele>330</ele>
        <time>2010-11-19T18:14:33Z</time>
      </trkpt>
      <trkpt lat="45.76319" lon="4.81314">
        <ele>329</ele>
        <time>2010-11-19T18:14:34Z</time>
      </trkpt>
      <trkpt lat="45.76319" lon="4.81318">
        <ele>330</ele>
        <time>2010-11-19T18:14:35Z</time>
      </trkpt>
      <trkpt lat="45.76316" lon="4.81319">
        <ele>330</ele>
        <time>2010-11-19T18:14:36Z</time>
      </trkpt>
      <trkpt lat="45.76314" lon="4.81319">
        <ele>332</ele>
        <time>2010-11-19T18:14:37Z</time>
      </trkpt>
      <trkpt lat="45.76312" lon="4.8132">
        <ele>332</ele>
        <time>2010-11-19T18:14:38Z</time>
      </trkpt>
      <trkpt lat="45.76309" lon="4.81321">
        <ele>333</ele>
        <time>2010-11-19T18:14:39Z</time>
      </trkpt>
      <trkpt lat="45.76307" lon="4.81322">
        <ele>332</ele>
        <time>2010-11-19T18:14:40Z</time>
      </trkpt>
      <trkpt lat="45.76305" lon="4.81324">
        <ele>332</ele>
        <time>2010-11-19T18:14:41Z</time>
      </trkpt>
      <trkpt lat="45.76303" lon="4.81325">
        <ele>333</ele>
        <time>2010-11-19T18:14:42Z</time>
      </trkpt>
      <trkpt lat="45.76302" lon="4.81327">
        <ele>334</ele>
        <time>2010-11-19T18:14:43Z</time>
      </trkpt>
      <trkpt lat="45.763" lon="4.81328">
        <ele>335</ele>
        <time>2010-11-19T18:14:44Z</time>
      </trkpt>
      <trkpt lat="45.76298" lon="4.81329">
        <ele>335</ele>
        <time>2010-11-19T18:14:45Z</time>
      </trkpt>
      <trkpt lat="45.76296" lon="4.81332">
        <ele>335</ele>
        <time>2010-11-19T18:14:46Z</time>
      </trkpt>
      <trkpt lat="45.76294" lon="4.81333">
        <ele>335</ele>
        <time>2010-11-19T18:14:47Z</time>
      </trkpt>
      <trkpt lat="45.76293" lon="4.81335">
        <ele>334</ele>
        <time>2010-11-19T18:14:48Z</time>
      </trkpt>
      <trkpt lat="45.76291" lon="4.81336">
        <ele>334</ele>
        <time>2010-11-19T18:14:49Z</time>
      </trkpt>
      <trkpt lat="45.7629" lon="4.81338">
        <ele>334</ele>
        <time>2010-11-19T18:14:50Z</time>
      </trkpt>
      <trkpt lat="45.76288" lon="4.8134">
        <ele>334</ele>
        <time>2010-11-19T18:14:51Z</time>
      </trkpt>
      <trkpt lat="45.76286" lon="4.81342">
        <ele>334</ele>
        <time>2010-11-19T18:14:52Z</time>
      </trkpt>
      <trkpt lat="45.76284" lon="4.81344">
        <ele>333</ele>
        <time>2010-11-19T18:14:53Z</time>
      </trkpt>
      <trkpt lat="45.76283" lon="4.81346">
        <ele>333</ele>
        <time>2010-11-19T18:14:54Z</time>
      </trkpt>
      <trkpt lat="45.76281" lon="4.81348">
        <ele>333</ele>
        <time>2010-11-19T18:14:55Z</time>
      </trkpt>
      <trkpt lat="45.76279" lon="4.8135">
        <ele>333</ele>
        <time>2010-11-19T18:14:56Z</time>
      </trkpt>
      <trkpt lat="45.76278" lon="4.81352">
        <ele>333</ele>
        <time>2010-11-19T18:14:57Z</time>
      </trkpt>
      <trkpt lat="45.76276" lon="4.81353">
        <ele>332</ele>
        <time>2010-11-19T18:14:58Z</time>
      </trkpt>
      <trkpt lat="45.76275" lon="4.81356">
        <ele>333</ele>
        <time>2010-11-19T18:14:59Z</time>
      </trkpt>
      <trkpt lat="45.76274" lon="4.81358">
        <ele>333</ele>
        <time>2010-11-19T18:15:00Z</time>
      </trkpt>
      <trkpt lat="45.76275" lon="4.81361">
        <ele>333</ele>
        <time>2010-11-19T18:15:01Z</time>
      </trkpt>
      <trkpt lat="45.76275" lon="4.81364">
        <ele>333</ele>
        <time>2010-11-19T18:15:02Z</time>
      </trkpt>
      <trkpt lat="45.76277" lon="4.81367">
        <ele>333</ele>
        <time>2010-11-19T18:15:03Z</time>
      </trkpt>
      <trkpt lat="45.76279" lon="4.8137">
        <ele>332</ele>
        <time>2010-11-19T18:15:04Z</time>
      </trkpt>
      <trkpt lat="45.76281" lon="4.8137">
        <ele>331</ele>
        <time>2010-11-19T18:15:05Z</time>
      </trkpt>
      <trkpt lat="45.76282" lon="4.81372">
        <ele>331</ele>
        <time>2010-11-19T18:15:06Z</time>
      </trkpt>
      <trkpt lat="45.76283" lon="4.81373">
        <ele>331</ele>
        <time>2010-11-19T18:15:07Z</time>
      </trkpt>
      <trkpt lat="45.76284" lon="4.81373">
        <ele>331</ele>
        <time>2010-11-19T18:15:08Z</time>
      </trkpt>
      <trkpt lat="45.76284" lon="4.81374">
        <ele>330</ele>
        <time>2010-11-19T18:15:09Z</time>
      </trkpt>
      <trkpt lat="45.76285" lon="4.81375">
        <ele>330</ele>
        <time>2010-11-19T18:15:10Z</time>
      </trkpt>
      <trkpt lat="45.76286" lon="4.81376">
        <ele>331</ele>
        <time>2010-11-19T18:15:11Z</time>
      </trkpt>
      <trkpt lat="45.76287" lon="4.81378">
        <ele>331</ele>
        <time>2010-11-19T18:15:12Z</time>
      </trkpt>
      <trkpt lat="45.76287" lon="4.81379">
        <ele>330</ele>
        <time>2010-11-19T18:15:13Z</time>
      </trkpt>
      <trkpt lat="45.76288" lon="4.81382">
        <ele>330</ele>
        <time>2010-11-19T18:15:14Z</time>
      </trkpt>
      <trkpt lat="45.76289" lon="4.81385">
        <ele>330</ele>
        <time>2010-11-19T18:15:15Z</time>
      </trkpt>
      <trkpt lat="45.7629" lon="4.81388">
        <ele>330</ele>
        <time>2010-11-19T18:15:16Z</time>
      </trkpt>
      <trkpt lat="45.76291" lon="4.81391">
        <ele>330</ele>
        <time>2010-11-19T18:15:17Z</time>
      </trkpt>
      <trkpt lat="45.76291" lon="4.81394">
        <ele>330</ele>
        <time>2010-11-19T18:15:18Z</time>
      </trkpt>
      <trkpt lat="45.76292" lon="4.81397">
        <ele>330</ele>
        <time>2010-11-19T18:15:19Z</time>
      </trkpt>
      <trkpt lat="45.76292" lon="4.814">
        <ele>330</ele>
        <time>2010-11-19T18:15:20Z</time>
      </trkpt>
      <trkpt lat="45.76292" lon="4.81404">
        <ele>329</ele>
        <time>2010-11-19T18:15:21Z</time>
      </trkpt>
      <trkpt lat="45.76293" lon="4.81404">
        <ele>329</ele>
        <time>2010-11-19T18:15:22Z</time>
      </trkpt>
      <trkpt lat="45.76293" lon="4.81408">
        <ele>329</ele>
        <time>2010-11-19T18:15:23Z</time>
      </trkpt>
      <trkpt lat="45.76293" lon="4.81413">
        <ele>329</ele>
        <time>2010-11-19T18:15:24Z</time>
      </trkpt>
      <trkpt lat="45.76293" lon="4.81417">
        <ele>330</ele>
        <time>2010-11-19T18:15:25Z</time>
      </trkpt>
      <trkpt lat="45.76293" lon="4.81417">
        <ele>329</ele>
        <time>2010-11-19T18:15:26Z</time>
      </trkpt>
      <trkpt lat="45.76292" lon="4.8142">
        <ele>329</ele>
        <time>2010-11-19T18:15:27Z</time>
      </trkpt>
      <trkpt lat="45.76292" lon="4.8142">
        <ele>330</ele>
        <time>2010-11-19T18:15:28Z</time>
      </trkpt>
      <trkpt lat="45.76292" lon="4.8142">
        <ele>330</ele>
        <time>2010-11-19T18:15:29Z</time>
      </trkpt>
      <trkpt lat="45.76292" lon="4.81421">
        <ele>330</ele>
        <time>2010-11-19T18:15:30Z</time>
      </trkpt>
      <trkpt lat="45.76293" lon="4.81423">
        <ele>330</ele>
        <time>2010-11-19T18:15:31Z</time>
      </trkpt>
      <trkpt lat="45.76294" lon="4.81425">
        <ele>331</ele>
        <time>2010-11-19T18:15:32Z</time>
      </trkpt>
      <trkpt lat="45.76293" lon="4.81428">
        <ele>330</ele>
        <time>2010-11-19T18:15:33Z</time>
      </trkpt>
      <trkpt lat="45.76294" lon="4.81429">
        <ele>331</ele>
        <time>2010-11-19T18:15:34Z</time>
      </trkpt>
      <trkpt lat="45.76294" lon="4.8143">
        <ele>331</ele>
        <time>2010-11-19T18:15:35Z</time>
      </trkpt>
      <trkpt lat="45.76294" lon="4.81432">
        <ele>331</ele>
        <time>2010-11-19T18:15:36Z</time>
      </trkpt>
      <trkpt lat="45.76295" lon="4.81433">
        <ele>332</ele>
        <time>2010-11-19T18:15:37Z</time>
      </trkpt>
      <trkpt lat="45.76295" lon="4.81436">
        <ele>331</ele>
        <time>2010-11-19T18:15:38Z</time>
      </trkpt>
      <trkpt lat="45.76294" lon="4.81439">
        <ele>331</ele>
        <time>2010-11-19T18:15:39Z</time>
      </trkpt>
      <trkpt lat="45.76294" lon="4.81441">
        <ele>331</ele>
        <time>2010-11-19T18:15:40Z</time>
      </trkpt>
      <trkpt lat="45.76295" lon="4.81444">
        <ele>331</ele>
        <time>2010-11-19T18:15:41Z</time>
      </trkpt>
      <trkpt lat="45.76295" lon="4.81447">
        <ele>331</ele>
        <time>2010-11-19T18:15:42Z</time>
      </trkpt>
      <trkpt lat="45.76295" lon="4.8145">
        <ele>331</ele>
        <time>2010-11-19T18:15:43Z</time>
      </trkpt>
      <trkpt lat="45.76295" lon="4.81453">
        <ele>331</ele>
        <time>2010-11-19T18:15:44Z</time>
      </trkpt>
      <trkpt lat="45.76297" lon="4.81456">
        <ele>331</ele>
        <time>2010-11-19T18:15:45Z</time>
      </trkpt>
      <trkpt lat="45.76298" lon="4.81461">
        <ele>331</ele>
        <time>2010-11-19T18:15:46Z</time>
      </trkpt>
      <trkpt lat="45.76298" lon="4.81465">
        <ele>331</ele>
        <time>2010-11-19T18:15:47Z</time>
      </trkpt>
      <trkpt lat="45.76299" lon="4.81469">
        <ele>330</ele>
        <time>2010-11-19T18:15:48Z</time>
      </trkpt>
      <trkpt lat="45.76299" lon="4.81474">
        <ele>330</ele>
        <time>2010-11-19T18:15:49Z</time>
      </trkpt>
      <trkpt lat="45.76299" lon="4.81478">
        <ele>330</ele>
        <time>2010-11-19T18:15:50Z</time>
      </trkpt>
      <trkpt lat="45.763" lon="4.81481">
        <ele>329</ele>
        <time>2010-11-19T18:15:51Z</time>
      </trkpt>
      <trkpt lat="45.76301" lon="4.81485">
        <ele>329</ele>
        <time>2010-11-19T18:15:52Z</time>
      </trkpt>
      <trkpt lat="45.76301" lon="4.81489">
        <ele>329</ele>
        <time>2010-11-19T18:15:53Z</time>
      </trkpt>
      <trkpt lat="45.76302" lon="4.81492">
        <ele>329</ele>
        <time>2010-11-19T18:15:54Z</time>
      </trkpt>
      <trkpt lat="45.76301" lon="4.81496">
        <ele>329</ele>
        <time>2010-11-19T18:15:55Z</time>
      </trkpt>
      <trkpt lat="45.76302" lon="4.81499">
        <ele>329</ele>
        <time>2010-11-19T18:15:56Z</time>
      </trkpt>
      <trkpt lat="45.76302" lon="4.81502">
        <ele>328</ele>
        <time>2010-11-19T18:15:57Z</time>
      </trkpt>
      <trkpt lat="45.76303" lon="4.81506">
        <ele>328</ele>
        <time>2010-11-19T18:15:58Z</time>
      </trkpt>
      <trkpt lat="45.76305" lon="4.8151">
        <ele>328</ele>
        <time>2010-11-19T18:15:59Z</time>
      </trkpt>
      <trkpt lat="45.76306" lon="4.81514">
        <ele>328</ele>
        <time>2010-11-19T18:16:00Z</time>
      </trkpt>
      <trkpt lat="45.76306" lon="4.81518">
        <ele>327</ele>
        <time>2010-11-19T18:16:01Z</time>
      </trkpt>
      <trkpt lat="45.76307" lon="4.81522">
        <ele>328</ele>
        <time>2010-11-19T18:16:02Z</time>
      </trkpt>
      <trkpt lat="45.76306" lon="4.81526">
        <ele>328</ele>
        <time>2010-11-19T18:16:03Z</time>
      </trkpt>
      <trkpt lat="45.76308" lon="4.81531">
        <ele>328</ele>
        <time>2010-11-19T18:16:04Z</time>
      </trkpt>
      <trkpt lat="45.76308" lon="4.81535">
        <ele>327</ele>
        <time>2010-11-19T18:16:05Z</time>
      </trkpt>
      <trkpt lat="45.76308" lon="4.81538">
        <ele>328</ele>
        <time>2010-11-19T18:16:06Z</time>
      </trkpt>
      <trkpt lat="45.7631" lon="4.81541">
        <ele>327</ele>
        <time>2010-11-19T18:16:07Z</time>
      </trkpt>
      <trkpt lat="45.76311" lon="4.81545">
        <ele>327</ele>
        <time>2010-11-19T18:16:08Z</time>
      </trkpt>
      <trkpt lat="45.76311" lon="4.81548">
        <ele>327</ele>
        <time>2010-11-19T18:16:09Z</time>
      </trkpt>
      <trkpt lat="45.7631" lon="4.81552">
        <ele>327</ele>
        <time>2010-11-19T18:16:10Z</time>
      </trkpt>
      <trkpt lat="45.76311" lon="4.81557">
        <ele>326</ele>
        <time>2010-11-19T18:16:11Z</time>
      </trkpt>
      <trkpt lat="45.76312" lon="4.81562">
        <ele>326</ele>
        <time>2010-11-19T18:16:12Z</time>
      </trkpt>
      <trkpt lat="45.76312" lon="4.81567">
        <ele>326</ele>
        <time>2010-11-19T18:16:13Z</time>
      </trkpt>
      <trkpt lat="45.76313" lon="4.8157">
        <ele>326</ele>
        <time>2010-11-19T18:16:14Z</time>
      </trkpt>
      <trkpt lat="45.76313" lon="4.81575">
        <ele>326</ele>
        <time>2010-11-19T18:16:15Z</time>
      </trkpt>
      <trkpt lat="45.76313" lon="4.8158">
        <ele>326</ele>
        <time>2010-11-19T18:16:16Z</time>
      </trkpt>
      <trkpt lat="45.76312" lon="4.81585">
        <ele>327</ele>
        <time>2010-11-19T18:16:17Z</time>
      </trkpt>
      <trkpt lat="45.76312" lon="4.81587">
        <ele>326</ele>
        <time>2010-11-19T18:16:18Z</time>
      </trkpt>
      <trkpt lat="45.76312" lon="4.81592">
        <ele>327</ele>
        <time>2010-11-19T18:16:19Z</time>
      </trkpt>
      <trkpt lat="45.76313" lon="4.81595">
        <ele>327</ele>
        <time>2010-11-19T18:16:20Z</time>
      </trkpt>
      <trkpt lat="45.76312" lon="4.81599">
        <ele>327</ele>
        <time>2010-11-19T18:16:21Z</time>
      </trkpt>
      <trkpt lat="45.76313" lon="4.81602">
        <ele>327</ele>
        <time>2010-11-19T18:16:22Z</time>
      </trkpt>
      <trkpt lat="45.76316" lon="4.81606">
        <ele>328</ele>
        <time>2010-11-19T18:16:23Z</time>
      </trkpt>
      <trkpt lat="45.76316" lon="4.81612">
        <ele>329</ele>
        <time>2010-11-19T18:16:24Z</time>
      </trkpt>
      <trkpt lat="45.76316" lon="4.81619">
        <ele>329</ele>
        <time>2010-11-19T18:16:25Z</time>
      </trkpt>
      <trkpt lat="45.76316" lon="4.81622">
        <ele>329</ele>
        <time>2010-11-19T18:16:26Z</time>
      </trkpt>
      <trkpt lat="45.76316" lon="4.81625">
        <ele>329</ele>
        <time>2010-11-19T18:16:27Z</time>
      </trkpt>
      <trkpt lat="45.76316" lon="4.81629">
        <ele>329</ele>
        <time>2010-11-19T18:16:28Z</time>
      </trkpt>
      <trkpt lat="45.76317" lon="4.81632">
        <ele>328</ele>
        <time>2010-11-19T18:16:29Z</time>
      </trkpt>
      <trkpt lat="45.76317" lon="4.81636">
        <ele>327</ele>
        <time>2010-11-19T18:16:30Z</time>
      </trkpt>
      <trkpt lat="45.76318" lon="4.81639">
        <ele>326</ele>
        <time>2010-11-19T18:16:31Z</time>
      </trkpt>
      <trkpt lat="45.76319" lon="4.81642">
        <ele>325.17077636719</ele>
        <time>2010-11-19T18:16:32Z</time>
      </trkpt>
      <trkpt lat="45.7632" lon="4.81645">
        <ele>325</ele>
        <time>2010-11-19T18:16:33Z</time>
      </trkpt>
      <trkpt lat="45.76321" lon="4.81648">
        <ele>325</ele>
        <time>2010-11-19T18:16:34Z</time>
      </trkpt>
      <trkpt lat="45.76322" lon="4.81651">
        <ele>325</ele>
        <time>2010-11-19T18:16:35Z</time>
      </trkpt>
      <trkpt lat="45.76324" lon="4.81656">
        <ele>325</ele>
        <time>2010-11-19T18:16:36Z</time>
      </trkpt>
      <trkpt lat="45.76324" lon="4.81661">
        <ele>324</ele>
        <time>2010-11-19T18:16:37Z</time>
      </trkpt>
      <trkpt lat="45.76325" lon="4.81664">
        <ele>323</ele>
        <time>2010-11-19T18:16:38Z</time>
      </trkpt>
      <trkpt lat="45.76325" lon="4.81667">
        <ele>324</ele>
        <time>2010-11-19T18:16:39Z</time>
      </trkpt>
      <trkpt lat="45.76326" lon="4.81671">
        <ele>323</ele>
        <time>2010-11-19T18:16:40Z</time>
      </trkpt>
      <trkpt lat="45.76327" lon="4.81673">
        <ele>323</ele>
        <time>2010-11-19T18:16:41Z</time>
      </trkpt>
      <trkpt lat="45.76328" lon="4.81676">
        <ele>323</ele>
        <time>2010-11-19T18:16:42Z</time>
      </trkpt>
      <trkpt lat="45.76328" lon="4.8168">
        <ele>323</ele>
        <time>2010-11-19T18:16:43Z</time>
      </trkpt>
      <trkpt lat="45.76329" lon="4.81682">
        <ele>323</ele>
        <time>2010-11-19T18:16:44Z</time>
      </trkpt>
      <trkpt lat="45.7633" lon="4.81687">
        <ele>323</ele>
        <time>2010-11-19T18:16:45Z</time>
      </trkpt>
      <trkpt lat="45.7633" lon="4.81691">
        <ele>322</ele>
        <time>2010-11-19T18:16:46Z</time>
      </trkpt>
      <trkpt lat="45.76331" lon="4.81695">
        <ele>322</ele>
        <time>2010-11-19T18:16:47Z</time>
      </trkpt>
      <trkpt lat="45.76331" lon="4.81698">
        <ele>323</ele>
        <time>2010-11-19T18:16:48Z</time>
      </trkpt>
      <trkpt lat="45.76331" lon="4.81703">
        <ele>324</ele>
        <time>2010-11-19T18:16:49Z</time>
      </trkpt>
      <trkpt lat="45.76331" lon="4.81707">
        <ele>325</ele>
        <time>2010-11-19T18:16:50Z</time>
      </trkpt>
      <trkpt lat="45.76331" lon="4.81711">
        <ele>326</ele>
        <time>2010-11-19T18:16:51Z</time>
      </trkpt>
      <trkpt lat="45.7633" lon="4.81715">
        <ele>327</ele>
        <time>2010-11-19T18:16:52Z</time>
      </trkpt>
      <trkpt lat="45.76331" lon="4.81718">
        <ele>327</ele>
        <time>2010-11-19T18:16:53Z</time>
      </trkpt>
      <trkpt lat="45.7633" lon="4.81722">
        <ele>327</ele>
        <time>2010-11-19T18:16:54Z</time>
      </trkpt>
      <trkpt lat="45.76331" lon="4.81726">
        <ele>327</ele>
        <time>2010-11-19T18:16:55Z</time>
      </trkpt>
      <trkpt lat="45.7633" lon="4.8173">
        <ele>328</ele>
        <time>2010-11-19T18:16:56Z</time>
      </trkpt>
      <trkpt lat="45.76331" lon="4.81735">
        <ele>327</ele>
        <time>2010-11-19T18:16:57Z</time>
      </trkpt>
      <trkpt lat="45.76331" lon="4.81739">
        <ele>327</ele>
        <time>2010-11-19T18:16:58Z</time>
      </trkpt>
      <trkpt lat="45.7633" lon="4.81744">
        <ele>326</ele>
        <time>2010-11-19T18:16:59Z</time>
      </trkpt>
      <trkpt lat="45.7633" lon="4.81748">
        <ele>326</ele>
        <time>2010-11-19T18:17:00Z</time>
      </trkpt>
      <trkpt lat="45.76329" lon="4.81752">
        <ele>325</ele>
        <time>2010-11-19T18:17:01Z</time>
      </trkpt>
      <trkpt lat="45.7633" lon="4.81756">
        <ele>325</ele>
        <time>2010-11-19T18:17:02Z</time>
      </trkpt>
      <trkpt lat="45.76329" lon="4.81759">
        <ele>325</ele>
        <time>2010-11-19T18:17:03Z</time>
      </trkpt>
      <trkpt lat="45.7633" lon="4.81762">
        <ele>325</ele>
        <time>2010-11-19T18:17:04Z</time>
      </trkpt>
      <trkpt lat="45.7633" lon="4.81766">
        <ele>326</ele>
        <time>2010-11-19T18:17:05Z</time>
      </trkpt>
      <trkpt lat="45.76331" lon="4.81768">
        <ele>326</ele>
        <time>2010-11-19T18:17:06Z</time>
      </trkpt>
      <trkpt lat="45.76331" lon="4.81771">
        <ele>326</ele>
        <time>2010-11-19T18:17:07Z</time>
      </trkpt>
      <trkpt lat="45.76331" lon="4.81775">
        <ele>326</ele>
        <time>2010-11-19T18:17:08Z</time>
      </trkpt>
      <trkpt lat="45.76331" lon="4.81779">
        <ele>326</ele>
        <time>2010-11-19T18:17:09Z</time>
      </trkpt>
      <trkpt lat="45.76331" lon="4.81783">
        <ele>326</ele>
        <time>2010-11-19T18:17:10Z</time>
      </trkpt>
      <trkpt lat="45.76331" lon="4.81787">
        <ele>326</ele>
        <time>2010-11-19T18:17:11Z</time>
      </trkpt>
      <trkpt lat="45.76332" lon="4.81791">
        <ele>326</ele>
        <time>2010-11-19T18:17:12Z</time>
      </trkpt>
      <trkpt lat="45.76333" lon="4.81796">
        <ele>326</ele>
        <time>2010-11-19T18:17:13Z</time>
      </trkpt>
      <trkpt lat="45.76334" lon="4.81801">
        <ele>325</ele>
        <time>2010-11-19T18:17:14Z</time>
      </trkpt>
      <trkpt lat="45.76333" lon="4.81805">
        <ele>325</ele>
        <time>2010-11-19T18:17:15Z</time>
      </trkpt>
      <trkpt lat="45.76333" lon="4.81809">
        <ele>324</ele>
        <time>2010-11-19T18:17:16Z</time>
      </trkpt>
      <trkpt lat="45.76333" lon="4.81812">
        <ele>324</ele>
        <time>2010-11-19T18:17:17Z</time>
      </trkpt>
      <trkpt lat="45.76334" lon="4.81814">
        <ele>324</ele>
        <time>2010-11-19T18:17:18Z</time>
      </trkpt>
      <trkpt lat="45.76335" lon="4.81817">
        <ele>324</ele>
        <time>2010-11-19T18:17:19Z</time>
      </trkpt>
      <trkpt lat="45.76335" lon="4.8182">
        <ele>323</ele>
        <time>2010-11-19T18:17:20Z</time>
      </trkpt>
      <trkpt lat="45.76335" lon="4.81824">
        <ele>323</ele>
        <time>2010-11-19T18:17:21Z</time>
      </trkpt>
      <trkpt lat="45.76334" lon="4.81828">
        <ele>323</ele>
        <time>2010-11-19T18:17:22Z</time>
      </trkpt>
      <trkpt lat="45.76333" lon="4.81833">
        <ele>323</ele>
        <time>2010-11-19T18:17:23Z</time>
      </trkpt>
      <trkpt lat="45.76332" lon="4.81839">
        <ele>324</ele>
        <time>2010-11-19T18:17:24Z</time>
      </trkpt>
      <trkpt lat="45.76331" lon="4.81844">
        <ele>325</ele>
        <time>2010-11-19T18:17:25Z</time>
      </trkpt>
      <trkpt lat="45.76331" lon="4.8185">
        <ele>326</ele>
        <time>2010-11-19T18:17:26Z</time>
      </trkpt>
      <trkpt lat="45.7633" lon="4.81854">
        <ele>326</ele>
        <time>2010-11-19T18:17:27Z</time>
      </trkpt>
      <trkpt lat="45.7633" lon="4.81858">
        <ele>326</ele>
        <time>2010-11-19T18:17:28Z</time>
      </trkpt>
      <trkpt lat="45.76331" lon="4.81861">
        <ele>326</ele>
        <time>2010-11-19T18:17:29Z</time>
      </trkpt>
      <trkpt lat="45.7633" lon="4.81865">
        <ele>326</ele>
        <time>2010-11-19T18:17:30Z</time>
      </trkpt>
      <trkpt lat="45.76329" lon="4.8187">
        <ele>327</ele>
        <time>2010-11-19T18:17:31Z</time>
      </trkpt>
      <trkpt lat="45.76327" lon="4.81874">
        <ele>327</ele>
        <time>2010-11-19T18:17:32Z</time>
      </trkpt>
      <trkpt lat="45.76326" lon="4.81878">
        <ele>327</ele>
        <time>2010-11-19T18:17:33Z</time>
      </trkpt>
      <trkpt lat="45.76325" lon="4.81882">
        <ele>326</ele>
        <time>2010-11-19T18:17:34Z</time>
      </trkpt>
      <trkpt lat="45.76325" lon="4.81885">
        <ele>325</ele>
        <time>2010-11-19T18:17:35Z</time>
      </trkpt>
      <trkpt lat="45.76324" lon="4.81888">
        <ele>326</ele>
        <time>2010-11-19T18:17:36Z</time>
      </trkpt>
      <trkpt lat="45.76323" lon="4.81892">
        <ele>326</ele>
        <time>2010-11-19T18:17:37Z</time>
      </trkpt>
      <trkpt lat="45.76323" lon="4.81895">
        <ele>327</ele>
        <time>2010-11-19T18:17:38Z</time>
      </trkpt>
      <trkpt lat="45.76322" lon="4.81898">
        <ele>327</ele>
        <time>2010-11-19T18:17:39Z</time>
      </trkpt>
      <trkpt lat="45.76321" lon="4.81902">
        <ele>327</ele>
        <time>2010-11-19T18:17:40Z</time>
      </trkpt>
      <trkpt lat="45.7632" lon="4.81905">
        <ele>327</ele>
        <time>2010-11-19T18:17:41Z</time>
      </trkpt>
      <trkpt lat="45.76319" lon="4.81908">
        <ele>326</ele>
        <time>2010-11-19T18:17:42Z</time>
      </trkpt>
      <trkpt lat="45.76318" lon="4.81912">
        <ele>326</ele>
        <time>2010-11-19T18:17:43Z</time>
      </trkpt>
      <trkpt lat="45.76317" lon="4.81915">
        <ele>326</ele>
        <time>2010-11-19T18:17:44Z</time>
      </trkpt>
      <trkpt lat="45.76316" lon="4.81918">
        <ele>326</ele>
        <time>2010-11-19T18:17:45Z</time>
      </trkpt>
      <trkpt lat="45.76315" lon="4.81922">
        <ele>326</ele>
        <time>2010-11-19T18:17:46Z</time>
      </trkpt>
      <trkpt lat="45.76314" lon="4.81925">
        <ele>327</ele>
        <time>2010-11-19T18:17:47Z</time>
      </trkpt>
      <trkpt lat="45.76313" lon="4.81928">
        <ele>327</ele>
        <time>2010-11-19T18:17:48Z</time>
      </trkpt>
      <trkpt lat="45.76313" lon="4.81931">
        <ele>326</ele>
        <time>2010-11-19T18:17:49Z</time>
      </trkpt>
      <trkpt lat="45.76312" lon="4.81934">
        <ele>326</ele>
        <time>2010-11-19T18:17:50Z</time>
      </trkpt>
      <trkpt lat="45.7631" lon="4.81937">
        <ele>326</ele>
        <time>2010-11-19T18:17:51Z</time>
      </trkpt>
      <trkpt lat="45.7631" lon="4.81941">
        <ele>325</ele>
        <time>2010-11-19T18:17:52Z</time>
      </trkpt>
      <trkpt lat="45.76309" lon="4.81944">
        <ele>325</ele>
        <time>2010-11-19T18:17:53Z</time>
      </trkpt>
      <trkpt lat="45.76308" lon="4.81948">
        <ele>325</ele>
        <time>2010-11-19T18:17:54Z</time>
      </trkpt>
      <trkpt lat="45.76307" lon="4.81951">
        <ele>326</ele>
        <time>2010-11-19T18:17:55Z</time>
      </trkpt>
      <trkpt lat="45.76307" lon="4.81954">
        <ele>325</ele>
        <time>2010-11-19T18:17:56Z</time>
      </trkpt>
      <trkpt lat="45.76306" lon="4.81958">
        <ele>325</ele>
        <time>2010-11-19T18:17:57Z</time>
      </trkpt>
      <trkpt lat="45.76305" lon="4.81962">
        <ele>325</ele>
        <time>2010-11-19T18:17:58Z</time>
      </trkpt>
      <trkpt lat="45.76305" lon="4.81965">
        <ele>325</ele>
        <time>2010-11-19T18:17:59Z</time>
      </trkpt>
      <trkpt lat="45.76304" lon="4.81968">
        <ele>325</ele>
        <time>2010-11-19T18:18:00Z</time>
      </trkpt>
      <trkpt lat="45.76304" lon="4.81972">
        <ele>325</ele>
        <time>2010-11-19T18:18:01Z</time>
      </trkpt>
      <trkpt lat="45.76303" lon="4.81975">
        <ele>325</ele>
        <time>2010-11-19T18:18:02Z</time>
      </trkpt>
      <trkpt lat="45.76302" lon="4.81978">
        <ele>325</ele>
        <time>2010-11-19T18:18:03Z</time>
      </trkpt>
      <trkpt lat="45.76301" lon="4.81982">
        <ele>325</ele>
        <time>2010-11-19T18:18:04Z</time>
      </trkpt>
      <trkpt lat="45.763" lon="4.81985">
        <ele>326</ele>
        <time>2010-11-19T18:18:05Z</time>
      </trkpt>
      <trkpt lat="45.76299" lon="4.81989">
        <ele>326</ele>
        <time>2010-11-19T18:18:06Z</time>
      </trkpt>
      <trkpt lat="45.76299" lon="4.81991">
        <ele>326</ele>
        <time>2010-11-19T18:18:07Z</time>
      </trkpt>
      <trkpt lat="45.76299" lon="4.81994">
        <ele>326</ele>
        <time>2010-11-19T18:18:08Z</time>
      </trkpt>
      <trkpt lat="45.76298" lon="4.81997">
        <ele>325</ele>
        <time>2010-11-19T18:18:09Z</time>
      </trkpt>
      <trkpt lat="45.76298" lon="4.82">
        <ele>325</ele>
        <time>2010-11-19T18:18:10Z</time>
      </trkpt>
      <trkpt lat="45.76299" lon="4.82003">
        <ele>326</ele>
        <time>2010-11-19T18:18:11Z</time>
      </trkpt>
      <trkpt lat="45.76299" lon="4.82007">
        <ele>326</ele>
        <time>2010-11-19T18:18:12Z</time>
      </trkpt>
      <trkpt lat="45.76299" lon="4.8201">
        <ele>326</ele>
        <time>2010-11-19T18:18:13Z</time>
      </trkpt>
      <trkpt lat="45.763" lon="4.82014">
        <ele>326</ele>
        <time>2010-11-19T18:18:14Z</time>
      </trkpt>
      <trkpt lat="45.763" lon="4.82018">
        <ele>326</ele>
        <time>2010-11-19T18:18:15Z</time>
      </trkpt>
      <trkpt lat="45.76301" lon="4.82021">
        <ele>326</ele>
        <time>2010-11-19T18:18:16Z</time>
      </trkpt>
      <trkpt lat="45.76301" lon="4.82024">
        <ele>326</ele>
        <time>2010-11-19T18:18:17Z</time>
      </trkpt>
      <trkpt lat="45.76302" lon="4.82028">
        <ele>327</ele>
        <time>2010-11-19T18:18:18Z</time>
      </trkpt>
      <trkpt lat="45.76303" lon="4.82032">
        <ele>327</ele>
        <time>2010-11-19T18:18:19Z</time>
      </trkpt>
      <trkpt lat="45.76305" lon="4.82035">
        <ele>327</ele>
        <time>2010-11-19T18:18:20Z</time>
      </trkpt>
      <trkpt lat="45.76305" lon="4.82039">
        <ele>327</ele>
        <time>2010-11-19T18:18:21Z</time>
      </trkpt>
      <trkpt lat="45.76306" lon="4.82042">
        <ele>327</ele>
        <time>2010-11-19T18:18:22Z</time>
      </trkpt>
      <trkpt lat="45.76307" lon="4.82044">
        <ele>327</ele>
        <time>2010-11-19T18:18:23Z</time>
      </trkpt>
      <trkpt lat="45.76308" lon="4.82047">
        <ele>327</ele>
        <time>2010-11-19T18:18:24Z</time>
      </trkpt>
      <trkpt lat="45.7631" lon="4.8205">
        <ele>326</ele>
        <time>2010-11-19T18:18:25Z</time>
      </trkpt>
      <trkpt lat="45.76311" lon="4.82053">
        <ele>326</ele>
        <time>2010-11-19T18:18:26Z</time>
      </trkpt>
      <trkpt lat="45.76312" lon="4.82058">
        <ele>327</ele>
        <time>2010-11-19T18:18:27Z</time>
      </trkpt>
      <trkpt lat="45.76312" lon="4.82062">
        <ele>328</ele>
        <time>2010-11-19T18:18:28Z</time>
      </trkpt>
      <trkpt lat="45.76312" lon="4.82065">
        <ele>329</ele>
        <time>2010-11-19T18:18:29Z</time>
      </trkpt>
      <trkpt lat="45.76313" lon="4.82069">
        <ele>328</ele>
        <time>2010-11-19T18:18:30Z</time>
      </trkpt>
      <trkpt lat="45.76314" lon="4.82072">
        <ele>328</ele>
        <time>2010-11-19T18:18:31Z</time>
      </trkpt>
      <trkpt lat="45.76315" lon="4.82076">
        <ele>328</ele>
        <time>2010-11-19T18:18:32Z</time>
      </trkpt>
      <trkpt lat="45.76316" lon="4.82079">
        <ele>328</ele>
        <time>2010-11-19T18:18:33Z</time>
      </trkpt>
      <trkpt lat="45.76317" lon="4.82081">
        <ele>327</ele>
        <time>2010-11-19T18:18:34Z</time>
      </trkpt>
      <trkpt lat="45.76317" lon="4.82084">
        <ele>327</ele>
        <time>2010-11-19T18:18:35Z</time>
      </trkpt>
      <trkpt lat="45.76319" lon="4.82087">
        <ele>328</ele>
        <time>2010-11-19T18:18:36Z</time>
      </trkpt>
      <trkpt lat="45.76319" lon="4.82091">
        <ele>328</ele>
        <time>2010-11-19T18:18:37Z</time>
      </trkpt>
      <trkpt lat="45.76319" lon="4.82094">
        <ele>329</ele>
        <time>2010-11-19T18:18:38Z</time>
      </trkpt>
      <trkpt lat="45.7632" lon="4.82098">
        <ele>329</ele>
        <time>2010-11-19T18:18:39Z</time>
      </trkpt>
      <trkpt lat="45.76321" lon="4.82101">
        <ele>329</ele>
        <time>2010-11-19T18:18:40Z</time>
      </trkpt>
      <trkpt lat="45.76322" lon="4.82104">
        <ele>329</ele>
        <time>2010-11-19T18:18:41Z</time>
      </trkpt>
      <trkpt lat="45.76323" lon="4.82106">
        <ele>328</ele>
        <time>2010-11-19T18:18:42Z</time>
      </trkpt>
      <trkpt lat="45.76323" lon="4.82109">
        <ele>328</ele>
        <time>2010-11-19T18:18:43Z</time>
      </trkpt>
      <trkpt lat="45.76324" lon="4.82113">
        <ele>328</ele>
        <time>2010-11-19T18:18:44Z</time>
      </trkpt>
      <trkpt lat="45.76325" lon="4.82115">
        <ele>328</ele>
        <time>2010-11-19T18:18:45Z</time>
      </trkpt>
      <trkpt lat="45.76326" lon="4.82118">
        <ele>328</ele>
        <time>2010-11-19T18:18:46Z</time>
      </trkpt>
      <trkpt lat="45.76327" lon="4.82121">
        <ele>327</ele>
        <time>2010-11-19T18:18:47Z</time>
      </trkpt>
      <trkpt lat="45.76329" lon="4.82124">
        <ele>328</ele>
        <time>2010-11-19T18:18:48Z</time>
      </trkpt>
      <trkpt lat="45.76329" lon="4.82127">
        <ele>328</ele>
        <time>2010-11-19T18:18:49Z</time>
      </trkpt>
      <trkpt lat="45.7633" lon="4.8213">
        <ele>329</ele>
        <time>2010-11-19T18:18:50Z</time>
      </trkpt>
      <trkpt lat="45.76331" lon="4.82133">
        <ele>329</ele>
        <time>2010-11-19T18:18:51Z</time>
      </trkpt>
      <trkpt lat="45.76332" lon="4.82137">
        <ele>329</ele>
        <time>2010-11-19T18:18:52Z</time>
      </trkpt>
      <trkpt lat="45.76334" lon="4.8214">
        <ele>329</ele>
        <time>2010-11-19T18:18:53Z</time>
      </trkpt>
      <trkpt lat="45.76335" lon="4.82143">
        <ele>329</ele>
        <time>2010-11-19T18:18:54Z</time>
      </trkpt>
      <trkpt lat="45.76336" lon="4.82146">
        <ele>329</ele>
        <time>2010-11-19T18:18:55Z</time>
      </trkpt>
      <trkpt lat="45.76337" lon="4.82149">
        <ele>329</ele>
        <time>2010-11-19T18:18:56Z</time>
      </trkpt>
      <trkpt lat="45.76339" lon="4.82152">
        <ele>329</ele>
        <time>2010-11-19T18:18:57Z</time>
      </trkpt>
      <trkpt lat="45.7634" lon="4.82154">
        <ele>329</ele>
        <time>2010-11-19T18:18:58Z</time>
      </trkpt>
      <trkpt lat="45.76343" lon="4.82158">
        <ele>329</ele>
        <time>2010-11-19T18:18:59Z</time>
      </trkpt>
      <trkpt lat="45.76345" lon="4.8216">
        <ele>329</ele>
        <time>2010-11-19T18:19:00Z</time>
      </trkpt>
      <trkpt lat="45.76347" lon="4.82161">
        <ele>328</ele>
        <time>2010-11-19T18:19:01Z</time>
      </trkpt>
      <trkpt lat="45.76349" lon="4.82165">
        <ele>328</ele>
        <time>2010-11-19T18:19:02Z</time>
      </trkpt>
      <trkpt lat="45.76351" lon="4.82167">
        <ele>328</ele>
        <time>2010-11-19T18:19:03Z</time>
      </trkpt>
      <trkpt lat="45.76352" lon="4.82169">
        <ele>328</ele>
        <time>2010-11-19T18:19:04Z</time>
      </trkpt>
      <trkpt lat="45.76353" lon="4.82172">
        <ele>328</ele>
        <time>2010-11-19T18:19:05Z</time>
      </trkpt>
      <trkpt lat="45.76354" lon="4.82174">
        <ele>328</ele>
        <time>2010-11-19T18:19:06Z</time>
      </trkpt>
      <trkpt lat="45.76356" lon="4.82176">
        <ele>328</ele>
        <time>2010-11-19T18:19:07Z</time>
      </trkpt>
      <trkpt lat="45.76357" lon="4.82179">
        <ele>328</ele>
        <time>2010-11-19T18:19:08Z</time>
      </trkpt>
      <trkpt lat="45.76358" lon="4.82182">
        <ele>328</ele>
        <time>2010-11-19T18:19:09Z</time>
      </trkpt>
      <trkpt lat="45.76358" lon="4.82186">
        <ele>328</ele>
        <time>2010-11-19T18:19:10Z</time>
      </trkpt>
      <trkpt lat="45.76358" lon="4.82189">
        <ele>328</ele>
        <time>2010-11-19T18:19:11Z</time>
      </trkpt>
      <trkpt lat="45.76359" lon="4.82191">
        <ele>329</ele>
        <time>2010-11-19T18:19:12Z</time>
      </trkpt>
      <trkpt lat="45.76358" lon="4.82196">
        <ele>330</ele>
        <time>2010-11-19T18:19:13Z</time>
      </trkpt>
      <trkpt lat="45.76359" lon="4.82198">
        <ele>330</ele>
        <time>2010-11-19T18:19:14Z</time>
      </trkpt>
      <trkpt lat="45.76358" lon="4.82201">
        <ele>330</ele>
        <time>2010-11-19T18:19:15Z</time>
      </trkpt>
      <trkpt lat="45.76358" lon="4.82204">
        <ele>330</ele>
        <time>2010-11-19T18:19:16Z</time>
      </trkpt>
      <trkpt lat="45.76358" lon="4.82207">
        <ele>330</ele>
        <time>2010-11-19T18:19:17Z</time>
      </trkpt>
      <trkpt lat="45.76357" lon="4.8221">
        <ele>330</ele>
        <time>2010-11-19T18:19:18Z</time>
      </trkpt>
      <trkpt lat="45.76357" lon="4.82212">
        <ele>331</ele>
        <time>2010-11-19T18:19:19Z</time>
      </trkpt>
      <trkpt lat="45.76356" lon="4.82215">
        <ele>331</ele>
        <time>2010-11-19T18:19:20Z</time>
      </trkpt>
      <trkpt lat="45.76354" lon="4.82217">
        <ele>331</ele>
        <time>2010-11-19T18:19:21Z</time>
      </trkpt>
      <trkpt lat="45.76352" lon="4.82218">
        <ele>331</ele>
        <time>2010-11-19T18:19:22Z</time>
      </trkpt>
      <trkpt lat="45.76351" lon="4.82218">
        <ele>332</ele>
        <time>2010-11-19T18:19:23Z</time>
      </trkpt>
      <trkpt lat="45.76349" lon="4.82219">
        <ele>332</ele>
        <time>2010-11-19T18:19:24Z</time>
      </trkpt>
      <trkpt lat="45.76346" lon="4.82219">
        <ele>331</ele>
        <time>2010-11-19T18:19:25Z</time>
      </trkpt>
      <trkpt lat="45.76344" lon="4.8222">
        <ele>331</ele>
        <time>2010-11-19T18:19:26Z</time>
      </trkpt>
      <trkpt lat="45.76342" lon="4.82223">
        <ele>331</ele>
        <time>2010-11-19T18:19:27Z</time>
      </trkpt>
      <trkpt lat="45.76339" lon="4.82223">
        <ele>331</ele>
        <time>2010-11-19T18:19:28Z</time>
      </trkpt>
      <trkpt lat="45.76336" lon="4.82224">
        <ele>331</ele>
        <time>2010-11-19T18:19:29Z</time>
      </trkpt>
      <trkpt lat="45.76335" lon="4.82224">
        <ele>331</ele>
        <time>2010-11-19T18:19:30Z</time>
      </trkpt>
      <trkpt lat="45.76332" lon="4.82223">
        <ele>330</ele>
        <time>2010-11-19T18:19:31Z</time>
      </trkpt>
      <trkpt lat="45.76329" lon="4.82223">
        <ele>330</ele>
        <time>2010-11-19T18:19:32Z</time>
      </trkpt>
      <trkpt lat="45.76327" lon="4.82221">
        <ele>330</ele>
        <time>2010-11-19T18:19:33Z</time>
      </trkpt>
      <trkpt lat="45.76325" lon="4.82219">
        <ele>329</ele>
        <time>2010-11-19T18:19:34Z</time>
      </trkpt>
      <trkpt lat="45.76323" lon="4.82219">
        <ele>329</ele>
        <time>2010-11-19T18:19:35Z</time>
      </trkpt>
      <trkpt lat="45.7632" lon="4.82221">
        <ele>329</ele>
        <time>2010-11-19T18:19:36Z</time>
      </trkpt>
      <trkpt lat="45.76317" lon="4.8222">
        <ele>329</ele>
        <time>2010-11-19T18:19:37Z</time>
      </trkpt>
      <trkpt lat="45.76314" lon="4.82218">
        <ele>329</ele>
        <time>2010-11-19T18:19:38Z</time>
      </trkpt>
      <trkpt lat="45.7631" lon="4.82218">
        <ele>329</ele>
        <time>2010-11-19T18:19:39Z</time>
      </trkpt>
      <trkpt lat="45.76308" lon="4.82218">
        <ele>329</ele>
        <time>2010-11-19T18:19:40Z</time>
      </trkpt>
      <trkpt lat="45.76306" lon="4.82217">
        <ele>329</ele>
        <time>2010-11-19T18:19:41Z</time>
      </trkpt>
      <trkpt lat="45.76302" lon="4.82216">
        <ele>329</ele>
        <time>2010-11-19T18:19:42Z</time>
      </trkpt>
      <trkpt lat="45.763" lon="4.82216">
        <ele>329</ele>
        <time>2010-11-19T18:19:43Z</time>
      </trkpt>
      <trkpt lat="45.76297" lon="4.82215">
        <ele>329</ele>
        <time>2010-11-19T18:19:44Z</time>
      </trkpt>
      <trkpt lat="45.76294" lon="4.82213">
        <ele>330</ele>
        <time>2010-11-19T18:19:45Z</time>
      </trkpt>
      <trkpt lat="45.76292" lon="4.82213">
        <ele>331</ele>
        <time>2010-11-19T18:19:46Z</time>
      </trkpt>
      <trkpt lat="45.7629" lon="4.82212">
        <ele>331</ele>
        <time>2010-11-19T18:19:47Z</time>
      </trkpt>
      <trkpt lat="45.76287" lon="4.8221">
        <ele>333</ele>
        <time>2010-11-19T18:19:48Z</time>
      </trkpt>
      <trkpt lat="45.76284" lon="4.82207">
        <ele>334</ele>
        <time>2010-11-19T18:19:49Z</time>
      </trkpt>
      <trkpt lat="45.76281" lon="4.82207">
        <ele>334</ele>
        <time>2010-11-19T18:19:50Z</time>
      </trkpt>
      <trkpt lat="45.76279" lon="4.82204">
        <ele>335</ele>
        <time>2010-11-19T18:19:51Z</time>
      </trkpt>
      <trkpt lat="45.76276" lon="4.82202">
        <ele>335</ele>
        <time>2010-11-19T18:19:52Z</time>
      </trkpt>
      <trkpt lat="45.76273" lon="4.82201">
        <ele>334</ele>
        <time>2010-11-19T18:19:53Z</time>
      </trkpt>
      <trkpt lat="45.76272" lon="4.82199">
        <ele>335</ele>
        <time>2010-11-19T18:19:54Z</time>
      </trkpt>
      <trkpt lat="45.76271" lon="4.82198">
        <ele>335</ele>
        <time>2010-11-19T18:19:55Z</time>
      </trkpt>
      <trkpt lat="45.76271" lon="4.82197">
        <ele>334</ele>
        <time>2010-11-19T18:19:56Z</time>
      </trkpt>
      <trkpt lat="45.76271" lon="4.82194">
        <ele>335</ele>
        <time>2010-11-19T18:19:57Z</time>
      </trkpt>
      <trkpt lat="45.7627" lon="4.8219">
        <ele>335</ele>
        <time>2010-11-19T18:19:58Z</time>
      </trkpt>
      <trkpt lat="45.7627" lon="4.82188">
        <ele>335</ele>
        <time>2010-11-19T18:19:59Z</time>
      </trkpt>
      <trkpt lat="45.76271" lon="4.82184">
        <ele>335</ele>
        <time>2010-11-19T18:20:00Z</time>
      </trkpt>
      <trkpt lat="45.76271" lon="4.82181">
        <ele>335</ele>
        <time>2010-11-19T18:20:01Z</time>
      </trkpt>
      <trkpt lat="45.76272" lon="4.82176">
        <ele>334</ele>
        <time>2010-11-19T18:20:02Z</time>
      </trkpt>
      <trkpt lat="45.76272" lon="4.82172">
        <ele>334</ele>
        <time>2010-11-19T18:20:03Z</time>
      </trkpt>
      <trkpt lat="45.76272" lon="4.82167">
        <ele>334</ele>
        <time>2010-11-19T18:20:04Z</time>
      </trkpt>
      <trkpt lat="45.76273" lon="4.82163">
        <ele>334</ele>
        <time>2010-11-19T18:20:05Z</time>
      </trkpt>
      <trkpt lat="45.7627" lon="4.8216">
        <ele>333</ele>
        <time>2010-11-19T18:20:06Z</time>
      </trkpt>
      <trkpt lat="45.76266" lon="4.82158">
        <ele>333</ele>
        <time>2010-11-19T18:20:07Z</time>
      </trkpt>
      <trkpt lat="45.76264" lon="4.82156">
        <ele>333</ele>
        <time>2010-11-19T18:20:08Z</time>
      </trkpt>
      <trkpt lat="45.76262" lon="4.82155">
        <ele>333</ele>
        <time>2010-11-19T18:20:09Z</time>
      </trkpt>
      <trkpt lat="45.7626" lon="4.82153">
        <ele>335</ele>
        <time>2010-11-19T18:20:10Z</time>
      </trkpt>
      <trkpt lat="45.76256" lon="4.82151">
        <ele>335</ele>
        <time>2010-11-19T18:20:11Z</time>
      </trkpt>
      <trkpt lat="45.76254" lon="4.82151">
        <ele>336</ele>
        <time>2010-11-19T18:20:12Z</time>
      </trkpt>
      <trkpt lat="45.76251" lon="4.82151">
        <ele>336</ele>
        <time>2010-11-19T18:20:13Z</time>
      </trkpt>
      <trkpt lat="45.76249" lon="4.8215">
        <ele>337</ele>
        <time>2010-11-19T18:20:14Z</time>
      </trkpt>
      <trkpt lat="45.76247" lon="4.82147">
        <ele>338</ele>
        <time>2010-11-19T18:20:15Z</time>
      </trkpt>
      <trkpt lat="45.76244" lon="4.82146">
        <ele>339</ele>
        <time>2010-11-19T18:20:16Z</time>
      </trkpt>
      <trkpt lat="45.76242" lon="4.82144">
        <ele>339</ele>
        <time>2010-11-19T18:20:17Z</time>
      </trkpt>
      <trkpt lat="45.76241" lon="4.82141">
        <ele>340</ele>
        <time>2010-11-19T18:20:18Z</time>
      </trkpt>
      <trkpt lat="45.76239" lon="4.8214">
        <ele>339</ele>
        <time>2010-11-19T18:20:19Z</time>
      </trkpt>
      <trkpt lat="45.76235" lon="4.8214">
        <ele>339</ele>
        <time>2010-11-19T18:20:20Z</time>
      </trkpt>
      <trkpt lat="45.76234" lon="4.82139">
        <ele>339</ele>
        <time>2010-11-19T18:20:21Z</time>
      </trkpt>
      <trkpt lat="45.76232" lon="4.82136">
        <ele>340</ele>
        <time>2010-11-19T18:20:22Z</time>
      </trkpt>
      <trkpt lat="45.7623" lon="4.82134">
        <ele>340</ele>
        <time>2010-11-19T18:20:23Z</time>
      </trkpt>
      <trkpt lat="45.76226" lon="4.82135">
        <ele>340</ele>
        <time>2010-11-19T18:20:24Z</time>
      </trkpt>
      <trkpt lat="45.76224" lon="4.82134">
        <ele>340</ele>
        <time>2010-11-19T18:20:25Z</time>
      </trkpt>
      <trkpt lat="45.76222" lon="4.82132">
        <ele>340</ele>
        <time>2010-11-19T18:20:26Z</time>
      </trkpt>
      <trkpt lat="45.76218" lon="4.82135">
        <ele>341</ele>
        <time>2010-11-19T18:20:27Z</time>
      </trkpt>
      <trkpt lat="45.76213" lon="4.82137">
        <ele>341</ele>
        <time>2010-11-19T18:20:28Z</time>
      </trkpt>
      <trkpt lat="45.76212" lon="4.82135">
        <ele>341</ele>
        <time>2010-11-19T18:20:29Z</time>
      </trkpt>
      <trkpt lat="45.76209" lon="4.82133">
        <ele>341</ele>
        <time>2010-11-19T18:20:30Z</time>
      </trkpt>
      <trkpt lat="45.76207" lon="4.82131">
        <ele>342</ele>
        <time>2010-11-19T18:20:31Z</time>
      </trkpt>
      <trkpt lat="45.76204" lon="4.82131">
        <ele>341</ele>
        <time>2010-11-19T18:20:32Z</time>
      </trkpt>
      <trkpt lat="45.76202" lon="4.8213">
        <ele>341</ele>
        <time>2010-11-19T18:20:33Z</time>
      </trkpt>
      <trkpt lat="45.762" lon="4.82129">
        <ele>341</ele>
        <time>2010-11-19T18:20:34Z</time>
      </trkpt>
      <trkpt lat="45.76198" lon="4.82127">
        <ele>342</ele>
        <time>2010-11-19T18:20:35Z</time>
      </trkpt>
      <trkpt lat="45.76195" lon="4.82125">
        <ele>342</ele>
        <time>2010-11-19T18:20:36Z</time>
      </trkpt>
      <trkpt lat="45.76192" lon="4.82125">
        <ele>342</ele>
        <time>2010-11-19T18:20:37Z</time>
      </trkpt>
      <trkpt lat="45.7619" lon="4.82125">
        <ele>342</ele>
        <time>2010-11-19T18:20:38Z</time>
      </trkpt>
      <trkpt lat="45.76188" lon="4.82123">
        <ele>342</ele>
        <time>2010-11-19T18:20:39Z</time>
      </trkpt>
      <trkpt lat="45.76186" lon="4.82123">
        <ele>341</ele>
        <time>2010-11-19T18:20:40Z</time>
      </trkpt>
      <trkpt lat="45.76183" lon="4.82121">
        <ele>340</ele>
        <time>2010-11-19T18:20:41Z</time>
      </trkpt>
      <trkpt lat="45.76182" lon="4.82121">
        <ele>341</ele>
        <time>2010-11-19T18:20:42Z</time>
      </trkpt>
      <trkpt lat="45.7618" lon="4.8212">
        <ele>341</ele>
        <time>2010-11-19T18:20:43Z</time>
      </trkpt>
      <trkpt lat="45.76178" lon="4.8212">
        <ele>340</ele>
        <time>2010-11-19T18:20:44Z</time>
      </trkpt>
      <trkpt lat="45.76176" lon="4.82119">
        <ele>340</ele>
        <time>2010-11-19T18:20:45Z</time>
      </trkpt>
      <trkpt lat="45.76173" lon="4.82118">
        <ele>340</ele>
        <time>2010-11-19T18:20:46Z</time>
      </trkpt>
      <trkpt lat="45.7617" lon="4.82118">
        <ele>340</ele>
        <time>2010-11-19T18:20:47Z</time>
      </trkpt>
      <trkpt lat="45.76168" lon="4.82116">
        <ele>340</ele>
        <time>2010-11-19T18:20:48Z</time>
      </trkpt>
      <trkpt lat="45.76165" lon="4.82114">
        <ele>340</ele>
        <time>2010-11-19T18:20:49Z</time>
      </trkpt>
      <trkpt lat="45.76161" lon="4.82113">
        <ele>340</ele>
        <time>2010-11-19T18:20:50Z</time>
      </trkpt>
      <trkpt lat="45.76158" lon="4.82112">
        <ele>340</ele>
        <time>2010-11-19T18:20:51Z</time>
      </trkpt>
      <trkpt lat="45.76155" lon="4.8211">
        <ele>339</ele>
        <time>2010-11-19T18:20:52Z</time>
      </trkpt>
      <trkpt lat="45.76151" lon="4.82107">
        <ele>340</ele>
        <time>2010-11-19T18:20:53Z</time>
      </trkpt>
      <trkpt lat="45.76148" lon="4.82107">
        <ele>340</ele>
        <time>2010-11-19T18:20:54Z</time>
      </trkpt>
      <trkpt lat="45.76146" lon="4.82106">
        <ele>340</ele>
        <time>2010-11-19T18:20:55Z</time>
      </trkpt>
      <trkpt lat="45.76143" lon="4.82106">
        <ele>341</ele>
        <time>2010-11-19T18:20:56Z</time>
      </trkpt>
      <trkpt lat="45.7614" lon="4.82104">
        <ele>342</ele>
        <time>2010-11-19T18:20:57Z</time>
      </trkpt>
      <trkpt lat="45.76138" lon="4.82104">
        <ele>342</ele>
        <time>2010-11-19T18:20:58Z</time>
      </trkpt>
      <trkpt lat="45.76137" lon="4.82102">
        <ele>342</ele>
        <time>2010-11-19T18:20:59Z</time>
      </trkpt>
      <trkpt lat="45.76135" lon="4.82101">
        <ele>341</ele>
        <time>2010-11-19T18:21:00Z</time>
      </trkpt>
      <trkpt lat="45.76133" lon="4.821">
        <ele>341</ele>
        <time>2010-11-19T18:21:01Z</time>
      </trkpt>
      <trkpt lat="45.76131" lon="4.82099">
        <ele>342</ele>
        <time>2010-11-19T18:21:02Z</time>
      </trkpt>
      <trkpt lat="45.76129" lon="4.82098">
        <ele>341</ele>
        <time>2010-11-19T18:21:03Z</time>
      </trkpt>
      <trkpt lat="45.76128" lon="4.82096">
        <ele>341</ele>
        <time>2010-11-19T18:21:04Z</time>
      </trkpt>
      <trkpt lat="45.76127" lon="4.82093">
        <ele>339</ele>
        <time>2010-11-19T18:21:05Z</time>
      </trkpt>
      <trkpt lat="45.76125" lon="4.82091">
        <ele>339</ele>
        <time>2010-11-19T18:21:06Z</time>
      </trkpt>
      <trkpt lat="45.76124" lon="4.82088">
        <ele>338</ele>
        <time>2010-11-19T18:21:07Z</time>
      </trkpt>
      <trkpt lat="45.76123" lon="4.82086">
        <ele>338</ele>
        <time>2010-11-19T18:21:08Z</time>
      </trkpt>
      <trkpt lat="45.76121" lon="4.82085">
        <ele>338</ele>
        <time>2010-11-19T18:21:09Z</time>
      </trkpt>
      <trkpt lat="45.76121" lon="4.82083">
        <ele>338</ele>
        <time>2010-11-19T18:21:10Z</time>
      </trkpt>
      <trkpt lat="45.76117" lon="4.82082">
        <ele>339</ele>
        <time>2010-11-19T18:21:11Z</time>
      </trkpt>
      <trkpt lat="45.76115" lon="4.8208">
        <ele>339</ele>
        <time>2010-11-19T18:21:12Z</time>
      </trkpt>
      <trkpt lat="45.76114" lon="4.82078">
        <ele>337</ele>
        <time>2010-11-19T18:21:13Z</time>
      </trkpt>
      <trkpt lat="45.76112" lon="4.82077">
        <ele>337</ele>
        <time>2010-11-19T18:21:14Z</time>
      </trkpt>
      <trkpt lat="45.7611" lon="4.82074">
        <ele>337</ele>
        <time>2010-11-19T18:21:15Z</time>
      </trkpt>
      <trkpt lat="45.76108" lon="4.82072">
        <ele>337</ele>
        <time>2010-11-19T18:21:16Z</time>
      </trkpt>
      <trkpt lat="45.76105" lon="4.8207">
        <ele>336</ele>
        <time>2010-11-19T18:21:17Z</time>
      </trkpt>
      <trkpt lat="45.76104" lon="4.82065">
        <ele>335</ele>
        <time>2010-11-19T18:21:18Z</time>
      </trkpt>
      <trkpt lat="45.76102" lon="4.82063">
        <ele>334</ele>
        <time>2010-11-19T18:21:19Z</time>
      </trkpt>
      <trkpt lat="45.76101" lon="4.82061">
        <ele>334</ele>
        <time>2010-11-19T18:21:20Z</time>
      </trkpt>
      <trkpt lat="45.761" lon="4.82057">
        <ele>334</ele>
        <time>2010-11-19T18:21:21Z</time>
      </trkpt>
      <trkpt lat="45.76098" lon="4.82054">
        <ele>333</ele>
        <time>2010-11-19T18:21:22Z</time>
      </trkpt>
      <trkpt lat="45.76097" lon="4.82051">
        <ele>333</ele>
        <time>2010-11-19T18:21:23Z</time>
      </trkpt>
      <trkpt lat="45.76096" lon="4.82048">
        <ele>333</ele>
        <time>2010-11-19T18:21:24Z</time>
      </trkpt>
      <trkpt lat="45.76095" lon="4.82044">
        <ele>334</ele>
        <time>2010-11-19T18:21:25Z</time>
      </trkpt>
      <trkpt lat="45.76093" lon="4.82042">
        <ele>336</ele>
        <time>2010-11-19T18:21:26Z</time>
      </trkpt>
      <trkpt lat="45.76092" lon="4.82039">
        <ele>336</ele>
        <time>2010-11-19T18:21:27Z</time>
      </trkpt>
      <trkpt lat="45.7609" lon="4.82035">
        <ele>336</ele>
        <time>2010-11-19T18:21:28Z</time>
      </trkpt>
      <trkpt lat="45.76088" lon="4.82033">
        <ele>336</ele>
        <time>2010-11-19T18:21:29Z</time>
      </trkpt>
      <trkpt lat="45.76088" lon="4.82031">
        <ele>336</ele>
        <time>2010-11-19T18:21:30Z</time>
      </trkpt>
      <trkpt lat="45.76085" lon="4.82027">
        <ele>336</ele>
        <time>2010-11-19T18:21:31Z</time>
      </trkpt>
      <trkpt lat="45.76084" lon="4.82024">
        <ele>336</ele>
        <time>2010-11-19T18:21:32Z</time>
      </trkpt>
      <trkpt lat="45.76081" lon="4.82021">
        <ele>335</ele>
        <time>2010-11-19T18:21:33Z</time>
      </trkpt>
      <trkpt lat="45.7608" lon="4.82019">
        <ele>335</ele>
        <time>2010-11-19T18:21:34Z</time>
      </trkpt>
      <trkpt lat="45.76078" lon="4.82016">
        <ele>334</ele>
        <time>2010-11-19T18:21:35Z</time>
      </trkpt>
      <trkpt lat="45.76075" lon="4.82014">
        <ele>335</ele>
        <time>2010-11-19T18:21:36Z</time>
      </trkpt>
      <trkpt lat="45.76073" lon="4.82013">
        <ele>334</ele>
        <time>2010-11-19T18:21:37Z</time>
      </trkpt>
      <trkpt lat="45.7607" lon="4.82013">
        <ele>333</ele>
        <time>2010-11-19T18:21:38Z</time>
      </trkpt>
      <trkpt lat="45.76067" lon="4.82015">
        <ele>333</ele>
        <time>2010-11-19T18:21:39Z</time>
      </trkpt>
      <trkpt lat="45.76065" lon="4.82015">
        <ele>333</ele>
        <time>2010-11-19T18:21:40Z</time>
      </trkpt>
      <trkpt lat="45.76063" lon="4.82017">
        <ele>332</ele>
        <time>2010-11-19T18:21:41Z</time>
      </trkpt>
      <trkpt lat="45.76062" lon="4.8202">
        <ele>332</ele>
        <time>2010-11-19T18:21:42Z</time>
      </trkpt>
      <trkpt lat="45.76061" lon="4.82022">
        <ele>333</ele>
        <time>2010-11-19T18:21:43Z</time>
      </trkpt>
      <trkpt lat="45.7606" lon="4.82026">
        <ele>332</ele>
        <time>2010-11-19T18:21:44Z</time>
      </trkpt>
      <trkpt lat="45.76059" lon="4.82029">
        <ele>332</ele>
        <time>2010-11-19T18:21:45Z</time>
      </trkpt>
      <trkpt lat="45.76058" lon="4.82033">
        <ele>331</ele>
        <time>2010-11-19T18:21:46Z</time>
      </trkpt>
      <trkpt lat="45.76057" lon="4.82036">
        <ele>331</ele>
        <time>2010-11-19T18:21:47Z</time>
      </trkpt>
      <trkpt lat="45.76057" lon="4.82039">
        <ele>330</ele>
        <time>2010-11-19T18:21:48Z</time>
      </trkpt>
      <trkpt lat="45.76056" lon="4.82043">
        <ele>330</ele>
        <time>2010-11-19T18:21:49Z</time>
      </trkpt>
      <trkpt lat="45.76055" lon="4.82047">
        <ele>330</ele>
        <time>2010-11-19T18:21:50Z</time>
      </trkpt>
      <trkpt lat="45.76054" lon="4.8205">
        <ele>330</ele>
        <time>2010-11-19T18:21:51Z</time>
      </trkpt>
      <trkpt lat="45.76054" lon="4.82054">
        <ele>329</ele>
        <time>2010-11-19T18:21:52Z</time>
      </trkpt>
      <trkpt lat="45.76053" lon="4.82057">
        <ele>329</ele>
        <time>2010-11-19T18:21:53Z</time>
      </trkpt>
      <trkpt lat="45.76052" lon="4.82061">
        <ele>329</ele>
        <time>2010-11-19T18:21:54Z</time>
      </trkpt>
      <trkpt lat="45.76051" lon="4.82064">
        <ele>329</ele>
        <time>2010-11-19T18:21:55Z</time>
      </trkpt>
      <trkpt lat="45.7605" lon="4.82068">
        <ele>329</ele>
        <time>2010-11-19T18:21:56Z</time>
      </trkpt>
      <trkpt lat="45.7605" lon="4.82071">
        <ele>329</ele>
        <time>2010-11-19T18:21:57Z</time>
      </trkpt>
      <trkpt lat="45.76049" lon="4.82074">
        <ele>329</ele>
        <time>2010-11-19T18:21:58Z</time>
      </trkpt>
      <trkpt lat="45.76048" lon="4.82078">
        <ele>328</ele>
        <time>2010-11-19T18:21:59Z</time>
      </trkpt>
      <trkpt lat="45.76048" lon="4.82082">
        <ele>328</ele>
        <time>2010-11-19T18:22:00Z</time>
      </trkpt>
      <trkpt lat="45.76047" lon="4.82086">
        <ele>327.06140136719</ele>
        <time>2010-11-19T18:22:01Z</time>
      </trkpt>
      <trkpt lat="45.76047" lon="4.82089">
        <ele>327</ele>
        <time>2010-11-19T18:22:02Z</time>
      </trkpt>
      <trkpt lat="45.76046" lon="4.82093">
        <ele>327</ele>
        <time>2010-11-19T18:22:03Z</time>
      </trkpt>
      <trkpt lat="45.76046" lon="4.82096">
        <ele>327</ele>
        <time>2010-11-19T18:22:04Z</time>
      </trkpt>
      <trkpt lat="45.76045" lon="4.82101">
        <ele>326</ele>
        <time>2010-11-19T18:22:05Z</time>
      </trkpt>
      <trkpt lat="45.76044" lon="4.82104">
        <ele>326</ele>
        <time>2010-11-19T18:22:06Z</time>
      </trkpt>
      <trkpt lat="45.76044" lon="4.82108">
        <ele>326</ele>
        <time>2010-11-19T18:22:07Z</time>
      </trkpt>
      <trkpt lat="45.76043" lon="4.82112">
        <ele>326</ele>
        <time>2010-11-19T18:22:08Z</time>
      </trkpt>
      <trkpt lat="45.76043" lon="4.82116">
        <ele>326</ele>
        <time>2010-11-19T18:22:09Z</time>
      </trkpt>
      <trkpt lat="45.76042" lon="4.82119">
        <ele>326</ele>
        <time>2010-11-19T18:22:10Z</time>
      </trkpt>
      <trkpt lat="45.76042" lon="4.82123">
        <ele>326</ele>
        <time>2010-11-19T18:22:11Z</time>
      </trkpt>
      <trkpt lat="45.76042" lon="4.82126">
        <ele>326</ele>
        <time>2010-11-19T18:22:12Z</time>
      </trkpt>
      <trkpt lat="45.76041" lon="4.8213">
        <ele>326</ele>
        <time>2010-11-19T18:22:13Z</time>
      </trkpt>
      <trkpt lat="45.76039" lon="4.82133">
        <ele>325</ele>
        <time>2010-11-19T18:22:14Z</time>
      </trkpt>
      <trkpt lat="45.76038" lon="4.82137">
        <ele>325</ele>
        <time>2010-11-19T18:22:15Z</time>
      </trkpt>
      <trkpt lat="45.76037" lon="4.8214">
        <ele>325</ele>
        <time>2010-11-19T18:22:16Z</time>
      </trkpt>
      <trkpt lat="45.76038" lon="4.82145">
        <ele>325</ele>
        <time>2010-11-19T18:22:17Z</time>
      </trkpt>
      <trkpt lat="45.76037" lon="4.8215">
        <ele>325</ele>
        <time>2010-11-19T18:22:18Z</time>
      </trkpt>
      <trkpt lat="45.76038" lon="4.82151">
        <ele>325</ele>
        <time>2010-11-19T18:22:19Z</time>
      </trkpt>
      <trkpt lat="45.76038" lon="4.82154">
        <ele>325</ele>
        <time>2010-11-19T18:22:20Z</time>
      </trkpt>
      <trkpt lat="45.76038" lon="4.82159">
        <ele>325</ele>
        <time>2010-11-19T18:22:21Z</time>
      </trkpt>
      <trkpt lat="45.76038" lon="4.82162">
        <ele>325</ele>
        <time>2010-11-19T18:22:22Z</time>
      </trkpt>
      <trkpt lat="45.76038" lon="4.82166">
        <ele>325</ele>
        <time>2010-11-19T18:22:23Z</time>
      </trkpt>
      <trkpt lat="45.76037" lon="4.8217">
        <ele>325</ele>
        <time>2010-11-19T18:22:24Z</time>
      </trkpt>
      <trkpt lat="45.76037" lon="4.82172">
        <ele>324</ele>
        <time>2010-11-19T18:22:25Z</time>
      </trkpt>
      <trkpt lat="45.76037" lon="4.82176">
        <ele>324</ele>
        <time>2010-11-19T18:22:26Z</time>
      </trkpt>
      <trkpt lat="45.76037" lon="4.82181">
        <ele>324</ele>
        <time>2010-11-19T18:22:27Z</time>
      </trkpt>
      <trkpt lat="45.76036" lon="4.82183">
        <ele>323</ele>
        <time>2010-11-19T18:22:28Z</time>
      </trkpt>
      <trkpt lat="45.76037" lon="4.82187">
        <ele>323</ele>
        <time>2010-11-19T18:22:29Z</time>
      </trkpt>
      <trkpt lat="45.76036" lon="4.82191">
        <ele>323</ele>
        <time>2010-11-19T18:22:30Z</time>
      </trkpt>
      <trkpt lat="45.76036" lon="4.82194">
        <ele>322</ele>
        <time>2010-11-19T18:22:31Z</time>
      </trkpt>
      <trkpt lat="45.76035" lon="4.82196">
        <ele>322</ele>
        <time>2010-11-19T18:22:32Z</time>
      </trkpt>
      <trkpt lat="45.76034" lon="4.822">
        <ele>322</ele>
        <time>2010-11-19T18:22:33Z</time>
      </trkpt>
      <trkpt lat="45.76034" lon="4.82203">
        <ele>322</ele>
        <time>2010-11-19T18:22:34Z</time>
      </trkpt>
      <trkpt lat="45.76035" lon="4.82203">
        <ele>322</ele>
        <time>2010-11-19T18:22:35Z</time>
      </trkpt>
      <trkpt lat="45.76035" lon="4.82208">
        <ele>322</ele>
        <time>2010-11-19T18:22:36Z</time>
      </trkpt>
      <trkpt lat="45.76035" lon="4.82212">
        <ele>322</ele>
        <time>2010-11-19T18:22:37Z</time>
      </trkpt>
      <trkpt lat="45.76035" lon="4.82215">
        <ele>322</ele>
        <time>2010-11-19T18:22:38Z</time>
      </trkpt>
      <trkpt lat="45.76035" lon="4.82216">
        <ele>322</ele>
        <time>2010-11-19T18:22:39Z</time>
      </trkpt>
      <trkpt lat="45.76035" lon="4.82217">
        <ele>322</ele>
        <time>2010-11-19T18:22:40Z</time>
      </trkpt>
      <trkpt lat="45.76035" lon="4.82219">
        <ele>322</ele>
        <time>2010-11-19T18:22:41Z</time>
      </trkpt>
      <trkpt lat="45.76036" lon="4.82221">
        <ele>322</ele>
        <time>2010-11-19T18:22:42Z</time>
      </trkpt>
      <trkpt lat="45.76037" lon="4.82226">
        <ele>322</ele>
        <time>2010-11-19T18:22:43Z</time>
      </trkpt>
      <trkpt lat="45.76036" lon="4.82233">
        <ele>323</ele>
        <time>2010-11-19T18:22:44Z</time>
      </trkpt>
      <trkpt lat="45.76032" lon="4.82241">
        <ele>322.36404418945</ele>
        <time>2010-11-19T18:22:45Z</time>
      </trkpt>
      <trkpt lat="45.76028" lon="4.82249">
        <ele>322</ele>
        <time>2010-11-19T18:22:46Z</time>
      </trkpt>
      <trkpt lat="45.76027" lon="4.82252">
        <ele>323</ele>
        <time>2010-11-19T18:22:47Z</time>
      </trkpt>
      <trkpt lat="45.76025" lon="4.82248">
        <ele>321</ele>
        <time>2010-11-19T18:22:48Z</time>
      </trkpt>
      <trkpt lat="45.76023" lon="4.82247">
        <ele>320</ele>
        <time>2010-11-19T18:22:49Z</time>
      </trkpt>
      <trkpt lat="45.76022" lon="4.82246">
        <ele>320</ele>
        <time>2010-11-19T18:22:50Z</time>
      </trkpt>
      <trkpt lat="45.7602" lon="4.82247">
        <ele>320</ele>
        <time>2010-11-19T18:22:51Z</time>
      </trkpt>
      <trkpt lat="45.76018" lon="4.82246">
        <ele>319</ele>
        <time>2010-11-19T18:22:52Z</time>
      </trkpt>
      <trkpt lat="45.76015" lon="4.82246">
        <ele>319</ele>
        <time>2010-11-19T18:22:53Z</time>
      </trkpt>
      <trkpt lat="45.76013" lon="4.82244">
        <ele>320</ele>
        <time>2010-11-19T18:22:54Z</time>
      </trkpt>
      <trkpt lat="45.7601" lon="4.82244">
        <ele>321</ele>
        <time>2010-11-19T18:22:55Z</time>
      </trkpt>
      <trkpt lat="45.76006" lon="4.82244">
        <ele>322</ele>
        <time>2010-11-19T18:22:56Z</time>
      </trkpt>
      <trkpt lat="45.76004" lon="4.82242">
        <ele>322</ele>
        <time>2010-11-19T18:22:57Z</time>
      </trkpt>
      <trkpt lat="45.76003" lon="4.82242">
        <ele>322</ele>
        <time>2010-11-19T18:22:58Z</time>
      </trkpt>
      <trkpt lat="45.76" lon="4.8224">
        <ele>322</ele>
        <time>2010-11-19T18:22:59Z</time>
      </trkpt>
      <trkpt lat="45.75999" lon="4.8224">
        <ele>322</ele>
        <time>2010-11-19T18:23:00Z</time>
      </trkpt>
      <trkpt lat="45.75995" lon="4.82238">
        <ele>322</ele>
        <time>2010-11-19T18:23:01Z</time>
      </trkpt>
      <trkpt lat="45.75991" lon="4.82237">
        <ele>323</ele>
        <time>2010-11-19T18:23:02Z</time>
      </trkpt>
      <trkpt lat="45.75988" lon="4.82236">
        <ele>323</ele>
        <time>2010-11-19T18:23:03Z</time>
      </trkpt>
      <trkpt lat="45.75986" lon="4.82234">
        <ele>323</ele>
        <time>2010-11-19T18:23:04Z</time>
      </trkpt>
      <trkpt lat="45.75984" lon="4.82232">
        <ele>322</ele>
        <time>2010-11-19T18:23:05Z</time>
      </trkpt>
      <trkpt lat="45.75983" lon="4.8223">
        <ele>322</ele>
        <time>2010-11-19T18:23:06Z</time>
      </trkpt>
      <trkpt lat="45.75982" lon="4.82227">
        <ele>322</ele>
        <time>2010-11-19T18:23:07Z</time>
      </trkpt>
      <trkpt lat="45.75981" lon="4.82224">
        <ele>321</ele>
        <time>2010-11-19T18:23:08Z</time>
      </trkpt>
      <trkpt lat="45.75981" lon="4.8222">
        <ele>321</ele>
        <time>2010-11-19T18:23:09Z</time>
      </trkpt>
      <trkpt lat="45.75981" lon="4.82217">
        <ele>321</ele>
        <time>2010-11-19T18:23:10Z</time>
      </trkpt>
      <trkpt lat="45.75979" lon="4.82214">
        <ele>320</ele>
        <time>2010-11-19T18:23:11Z</time>
      </trkpt>
      <trkpt lat="45.75978" lon="4.82211">
        <ele>320</ele>
        <time>2010-11-19T18:23:12Z</time>
      </trkpt>
      <trkpt lat="45.75978" lon="4.82208">
        <ele>320.70764160156</ele>
        <time>2010-11-19T18:23:13Z</time>
      </trkpt>
      <trkpt lat="45.75976" lon="4.82203">
        <ele>321</ele>
        <time>2010-11-19T18:23:14Z</time>
      </trkpt>
      <trkpt lat="45.75976" lon="4.82199">
        <ele>321</ele>
        <time>2010-11-19T18:23:15Z</time>
      </trkpt>
      <trkpt lat="45.75976" lon="4.82196">
        <ele>321</ele>
        <time>2010-11-19T18:23:16Z</time>
      </trkpt>
      <trkpt lat="45.75976" lon="4.82193">
        <ele>321</ele>
        <time>2010-11-19T18:23:17Z</time>
      </trkpt>
      <trkpt lat="45.75976" lon="4.82193">
        <ele>320</ele>
        <time>2010-11-19T18:23:18Z</time>
      </trkpt>
      <trkpt lat="45.75976" lon="4.82189">
        <ele>320</ele>
        <time>2010-11-19T18:23:19Z</time>
      </trkpt>
      <trkpt lat="45.75975" lon="4.82186">
        <ele>319</ele>
        <time>2010-11-19T18:23:20Z</time>
      </trkpt>
      <trkpt lat="45.75972" lon="4.82181">
        <ele>319</ele>
        <time>2010-11-19T18:23:21Z</time>
      </trkpt>
      <trkpt lat="45.75971" lon="4.82177">
        <ele>319</ele>
        <time>2010-11-19T18:23:22Z</time>
      </trkpt>
      <trkpt lat="45.75969" lon="4.82174">
        <ele>319</ele>
        <time>2010-11-19T18:23:23Z</time>
      </trkpt>
      <trkpt lat="45.75968" lon="4.82169">
        <ele>318</ele>
        <time>2010-11-19T18:23:24Z</time>
      </trkpt>
      <trkpt lat="45.75966" lon="4.82166">
        <ele>318</ele>
        <time>2010-11-19T18:23:25Z</time>
      </trkpt>
      <trkpt lat="45.75965" lon="4.82164">
        <ele>317</ele>
        <time>2010-11-19T18:23:26Z</time>
      </trkpt>
      <trkpt lat="45.75963" lon="4.82162">
        <ele>316</ele>
        <time>2010-11-19T18:23:27Z</time>
      </trkpt>
      <trkpt lat="45.75959" lon="4.82161">
        <ele>314</ele>
        <time>2010-11-19T18:23:28Z</time>
      </trkpt>
      <trkpt lat="45.75956" lon="4.82159">
        <ele>312</ele>
        <time>2010-11-19T18:23:29Z</time>
      </trkpt>
      <trkpt lat="45.75954" lon="4.82157">
        <ele>312</ele>
        <time>2010-11-19T18:23:30Z</time>
      </trkpt>
      <trkpt lat="45.75952" lon="4.82155">
        <ele>311</ele>
        <time>2010-11-19T18:23:31Z</time>
      </trkpt>
      <trkpt lat="45.75949" lon="4.82154">
        <ele>310</ele>
        <time>2010-11-19T18:23:32Z</time>
      </trkpt>
      <trkpt lat="45.75947" lon="4.82152">
        <ele>310</ele>
        <time>2010-11-19T18:23:33Z</time>
      </trkpt>
      <trkpt lat="45.75945" lon="4.8215">
        <ele>309</ele>
        <time>2010-11-19T18:23:34Z</time>
      </trkpt>
      <trkpt lat="45.75943" lon="4.82148">
        <ele>309</ele>
        <time>2010-11-19T18:23:35Z</time>
      </trkpt>
      <trkpt lat="45.75941" lon="4.82145">
        <ele>309</ele>
        <time>2010-11-19T18:23:36Z</time>
      </trkpt>
      <trkpt lat="45.75939" lon="4.82142">
        <ele>309</ele>
        <time>2010-11-19T18:23:37Z</time>
      </trkpt>
      <trkpt lat="45.75937" lon="4.82139">
        <ele>309</ele>
        <time>2010-11-19T18:23:38Z</time>
      </trkpt>
      <trkpt lat="45.75935" lon="4.82137">
        <ele>310</ele>
        <time>2010-11-19T18:23:39Z</time>
      </trkpt>
      <trkpt lat="45.75934" lon="4.82134">
        <ele>310</ele>
        <time>2010-11-19T18:23:40Z</time>
      </trkpt>
      <trkpt lat="45.75932" lon="4.82131">
        <ele>310</ele>
        <time>2010-11-19T18:23:41Z</time>
      </trkpt>
      <trkpt lat="45.75929" lon="4.8213">
        <ele>310</ele>
        <time>2010-11-19T18:23:42Z</time>
      </trkpt>
      <trkpt lat="45.75926" lon="4.82127">
        <ele>309</ele>
        <time>2010-11-19T18:23:43Z</time>
      </trkpt>
      <trkpt lat="45.75922" lon="4.82129">
        <ele>309</ele>
        <time>2010-11-19T18:23:44Z</time>
      </trkpt>
      <trkpt lat="45.75919" lon="4.82128">
        <ele>308</ele>
        <time>2010-11-19T18:23:45Z</time>
      </trkpt>
      <trkpt lat="45.75916" lon="4.82126">
        <ele>308</ele>
        <time>2010-11-19T18:23:46Z</time>
      </trkpt>
      <trkpt lat="45.75913" lon="4.82125">
        <ele>307</ele>
        <time>2010-11-19T18:23:47Z</time>
      </trkpt>
      <trkpt lat="45.75909" lon="4.82125">
        <ele>307</ele>
        <time>2010-11-19T18:23:48Z</time>
      </trkpt>
      <trkpt lat="45.75906" lon="4.82124">
        <ele>307</ele>
        <time>2010-11-19T18:23:49Z</time>
      </trkpt>
      <trkpt lat="45.75904" lon="4.82124">
        <ele>306</ele>
        <time>2010-11-19T18:23:50Z</time>
      </trkpt>
      <trkpt lat="45.75902" lon="4.82122">
        <ele>306</ele>
        <time>2010-11-19T18:23:51Z</time>
      </trkpt>
      <trkpt lat="45.759" lon="4.8212">
        <ele>305</ele>
        <time>2010-11-19T18:23:52Z</time>
      </trkpt>
      <trkpt lat="45.75897" lon="4.82119">
        <ele>305</ele>
        <time>2010-11-19T18:23:53Z</time>
      </trkpt>
      <trkpt lat="45.75894" lon="4.82118">
        <ele>304</ele>
        <time>2010-11-19T18:23:54Z</time>
      </trkpt>
      <trkpt lat="45.75891" lon="4.82117">
        <ele>304</ele>
        <time>2010-11-19T18:23:55Z</time>
      </trkpt>
      <trkpt lat="45.75888" lon="4.82117">
        <ele>303</ele>
        <time>2010-11-19T18:23:56Z</time>
      </trkpt>
      <trkpt lat="45.75885" lon="4.82115">
        <ele>303</ele>
        <time>2010-11-19T18:23:57Z</time>
      </trkpt>
      <trkpt lat="45.75882" lon="4.82115">
        <ele>303</ele>
        <time>2010-11-19T18:23:58Z</time>
      </trkpt>
      <trkpt lat="45.75879" lon="4.82112">
        <ele>303</ele>
        <time>2010-11-19T18:23:59Z</time>
      </trkpt>
      <trkpt lat="45.75876" lon="4.82109">
        <ele>302</ele>
        <time>2010-11-19T18:24:00Z</time>
      </trkpt>
      <trkpt lat="45.75873" lon="4.82108">
        <ele>302</ele>
        <time>2010-11-19T18:24:01Z</time>
      </trkpt>
      <trkpt lat="45.75868" lon="4.82106">
        <ele>302</ele>
        <time>2010-11-19T18:24:02Z</time>
      </trkpt>
      <trkpt lat="45.75867" lon="4.82106">
        <ele>301</ele>
        <time>2010-11-19T18:24:03Z</time>
      </trkpt>
      <trkpt lat="45.75864" lon="4.82103">
        <ele>300</ele>
        <time>2010-11-19T18:24:04Z</time>
      </trkpt>
      <trkpt lat="45.7586" lon="4.82103">
        <ele>300</ele>
        <time>2010-11-19T18:24:05Z</time>
      </trkpt>
      <trkpt lat="45.75858" lon="4.82104">
        <ele>299</ele>
        <time>2010-11-19T18:24:06Z</time>
      </trkpt>
      <trkpt lat="45.75856" lon="4.82101">
        <ele>298</ele>
        <time>2010-11-19T18:24:07Z</time>
      </trkpt>
      <trkpt lat="45.75853" lon="4.82101">
        <ele>298</ele>
        <time>2010-11-19T18:24:08Z</time>
      </trkpt>
      <trkpt lat="45.75851" lon="4.82103">
        <ele>298</ele>
        <time>2010-11-19T18:24:09Z</time>
      </trkpt>
      <trkpt lat="45.75848" lon="4.82102">
        <ele>298</ele>
        <time>2010-11-19T18:24:10Z</time>
      </trkpt>
      <trkpt lat="45.75845" lon="4.82102">
        <ele>298</ele>
        <time>2010-11-19T18:24:11Z</time>
      </trkpt>
      <trkpt lat="45.75845" lon="4.82105">
        <ele>299</ele>
        <time>2010-11-19T18:24:12Z</time>
      </trkpt>
      <trkpt lat="45.75843" lon="4.82105">
        <ele>299</ele>
        <time>2010-11-19T18:24:13Z</time>
      </trkpt>
      <trkpt lat="45.75841" lon="4.82105">
        <ele>299</ele>
        <time>2010-11-19T18:24:14Z</time>
      </trkpt>
      <trkpt lat="45.75839" lon="4.82105">
        <ele>299</ele>
        <time>2010-11-19T18:24:15Z</time>
      </trkpt>
      <trkpt lat="45.75836" lon="4.82105">
        <ele>299</ele>
        <time>2010-11-19T18:24:16Z</time>
      </trkpt>
      <trkpt lat="45.75835" lon="4.82105">
        <ele>299</ele>
        <time>2010-11-19T18:24:17Z</time>
      </trkpt>
      <trkpt lat="45.75832" lon="4.82105">
        <ele>299</ele>
        <time>2010-11-19T18:24:18Z</time>
      </trkpt>
      <trkpt lat="45.7583" lon="4.82104">
        <ele>299</ele>
        <time>2010-11-19T18:24:19Z</time>
      </trkpt>
      <trkpt lat="45.75828" lon="4.82105">
        <ele>299</ele>
        <time>2010-11-19T18:24:20Z</time>
      </trkpt>
      <trkpt lat="45.75825" lon="4.82104">
        <ele>298</ele>
        <time>2010-11-19T18:24:21Z</time>
      </trkpt>
      <trkpt lat="45.75823" lon="4.82102">
        <ele>299</ele>
        <time>2010-11-19T18:24:22Z</time>
      </trkpt>
      <trkpt lat="45.7582" lon="4.82101">
        <ele>299</ele>
        <time>2010-11-19T18:24:23Z</time>
      </trkpt>
      <trkpt lat="45.75817" lon="4.82101">
        <ele>299</ele>
        <time>2010-11-19T18:24:24Z</time>
      </trkpt>
      <trkpt lat="45.75816" lon="4.82099">
        <ele>299</ele>
        <time>2010-11-19T18:24:25Z</time>
      </trkpt>
      <trkpt lat="45.75814" lon="4.82099">
        <ele>299</ele>
        <time>2010-11-19T18:24:26Z</time>
      </trkpt>
      <trkpt lat="45.75811" lon="4.82098">
        <ele>299</ele>
        <time>2010-11-19T18:24:27Z</time>
      </trkpt>
      <trkpt lat="45.75808" lon="4.82095">
        <ele>297</ele>
        <time>2010-11-19T18:24:28Z</time>
      </trkpt>
      <trkpt lat="45.75806" lon="4.82093">
        <ele>297</ele>
        <time>2010-11-19T18:24:29Z</time>
      </trkpt>
      <trkpt lat="45.75802" lon="4.82092">
        <ele>297</ele>
        <time>2010-11-19T18:24:30Z</time>
      </trkpt>
      <trkpt lat="45.75801" lon="4.82089">
        <ele>296</ele>
        <time>2010-11-19T18:24:31Z</time>
      </trkpt>
      <trkpt lat="45.75799" lon="4.82087">
        <ele>296</ele>
        <time>2010-11-19T18:24:32Z</time>
      </trkpt>
      <trkpt lat="45.75796" lon="4.82086">
        <ele>295</ele>
        <time>2010-11-19T18:24:33Z</time>
      </trkpt>
      <trkpt lat="45.75791" lon="4.8209">
        <ele>295.63833618164</ele>
        <time>2010-11-19T18:24:34Z</time>
      </trkpt>
      <trkpt lat="45.75783" lon="4.82092">
        <ele>296.9055480957</ele>
        <time>2010-11-19T18:24:35Z</time>
      </trkpt>
      <trkpt lat="45.75779" lon="4.82092">
        <ele>298</ele>
        <time>2010-11-19T18:24:36Z</time>
      </trkpt>
      <trkpt lat="45.75776" lon="4.82091">
        <ele>297</ele>
        <time>2010-11-19T18:24:37Z</time>
      </trkpt>
      <trkpt lat="45.75774" lon="4.82092">
        <ele>298</ele>
        <time>2010-11-19T18:24:38Z</time>
      </trkpt>
      <trkpt lat="45.75771" lon="4.82093">
        <ele>298</ele>
        <time>2010-11-19T18:24:39Z</time>
      </trkpt>
      <trkpt lat="45.75769" lon="4.82093">
        <ele>298</ele>
        <time>2010-11-19T18:24:40Z</time>
      </trkpt>
      <trkpt lat="45.75767" lon="4.82092">
        <ele>299</ele>
        <time>2010-11-19T18:24:41Z</time>
      </trkpt>
      <trkpt lat="45.75763" lon="4.8209">
        <ele>299</ele>
        <time>2010-11-19T18:24:42Z</time>
      </trkpt>
      <trkpt lat="45.7576" lon="4.82089">
        <ele>299</ele>
        <time>2010-11-19T18:24:43Z</time>
      </trkpt>
      <trkpt lat="45.75756" lon="4.82087">
        <ele>299</ele>
        <time>2010-11-19T18:24:44Z</time>
      </trkpt>
      <trkpt lat="45.75753" lon="4.82085">
        <ele>299</ele>
        <time>2010-11-19T18:24:45Z</time>
      </trkpt>
      <trkpt lat="45.75749" lon="4.82084">
        <ele>298</ele>
        <time>2010-11-19T18:24:46Z</time>
      </trkpt>
      <trkpt lat="45.75747" lon="4.82084">
        <ele>299</ele>
        <time>2010-11-19T18:24:47Z</time>
      </trkpt>
      <trkpt lat="45.75745" lon="4.82083">
        <ele>299</ele>
        <time>2010-11-19T18:24:48Z</time>
      </trkpt>
      <trkpt lat="45.75742" lon="4.8208">
        <ele>299</ele>
        <time>2010-11-19T18:24:49Z</time>
      </trkpt>
      <trkpt lat="45.75739" lon="4.82079">
        <ele>299</ele>
        <time>2010-11-19T18:24:50Z</time>
      </trkpt>
      <trkpt lat="45.75736" lon="4.82077">
        <ele>299</ele>
        <time>2010-11-19T18:24:51Z</time>
      </trkpt>
      <trkpt lat="45.75735" lon="4.82077">
        <ele>299</ele>
        <time>2010-11-19T18:24:52Z</time>
      </trkpt>
      <trkpt lat="45.75734" lon="4.82076">
        <ele>299</ele>
        <time>2010-11-19T18:24:53Z</time>
      </trkpt>
      <trkpt lat="45.75732" lon="4.82077">
        <ele>299</ele>
        <time>2010-11-19T18:24:54Z</time>
      </trkpt>
      <trkpt lat="45.75728" lon="4.82079">
        <ele>300</ele>
        <time>2010-11-19T18:24:55Z</time>
      </trkpt>
      <trkpt lat="45.75727" lon="4.82076">
        <ele>301</ele>
        <time>2010-11-19T18:24:56Z</time>
      </trkpt>
      <trkpt lat="45.75725" lon="4.82078">
        <ele>301</ele>
        <time>2010-11-19T18:24:57Z</time>
      </trkpt>
      <trkpt lat="45.75726" lon="4.82082">
        <ele>298</ele>
        <time>2010-11-19T18:24:58Z</time>
      </trkpt>
      <trkpt lat="45.75728" lon="4.82085">
        <ele>296</ele>
        <time>2010-11-19T18:24:59Z</time>
      </trkpt>
      <trkpt lat="45.7573" lon="4.82086">
        <ele>294</ele>
        <time>2010-11-19T18:25:00Z</time>
      </trkpt>
      <trkpt lat="45.75731" lon="4.82088">
        <ele>294</ele>
        <time>2010-11-19T18:25:01Z</time>
      </trkpt>
      <trkpt lat="45.75734" lon="4.8209">
        <ele>293</ele>
        <time>2010-11-19T18:25:02Z</time>
      </trkpt>
      <trkpt lat="45.75738" lon="4.8209">
        <ele>292</ele>
        <time>2010-11-19T18:25:03Z</time>
      </trkpt>
      <trkpt lat="45.7574" lon="4.8209">
        <ele>291</ele>
        <time>2010-11-19T18:25:04Z</time>
      </trkpt>
      <trkpt lat="45.75742" lon="4.82094">
        <ele>291</ele>
        <time>2010-11-19T18:25:05Z</time>
      </trkpt>
      <trkpt lat="45.75743" lon="4.82096">
        <ele>291</ele>
        <time>2010-11-19T18:25:06Z</time>
      </trkpt>
      <trkpt lat="45.75743" lon="4.82099">
        <ele>290</ele>
        <time>2010-11-19T18:25:07Z</time>
      </trkpt>
      <trkpt lat="45.75742" lon="4.82101">
        <ele>290</ele>
        <time>2010-11-19T18:25:08Z</time>
      </trkpt>
      <trkpt lat="45.75741" lon="4.82103">
        <ele>291</ele>
        <time>2010-11-19T18:25:09Z</time>
      </trkpt>
      <trkpt lat="45.75741" lon="4.82104">
        <ele>291</ele>
        <time>2010-11-19T18:25:10Z</time>
      </trkpt>
      <trkpt lat="45.75739" lon="4.82104">
        <ele>291</ele>
        <time>2010-11-19T18:25:11Z</time>
      </trkpt>
      <trkpt lat="45.75736" lon="4.82103">
        <ele>290</ele>
        <time>2010-11-19T18:25:12Z</time>
      </trkpt>
      <trkpt lat="45.75733" lon="4.82101">
        <ele>289</ele>
        <time>2010-11-19T18:25:13Z</time>
      </trkpt>
      <trkpt lat="45.75729" lon="4.82101">
        <ele>289</ele>
        <time>2010-11-19T18:25:14Z</time>
      </trkpt>
      <trkpt lat="45.75726" lon="4.82102">
        <ele>289</ele>
        <time>2010-11-19T18:25:15Z</time>
      </trkpt>
      <trkpt lat="45.75721" lon="4.82102">
        <ele>288</ele>
        <time>2010-11-19T18:25:16Z</time>
      </trkpt>
      <trkpt lat="45.75718" lon="4.82106">
        <ele>288</ele>
        <time>2010-11-19T18:25:17Z</time>
      </trkpt>
      <trkpt lat="45.75717" lon="4.82108">
        <ele>287</ele>
        <time>2010-11-19T18:25:18Z</time>
      </trkpt>
      <trkpt lat="45.75717" lon="4.82111">
        <ele>286</ele>
        <time>2010-11-19T18:25:19Z</time>
      </trkpt>
      <trkpt lat="45.75716" lon="4.82113">
        <ele>286</ele>
        <time>2010-11-19T18:25:20Z</time>
      </trkpt>
      <trkpt lat="45.75716" lon="4.82116">
        <ele>285</ele>
        <time>2010-11-19T18:25:21Z</time>
      </trkpt>
      <trkpt lat="45.75715" lon="4.82118">
        <ele>285</ele>
        <time>2010-11-19T18:25:22Z</time>
      </trkpt>
      <trkpt lat="45.75714" lon="4.8212">
        <ele>285</ele>
        <time>2010-11-19T18:25:23Z</time>
      </trkpt>
      <trkpt lat="45.75719" lon="4.82123">
        <ele>285</ele>
        <time>2010-11-19T18:25:24Z</time>
      </trkpt>
      <trkpt lat="45.75721" lon="4.82127">
        <ele>285</ele>
        <time>2010-11-19T18:25:25Z</time>
      </trkpt>
      <trkpt lat="45.75723" lon="4.82131">
        <ele>285</ele>
        <time>2010-11-19T18:25:26Z</time>
      </trkpt>
      <trkpt lat="45.75724" lon="4.82134">
        <ele>285</ele>
        <time>2010-11-19T18:25:27Z</time>
      </trkpt>
      <trkpt lat="45.75726" lon="4.82138">
        <ele>286</ele>
        <time>2010-11-19T18:25:28Z</time>
      </trkpt>
      <trkpt lat="45.75727" lon="4.8214">
        <ele>286</ele>
        <time>2010-11-19T18:25:29Z</time>
      </trkpt>
      <trkpt lat="45.75729" lon="4.82143">
        <ele>285</ele>
        <time>2010-11-19T18:25:30Z</time>
      </trkpt>
      <trkpt lat="45.75731" lon="4.82145">
        <ele>286</ele>
        <time>2010-11-19T18:25:31Z</time>
      </trkpt>
      <trkpt lat="45.75732" lon="4.82147">
        <ele>286</ele>
        <time>2010-11-19T18:25:32Z</time>
      </trkpt>
      <trkpt lat="45.75733" lon="4.8215">
        <ele>286</ele>
        <time>2010-11-19T18:25:33Z</time>
      </trkpt>
      <trkpt lat="45.75735" lon="4.82152">
        <ele>286</ele>
        <time>2010-11-19T18:25:34Z</time>
      </trkpt>
      <trkpt lat="45.75736" lon="4.82154">
        <ele>286</ele>
        <time>2010-11-19T18:25:35Z</time>
      </trkpt>
      <trkpt lat="45.75738" lon="4.82156">
        <ele>286</ele>
        <time>2010-11-19T18:25:36Z</time>
      </trkpt>
      <trkpt lat="45.75739" lon="4.82156">
        <ele>286</ele>
        <time>2010-11-19T18:25:37Z</time>
      </trkpt>
      <trkpt lat="45.75739" lon="4.82157">
        <ele>286</ele>
        <time>2010-11-19T18:25:38Z</time>
      </trkpt>
      <trkpt lat="45.7574" lon="4.82159">
        <ele>286</ele>
        <time>2010-11-19T18:25:39Z</time>
      </trkpt>
      <trkpt lat="45.75739" lon="4.82159">
        <ele>286</ele>
        <time>2010-11-19T18:25:40Z</time>
      </trkpt>
      <trkpt lat="45.7574" lon="4.8216">
        <ele>287</ele>
        <time>2010-11-19T18:25:41Z</time>
      </trkpt>
      <trkpt lat="45.7574" lon="4.82161">
        <ele>286</ele>
        <time>2010-11-19T18:25:42Z</time>
      </trkpt>
      <trkpt lat="45.75741" lon="4.82162">
        <ele>287</ele>
        <time>2010-11-19T18:25:43Z</time>
      </trkpt>
      <trkpt lat="45.75741" lon="4.82163">
        <ele>287</ele>
        <time>2010-11-19T18:25:44Z</time>
      </trkpt>
      <trkpt lat="45.75742" lon="4.82165">
        <ele>286</ele>
        <time>2010-11-19T18:25:45Z</time>
      </trkpt>
      <trkpt lat="45.75743" lon="4.82166">
        <ele>286</ele>
        <time>2010-11-19T18:25:46Z</time>
      </trkpt>
      <trkpt lat="45.75744" lon="4.82168">
        <ele>286</ele>
        <time>2010-11-19T18:25:47Z</time>
      </trkpt>
      <trkpt lat="45.75746" lon="4.82171">
        <ele>286</ele>
        <time>2010-11-19T18:25:48Z</time>
      </trkpt>
      <trkpt lat="45.75748" lon="4.82173">
        <ele>286</ele>
        <time>2010-11-19T18:25:49Z</time>
      </trkpt>
      <trkpt lat="45.75749" lon="4.82173">
        <ele>286</ele>
        <time>2010-11-19T18:25:50Z</time>
      </trkpt>
      <trkpt lat="45.75751" lon="4.82175">
        <ele>285</ele>
        <time>2010-11-19T18:25:51Z</time>
      </trkpt>
      <trkpt lat="45.75751" lon="4.82176">
        <ele>285</ele>
        <time>2010-11-19T18:25:52Z</time>
      </trkpt>
      <trkpt lat="45.75753" lon="4.82179">
        <ele>285</ele>
        <time>2010-11-19T18:25:53Z</time>
      </trkpt>
      <trkpt lat="45.75757" lon="4.82182">
        <ele>284</ele>
        <time>2010-11-19T18:25:54Z</time>
      </trkpt>
      <trkpt lat="45.75762" lon="4.82186">
        <ele>283</ele>
        <time>2010-11-19T18:25:55Z</time>
      </trkpt>
      <trkpt lat="45.75768" lon="4.82188">
        <ele>282</ele>
        <time>2010-11-19T18:25:56Z</time>
      </trkpt>
      <trkpt lat="45.75771" lon="4.8219">
        <ele>282</ele>
        <time>2010-11-19T18:25:57Z</time>
      </trkpt>
      <trkpt lat="45.75775" lon="4.82192">
        <ele>282</ele>
        <time>2010-11-19T18:25:58Z</time>
      </trkpt>
      <trkpt lat="45.75779" lon="4.82194">
        <ele>282</ele>
        <time>2010-11-19T18:25:59Z</time>
      </trkpt>
      <trkpt lat="45.7578" lon="4.82197">
        <ele>281</ele>
        <time>2010-11-19T18:26:00Z</time>
      </trkpt>
      <trkpt lat="45.7578" lon="4.82201">
        <ele>281</ele>
        <time>2010-11-19T18:26:01Z</time>
      </trkpt>
      <trkpt lat="45.75781" lon="4.82201">
        <ele>281</ele>
        <time>2010-11-19T18:26:02Z</time>
      </trkpt>
      <trkpt lat="45.75782" lon="4.82206">
        <ele>282</ele>
        <time>2010-11-19T18:26:03Z</time>
      </trkpt>
      <trkpt lat="45.75781" lon="4.82211">
        <ele>282</ele>
        <time>2010-11-19T18:26:04Z</time>
      </trkpt>
      <trkpt lat="45.75782" lon="4.82215">
        <ele>281</ele>
        <time>2010-11-19T18:26:05Z</time>
      </trkpt>
      <trkpt lat="45.75782" lon="4.82219">
        <ele>282</ele>
        <time>2010-11-19T18:26:06Z</time>
      </trkpt>
      <trkpt lat="45.75782" lon="4.82222">
        <ele>282</ele>
        <time>2010-11-19T18:26:07Z</time>
      </trkpt>
      <trkpt lat="45.7578" lon="4.82227">
        <ele>282</ele>
        <time>2010-11-19T18:26:08Z</time>
      </trkpt>
      <trkpt lat="45.75779" lon="4.82233">
        <ele>282</ele>
        <time>2010-11-19T18:26:09Z</time>
      </trkpt>
      <trkpt lat="45.75778" lon="4.82237">
        <ele>282</ele>
        <time>2010-11-19T18:26:10Z</time>
      </trkpt>
      <trkpt lat="45.75777" lon="4.82242">
        <ele>281</ele>
        <time>2010-11-19T18:26:11Z</time>
      </trkpt>
      <trkpt lat="45.75776" lon="4.82246">
        <ele>281</ele>
        <time>2010-11-19T18:26:12Z</time>
      </trkpt>
      <trkpt lat="45.75775" lon="4.82249">
        <ele>280</ele>
        <time>2010-11-19T18:26:13Z</time>
      </trkpt>
      <trkpt lat="45.75773" lon="4.82252">
        <ele>280</ele>
        <time>2010-11-19T18:26:14Z</time>
      </trkpt>
      <trkpt lat="45.75773" lon="4.82254">
        <ele>279</ele>
        <time>2010-11-19T18:26:15Z</time>
      </trkpt>
      <trkpt lat="45.75772" lon="4.82258">
        <ele>279</ele>
        <time>2010-11-19T18:26:16Z</time>
      </trkpt>
      <trkpt lat="45.75772" lon="4.82261">
        <ele>279</ele>
        <time>2010-11-19T18:26:17Z</time>
      </trkpt>
      <trkpt lat="45.75773" lon="4.82265">
        <ele>279</ele>
        <time>2010-11-19T18:26:18Z</time>
      </trkpt>
      <trkpt lat="45.75772" lon="4.82271">
        <ele>279</ele>
        <time>2010-11-19T18:26:19Z</time>
      </trkpt>
      <trkpt lat="45.75773" lon="4.82277">
        <ele>279</ele>
        <time>2010-11-19T18:26:20Z</time>
      </trkpt>
      <trkpt lat="45.75773" lon="4.82282">
        <ele>279</ele>
        <time>2010-11-19T18:26:21Z</time>
      </trkpt>
      <trkpt lat="45.75773" lon="4.82286">
        <ele>279</ele>
        <time>2010-11-19T18:26:22Z</time>
      </trkpt>
      <trkpt lat="45.75774" lon="4.8229">
        <ele>278</ele>
        <time>2010-11-19T18:26:23Z</time>
      </trkpt>
      <trkpt lat="45.75775" lon="4.82294">
        <ele>278</ele>
        <time>2010-11-19T18:26:24Z</time>
      </trkpt>
      <trkpt lat="45.75775" lon="4.82299">
        <ele>277</ele>
        <time>2010-11-19T18:26:25Z</time>
      </trkpt>
      <trkpt lat="45.75772" lon="4.82304">
        <ele>276</ele>
        <time>2010-11-19T18:26:26Z</time>
      </trkpt>
      <trkpt lat="45.75771" lon="4.82308">
        <ele>274</ele>
        <time>2010-11-19T18:26:27Z</time>
      </trkpt>
      <trkpt lat="45.75773" lon="4.82313">
        <ele>273</ele>
        <time>2010-11-19T18:26:28Z</time>
      </trkpt>
      <trkpt lat="45.75775" lon="4.82318">
        <ele>273</ele>
        <time>2010-11-19T18:26:29Z</time>
      </trkpt>
      <trkpt lat="45.75776" lon="4.82321">
        <ele>273</ele>
        <time>2010-11-19T18:26:30Z</time>
      </trkpt>
      <trkpt lat="45.75776" lon="4.82325">
        <ele>273</ele>
        <time>2010-11-19T18:26:31Z</time>
      </trkpt>
      <trkpt lat="45.75777" lon="4.82329">
        <ele>273</ele>
        <time>2010-11-19T18:26:32Z</time>
      </trkpt>
      <trkpt lat="45.75777" lon="4.82333">
        <ele>273</ele>
        <time>2010-11-19T18:26:33Z</time>
      </trkpt>
      <trkpt lat="45.75776" lon="4.82338">
        <ele>273</ele>
        <time>2010-11-19T18:26:34Z</time>
      </trkpt>
      <trkpt lat="45.75776" lon="4.82342">
        <ele>273</ele>
        <time>2010-11-19T18:26:35Z</time>
      </trkpt>
      <trkpt lat="45.75776" lon="4.82344">
        <ele>272</ele>
        <time>2010-11-19T18:26:36Z</time>
      </trkpt>
      <trkpt lat="45.75776" lon="4.82347">
        <ele>273</ele>
        <time>2010-11-19T18:26:37Z</time>
      </trkpt>
      <trkpt lat="45.75777" lon="4.82348">
        <ele>273</ele>
        <time>2010-11-19T18:26:38Z</time>
      </trkpt>
      <trkpt lat="45.75777" lon="4.8235">
        <ele>273</ele>
        <time>2010-11-19T18:26:39Z</time>
      </trkpt>
      <trkpt lat="45.75777" lon="4.82352">
        <ele>273</ele>
        <time>2010-11-19T18:26:40Z</time>
      </trkpt>
      <trkpt lat="45.75778" lon="4.82352">
        <ele>273</ele>
        <time>2010-11-19T18:26:41Z</time>
      </trkpt>
      <trkpt lat="45.75779" lon="4.82353">
        <ele>273</ele>
        <time>2010-11-19T18:26:42Z</time>
      </trkpt>
      <trkpt lat="45.75783" lon="4.82356">
        <ele>273</ele>
        <time>2010-11-19T18:26:43Z</time>
      </trkpt>
      <trkpt lat="45.75785" lon="4.82356">
        <ele>273</ele>
        <time>2010-11-19T18:26:44Z</time>
      </trkpt>
      <trkpt lat="45.75786" lon="4.82359">
        <ele>273</ele>
        <time>2010-11-19T18:26:45Z</time>
      </trkpt>
      <trkpt lat="45.75786" lon="4.8236">
        <ele>272</ele>
        <time>2010-11-19T18:26:46Z</time>
      </trkpt>
      <trkpt lat="45.7579" lon="4.8236">
        <ele>272</ele>
        <time>2010-11-19T18:26:47Z</time>
      </trkpt>
      <trkpt lat="45.75791" lon="4.8236">
        <ele>272</ele>
        <time>2010-11-19T18:26:48Z</time>
      </trkpt>
      <trkpt lat="45.75791" lon="4.8236">
        <ele>273</ele>
        <time>2010-11-19T18:26:49Z</time>
      </trkpt>
      <trkpt lat="45.75792" lon="4.8236">
        <ele>273</ele>
        <time>2010-11-19T18:26:50Z</time>
      </trkpt>
      <trkpt lat="45.75793" lon="4.82362">
        <ele>273</ele>
        <time>2010-11-19T18:26:51Z</time>
      </trkpt>
      <trkpt lat="45.75794" lon="4.82363">
        <ele>273</ele>
        <time>2010-11-19T18:26:52Z</time>
      </trkpt>
      <trkpt lat="45.75795" lon="4.82363">
        <ele>273</ele>
        <time>2010-11-19T18:26:53Z</time>
      </trkpt>
      <trkpt lat="45.75795" lon="4.82363">
        <ele>273</ele>
        <time>2010-11-19T18:26:54Z</time>
      </trkpt>
      <trkpt lat="45.75798" lon="4.82364">
        <ele>272.15356445312</ele>
        <time>2010-11-19T18:26:55Z</time>
      </trkpt>
      <trkpt lat="45.75801" lon="4.82366">
        <ele>272</ele>
        <time>2010-11-19T18:26:56Z</time>
      </trkpt>
      <trkpt lat="45.75801" lon="4.82371">
        <ele>272</ele>
        <time>2010-11-19T18:26:57Z</time>
      </trkpt>
      <trkpt lat="45.75802" lon="4.82375">
        <ele>272</ele>
        <time>2010-11-19T18:26:58Z</time>
      </trkpt>
      <trkpt lat="45.75803" lon="4.82378">
        <ele>272</ele>
        <time>2010-11-19T18:26:59Z</time>
      </trkpt>
      <trkpt lat="45.75806" lon="4.82382">
        <ele>271</ele>
        <time>2010-11-19T18:27:00Z</time>
      </trkpt>
      <trkpt lat="45.75805" lon="4.82386">
        <ele>269.48364257812</ele>
        <time>2010-11-19T18:27:01Z</time>
      </trkpt>
      <trkpt lat="45.75806" lon="4.82397">
        <ele>266.09744262695</ele>
        <time>2010-11-19T18:27:02Z</time>
      </trkpt>
      <trkpt lat="45.75807" lon="4.82407">
        <ele>262</ele>
        <time>2010-11-19T18:27:03Z</time>
      </trkpt>
      <trkpt lat="45.7581" lon="4.82409">
        <ele>261</ele>
        <time>2010-11-19T18:27:04Z</time>
      </trkpt>
      <trkpt lat="45.75816" lon="4.82409">
        <ele>259</ele>
        <time>2010-11-19T18:27:05Z</time>
      </trkpt>
      <trkpt lat="45.75818" lon="4.82412">
        <ele>259</ele>
        <time>2010-11-19T18:27:06Z</time>
      </trkpt>
      <trkpt lat="45.75821" lon="4.82414">
        <ele>258</ele>
        <time>2010-11-19T18:27:07Z</time>
      </trkpt>
      <trkpt lat="45.75824" lon="4.82414">
        <ele>256</ele>
        <time>2010-11-19T18:27:08Z</time>
      </trkpt>
      <trkpt lat="45.75828" lon="4.82417">
        <ele>254</ele>
        <time>2010-11-19T18:27:09Z</time>
      </trkpt>
      <trkpt lat="45.75831" lon="4.82419">
        <ele>253</ele>
        <time>2010-11-19T18:27:10Z</time>
      </trkpt>
      <trkpt lat="45.75834" lon="4.82424">
        <ele>252</ele>
        <time>2010-11-19T18:27:11Z</time>
      </trkpt>
      <trkpt lat="45.75839" lon="4.82425">
        <ele>252</ele>
        <time>2010-11-19T18:27:12Z</time>
      </trkpt>
      <trkpt lat="45.75843" lon="4.82423">
        <ele>251</ele>
        <time>2010-11-19T18:27:13Z</time>
      </trkpt>
      <trkpt lat="45.75846" lon="4.82426">
        <ele>250</ele>
        <time>2010-11-19T18:27:14Z</time>
      </trkpt>
      <trkpt lat="45.7585" lon="4.82431">
        <ele>249</ele>
        <time>2010-11-19T18:27:15Z</time>
      </trkpt>
      <trkpt lat="45.75852" lon="4.82437">
        <ele>248</ele>
        <time>2010-11-19T18:27:16Z</time>
      </trkpt>
      <trkpt lat="45.75854" lon="4.82442">
        <ele>249</ele>
        <time>2010-11-19T18:27:17Z</time>
      </trkpt>
      <trkpt lat="45.75856" lon="4.82446">
        <ele>248</ele>
        <time>2010-11-19T18:27:18Z</time>
      </trkpt>
      <trkpt lat="45.75858" lon="4.82449">
        <ele>248</ele>
        <time>2010-11-19T18:27:19Z</time>
      </trkpt>
      <trkpt lat="45.7586" lon="4.82451">
        <ele>246</ele>
        <time>2010-11-19T18:27:20Z</time>
      </trkpt>
      <trkpt lat="45.75863" lon="4.82453">
        <ele>245</ele>
        <time>2010-11-19T18:27:21Z</time>
      </trkpt>
      <trkpt lat="45.75865" lon="4.82455">
        <ele>244</ele>
        <time>2010-11-19T18:27:22Z</time>
      </trkpt>
      <trkpt lat="45.75867" lon="4.82456">
        <ele>244</ele>
        <time>2010-11-19T18:27:23Z</time>
      </trkpt>
      <trkpt lat="45.75869" lon="4.82459">
        <ele>244</ele>
        <time>2010-11-19T18:27:24Z</time>
      </trkpt>
      <trkpt lat="45.75871" lon="4.82462">
        <ele>244</ele>
        <time>2010-11-19T18:27:25Z</time>
      </trkpt>
      <trkpt lat="45.75873" lon="4.82464">
        <ele>244</ele>
        <time>2010-11-19T18:27:26Z</time>
      </trkpt>
      <trkpt lat="45.75875" lon="4.82467">
        <ele>244</ele>
        <time>2010-11-19T18:27:27Z</time>
      </trkpt>
      <trkpt lat="45.75879" lon="4.82473">
        <ele>244</ele>
        <time>2010-11-19T18:27:29Z</time>
      </trkpt>
      <trkpt lat="45.75882" lon="4.82476">
        <ele>245</ele>
        <time>2010-11-19T18:27:31Z</time>
      </trkpt>
      <trkpt lat="45.75882" lon="4.82476">
        <ele>245</ele>
        <time>2010-11-19T18:27:31Z</time>
      </trkpt>
      <trkpt lat="45.75883" lon="4.82477">
        <ele>245</ele>
        <time>2010-11-19T18:27:32Z</time>
      </trkpt>
      <trkpt lat="45.75885" lon="4.82481">
        <ele>245</ele>
        <time>2010-11-19T18:27:33Z</time>
      </trkpt>
      <trkpt lat="45.75887" lon="4.82483">
        <ele>245</ele>
        <time>2010-11-19T18:27:34Z</time>
      </trkpt>
      <trkpt lat="45.75888" lon="4.82485">
        <ele>245</ele>
        <time>2010-11-19T18:27:35Z</time>
      </trkpt>
      <trkpt lat="45.75889" lon="4.82488">
        <ele>245</ele>
        <time>2010-11-19T18:27:36Z</time>
      </trkpt>
      <trkpt lat="45.75891" lon="4.82489">
        <ele>245</ele>
        <time>2010-11-19T18:27:37Z</time>
      </trkpt>
      <trkpt lat="45.75891" lon="4.82491">
        <ele>244</ele>
        <time>2010-11-19T18:27:38Z</time>
      </trkpt>
      <trkpt lat="45.75893" lon="4.82492">
        <ele>244</ele>
        <time>2010-11-19T18:27:39Z</time>
      </trkpt>
      <trkpt lat="45.75894" lon="4.82493">
        <ele>243</ele>
        <time>2010-11-19T18:27:40Z</time>
      </trkpt>
      <trkpt lat="45.75895" lon="4.82496">
        <ele>243</ele>
        <time>2010-11-19T18:27:41Z</time>
      </trkpt>
      <trkpt lat="45.75895" lon="4.82498">
        <ele>243</ele>
        <time>2010-11-19T18:27:42Z</time>
      </trkpt>
      <trkpt lat="45.75896" lon="4.82502">
        <ele>243</ele>
        <time>2010-11-19T18:27:43Z</time>
      </trkpt>
      <trkpt lat="45.75897" lon="4.82505">
        <ele>243</ele>
        <time>2010-11-19T18:27:44Z</time>
      </trkpt>
      <trkpt lat="45.75898" lon="4.82507">
        <ele>243</ele>
        <time>2010-11-19T18:27:45Z</time>
      </trkpt>
      <trkpt lat="45.759" lon="4.8251">
        <ele>243</ele>
        <time>2010-11-19T18:27:46Z</time>
      </trkpt>
      <trkpt lat="45.75902" lon="4.82513">
        <ele>243</ele>
        <time>2010-11-19T18:27:47Z</time>
      </trkpt>
      <trkpt lat="45.75903" lon="4.82515">
        <ele>242</ele>
        <time>2010-11-19T18:27:48Z</time>
      </trkpt>
      <trkpt lat="45.75906" lon="4.82522">
        <ele>242</ele>
        <time>2010-11-19T18:27:49Z</time>
      </trkpt>
      <trkpt lat="45.75909" lon="4.82527">
        <ele>242</ele>
        <time>2010-11-19T18:27:50Z</time>
      </trkpt>
      <trkpt lat="45.75913" lon="4.82533">
        <ele>241</ele>
        <time>2010-11-19T18:27:51Z</time>
      </trkpt>
      <trkpt lat="45.75913" lon="4.82538">
        <ele>241</ele>
        <time>2010-11-19T18:27:52Z</time>
      </trkpt>
      <trkpt lat="45.75915" lon="4.82542">
        <ele>241</ele>
        <time>2010-11-19T18:27:53Z</time>
      </trkpt>
      <trkpt lat="45.75913" lon="4.82548">
        <ele>241</ele>
        <time>2010-11-19T18:27:54Z</time>
      </trkpt>
      <trkpt lat="45.75913" lon="4.82551">
        <ele>240</ele>
        <time>2010-11-19T18:27:55Z</time>
      </trkpt>
      <trkpt lat="45.75917" lon="4.82547">
        <ele>240</ele>
        <time>2010-11-19T18:27:56Z</time>
      </trkpt>
      <trkpt lat="45.75922" lon="4.82545">
        <ele>239</ele>
        <time>2010-11-19T18:27:57Z</time>
      </trkpt>
      <trkpt lat="45.75929" lon="4.82543">
        <ele>239.90138244629</ele>
        <time>2010-11-19T18:27:58Z</time>
      </trkpt>
      <trkpt lat="45.75936" lon="4.82539">
        <ele>239.95147705078</ele>
        <time>2010-11-19T18:27:59Z</time>
      </trkpt>
      <trkpt lat="45.75946" lon="4.82537">
        <ele>239</ele>
        <time>2010-11-19T18:28:00Z</time>
      </trkpt>
      <trkpt lat="45.75947" lon="4.82538">
        <ele>239</ele>
        <time>2010-11-19T18:28:01Z</time>
      </trkpt>
      <trkpt lat="45.75948" lon="4.82541">
        <ele>239</ele>
        <time>2010-11-19T18:28:02Z</time>
      </trkpt>
      <trkpt lat="45.7595" lon="4.82542">
        <ele>239</ele>
        <time>2010-11-19T18:28:03Z</time>
      </trkpt>
      <trkpt lat="45.75951" lon="4.82544">
        <ele>239</ele>
        <time>2010-11-19T18:28:04Z</time>
      </trkpt>
      <trkpt lat="45.75953" lon="4.82544">
        <ele>239</ele>
        <time>2010-11-19T18:28:05Z</time>
      </trkpt>
      <trkpt lat="45.75953" lon="4.82544">
        <ele>239</ele>
        <time>2010-11-19T18:28:06Z</time>
      </trkpt>
      <trkpt lat="45.75954" lon="4.82549">
        <ele>239</ele>
        <time>2010-11-19T18:28:07Z</time>
      </trkpt>
      <trkpt lat="45.75956" lon="4.8256">
        <ele>239.86009216309</ele>
        <time>2010-11-19T18:28:08Z</time>
      </trkpt>
      <trkpt lat="45.75956" lon="4.82566">
        <ele>239</ele>
        <time>2010-11-19T18:28:09Z</time>
      </trkpt>
      <trkpt lat="45.75956" lon="4.8257">
        <ele>239</ele>
        <time>2010-11-19T18:28:10Z</time>
      </trkpt>
      <trkpt lat="45.75957" lon="4.82571">
        <ele>239</ele>
        <time>2010-11-19T18:28:11Z</time>
      </trkpt>
      <trkpt lat="45.75957" lon="4.82574">
        <ele>239</ele>
        <time>2010-11-19T18:28:12Z</time>
      </trkpt>
      <trkpt lat="45.75959" lon="4.82577">
        <ele>239</ele>
        <time>2010-11-19T18:28:13Z</time>
      </trkpt>
      <trkpt lat="45.75958" lon="4.82581">
        <ele>239</ele>
        <time>2010-11-19T18:28:14Z</time>
      </trkpt>
      <trkpt lat="45.75957" lon="4.82585">
        <ele>239</ele>
        <time>2010-11-19T18:28:15Z</time>
      </trkpt>
      <trkpt lat="45.75957" lon="4.82592">
        <ele>239</ele>
        <time>2010-11-19T18:28:16Z</time>
      </trkpt>
      <trkpt lat="45.75955" lon="4.82601">
        <ele>240</ele>
        <time>2010-11-19T18:28:17Z</time>
      </trkpt>
      <trkpt lat="45.75956" lon="4.82603">
        <ele>239</ele>
        <time>2010-11-19T18:28:18Z</time>
      </trkpt>
      <trkpt lat="45.75956" lon="4.82606">
        <ele>239</ele>
        <time>2010-11-19T18:28:19Z</time>
      </trkpt>
      <trkpt lat="45.75957" lon="4.82609">
        <ele>238</ele>
        <time>2010-11-19T18:28:20Z</time>
      </trkpt>
      <trkpt lat="45.75957" lon="4.82612">
        <ele>239</ele>
        <time>2010-11-19T18:28:21Z</time>
      </trkpt>
      <trkpt lat="45.75955" lon="4.82615">
        <ele>239</ele>
        <time>2010-11-19T18:28:22Z</time>
      </trkpt>
      <trkpt lat="45.75961" lon="4.82615">
        <ele>238</ele>
        <time>2010-11-19T18:28:23Z</time>
      </trkpt>
      <trkpt lat="45.75964" lon="4.82616">
        <ele>237.33686828613</ele>
        <time>2010-11-19T18:28:24Z</time>
      </trkpt>
      <trkpt lat="45.75967" lon="4.82617">
        <ele>237</ele>
        <time>2010-11-19T18:28:25Z</time>
      </trkpt>
      <trkpt lat="45.75974" lon="4.82617">
        <ele>237</ele>
        <time>2010-11-19T18:28:26Z</time>
      </trkpt>
      <trkpt lat="45.75976" lon="4.82623">
        <ele>237</ele>
        <time>2010-11-19T18:28:27Z</time>
      </trkpt>
      <trkpt lat="45.75977" lon="4.82629">
        <ele>236</ele>
        <time>2010-11-19T18:28:28Z</time>
      </trkpt>
      <trkpt lat="45.75977" lon="4.82637">
        <ele>238</ele>
        <time>2010-11-19T18:28:29Z</time>
      </trkpt>
      <trkpt lat="45.75979" lon="4.82645">
        <ele>237</ele>
        <time>2010-11-19T18:28:30Z</time>
      </trkpt>
      <trkpt lat="45.75984" lon="4.8265">
        <ele>232</ele>
        <time>2010-11-19T18:28:31Z</time>
      </trkpt>
      <trkpt lat="45.75986" lon="4.82652">
        <ele>228</ele>
        <time>2010-11-19T18:28:32Z</time>
      </trkpt>
      <trkpt lat="45.75988" lon="4.82654">
        <ele>226</ele>
        <time>2010-11-19T18:28:33Z</time>
      </trkpt>
      <trkpt lat="45.7599" lon="4.82655">
        <ele>225</ele>
        <time>2010-11-19T18:28:34Z</time>
      </trkpt>
      <trkpt lat="45.75993" lon="4.82655">
        <ele>225</ele>
        <time>2010-11-19T18:28:35Z</time>
      </trkpt>
      <trkpt lat="45.75995" lon="4.82657">
        <ele>225</ele>
        <time>2010-11-19T18:28:36Z</time>
      </trkpt>
      <trkpt lat="45.75998" lon="4.82657">
        <ele>225</ele>
        <time>2010-11-19T18:28:37Z</time>
      </trkpt>
      <trkpt lat="45.76" lon="4.82657">
        <ele>226</ele>
        <time>2010-11-19T18:28:38Z</time>
      </trkpt>
      <trkpt lat="45.76001" lon="4.82658">
        <ele>226</ele>
        <time>2010-11-19T18:28:39Z</time>
      </trkpt>
      <trkpt lat="45.76005" lon="4.82658">
        <ele>227</ele>
        <time>2010-11-19T18:28:40Z</time>
      </trkpt>
      <trkpt lat="45.76007" lon="4.82658">
        <ele>227</ele>
        <time>2010-11-19T18:28:41Z</time>
      </trkpt>
      <trkpt lat="45.7601" lon="4.82658">
        <ele>228</ele>
        <time>2010-11-19T18:28:42Z</time>
      </trkpt>
      <trkpt lat="45.76013" lon="4.82657">
        <ele>227</ele>
        <time>2010-11-19T18:28:43Z</time>
      </trkpt>
      <trkpt lat="45.76016" lon="4.82657">
        <ele>228</ele>
        <time>2010-11-19T18:28:44Z</time>
      </trkpt>
      <trkpt lat="45.76019" lon="4.8266">
        <ele>228</ele>
        <time>2010-11-19T18:28:45Z</time>
      </trkpt>
      <trkpt lat="45.76022" lon="4.82661">
        <ele>229</ele>
        <time>2010-11-19T18:28:46Z</time>
      </trkpt>
      <trkpt lat="45.76025" lon="4.8266">
        <ele>229</ele>
        <time>2010-11-19T18:28:47Z</time>
      </trkpt>
      <trkpt lat="45.76028" lon="4.8266">
        <ele>229</ele>
        <time>2010-11-19T18:28:48Z</time>
      </trkpt>
      <trkpt lat="45.76031" lon="4.82659">
        <ele>229</ele>
        <time>2010-11-19T18:28:49Z</time>
      </trkpt>
      <trkpt lat="45.76033" lon="4.82658">
        <ele>229</ele>
        <time>2010-11-19T18:28:50Z</time>
      </trkpt>
      <trkpt lat="45.76034" lon="4.82658">
        <ele>230</ele>
        <time>2010-11-19T18:28:51Z</time>
      </trkpt>
      <trkpt lat="45.76036" lon="4.82658">
        <ele>231</ele>
        <time>2010-11-19T18:28:52Z</time>
      </trkpt>
      <trkpt lat="45.76038" lon="4.82659">
        <ele>231</ele>
        <time>2010-11-19T18:28:53Z</time>
      </trkpt>
      <trkpt lat="45.7604" lon="4.82662">
        <ele>232</ele>
        <time>2010-11-19T18:28:54Z</time>
      </trkpt>
      <trkpt lat="45.76041" lon="4.82665">
        <ele>233</ele>
        <time>2010-11-19T18:28:55Z</time>
      </trkpt>
      <trkpt lat="45.76043" lon="4.82667">
        <ele>235</ele>
        <time>2010-11-19T18:28:56Z</time>
      </trkpt>
      <trkpt lat="45.76044" lon="4.82669">
        <ele>235</ele>
        <time>2010-11-19T18:28:57Z</time>
      </trkpt>
      <trkpt lat="45.76047" lon="4.8267">
        <ele>236</ele>
        <time>2010-11-19T18:28:58Z</time>
      </trkpt>
      <trkpt lat="45.76049" lon="4.82673">
        <ele>237</ele>
        <time>2010-11-19T18:28:59Z</time>
      </trkpt>
      <trkpt lat="45.76051" lon="4.82675">
        <ele>237</ele>
        <time>2010-11-19T18:29:00Z</time>
      </trkpt>
      <trkpt lat="45.76053" lon="4.82675">
        <ele>238</ele>
        <time>2010-11-19T18:29:01Z</time>
      </trkpt>
      <trkpt lat="45.76056" lon="4.82676">
        <ele>239</ele>
        <time>2010-11-19T18:29:02Z</time>
      </trkpt>
      <trkpt lat="45.76057" lon="4.82676">
        <ele>240</ele>
        <time>2010-11-19T18:29:03Z</time>
      </trkpt>
      <trkpt lat="45.76059" lon="4.82675">
        <ele>240</ele>
        <time>2010-11-19T18:29:04Z</time>
      </trkpt>
      <trkpt lat="45.76062" lon="4.82675">
        <ele>240</ele>
        <time>2010-11-19T18:29:05Z</time>
      </trkpt>
      <trkpt lat="45.76064" lon="4.82674">
        <ele>240</ele>
        <time>2010-11-19T18:29:06Z</time>
      </trkpt>
      <trkpt lat="45.76068" lon="4.82672">
        <ele>237</ele>
        <time>2010-11-19T18:29:07Z</time>
      </trkpt>
      <trkpt lat="45.7607" lon="4.82672">
        <ele>237</ele>
        <time>2010-11-19T18:29:08Z</time>
      </trkpt>
      <trkpt lat="45.76072" lon="4.82673">
        <ele>236</ele>
        <time>2010-11-19T18:29:09Z</time>
      </trkpt>
      <trkpt lat="45.76074" lon="4.82675">
        <ele>237</ele>
        <time>2010-11-19T18:29:10Z</time>
      </trkpt>
      <trkpt lat="45.76076" lon="4.82676">
        <ele>237</ele>
        <time>2010-11-19T18:29:11Z</time>
      </trkpt>
      <trkpt lat="45.76078" lon="4.82677">
        <ele>237</ele>
        <time>2010-11-19T18:29:12Z</time>
      </trkpt>
      <trkpt lat="45.76079" lon="4.8268">
        <ele>237</ele>
        <time>2010-11-19T18:29:13Z</time>
      </trkpt>
      <trkpt lat="45.76083" lon="4.82685">
        <ele>234.68252563477</ele>
        <time>2010-11-19T18:29:14Z</time>
      </trkpt>
      <trkpt lat="45.76089" lon="4.82691">
        <ele>230.12211608887</ele>
        <time>2010-11-19T18:29:15Z</time>
      </trkpt>
      <trkpt lat="45.76092" lon="4.82692">
        <ele>229</ele>
        <time>2010-11-19T18:29:16Z</time>
      </trkpt>
      <trkpt lat="45.76094" lon="4.82693">
        <ele>228</ele>
        <time>2010-11-19T18:29:17Z</time>
      </trkpt>
      <trkpt lat="45.76097" lon="4.82694">
        <ele>228</ele>
        <time>2010-11-19T18:29:18Z</time>
      </trkpt>
      <trkpt lat="45.761" lon="4.82692">
        <ele>228</ele>
        <time>2010-11-19T18:29:19Z</time>
      </trkpt>
      <trkpt lat="45.76101" lon="4.8269">
        <ele>228</ele>
        <time>2010-11-19T18:29:20Z</time>
      </trkpt>
      <trkpt lat="45.76102" lon="4.82687">
        <ele>228</ele>
        <time>2010-11-19T18:29:21Z</time>
      </trkpt>
      <trkpt lat="45.76103" lon="4.82683">
        <ele>228</ele>
        <time>2010-11-19T18:29:22Z</time>
      </trkpt>
      <trkpt lat="45.76104" lon="4.82681">
        <ele>229</ele>
        <time>2010-11-19T18:29:23Z</time>
      </trkpt>
      <trkpt lat="45.76106" lon="4.82679">
        <ele>229</ele>
        <time>2010-11-19T18:29:24Z</time>
      </trkpt>
      <trkpt lat="45.76108" lon="4.82676">
        <ele>230</ele>
        <time>2010-11-19T18:29:25Z</time>
      </trkpt>
      <trkpt lat="45.76109" lon="4.82672">
        <ele>230</ele>
        <time>2010-11-19T18:29:26Z</time>
      </trkpt>
      <trkpt lat="45.7611" lon="4.82669">
        <ele>230</ele>
        <time>2010-11-19T18:29:27Z</time>
      </trkpt>
      <trkpt lat="45.76111" lon="4.82667">
        <ele>230</ele>
        <time>2010-11-19T18:29:28Z</time>
      </trkpt>
      <trkpt lat="45.76111" lon="4.82665">
        <ele>230</ele>
        <time>2010-11-19T18:29:29Z</time>
      </trkpt>
      <trkpt lat="45.76113" lon="4.82662">
        <ele>230</ele>
        <time>2010-11-19T18:29:30Z</time>
      </trkpt>
      <trkpt lat="45.76114" lon="4.82661">
        <ele>230</ele>
        <time>2010-11-19T18:29:31Z</time>
      </trkpt>
      <trkpt lat="45.76115" lon="4.82659">
        <ele>230</ele>
        <time>2010-11-19T18:29:32Z</time>
      </trkpt>
      <trkpt lat="45.76117" lon="4.82658">
        <ele>230</ele>
        <time>2010-11-19T18:29:33Z</time>
      </trkpt>
      <trkpt lat="45.76118" lon="4.82659">
        <ele>230</ele>
        <time>2010-11-19T18:29:34Z</time>
      </trkpt>
      <trkpt lat="45.76121" lon="4.82661">
        <ele>230</ele>
        <time>2010-11-19T18:29:35Z</time>
      </trkpt>
      <trkpt lat="45.76121" lon="4.82664">
        <ele>230</ele>
        <time>2010-11-19T18:29:36Z</time>
      </trkpt>
      <trkpt lat="45.76122" lon="4.82665">
        <ele>230</ele>
        <time>2010-11-19T18:29:37Z</time>
      </trkpt>
      <trkpt lat="45.76125" lon="4.82664">
        <ele>230</ele>
        <time>2010-11-19T18:29:38Z</time>
      </trkpt>
      <trkpt lat="45.76126" lon="4.82666">
        <ele>230</ele>
        <time>2010-11-19T18:29:39Z</time>
      </trkpt>
      <trkpt lat="45.76127" lon="4.82666">
        <ele>230</ele>
        <time>2010-11-19T18:29:40Z</time>
      </trkpt>
      <trkpt lat="45.76128" lon="4.82666">
        <ele>230</ele>
        <time>2010-11-19T18:29:41Z</time>
      </trkpt>
      <trkpt lat="45.7613" lon="4.82665">
        <ele>231</ele>
        <time>2010-11-19T18:29:42Z</time>
      </trkpt>
      <trkpt lat="45.76132" lon="4.82662">
        <ele>231</ele>
        <time>2010-11-19T18:29:43Z</time>
      </trkpt>
      <trkpt lat="45.76134" lon="4.82661">
        <ele>232</ele>
        <time>2010-11-19T18:29:44Z</time>
      </trkpt>
      <trkpt lat="45.76135" lon="4.82662">
        <ele>232</ele>
        <time>2010-11-19T18:29:45Z</time>
      </trkpt>
      <trkpt lat="45.76136" lon="4.82662">
        <ele>232</ele>
        <time>2010-11-19T18:29:46Z</time>
      </trkpt>
      <trkpt lat="45.7614" lon="4.82666">
        <ele>229</ele>
        <time>2010-11-19T18:29:47Z</time>
      </trkpt>
      <trkpt lat="45.7614" lon="4.82668">
        <ele>228</ele>
        <time>2010-11-19T18:29:48Z</time>
      </trkpt>
      <trkpt lat="45.7614" lon="4.82668">
        <ele>228</ele>
        <time>2010-11-19T18:29:49Z</time>
      </trkpt>
      <trkpt lat="45.76141" lon="4.82668">
        <ele>228</ele>
        <time>2010-11-19T18:29:50Z</time>
      </trkpt>
      <trkpt lat="45.76141" lon="4.82668">
        <ele>228</ele>
        <time>2010-11-19T18:29:51Z</time>
      </trkpt>
      <trkpt lat="45.76145" lon="4.82666">
        <ele>228.83892822266</ele>
        <time>2010-11-19T18:29:52Z</time>
      </trkpt>
      <trkpt lat="45.76147" lon="4.82667">
        <ele>229</ele>
        <time>2010-11-19T18:29:53Z</time>
      </trkpt>
      <trkpt lat="45.76148" lon="4.82666">
        <ele>229</ele>
        <time>2010-11-19T18:29:54Z</time>
      </trkpt>
      <trkpt lat="45.76151" lon="4.82665">
        <ele>229</ele>
        <time>2010-11-19T18:29:55Z</time>
      </trkpt>
      <trkpt lat="45.76154" lon="4.8266">
        <ele>230</ele>
        <time>2010-11-19T18:29:56Z</time>
      </trkpt>
      <trkpt lat="45.76156" lon="4.82658">
        <ele>229</ele>
        <time>2010-11-19T18:29:57Z</time>
      </trkpt>
      <trkpt lat="45.7616" lon="4.82654">
        <ele>229</ele>
        <time>2010-11-19T18:29:58Z</time>
      </trkpt>
      <trkpt lat="45.76163" lon="4.82652">
        <ele>230</ele>
        <time>2010-11-19T18:29:59Z</time>
      </trkpt>
      <trkpt lat="45.76166" lon="4.82646">
        <ele>230</ele>
        <time>2010-11-19T18:30:00Z</time>
      </trkpt>
      <trkpt lat="45.76168" lon="4.82647">
        <ele>230</ele>
        <time>2010-11-19T18:30:01Z</time>
      </trkpt>
      <trkpt lat="45.76168" lon="4.82646">
        <ele>230</ele>
        <time>2010-11-19T18:30:02Z</time>
      </trkpt>
      <trkpt lat="45.76172" lon="4.82639">
        <ele>230</ele>
        <time>2010-11-19T18:30:03Z</time>
      </trkpt>
      <trkpt lat="45.76174" lon="4.82636">
        <ele>230</ele>
        <time>2010-11-19T18:30:04Z</time>
      </trkpt>
      <trkpt lat="45.76177" lon="4.82632">
        <ele>230</ele>
        <time>2010-11-19T18:30:05Z</time>
      </trkpt>
      <trkpt lat="45.76178" lon="4.82631">
        <ele>230</ele>
        <time>2010-11-19T18:30:06Z</time>
      </trkpt>
      <trkpt lat="45.76181" lon="4.82629">
        <ele>230</ele>
        <time>2010-11-19T18:30:07Z</time>
      </trkpt>
      <trkpt lat="45.76183" lon="4.82629">
        <ele>231</ele>
        <time>2010-11-19T18:30:08Z</time>
      </trkpt>
      <trkpt lat="45.76188" lon="4.8263">
        <ele>230</ele>
        <time>2010-11-19T18:30:09Z</time>
      </trkpt>
      <trkpt lat="45.76191" lon="4.82632">
        <ele>229</ele>
        <time>2010-11-19T18:30:10Z</time>
      </trkpt>
      <trkpt lat="45.76191" lon="4.82633">
        <ele>228</ele>
        <time>2010-11-19T18:30:11Z</time>
      </trkpt>
      <trkpt lat="45.76192" lon="4.82632">
        <ele>229</ele>
        <time>2010-11-19T18:30:12Z</time>
      </trkpt>
      <trkpt lat="45.76194" lon="4.82632">
        <ele>229</ele>
        <time>2010-11-19T18:30:13Z</time>
      </trkpt>
      <trkpt lat="45.76195" lon="4.82632">
        <ele>229</ele>
        <time>2010-11-19T18:30:14Z</time>
      </trkpt>
      <trkpt lat="45.7623" lon="4.82577">
        <ele>232</ele>
        <time>2010-11-19T18:30:39Z</time>
      </trkpt>
      <trkpt lat="45.76231" lon="4.82576">
        <ele>232</ele>
        <time>2010-11-19T18:30:40Z</time>
      </trkpt>
      <trkpt lat="45.76233" lon="4.82579">
        <ele>231.75888061523</ele>
        <time>2010-11-19T18:30:41Z</time>
      </trkpt>
      <trkpt lat="45.76236" lon="4.82588">
        <ele>231.24415588379</ele>
        <time>2010-11-19T18:30:42Z</time>
      </trkpt>
      <trkpt lat="45.76236" lon="4.8258">
        <ele>231</ele>
        <time>2010-11-19T18:30:43Z</time>
      </trkpt>
      <trkpt lat="45.76239" lon="4.82579">
        <ele>231</ele>
        <time>2010-11-19T18:30:44Z</time>
      </trkpt>
      <trkpt lat="45.76234" lon="4.82583">
        <ele>231</ele>
        <time>2010-11-19T18:30:45Z</time>
      </trkpt>
      <trkpt lat="45.76234" lon="4.8258">
        <ele>231</ele>
        <time>2010-11-19T18:30:46Z</time>
      </trkpt>
      <trkpt lat="45.76238" lon="4.82575">
        <ele>231</ele>
        <time>2010-11-19T18:30:47Z</time>
      </trkpt>
      <trkpt lat="45.76237" lon="4.82577">
        <ele>232</ele>
        <time>2010-11-19T18:30:48Z</time>
      </trkpt>
      <trkpt lat="45.76237" lon="4.82577">
        <ele>233</ele>
        <time>2010-11-19T18:30:49Z</time>
      </trkpt>
      <trkpt lat="45.76238" lon="4.82577">
        <ele>232</ele>
        <time>2010-11-19T18:30:50Z</time>
      </trkpt>
      <trkpt lat="45.76236" lon="4.82579">
        <ele>233</ele>
        <time>2010-11-19T18:30:51Z</time>
      </trkpt>
      <trkpt lat="45.7624" lon="4.82571">
        <ele>233</ele>
        <time>2010-11-19T18:30:52Z</time>
      </trkpt>
      <trkpt lat="45.76239" lon="4.82576">
        <ele>234</ele>
        <time>2010-11-19T18:30:53Z</time>
      </trkpt>
      <trkpt lat="45.76241" lon="4.82573">
        <ele>234</ele>
        <time>2010-11-19T18:30:54Z</time>
      </trkpt>
      <trkpt lat="45.76241" lon="4.82574">
        <ele>235</ele>
        <time>2010-11-19T18:30:55Z</time>
      </trkpt>
      <trkpt lat="45.76241" lon="4.82576">
        <ele>235</ele>
        <time>2010-11-19T18:30:56Z</time>
      </trkpt>
      <trkpt lat="45.76251" lon="4.82557">
        <ele>244</ele>
        <time>2010-11-19T18:31:16Z</time>
      </trkpt>
      <trkpt lat="45.76251" lon="4.82556">
        <ele>244</ele>
        <time>2010-11-19T18:31:17Z</time>
      </trkpt>
      <trkpt lat="45.76251" lon="4.82556">
        <ele>245</ele>
        <time>2010-11-19T18:31:18Z</time>
      </trkpt>
      <trkpt lat="45.76252" lon="4.82554">
        <ele>245</ele>
        <time>2010-11-19T18:31:19Z</time>
      </trkpt>
      <trkpt lat="45.76253" lon="4.82551">
        <ele>246</ele>
        <time>2010-11-19T18:31:20Z</time>
      </trkpt>
      <trkpt lat="45.76251" lon="4.82551">
        <ele>246</ele>
        <time>2010-11-19T18:31:21Z</time>
      </trkpt>
      <trkpt lat="45.7625" lon="4.8255">
        <ele>246</ele>
        <time>2010-11-19T18:31:22Z</time>
      </trkpt>
      <trkpt lat="45.76251" lon="4.82549">
        <ele>247</ele>
        <time>2010-11-19T18:31:23Z</time>
      </trkpt>
      <trkpt lat="45.76252" lon="4.82548">
        <ele>247</ele>
        <time>2010-11-19T18:31:24Z</time>
      </trkpt>
      <trkpt lat="45.76253" lon="4.82548">
        <ele>248</ele>
        <time>2010-11-19T18:31:25Z</time>
      </trkpt>
      <trkpt lat="45.76254" lon="4.82547">
        <ele>248</ele>
        <time>2010-11-19T18:31:26Z</time>
      </trkpt>
      <trkpt lat="45.76254" lon="4.82547">
        <ele>248</ele>
        <time>2010-11-19T18:31:27Z</time>
      </trkpt>
      <trkpt lat="45.76254" lon="4.82547">
        <ele>248</ele>
        <time>2010-11-19T18:31:28Z</time>
      </trkpt>
      <trkpt lat="45.76255" lon="4.82544">
        <ele>249</ele>
        <time>2010-11-19T18:31:29Z</time>
      </trkpt>
      <trkpt lat="45.76256" lon="4.82541">
        <ele>250</ele>
        <time>2010-11-19T18:31:30Z</time>
      </trkpt>
      <trkpt lat="45.76257" lon="4.8254">
        <ele>250</ele>
        <time>2010-11-19T18:31:31Z</time>
      </trkpt>
      <trkpt lat="45.76258" lon="4.82539">
        <ele>251</ele>
        <time>2010-11-19T18:31:32Z</time>
      </trkpt>
      <trkpt lat="45.76258" lon="4.82541">
        <ele>252</ele>
        <time>2010-11-19T18:31:33Z</time>
      </trkpt>
      <trkpt lat="45.76258" lon="4.82541">
        <ele>252</ele>
        <time>2010-11-19T18:31:34Z</time>
      </trkpt>
      <trkpt lat="45.76259" lon="4.8254">
        <ele>252</ele>
        <time>2010-11-19T18:31:35Z</time>
      </trkpt>
      <trkpt lat="45.7626" lon="4.8254">
        <ele>252</ele>
        <time>2010-11-19T18:31:36Z</time>
      </trkpt>
      <trkpt lat="45.76262" lon="4.82537">
        <ele>253</ele>
        <time>2010-11-19T18:31:37Z</time>
      </trkpt>
      <trkpt lat="45.76263" lon="4.82537">
        <ele>253</ele>
        <time>2010-11-19T18:31:38Z</time>
      </trkpt>
      <trkpt lat="45.76264" lon="4.82536">
        <ele>253</ele>
        <time>2010-11-19T18:31:39Z</time>
      </trkpt>
      <trkpt lat="45.76267" lon="4.82535">
        <ele>252</ele>
        <time>2010-11-19T18:31:40Z</time>
      </trkpt>
      <trkpt lat="45.76268" lon="4.82536">
        <ele>252</ele>
        <time>2010-11-19T18:31:41Z</time>
      </trkpt>
      <trkpt lat="45.76269" lon="4.82535">
        <ele>252</ele>
        <time>2010-11-19T18:31:42Z</time>
      </trkpt>
      <trkpt lat="45.7627" lon="4.82536">
        <ele>254</ele>
        <time>2010-11-19T18:31:43Z</time>
      </trkpt>
      <trkpt lat="45.76268" lon="4.82535">
        <ele>254</ele>
        <time>2010-11-19T18:31:44Z</time>
      </trkpt>
      <trkpt lat="45.76269" lon="4.82535">
        <ele>254</ele>
        <time>2010-11-19T18:31:45Z</time>
      </trkpt>
      <trkpt lat="45.76272" lon="4.82535">
        <ele>254</ele>
        <time>2010-11-19T18:31:46Z</time>
      </trkpt>
      <trkpt lat="45.7627" lon="4.82534">
        <ele>254</ele>
        <time>2010-11-19T18:31:47Z</time>
      </trkpt>
      <trkpt lat="45.76271" lon="4.82534">
        <ele>255</ele>
        <time>2010-11-19T18:31:48Z</time>
      </trkpt>
      <trkpt lat="45.76269" lon="4.82532">
        <ele>256</ele>
        <time>2010-11-19T18:31:49Z</time>
      </trkpt>
      <trkpt lat="45.7627" lon="4.82532">
        <ele>257</ele>
        <time>2010-11-19T18:31:50Z</time>
      </trkpt>
      <trkpt lat="45.76271" lon="4.82529">
        <ele>257</ele>
        <time>2010-11-19T18:31:51Z</time>
      </trkpt>
      <trkpt lat="45.76268" lon="4.82527">
        <ele>258</ele>
        <time>2010-11-19T18:31:52Z</time>
      </trkpt>
      <trkpt lat="45.76257" lon="4.82511">
        <ele>264</ele>
        <time>2010-11-19T18:32:13Z</time>
      </trkpt>
      <trkpt lat="45.76257" lon="4.8251">
        <ele>264</ele>
        <time>2010-11-19T18:32:14Z</time>
      </trkpt>
      <trkpt lat="45.76257" lon="4.8251">
        <ele>264</ele>
        <time>2010-11-19T18:32:15Z</time>
      </trkpt>
      <trkpt lat="45.76257" lon="4.8251">
        <ele>264</ele>
        <time>2010-11-19T18:32:16Z</time>
      </trkpt>
      <trkpt lat="45.76257" lon="4.8251">
        <ele>264</ele>
        <time>2010-11-19T18:32:17Z</time>
      </trkpt>
      <trkpt lat="45.76257" lon="4.8251">
        <ele>264</ele>
        <time>2010-11-19T18:32:18Z</time>
      </trkpt>
      <trkpt lat="45.76256" lon="4.82506">
        <ele>262</ele>
        <time>2010-11-19T18:32:19Z</time>
      </trkpt>
      <trkpt lat="45.76256" lon="4.82504">
        <ele>262</ele>
        <time>2010-11-19T18:32:20Z</time>
      </trkpt>
      <trkpt lat="45.76255" lon="4.82502">
        <ele>262</ele>
        <time>2010-11-19T18:32:21Z</time>
      </trkpt>
      <trkpt lat="45.76256" lon="4.825">
        <ele>262</ele>
        <time>2010-11-19T18:32:22Z</time>
      </trkpt>
      <trkpt lat="45.76256" lon="4.82499">
        <ele>261</ele>
        <time>2010-11-19T18:32:23Z</time>
      </trkpt>
      <trkpt lat="45.76255" lon="4.82498">
        <ele>261</ele>
        <time>2010-11-19T18:32:24Z</time>
      </trkpt>
      <trkpt lat="45.76254" lon="4.82496">
        <ele>261</ele>
        <time>2010-11-19T18:32:25Z</time>
      </trkpt>
      <trkpt lat="45.76253" lon="4.82495">
        <ele>262</ele>
        <time>2010-11-19T18:32:26Z</time>
      </trkpt>
      <trkpt lat="45.76252" lon="4.82492">
        <ele>262</ele>
        <time>2010-11-19T18:32:27Z</time>
      </trkpt>
      <trkpt lat="45.76251" lon="4.82491">
        <ele>262</ele>
        <time>2010-11-19T18:32:28Z</time>
      </trkpt>
      <trkpt lat="45.7625" lon="4.82489">
        <ele>262</ele>
        <time>2010-11-19T18:32:29Z</time>
      </trkpt>
      <trkpt lat="45.7625" lon="4.82488">
        <ele>262</ele>
        <time>2010-11-19T18:32:30Z</time>
      </trkpt>
      <trkpt lat="45.76249" lon="4.82486">
        <ele>262</ele>
        <time>2010-11-19T18:32:31Z</time>
      </trkpt>
      <trkpt lat="45.76249" lon="4.82485">
        <ele>262</ele>
        <time>2010-11-19T18:32:32Z</time>
      </trkpt>
      <trkpt lat="45.76249" lon="4.82484">
        <ele>263</ele>
        <time>2010-11-19T18:32:33Z</time>
      </trkpt>
      <trkpt lat="45.76249" lon="4.82483">
        <ele>262</ele>
        <time>2010-11-19T18:32:34Z</time>
      </trkpt>
      <trkpt lat="45.76248" lon="4.82481">
        <ele>263</ele>
        <time>2010-11-19T18:32:35Z</time>
      </trkpt>
      <trkpt lat="45.76247" lon="4.82478">
        <ele>263</ele>
        <time>2010-11-19T18:32:36Z</time>
      </trkpt>
      <trkpt lat="45.76247" lon="4.82476">
        <ele>264</ele>
        <time>2010-11-19T18:32:37Z</time>
      </trkpt>
      <trkpt lat="45.76246" lon="4.82474">
        <ele>264</ele>
        <time>2010-11-19T18:32:38Z</time>
      </trkpt>
      <trkpt lat="45.76246" lon="4.82471">
        <ele>264</ele>
        <time>2010-11-19T18:32:39Z</time>
      </trkpt>
      <trkpt lat="45.76244" lon="4.82469">
        <ele>264</ele>
        <time>2010-11-19T18:32:40Z</time>
      </trkpt>
      <trkpt lat="45.76243" lon="4.82468">
        <ele>264</ele>
        <time>2010-11-19T18:32:41Z</time>
      </trkpt>
      <trkpt lat="45.76243" lon="4.82465">
        <ele>265</ele>
        <time>2010-11-19T18:32:42Z</time>
      </trkpt>
      <trkpt lat="45.76244" lon="4.82462">
        <ele>265</ele>
        <time>2010-11-19T18:32:43Z</time>
      </trkpt>
      <trkpt lat="45.76243" lon="4.82462">
        <ele>266</ele>
        <time>2010-11-19T18:32:44Z</time>
      </trkpt>
      <trkpt lat="45.76243" lon="4.82459">
        <ele>266</ele>
        <time>2010-11-19T18:32:45Z</time>
      </trkpt>
      <trkpt lat="45.76243" lon="4.82457">
        <ele>266</ele>
        <time>2010-11-19T18:32:46Z</time>
      </trkpt>
      <trkpt lat="45.76242" lon="4.82455">
        <ele>267</ele>
        <time>2010-11-19T18:32:47Z</time>
      </trkpt>
      <trkpt lat="45.76241" lon="4.82453">
        <ele>268</ele>
        <time>2010-11-19T18:32:48Z</time>
      </trkpt>
      <trkpt lat="45.7624" lon="4.82451">
        <ele>268</ele>
        <time>2010-11-19T18:32:49Z</time>
      </trkpt>
      <trkpt lat="45.7624" lon="4.82448">
        <ele>268</ele>
        <time>2010-11-19T18:32:50Z</time>
      </trkpt>
      <trkpt lat="45.76239" lon="4.82447">
        <ele>269</ele>
        <time>2010-11-19T18:32:51Z</time>
      </trkpt>
      <trkpt lat="45.76238" lon="4.82446">
        <ele>269</ele>
        <time>2010-11-19T18:32:52Z</time>
      </trkpt>
      <trkpt lat="45.76238" lon="4.82444">
        <ele>269</ele>
        <time>2010-11-19T18:32:53Z</time>
      </trkpt>
      <trkpt lat="45.76235" lon="4.82442">
        <ele>268</ele>
        <time>2010-11-19T18:32:54Z</time>
      </trkpt>
      <trkpt lat="45.76233" lon="4.82443">
        <ele>269</ele>
        <time>2010-11-19T18:32:55Z</time>
      </trkpt>
      <trkpt lat="45.76231" lon="4.82442">
        <ele>269</ele>
        <time>2010-11-19T18:32:56Z</time>
      </trkpt>
      <trkpt lat="45.76229" lon="4.82441">
        <ele>269</ele>
        <time>2010-11-19T18:32:57Z</time>
      </trkpt>
      <trkpt lat="45.76227" lon="4.82439">
        <ele>270</ele>
        <time>2010-11-19T18:32:58Z</time>
      </trkpt>
      <trkpt lat="45.76226" lon="4.82438">
        <ele>270</ele>
        <time>2010-11-19T18:32:59Z</time>
      </trkpt>
      <trkpt lat="45.76226" lon="4.82437">
        <ele>270</ele>
        <time>2010-11-19T18:33:00Z</time>
      </trkpt>
      <trkpt lat="45.76225" lon="4.82436">
        <ele>270</ele>
        <time>2010-11-19T18:33:01Z</time>
      </trkpt>
      <trkpt lat="45.76225" lon="4.82435">
        <ele>270</ele>
        <time>2010-11-19T18:33:02Z</time>
      </trkpt>
      <trkpt lat="45.76224" lon="4.8243">
        <ele>270</ele>
        <time>2010-11-19T18:33:03Z</time>
      </trkpt>
      <trkpt lat="45.76223" lon="4.82429">
        <ele>271</ele>
        <time>2010-11-19T18:33:04Z</time>
      </trkpt>
      <trkpt lat="45.76222" lon="4.82427">
        <ele>271</ele>
        <time>2010-11-19T18:33:05Z</time>
      </trkpt>
      <trkpt lat="45.76221" lon="4.82425">
        <ele>272</ele>
        <time>2010-11-19T18:33:06Z</time>
      </trkpt>
      <trkpt lat="45.76222" lon="4.82423">
        <ele>272</ele>
        <time>2010-11-19T18:33:07Z</time>
      </trkpt>
      <trkpt lat="45.76221" lon="4.82422">
        <ele>272</ele>
        <time>2010-11-19T18:33:08Z</time>
      </trkpt>
      <trkpt lat="45.76221" lon="4.8242">
        <ele>273</ele>
        <time>2010-11-19T18:33:09Z</time>
      </trkpt>
      <trkpt lat="45.76222" lon="4.82418">
        <ele>274</ele>
        <time>2010-11-19T18:33:10Z</time>
      </trkpt>
      <trkpt lat="45.76222" lon="4.82416">
        <ele>274</ele>
        <time>2010-11-19T18:33:11Z</time>
      </trkpt>
      <trkpt lat="45.76224" lon="4.82416">
        <ele>274</ele>
        <time>2010-11-19T18:33:12Z</time>
      </trkpt>
      <trkpt lat="45.76225" lon="4.82414">
        <ele>275</ele>
        <time>2010-11-19T18:33:13Z</time>
      </trkpt>
      <trkpt lat="45.76227" lon="4.82413">
        <ele>276</ele>
        <time>2010-11-19T18:33:14Z</time>
      </trkpt>
      <trkpt lat="45.76229" lon="4.82412">
        <ele>276</ele>
        <time>2010-11-19T18:33:15Z</time>
      </trkpt>
      <trkpt lat="45.76231" lon="4.8241">
        <ele>276</ele>
        <time>2010-11-19T18:33:16Z</time>
      </trkpt>
      <trkpt lat="45.76232" lon="4.82411">
        <ele>277</ele>
        <time>2010-11-19T18:33:17Z</time>
      </trkpt>
      <trkpt lat="45.76234" lon="4.82413">
        <ele>280</ele>
        <time>2010-11-19T18:33:18Z</time>
      </trkpt>
      <trkpt lat="45.76235" lon="4.82414">
        <ele>281</ele>
        <time>2010-11-19T18:33:19Z</time>
      </trkpt>
      <trkpt lat="45.76236" lon="4.82414">
        <ele>281</ele>
        <time>2010-11-19T18:33:20Z</time>
      </trkpt>
      <trkpt lat="45.76237" lon="4.82415">
        <ele>281</ele>
        <time>2010-11-19T18:33:21Z</time>
      </trkpt>
      <trkpt lat="45.76239" lon="4.82415">
        <ele>282</ele>
        <time>2010-11-19T18:33:22Z</time>
      </trkpt>
      <trkpt lat="45.7624" lon="4.82415">
        <ele>282</ele>
        <time>2010-11-19T18:33:23Z</time>
      </trkpt>
      <trkpt lat="45.76242" lon="4.82416">
        <ele>282</ele>
        <time>2010-11-19T18:33:24Z</time>
      </trkpt>
      <trkpt lat="45.76244" lon="4.82416">
        <ele>281</ele>
        <time>2010-11-19T18:33:25Z</time>
      </trkpt>
      <trkpt lat="45.76246" lon="4.82416">
        <ele>280</ele>
        <time>2010-11-19T18:33:26Z</time>
      </trkpt>
      <trkpt lat="45.76248" lon="4.82416">
        <ele>280</ele>
        <time>2010-11-19T18:33:27Z</time>
      </trkpt>
      <trkpt lat="45.7625" lon="4.82418">
        <ele>281</ele>
        <time>2010-11-19T18:33:28Z</time>
      </trkpt>
      <trkpt lat="45.76251" lon="4.82419">
        <ele>281</ele>
        <time>2010-11-19T18:33:29Z</time>
      </trkpt>
      <trkpt lat="45.76253" lon="4.82419">
        <ele>281</ele>
        <time>2010-11-19T18:33:30Z</time>
      </trkpt>
      <trkpt lat="45.76254" lon="4.82419">
        <ele>282</ele>
        <time>2010-11-19T18:33:31Z</time>
      </trkpt>
      <trkpt lat="45.76255" lon="4.82419">
        <ele>282</ele>
        <time>2010-11-19T18:33:32Z</time>
      </trkpt>
      <trkpt lat="45.76257" lon="4.82421">
        <ele>283</ele>
        <time>2010-11-19T18:33:33Z</time>
      </trkpt>
      <trkpt lat="45.76259" lon="4.82421">
        <ele>283</ele>
        <time>2010-11-19T18:33:34Z</time>
      </trkpt>
      <trkpt lat="45.76261" lon="4.82421">
        <ele>282</ele>
        <time>2010-11-19T18:33:35Z</time>
      </trkpt>
      <trkpt lat="45.76264" lon="4.82423">
        <ele>283</ele>
        <time>2010-11-19T18:33:36Z</time>
      </trkpt>
      <trkpt lat="45.76266" lon="4.82423">
        <ele>283</ele>
        <time>2010-11-19T18:33:37Z</time>
      </trkpt>
      <trkpt lat="45.76268" lon="4.82422">
        <ele>283</ele>
        <time>2010-11-19T18:33:38Z</time>
      </trkpt>
      <trkpt lat="45.7627" lon="4.82423">
        <ele>284</ele>
        <time>2010-11-19T18:33:39Z</time>
      </trkpt>
      <trkpt lat="45.76272" lon="4.82424">
        <ele>284</ele>
        <time>2010-11-19T18:33:40Z</time>
      </trkpt>
      <trkpt lat="45.76273" lon="4.82423">
        <ele>284</ele>
        <time>2010-11-19T18:33:41Z</time>
      </trkpt>
      <trkpt lat="45.76273" lon="4.82422">
        <ele>283</ele>
        <time>2010-11-19T18:33:42Z</time>
      </trkpt>
      <trkpt lat="45.76273" lon="4.82421">
        <ele>283</ele>
        <time>2010-11-19T18:33:43Z</time>
      </trkpt>
      <trkpt lat="45.76272" lon="4.82421">
        <ele>283</ele>
        <time>2010-11-19T18:33:44Z</time>
      </trkpt>
      <trkpt lat="45.76271" lon="4.82419">
        <ele>284</ele>
        <time>2010-11-19T18:33:45Z</time>
      </trkpt>
      <trkpt lat="45.7627" lon="4.82418">
        <ele>284</ele>
        <time>2010-11-19T18:33:46Z</time>
      </trkpt>
      <trkpt lat="45.76269" lon="4.82418">
        <ele>284</ele>
        <time>2010-11-19T18:33:47Z</time>
      </trkpt>
      <trkpt lat="45.76268" lon="4.82417">
        <ele>284</ele>
        <time>2010-11-19T18:33:48Z</time>
      </trkpt>
      <trkpt lat="45.76266" lon="4.82416">
        <ele>283</ele>
        <time>2010-11-19T18:33:49Z</time>
      </trkpt>
      <trkpt lat="45.76265" lon="4.82413">
        <ele>283</ele>
        <time>2010-11-19T18:33:50Z</time>
      </trkpt>
      <trkpt lat="45.76254" lon="4.82393">
        <ele>284</ele>
        <time>2010-11-19T18:34:00Z</time>
      </trkpt>
      <trkpt lat="45.76253" lon="4.82392">
        <ele>284</ele>
        <time>2010-11-19T18:34:00Z</time>
      </trkpt>
      <trkpt lat="45.76252" lon="4.8239">
        <ele>284</ele>
        <time>2010-11-19T18:34:01Z</time>
      </trkpt>
      <trkpt lat="45.7625" lon="4.82388">
        <ele>284</ele>
        <time>2010-11-19T18:34:02Z</time>
      </trkpt>
      <trkpt lat="45.76249" lon="4.82388">
        <ele>284</ele>
        <time>2010-11-19T18:34:03Z</time>
      </trkpt>
      <trkpt lat="45.76246" lon="4.82388">
        <ele>284</ele>
        <time>2010-11-19T18:34:04Z</time>
      </trkpt>
      <trkpt lat="45.76244" lon="4.82387">
        <ele>284</ele>
        <time>2010-11-19T18:34:05Z</time>
      </trkpt>
      <trkpt lat="45.76241" lon="4.82388">
        <ele>286</ele>
        <time>2010-11-19T18:34:06Z</time>
      </trkpt>
      <trkpt lat="45.76239" lon="4.82387">
        <ele>286</ele>
        <time>2010-11-19T18:34:07Z</time>
      </trkpt>
      <trkpt lat="45.76237" lon="4.82386">
        <ele>287</ele>
        <time>2010-11-19T18:34:08Z</time>
      </trkpt>
      <trkpt lat="45.76236" lon="4.82383">
        <ele>288</ele>
        <time>2010-11-19T18:34:09Z</time>
      </trkpt>
      <trkpt lat="45.76234" lon="4.82382">
        <ele>288</ele>
        <time>2010-11-19T18:34:10Z</time>
      </trkpt>
      <trkpt lat="45.76233" lon="4.82381">
        <ele>288</ele>
        <time>2010-11-19T18:34:11Z</time>
      </trkpt>
      <trkpt lat="45.76233" lon="4.82379">
        <ele>288</ele>
        <time>2010-11-19T18:34:12Z</time>
      </trkpt>
      <trkpt lat="45.76233" lon="4.82377">
        <ele>288</ele>
        <time>2010-11-19T18:34:13Z</time>
      </trkpt>
      <trkpt lat="45.76234" lon="4.82374">
        <ele>288</ele>
        <time>2010-11-19T18:34:14Z</time>
      </trkpt>
      <trkpt lat="45.76234" lon="4.82373">
        <ele>289</ele>
        <time>2010-11-19T18:34:15Z</time>
      </trkpt>
      <trkpt lat="45.76234" lon="4.82373">
        <ele>289</ele>
        <time>2010-11-19T18:34:16Z</time>
      </trkpt>
      <trkpt lat="45.76235" lon="4.82371">
        <ele>289</ele>
        <time>2010-11-19T18:34:17Z</time>
      </trkpt>
      <trkpt lat="45.76234" lon="4.8237">
        <ele>290</ele>
        <time>2010-11-19T18:34:18Z</time>
      </trkpt>
      <trkpt lat="45.76234" lon="4.82369">
        <ele>289</ele>
        <time>2010-11-19T18:34:19Z</time>
      </trkpt>
      <trkpt lat="45.76234" lon="4.82369">
        <ele>289</ele>
        <time>2010-11-19T18:34:20Z</time>
      </trkpt>
      <trkpt lat="45.76236" lon="4.82368">
        <ele>290</ele>
        <time>2010-11-19T18:34:21Z</time>
      </trkpt>
      <trkpt lat="45.76238" lon="4.82367">
        <ele>290</ele>
        <time>2010-11-19T18:34:22Z</time>
      </trkpt>
      <trkpt lat="45.76241" lon="4.82366">
        <ele>290</ele>
        <time>2010-11-19T18:34:23Z</time>
      </trkpt>
      <trkpt lat="45.76244" lon="4.82365">
        <ele>290</ele>
        <time>2010-11-19T18:34:24Z</time>
      </trkpt>
      <trkpt lat="45.76245" lon="4.82366">
        <ele>289</ele>
        <time>2010-11-19T18:34:25Z</time>
      </trkpt>
      <trkpt lat="45.76247" lon="4.82367">
        <ele>290</ele>
        <time>2010-11-19T18:34:26Z</time>
      </trkpt>
      <trkpt lat="45.76249" lon="4.82366">
        <ele>290</ele>
        <time>2010-11-19T18:34:27Z</time>
      </trkpt>
      <trkpt lat="45.76251" lon="4.82365">
        <ele>290</ele>
        <time>2010-11-19T18:34:28Z</time>
      </trkpt>
      <trkpt lat="45.76254" lon="4.82364">
        <ele>290</ele>
        <time>2010-11-19T18:34:29Z</time>
      </trkpt>
      <trkpt lat="45.76255" lon="4.82364">
        <ele>290</ele>
        <time>2010-11-19T18:34:30Z</time>
      </trkpt>
      <trkpt lat="45.76256" lon="4.82363">
        <ele>290</ele>
        <time>2010-11-19T18:34:31Z</time>
      </trkpt>
      <trkpt lat="45.76258" lon="4.82363">
        <ele>290</ele>
        <time>2010-11-19T18:34:32Z</time>
      </trkpt>
      <trkpt lat="45.76259" lon="4.82363">
        <ele>290</ele>
        <time>2010-11-19T18:34:33Z</time>
      </trkpt>
      <trkpt lat="45.76262" lon="4.82364">
        <ele>290</ele>
        <time>2010-11-19T18:34:34Z</time>
      </trkpt>
      <trkpt lat="45.76264" lon="4.82363">
        <ele>290</ele>
        <time>2010-11-19T18:34:35Z</time>
      </trkpt>
      <trkpt lat="45.76265" lon="4.82364">
        <ele>290</ele>
        <time>2010-11-19T18:34:36Z</time>
      </trkpt>
      <trkpt lat="45.76268" lon="4.82364">
        <ele>291</ele>
        <time>2010-11-19T18:34:37Z</time>
      </trkpt>
      <trkpt lat="45.7627" lon="4.82365">
        <ele>292</ele>
        <time>2010-11-19T18:34:38Z</time>
      </trkpt>
      <trkpt lat="45.76271" lon="4.82366">
        <ele>292</ele>
        <time>2010-11-19T18:34:39Z</time>
      </trkpt>
      <trkpt lat="45.76275" lon="4.82367">
        <ele>293</ele>
        <time>2010-11-19T18:34:40Z</time>
      </trkpt>
      <trkpt lat="45.76275" lon="4.82368">
        <ele>293</ele>
        <time>2010-11-19T18:34:41Z</time>
      </trkpt>
      <trkpt lat="45.76277" lon="4.82369">
        <ele>294</ele>
        <time>2010-11-19T18:34:42Z</time>
      </trkpt>
      <trkpt lat="45.76279" lon="4.82369">
        <ele>294</ele>
        <time>2010-11-19T18:34:43Z</time>
      </trkpt>
      <trkpt lat="45.7628" lon="4.82369">
        <ele>295</ele>
        <time>2010-11-19T18:34:44Z</time>
      </trkpt>
      <trkpt lat="45.76282" lon="4.82369">
        <ele>295</ele>
        <time>2010-11-19T18:34:45Z</time>
      </trkpt>
      <trkpt lat="45.76284" lon="4.82369">
        <ele>295</ele>
        <time>2010-11-19T18:34:46Z</time>
      </trkpt>
      <trkpt lat="45.76284" lon="4.82368">
        <ele>296</ele>
        <time>2010-11-19T18:34:47Z</time>
      </trkpt>
      <trkpt lat="45.76284" lon="4.82366">
        <ele>296</ele>
        <time>2010-11-19T18:34:48Z</time>
      </trkpt>
      <trkpt lat="45.76283" lon="4.82365">
        <ele>296</ele>
        <time>2010-11-19T18:34:49Z</time>
      </trkpt>
      <trkpt lat="45.76282" lon="4.82363">
        <ele>296</ele>
        <time>2010-11-19T18:34:50Z</time>
      </trkpt>
      <trkpt lat="45.76281" lon="4.82361">
        <ele>296</ele>
        <time>2010-11-19T18:34:51Z</time>
      </trkpt>
      <trkpt lat="45.7628" lon="4.82361">
        <ele>296</ele>
        <time>2010-11-19T18:34:52Z</time>
      </trkpt>
      <trkpt lat="45.76278" lon="4.82361">
        <ele>296</ele>
        <time>2010-11-19T18:34:53Z</time>
      </trkpt>
      <trkpt lat="45.76277" lon="4.82359">
        <ele>296</ele>
        <time>2010-11-19T18:34:54Z</time>
      </trkpt>
      <trkpt lat="45.76261" lon="4.82346">
        <ele>298</ele>
        <time>2010-11-19T18:35:05Z</time>
      </trkpt>
      <trkpt lat="45.7626" lon="4.82346">
        <ele>298.11581420898</ele>
        <time>2010-11-19T18:35:06Z</time>
      </trkpt>
      <trkpt lat="45.76259" lon="4.82345">
        <ele>298.59228515625</ele>
        <time>2010-11-19T18:35:06Z</time>
      </trkpt>
      <trkpt lat="45.76255" lon="4.82342">
        <ele>300</ele>
        <time>2010-11-19T18:35:07Z</time>
      </trkpt>
      <trkpt lat="45.76254" lon="4.82341">
        <ele>300</ele>
        <time>2010-11-19T18:35:08Z</time>
      </trkpt>
      <trkpt lat="45.76253" lon="4.82338">
        <ele>300</ele>
        <time>2010-11-19T18:35:09Z</time>
      </trkpt>
      <trkpt lat="45.76251" lon="4.82337">
        <ele>300</ele>
        <time>2010-11-19T18:35:10Z</time>
      </trkpt>
      <trkpt lat="45.76249" lon="4.82335">
        <ele>300</ele>
        <time>2010-11-19T18:35:11Z</time>
      </trkpt>
      <trkpt lat="45.76247" lon="4.82331">
        <ele>300</ele>
        <time>2010-11-19T18:35:12Z</time>
      </trkpt>
      <trkpt lat="45.76246" lon="4.82329">
        <ele>300</ele>
        <time>2010-11-19T18:35:13Z</time>
      </trkpt>
      <trkpt lat="45.76245" lon="4.82327">
        <ele>300</ele>
        <time>2010-11-19T18:35:14Z</time>
      </trkpt>
      <trkpt lat="45.76244" lon="4.82326">
        <ele>301</ele>
        <time>2010-11-19T18:35:15Z</time>
      </trkpt>
      <trkpt lat="45.76247" lon="4.82321">
        <ele>301</ele>
        <time>2010-11-19T18:35:16Z</time>
      </trkpt>
      <trkpt lat="45.76247" lon="4.82321">
        <ele>301</ele>
        <time>2010-11-19T18:35:17Z</time>
      </trkpt>
      <trkpt lat="45.76248" lon="4.8232">
        <ele>301</ele>
        <time>2010-11-19T18:35:18Z</time>
      </trkpt>
      <trkpt lat="45.76249" lon="4.82319">
        <ele>302</ele>
        <time>2010-11-19T18:35:19Z</time>
      </trkpt>
      <trkpt lat="45.7625" lon="4.82321">
        <ele>302.82202148438</ele>
        <time>2010-11-19T18:35:20Z</time>
      </trkpt>
      <trkpt lat="45.76253" lon="4.82321">
        <ele>304</ele>
        <time>2010-11-19T18:35:21Z</time>
      </trkpt>
      <trkpt lat="45.76255" lon="4.82321">
        <ele>303</ele>
        <time>2010-11-19T18:35:22Z</time>
      </trkpt>
      <trkpt lat="45.76255" lon="4.82323">
        <ele>304</ele>
        <time>2010-11-19T18:35:23Z</time>
      </trkpt>
      <trkpt lat="45.76256" lon="4.82324">
        <ele>305</ele>
        <time>2010-11-19T18:35:24Z</time>
      </trkpt>
      <trkpt lat="45.76258" lon="4.82324">
        <ele>306</ele>
        <time>2010-11-19T18:35:25Z</time>
      </trkpt>
      <trkpt lat="45.76261" lon="4.82323">
        <ele>306</ele>
        <time>2010-11-19T18:35:26Z</time>
      </trkpt>
      <trkpt lat="45.76263" lon="4.82324">
        <ele>306</ele>
        <time>2010-11-19T18:35:27Z</time>
      </trkpt>
      <trkpt lat="45.76264" lon="4.82324">
        <ele>307</ele>
        <time>2010-11-19T18:35:28Z</time>
      </trkpt>
      <trkpt lat="45.76265" lon="4.82326">
        <ele>308</ele>
        <time>2010-11-19T18:35:29Z</time>
      </trkpt>
      <trkpt lat="45.76266" lon="4.82326">
        <ele>308</ele>
        <time>2010-11-19T18:35:30Z</time>
      </trkpt>
      <trkpt lat="45.76268" lon="4.82326">
        <ele>309</ele>
        <time>2010-11-19T18:35:31Z</time>
      </trkpt>
      <trkpt lat="45.76269" lon="4.82327">
        <ele>309</ele>
        <time>2010-11-19T18:35:32Z</time>
      </trkpt>
      <trkpt lat="45.7627" lon="4.82327">
        <ele>309</ele>
        <time>2010-11-19T18:35:33Z</time>
      </trkpt>
      <trkpt lat="45.76273" lon="4.82326">
        <ele>309</ele>
        <time>2010-11-19T18:35:34Z</time>
      </trkpt>
      <trkpt lat="45.76275" lon="4.82326">
        <ele>310</ele>
        <time>2010-11-19T18:35:35Z</time>
      </trkpt>
      <trkpt lat="45.76277" lon="4.82328">
        <ele>310</ele>
        <time>2010-11-19T18:35:36Z</time>
      </trkpt>
      <trkpt lat="45.76279" lon="4.8233">
        <ele>312</ele>
        <time>2010-11-19T18:35:37Z</time>
      </trkpt>
      <trkpt lat="45.7628" lon="4.82331">
        <ele>312</ele>
        <time>2010-11-19T18:35:38Z</time>
      </trkpt>
      <trkpt lat="45.76281" lon="4.82333">
        <ele>314</ele>
        <time>2010-11-19T18:35:39Z</time>
      </trkpt>
      <trkpt lat="45.76283" lon="4.82334">
        <ele>314</ele>
        <time>2010-11-19T18:35:40Z</time>
      </trkpt>
      <trkpt lat="45.76284" lon="4.82334">
        <ele>315</ele>
        <time>2010-11-19T18:35:41Z</time>
      </trkpt>
      <trkpt lat="45.76286" lon="4.82334">
        <ele>315</ele>
        <time>2010-11-19T18:35:42Z</time>
      </trkpt>
      <trkpt lat="45.76289" lon="4.82334">
        <ele>317</ele>
        <time>2010-11-19T18:35:43Z</time>
      </trkpt>
      <trkpt lat="45.7629" lon="4.82335">
        <ele>317</ele>
        <time>2010-11-19T18:35:44Z</time>
      </trkpt>
      <trkpt lat="45.76291" lon="4.82335">
        <ele>318</ele>
        <time>2010-11-19T18:35:45Z</time>
      </trkpt>
      <trkpt lat="45.76292" lon="4.82334">
        <ele>318</ele>
        <time>2010-11-19T18:35:46Z</time>
      </trkpt>
      <trkpt lat="45.76291" lon="4.82333">
        <ele>319</ele>
        <time>2010-11-19T18:35:47Z</time>
      </trkpt>
      <trkpt lat="45.76291" lon="4.82331">
        <ele>319</ele>
        <time>2010-11-19T18:35:48Z</time>
      </trkpt>
      <trkpt lat="45.7629" lon="4.8233">
        <ele>319</ele>
        <time>2010-11-19T18:35:49Z</time>
      </trkpt>
      <trkpt lat="45.7629" lon="4.82329">
        <ele>319</ele>
        <time>2010-11-19T18:35:50Z</time>
      </trkpt>
      <trkpt lat="45.7629" lon="4.82327">
        <ele>319</ele>
        <time>2010-11-19T18:35:51Z</time>
      </trkpt>
      <trkpt lat="45.76288" lon="4.82327">
        <ele>319</ele>
        <time>2010-11-19T18:35:52Z</time>
      </trkpt>
      <trkpt lat="45.76288" lon="4.82327">
        <ele>319</ele>
        <time>2010-11-19T18:35:53Z</time>
      </trkpt>
      <trkpt lat="45.76272" lon="4.82311">
        <ele>323</ele>
        <time>2010-11-19T18:36:05Z</time>
      </trkpt>
      <trkpt lat="45.7627" lon="4.82309">
        <ele>323.98675537109</ele>
        <time>2010-11-19T18:36:06Z</time>
      </trkpt>
      <trkpt lat="45.76269" lon="4.82307">
        <ele>324</ele>
        <time>2010-11-19T18:36:07Z</time>
      </trkpt>
      <trkpt lat="45.76266" lon="4.82302">
        <ele>324</ele>
        <time>2010-11-19T18:36:08Z</time>
      </trkpt>
      <trkpt lat="45.76264" lon="4.82301">
        <ele>324</ele>
        <time>2010-11-19T18:36:09Z</time>
      </trkpt>
      <trkpt lat="45.76262" lon="4.82299">
        <ele>324</ele>
        <time>2010-11-19T18:36:10Z</time>
      </trkpt>
      <trkpt lat="45.7626" lon="4.82297">
        <ele>324</ele>
        <time>2010-11-19T18:36:11Z</time>
      </trkpt>
      <trkpt lat="45.76258" lon="4.82296">
        <ele>325</ele>
        <time>2010-11-19T18:36:12Z</time>
      </trkpt>
      <trkpt lat="45.76258" lon="4.82293">
        <ele>326</ele>
        <time>2010-11-19T18:36:13Z</time>
      </trkpt>
      <trkpt lat="45.76257" lon="4.82291">
        <ele>326</ele>
        <time>2010-11-19T18:36:14Z</time>
      </trkpt>
      <trkpt lat="45.76257" lon="4.8229">
        <ele>326</ele>
        <time>2010-11-19T18:36:15Z</time>
      </trkpt>
      <trkpt lat="45.76255" lon="4.82289">
        <ele>326</ele>
        <time>2010-11-19T18:36:16Z</time>
      </trkpt>
      <trkpt lat="45.76253" lon="4.82286">
        <ele>327</ele>
        <time>2010-11-19T18:36:17Z</time>
      </trkpt>
      <trkpt lat="45.76252" lon="4.82286">
        <ele>327</ele>
        <time>2010-11-19T18:36:18Z</time>
      </trkpt>
      <trkpt lat="45.76252" lon="4.82285">
        <ele>328</ele>
        <time>2010-11-19T18:36:19Z</time>
      </trkpt>
      <trkpt lat="45.76254" lon="4.82284">
        <ele>328</ele>
        <time>2010-11-19T18:36:20Z</time>
      </trkpt>
      <trkpt lat="45.76253" lon="4.82285">
        <ele>328</ele>
        <time>2010-11-19T18:36:21Z</time>
      </trkpt>
      <trkpt lat="45.76253" lon="4.82284">
        <ele>329</ele>
        <time>2010-11-19T18:36:22Z</time>
      </trkpt>
      <trkpt lat="45.76253" lon="4.82284">
        <ele>329</ele>
        <time>2010-11-19T18:36:23Z</time>
      </trkpt>
      <trkpt lat="45.76254" lon="4.82283">
        <ele>330</ele>
        <time>2010-11-19T18:36:24Z</time>
      </trkpt>
      <trkpt lat="45.76254" lon="4.82283">
        <ele>330</ele>
        <time>2010-11-19T18:36:25Z</time>
      </trkpt>
      <trkpt lat="45.76255" lon="4.82283">
        <ele>331</ele>
        <time>2010-11-19T18:36:26Z</time>
      </trkpt>
      <trkpt lat="45.76255" lon="4.82284">
        <ele>332</ele>
        <time>2010-11-19T18:36:27Z</time>
      </trkpt>
      <trkpt lat="45.76255" lon="4.82286">
        <ele>332</ele>
        <time>2010-11-19T18:36:28Z</time>
      </trkpt>
      <trkpt lat="45.76265" lon="4.82268">
        <ele>332</ele>
        <time>2010-11-19T18:36:47Z</time>
      </trkpt>
      <trkpt lat="45.76265" lon="4.82264">
        <ele>332</ele>
        <time>2010-11-19T18:36:48Z</time>
      </trkpt>
      <trkpt lat="45.76265" lon="4.82262">
        <ele>332</ele>
        <time>2010-11-19T18:36:49Z</time>
      </trkpt>
      <trkpt lat="45.76265" lon="4.82257">
        <ele>332</ele>
        <time>2010-11-19T18:36:50Z</time>
      </trkpt>
      <trkpt lat="45.76265" lon="4.82254">
        <ele>332</ele>
        <time>2010-11-19T18:36:51Z</time>
      </trkpt>
      <trkpt lat="45.76266" lon="4.82249">
        <ele>332</ele>
        <time>2010-11-19T18:36:52Z</time>
      </trkpt>
      <trkpt lat="45.76266" lon="4.82245">
        <ele>333</ele>
        <time>2010-11-19T18:36:53Z</time>
      </trkpt>
      <trkpt lat="45.76266" lon="4.82241">
        <ele>333</ele>
        <time>2010-11-19T18:36:54Z</time>
      </trkpt>
      <trkpt lat="45.76266" lon="4.82238">
        <ele>333</ele>
        <time>2010-11-19T18:36:55Z</time>
      </trkpt>
      <trkpt lat="45.76266" lon="4.82235">
        <ele>333</ele>
        <time>2010-11-19T18:36:56Z</time>
      </trkpt>
      <trkpt lat="45.76268" lon="4.82232">
        <ele>333</ele>
        <time>2010-11-19T18:36:57Z</time>
      </trkpt>
      <trkpt lat="45.76268" lon="4.82228">
        <ele>333</ele>
        <time>2010-11-19T18:36:58Z</time>
      </trkpt>
      <trkpt lat="45.76269" lon="4.82225">
        <ele>333</ele>
        <time>2010-11-19T18:36:59Z</time>
      </trkpt>
      <trkpt lat="45.76268" lon="4.82222">
        <ele>333</ele>
        <time>2010-11-19T18:37:00Z</time>
      </trkpt>
      <trkpt lat="45.76268" lon="4.82221">
        <ele>333</ele>
        <time>2010-11-19T18:37:01Z</time>
      </trkpt>
      <trkpt lat="45.76268" lon="4.82218">
        <ele>333</ele>
        <time>2010-11-19T18:37:02Z</time>
      </trkpt>
      <trkpt lat="45.76269" lon="4.82217">
        <ele>333</ele>
        <time>2010-11-19T18:37:03Z</time>
      </trkpt>
      <trkpt lat="45.7627" lon="4.82217">
        <ele>334</ele>
        <time>2010-11-19T18:37:04Z</time>
      </trkpt>
      <trkpt lat="45.76271" lon="4.82218">
        <ele>335</ele>
        <time>2010-11-19T18:37:05Z</time>
      </trkpt>
      <trkpt lat="45.76273" lon="4.82219">
        <ele>335</ele>
        <time>2010-11-19T18:37:06Z</time>
      </trkpt>
      <trkpt lat="45.76276" lon="4.82218">
        <ele>337</ele>
        <time>2010-11-19T18:37:07Z</time>
      </trkpt>
      <trkpt lat="45.76279" lon="4.8222">
        <ele>337</ele>
        <time>2010-11-19T18:37:09Z</time>
      </trkpt>
      <trkpt lat="45.76281" lon="4.82219">
        <ele>339</ele>
        <time>2010-11-19T18:37:09Z</time>
      </trkpt>
      <trkpt lat="45.76285" lon="4.8222">
        <ele>339</ele>
        <time>2010-11-19T18:37:10Z</time>
      </trkpt>
      <trkpt lat="45.76287" lon="4.8222">
        <ele>338</ele>
        <time>2010-11-19T18:37:11Z</time>
      </trkpt>
      <trkpt lat="45.76288" lon="4.8222">
        <ele>339</ele>
        <time>2010-11-19T18:37:12Z</time>
      </trkpt>
      <trkpt lat="45.7629" lon="4.8222">
        <ele>339</ele>
        <time>2010-11-19T18:37:13Z</time>
      </trkpt>
      <trkpt lat="45.76292" lon="4.8222">
        <ele>339</ele>
        <time>2010-11-19T18:37:14Z</time>
      </trkpt>
      <trkpt lat="45.76294" lon="4.8222">
        <ele>339</ele>
        <time>2010-11-19T18:37:15Z</time>
      </trkpt>
      <trkpt lat="45.76295" lon="4.82219">
        <ele>339</ele>
        <time>2010-11-19T18:37:17Z</time>
      </trkpt>
      <trkpt lat="45.76297" lon="4.82219">
        <ele>339</ele>
        <time>2010-11-19T18:37:17Z</time>
      </trkpt>
      <trkpt lat="45.763" lon="4.82219">
        <ele>339</ele>
        <time>2010-11-19T18:37:18Z</time>
      </trkpt>
      <trkpt lat="45.76302" lon="4.82219">
        <ele>339</ele>
        <time>2010-11-19T18:37:19Z</time>
      </trkpt>
      <trkpt lat="45.76303" lon="4.8222">
        <ele>339</ele>
        <time>2010-11-19T18:37:20Z</time>
      </trkpt>
      <trkpt lat="45.76305" lon="4.82221">
        <ele>339</ele>
        <time>2010-11-19T18:37:21Z</time>
      </trkpt>
      <trkpt lat="45.76307" lon="4.82223">
        <ele>339</ele>
        <time>2010-11-19T18:37:22Z</time>
      </trkpt>
      <trkpt lat="45.76309" lon="4.82224">
        <ele>339</ele>
        <time>2010-11-19T18:37:23Z</time>
      </trkpt>
      <trkpt lat="45.7631" lon="4.82224">
        <ele>339</ele>
        <time>2010-11-19T18:37:24Z</time>
      </trkpt>
      <trkpt lat="45.76312" lon="4.82226">
        <ele>339</ele>
        <time>2010-11-19T18:37:25Z</time>
      </trkpt>
      <trkpt lat="45.76314" lon="4.82227">
        <ele>339</ele>
        <time>2010-11-19T18:37:26Z</time>
      </trkpt>
      <trkpt lat="45.76317" lon="4.8223">
        <ele>339</ele>
        <time>2010-11-19T18:37:27Z</time>
      </trkpt>
      <trkpt lat="45.76319" lon="4.8223">
        <ele>339</ele>
        <time>2010-11-19T18:37:28Z</time>
      </trkpt>
      <trkpt lat="45.76321" lon="4.82232">
        <ele>339</ele>
        <time>2010-11-19T18:37:29Z</time>
      </trkpt>
      <trkpt lat="45.76323" lon="4.82233">
        <ele>339</ele>
        <time>2010-11-19T18:37:31Z</time>
      </trkpt>
      <trkpt lat="45.76324" lon="4.82233">
        <ele>339</ele>
        <time>2010-11-19T18:37:31Z</time>
      </trkpt>
      <trkpt lat="45.76328" lon="4.82235">
        <ele>339</ele>
        <time>2010-11-19T18:37:32Z</time>
      </trkpt>
      <trkpt lat="45.76329" lon="4.82234">
        <ele>339</ele>
        <time>2010-11-19T18:37:33Z</time>
      </trkpt>
      <trkpt lat="45.76332" lon="4.82234">
        <ele>339</ele>
        <time>2010-11-19T18:37:34Z</time>
      </trkpt>
      <trkpt lat="45.76336" lon="4.82234">
        <ele>338</ele>
        <time>2010-11-19T18:37:35Z</time>
      </trkpt>
      <trkpt lat="45.76339" lon="4.82234">
        <ele>339</ele>
        <time>2010-11-19T18:37:36Z</time>
      </trkpt>
      <trkpt lat="45.76344" lon="4.82231">
        <ele>338</ele>
        <time>2010-11-19T18:37:37Z</time>
      </trkpt>
      <trkpt lat="45.76348" lon="4.82225">
        <ele>338</ele>
        <time>2010-11-19T18:37:38Z</time>
      </trkpt>
      <trkpt lat="45.76351" lon="4.82223">
        <ele>339</ele>
        <time>2010-11-19T18:37:39Z</time>
      </trkpt>
      <trkpt lat="45.76352" lon="4.8222">
        <ele>338</ele>
        <time>2010-11-19T18:37:40Z</time>
      </trkpt>
      <trkpt lat="45.76353" lon="4.82217">
        <ele>338</ele>
        <time>2010-11-19T18:37:41Z</time>
      </trkpt>
      <trkpt lat="45.76353" lon="4.82213">
        <ele>338</ele>
        <time>2010-11-19T18:37:42Z</time>
      </trkpt>
      <trkpt lat="45.76354" lon="4.82211">
        <ele>338</ele>
        <time>2010-11-19T18:37:43Z</time>
      </trkpt>
      <trkpt lat="45.76356" lon="4.82207">
        <ele>338</ele>
        <time>2010-11-19T18:37:44Z</time>
      </trkpt>
      <trkpt lat="45.76356" lon="4.82203">
        <ele>338</ele>
        <time>2010-11-19T18:37:45Z</time>
      </trkpt>
      <trkpt lat="45.76357" lon="4.82198">
        <ele>338</ele>
        <time>2010-11-19T18:37:46Z</time>
      </trkpt>
      <trkpt lat="45.76358" lon="4.82194">
        <ele>338</ele>
        <time>2010-11-19T18:37:47Z</time>
      </trkpt>
      <trkpt lat="45.76359" lon="4.82189">
        <ele>338</ele>
        <time>2010-11-19T18:37:48Z</time>
      </trkpt>
      <trkpt lat="45.76359" lon="4.82184">
        <ele>337</ele>
        <time>2010-11-19T18:37:49Z</time>
      </trkpt>
      <trkpt lat="45.76358" lon="4.82181">
        <ele>337</ele>
        <time>2010-11-19T18:37:50Z</time>
      </trkpt>
      <trkpt lat="45.76358" lon="4.82177">
        <ele>337</ele>
        <time>2010-11-19T18:37:51Z</time>
      </trkpt>
      <trkpt lat="45.76357" lon="4.82174">
        <ele>337</ele>
        <time>2010-11-19T18:37:53Z</time>
      </trkpt>
      <trkpt lat="45.76356" lon="4.82171">
        <ele>337</ele>
        <time>2010-11-19T18:37:53Z</time>
      </trkpt>
      <trkpt lat="45.76356" lon="4.82166">
        <ele>337</ele>
        <time>2010-11-19T18:37:54Z</time>
      </trkpt>
      <trkpt lat="45.76354" lon="4.82163">
        <ele>337</ele>
        <time>2010-11-19T18:37:55Z</time>
      </trkpt>
      <trkpt lat="45.76352" lon="4.8216">
        <ele>338</ele>
        <time>2010-11-19T18:37:56Z</time>
      </trkpt>
      <trkpt lat="45.7635" lon="4.82157">
        <ele>337</ele>
        <time>2010-11-19T18:37:57Z</time>
      </trkpt>
      <trkpt lat="45.76346" lon="4.82154">
        <ele>338</ele>
        <time>2010-11-19T18:37:58Z</time>
      </trkpt>
      <trkpt lat="45.76343" lon="4.82152">
        <ele>336</ele>
        <time>2010-11-19T18:37:59Z</time>
      </trkpt>
      <trkpt lat="45.7634" lon="4.8215">
        <ele>335</ele>
        <time>2010-11-19T18:38:00Z</time>
      </trkpt>
      <trkpt lat="45.76338" lon="4.82149">
        <ele>335</ele>
        <time>2010-11-19T18:38:01Z</time>
      </trkpt>
      <trkpt lat="45.76336" lon="4.82147">
        <ele>335</ele>
        <time>2010-11-19T18:38:02Z</time>
      </trkpt>
      <trkpt lat="45.76334" lon="4.82144">
        <ele>335</ele>
        <time>2010-11-19T18:38:03Z</time>
      </trkpt>
      <trkpt lat="45.76332" lon="4.82143">
        <ele>334</ele>
        <time>2010-11-19T18:38:04Z</time>
      </trkpt>
      <trkpt lat="45.7633" lon="4.8214">
        <ele>334</ele>
        <time>2010-11-19T18:38:05Z</time>
      </trkpt>
      <trkpt lat="45.76329" lon="4.82137">
        <ele>335</ele>
        <time>2010-11-19T18:38:06Z</time>
      </trkpt>
      <trkpt lat="45.76328" lon="4.82134">
        <ele>334</ele>
        <time>2010-11-19T18:38:07Z</time>
      </trkpt>
      <trkpt lat="45.76328" lon="4.8213">
        <ele>334</ele>
        <time>2010-11-19T18:38:08Z</time>
      </trkpt>
      <trkpt lat="45.76326" lon="4.82127">
        <ele>334</ele>
        <time>2010-11-19T18:38:09Z</time>
      </trkpt>
      <trkpt lat="45.76326" lon="4.82123">
        <ele>333</ele>
        <time>2010-11-19T18:38:10Z</time>
      </trkpt>
      <trkpt lat="45.76325" lon="4.8212">
        <ele>333</ele>
        <time>2010-11-19T18:38:11Z</time>
      </trkpt>
      <trkpt lat="45.76324" lon="4.82115">
        <ele>333</ele>
        <time>2010-11-19T18:38:12Z</time>
      </trkpt>
      <trkpt lat="45.76323" lon="4.82112">
        <ele>333</ele>
        <time>2010-11-19T18:38:13Z</time>
      </trkpt>
      <trkpt lat="45.76323" lon="4.82108">
        <ele>333</ele>
        <time>2010-11-19T18:38:15Z</time>
      </trkpt>
      <trkpt lat="45.76322" lon="4.82105">
        <ele>333</ele>
        <time>2010-11-19T18:38:15Z</time>
      </trkpt>
      <trkpt lat="45.76321" lon="4.82099">
        <ele>333</ele>
        <time>2010-11-19T18:38:16Z</time>
      </trkpt>
      <trkpt lat="45.76321" lon="4.82093">
        <ele>333</ele>
        <time>2010-11-19T18:38:17Z</time>
      </trkpt>
      <trkpt lat="45.7632" lon="4.82088">
        <ele>333</ele>
        <time>2010-11-19T18:38:18Z</time>
      </trkpt>
      <trkpt lat="45.76318" lon="4.82082">
        <ele>333</ele>
        <time>2010-11-19T18:38:19Z</time>
      </trkpt>
      <trkpt lat="45.76317" lon="4.82078">
        <ele>333</ele>
        <time>2010-11-19T18:38:20Z</time>
      </trkpt>
      <trkpt lat="45.76316" lon="4.82077">
        <ele>333</ele>
        <time>2010-11-19T18:38:21Z</time>
      </trkpt>
      <trkpt lat="45.76316" lon="4.82073">
        <ele>333</ele>
        <time>2010-11-19T18:38:22Z</time>
      </trkpt>
      <trkpt lat="45.76314" lon="4.8207">
        <ele>333</ele>
        <time>2010-11-19T18:38:23Z</time>
      </trkpt>
      <trkpt lat="45.76315" lon="4.82066">
        <ele>333</ele>
        <time>2010-11-19T18:38:24Z</time>
      </trkpt>
      <trkpt lat="45.76313" lon="4.82062">
        <ele>334</ele>
        <time>2010-11-19T18:38:25Z</time>
      </trkpt>
      <trkpt lat="45.76313" lon="4.82059">
        <ele>334</ele>
        <time>2010-11-19T18:38:26Z</time>
      </trkpt>
      <trkpt lat="45.76312" lon="4.82055">
        <ele>333</ele>
        <time>2010-11-19T18:38:27Z</time>
      </trkpt>
      <trkpt lat="45.76311" lon="4.82053">
        <ele>333</ele>
        <time>2010-11-19T18:38:28Z</time>
      </trkpt>
      <trkpt lat="45.7631" lon="4.82048">
        <ele>333</ele>
        <time>2010-11-19T18:38:29Z</time>
      </trkpt>
      <trkpt lat="45.76308" lon="4.82044">
        <ele>333</ele>
        <time>2010-11-19T18:38:30Z</time>
      </trkpt>
      <trkpt lat="45.76308" lon="4.82041">
        <ele>333</ele>
        <time>2010-11-19T18:38:31Z</time>
      </trkpt>
      <trkpt lat="45.76307" lon="4.82037">
        <ele>334</ele>
        <time>2010-11-19T18:38:32Z</time>
      </trkpt>
      <trkpt lat="45.76305" lon="4.82034">
        <ele>334</ele>
        <time>2010-11-19T18:38:33Z</time>
      </trkpt>
      <trkpt lat="45.76304" lon="4.82032">
        <ele>335</ele>
        <time>2010-11-19T18:38:34Z</time>
      </trkpt>
      <trkpt lat="45.76303" lon="4.8203">
        <ele>335</ele>
        <time>2010-11-19T18:38:35Z</time>
      </trkpt>
      <trkpt lat="45.76303" lon="4.82028">
        <ele>334</ele>
        <time>2010-11-19T18:38:37Z</time>
      </trkpt>
      <trkpt lat="45.76303" lon="4.82027">
        <ele>334</ele>
        <time>2010-11-19T18:38:37Z</time>
      </trkpt>
      <trkpt lat="45.76303" lon="4.82027">
        <ele>334</ele>
        <time>2010-11-19T18:38:38Z</time>
      </trkpt>
      <trkpt lat="45.76303" lon="4.82027">
        <ele>334</ele>
        <time>2010-11-19T18:38:39Z</time>
      </trkpt>
      <trkpt lat="45.76303" lon="4.82021">
        <ele>334.71279907227</ele>
        <time>2010-11-19T18:38:40Z</time>
      </trkpt>
      <trkpt lat="45.76302" lon="4.82014">
        <ele>334</ele>
        <time>2010-11-19T18:38:41Z</time>
      </trkpt>
      <trkpt lat="45.76303" lon="4.82009">
        <ele>333</ele>
        <time>2010-11-19T18:38:42Z</time>
      </trkpt>
      <trkpt lat="45.76302" lon="4.82003">
        <ele>332</ele>
        <time>2010-11-19T18:38:43Z</time>
      </trkpt>
      <trkpt lat="45.76302" lon="4.81999">
        <ele>331</ele>
        <time>2010-11-19T18:38:44Z</time>
      </trkpt>
      <trkpt lat="45.76302" lon="4.81993">
        <ele>329</ele>
        <time>2010-11-19T18:38:45Z</time>
      </trkpt>
      <trkpt lat="45.76303" lon="4.8199">
        <ele>329</ele>
        <time>2010-11-19T18:38:46Z</time>
      </trkpt>
      <trkpt lat="45.76305" lon="4.81984">
        <ele>329</ele>
        <time>2010-11-19T18:38:47Z</time>
      </trkpt>
      <trkpt lat="45.76306" lon="4.81979">
        <ele>329</ele>
        <time>2010-11-19T18:38:48Z</time>
      </trkpt>
      <trkpt lat="45.76307" lon="4.81976">
        <ele>329</ele>
        <time>2010-11-19T18:38:49Z</time>
      </trkpt>
      <trkpt lat="45.76309" lon="4.81972">
        <ele>329</ele>
        <time>2010-11-19T18:38:50Z</time>
      </trkpt>
      <trkpt lat="45.76309" lon="4.81968">
        <ele>329</ele>
        <time>2010-11-19T18:38:51Z</time>
      </trkpt>
      <trkpt lat="45.7631" lon="4.81963">
        <ele>329</ele>
        <time>2010-11-19T18:38:52Z</time>
      </trkpt>
      <trkpt lat="45.76313" lon="4.81959">
        <ele>329</ele>
        <time>2010-11-19T18:38:53Z</time>
      </trkpt>
      <trkpt lat="45.76314" lon="4.81954">
        <ele>329</ele>
        <time>2010-11-19T18:38:54Z</time>
      </trkpt>
      <trkpt lat="45.76315" lon="4.81951">
        <ele>328</ele>
        <time>2010-11-19T18:38:55Z</time>
      </trkpt>
      <trkpt lat="45.76317" lon="4.81947">
        <ele>328</ele>
        <time>2010-11-19T18:38:56Z</time>
      </trkpt>
      <trkpt lat="45.76319" lon="4.81943">
        <ele>328</ele>
        <time>2010-11-19T18:38:57Z</time>
      </trkpt>
      <trkpt lat="45.76321" lon="4.81939">
        <ele>327</ele>
        <time>2010-11-19T18:38:59Z</time>
      </trkpt>
      <trkpt lat="45.76322" lon="4.81936">
        <ele>327</ele>
        <time>2010-11-19T18:38:59Z</time>
      </trkpt>
      <trkpt lat="45.76322" lon="4.81931">
        <ele>327</ele>
        <time>2010-11-19T18:39:00Z</time>
      </trkpt>
      <trkpt lat="45.76324" lon="4.81928">
        <ele>326</ele>
        <time>2010-11-19T18:39:01Z</time>
      </trkpt>
      <trkpt lat="45.76326" lon="4.81924">
        <ele>325</ele>
        <time>2010-11-19T18:39:02Z</time>
      </trkpt>
      <trkpt lat="45.76325" lon="4.81921">
        <ele>325</ele>
        <time>2010-11-19T18:39:03Z</time>
      </trkpt>
      <trkpt lat="45.76327" lon="4.81917">
        <ele>325</ele>
        <time>2010-11-19T18:39:04Z</time>
      </trkpt>
      <trkpt lat="45.76328" lon="4.81913">
        <ele>325</ele>
        <time>2010-11-19T18:39:05Z</time>
      </trkpt>
      <trkpt lat="45.76328" lon="4.8191">
        <ele>325</ele>
        <time>2010-11-19T18:39:06Z</time>
      </trkpt>
      <trkpt lat="45.76327" lon="4.81907">
        <ele>325</ele>
        <time>2010-11-19T18:39:07Z</time>
      </trkpt>
      <trkpt lat="45.7633" lon="4.81902">
        <ele>325</ele>
        <time>2010-11-19T18:39:08Z</time>
      </trkpt>
      <trkpt lat="45.7633" lon="4.81899">
        <ele>324</ele>
        <time>2010-11-19T18:39:09Z</time>
      </trkpt>
      <trkpt lat="45.7633" lon="4.81895">
        <ele>323</ele>
        <time>2010-11-19T18:39:10Z</time>
      </trkpt>
      <trkpt lat="45.7633" lon="4.81892">
        <ele>322</ele>
        <time>2010-11-19T18:39:11Z</time>
      </trkpt>
      <trkpt lat="45.7633" lon="4.81888">
        <ele>322</ele>
        <time>2010-11-19T18:39:12Z</time>
      </trkpt>
      <trkpt lat="45.76331" lon="4.81885">
        <ele>322</ele>
        <time>2010-11-19T18:39:13Z</time>
      </trkpt>
      <trkpt lat="45.76331" lon="4.81883">
        <ele>323</ele>
        <time>2010-11-19T18:39:14Z</time>
      </trkpt>
      <trkpt lat="45.76331" lon="4.8188">
        <ele>323</ele>
        <time>2010-11-19T18:39:15Z</time>
      </trkpt>
      <trkpt lat="45.76332" lon="4.81878">
        <ele>324</ele>
        <time>2010-11-19T18:39:16Z</time>
      </trkpt>
      <trkpt lat="45.76332" lon="4.81873">
        <ele>324</ele>
        <time>2010-11-19T18:39:17Z</time>
      </trkpt>
      <trkpt lat="45.76333" lon="4.81869">
        <ele>323</ele>
        <time>2010-11-19T18:39:18Z</time>
      </trkpt>
      <trkpt lat="45.76333" lon="4.81865">
        <ele>322</ele>
        <time>2010-11-19T18:39:19Z</time>
      </trkpt>
      <trkpt lat="45.76332" lon="4.81861">
        <ele>322</ele>
        <time>2010-11-19T18:39:21Z</time>
      </trkpt>
      <trkpt lat="45.76332" lon="4.81858">
        <ele>322</ele>
        <time>2010-11-19T18:39:21Z</time>
      </trkpt>
      <trkpt lat="45.76333" lon="4.81855">
        <ele>321</ele>
        <time>2010-11-19T18:39:22Z</time>
      </trkpt>
      <trkpt lat="45.76334" lon="4.81851">
        <ele>321</ele>
        <time>2010-11-19T18:39:23Z</time>
      </trkpt>
      <trkpt lat="45.76334" lon="4.81847">
        <ele>321</ele>
        <time>2010-11-19T18:39:24Z</time>
      </trkpt>
      <trkpt lat="45.76335" lon="4.81844">
        <ele>321</ele>
        <time>2010-11-19T18:39:25Z</time>
      </trkpt>
      <trkpt lat="45.76334" lon="4.81841">
        <ele>320</ele>
        <time>2010-11-19T18:39:26Z</time>
      </trkpt>
      <trkpt lat="45.76333" lon="4.81836">
        <ele>320</ele>
        <time>2010-11-19T18:39:27Z</time>
      </trkpt>
      <trkpt lat="45.76333" lon="4.81831">
        <ele>320</ele>
        <time>2010-11-19T18:39:28Z</time>
      </trkpt>
      <trkpt lat="45.76332" lon="4.81828">
        <ele>320</ele>
        <time>2010-11-19T18:39:29Z</time>
      </trkpt>
      <trkpt lat="45.76332" lon="4.81823">
        <ele>320</ele>
        <time>2010-11-19T18:39:30Z</time>
      </trkpt>
      <trkpt lat="45.76334" lon="4.81818">
        <ele>320</ele>
        <time>2010-11-19T18:39:31Z</time>
      </trkpt>
      <trkpt lat="45.76334" lon="4.81812">
        <ele>321</ele>
        <time>2010-11-19T18:39:32Z</time>
      </trkpt>
      <trkpt lat="45.76334" lon="4.81808">
        <ele>321</ele>
        <time>2010-11-19T18:39:33Z</time>
      </trkpt>
      <trkpt lat="45.76334" lon="4.81804">
        <ele>320</ele>
        <time>2010-11-19T18:39:34Z</time>
      </trkpt>
      <trkpt lat="45.76334" lon="4.818">
        <ele>321</ele>
        <time>2010-11-19T18:39:35Z</time>
      </trkpt>
      <trkpt lat="45.76333" lon="4.81797">
        <ele>321</ele>
        <time>2010-11-19T18:39:36Z</time>
      </trkpt>
      <trkpt lat="45.76332" lon="4.81795">
        <ele>320</ele>
        <time>2010-11-19T18:39:37Z</time>
      </trkpt>
      <trkpt lat="45.76332" lon="4.81791">
        <ele>320</ele>
        <time>2010-11-19T18:39:38Z</time>
      </trkpt>
      <trkpt lat="45.76333" lon="4.81789">
        <ele>320</ele>
        <time>2010-11-19T18:39:39Z</time>
      </trkpt>
      <trkpt lat="45.76333" lon="4.81785">
        <ele>320</ele>
        <time>2010-11-19T18:39:40Z</time>
      </trkpt>
      <trkpt lat="45.76333" lon="4.81782">
        <ele>320</ele>
        <time>2010-11-19T18:39:41Z</time>
      </trkpt>
      <trkpt lat="45.76332" lon="4.81778">
        <ele>320</ele>
        <time>2010-11-19T18:39:43Z</time>
      </trkpt>
      <trkpt lat="45.76333" lon="4.81777">
        <ele>320.32363891602</ele>
        <time>2010-11-19T18:39:43Z</time>
      </trkpt>
      <trkpt lat="45.76334" lon="4.81771">
        <ele>321</ele>
        <time>2010-11-19T18:39:44Z</time>
      </trkpt>
      <trkpt lat="45.76334" lon="4.81768">
        <ele>321</ele>
        <time>2010-11-19T18:39:45Z</time>
      </trkpt>
      <trkpt lat="45.76333" lon="4.81763">
        <ele>321</ele>
        <time>2010-11-19T18:39:46Z</time>
      </trkpt>
      <trkpt lat="45.76332" lon="4.81759">
        <ele>321</ele>
        <time>2010-11-19T18:39:47Z</time>
      </trkpt>
      <trkpt lat="45.76331" lon="4.81756">
        <ele>321</ele>
        <time>2010-11-19T18:39:48Z</time>
      </trkpt>
      <trkpt lat="45.76332" lon="4.81753">
        <ele>320</ele>
        <time>2010-11-19T18:39:49Z</time>
      </trkpt>
      <trkpt lat="45.76332" lon="4.81748">
        <ele>320</ele>
        <time>2010-11-19T18:39:50Z</time>
      </trkpt>
      <trkpt lat="45.76332" lon="4.81745">
        <ele>320</ele>
        <time>2010-11-19T18:39:51Z</time>
      </trkpt>
      <trkpt lat="45.76332" lon="4.8174">
        <ele>320</ele>
        <time>2010-11-19T18:39:52Z</time>
      </trkpt>
      <trkpt lat="45.76332" lon="4.81737">
        <ele>320</ele>
        <time>2010-11-19T18:39:53Z</time>
      </trkpt>
      <trkpt lat="45.76334" lon="4.81732">
        <ele>321</ele>
        <time>2010-11-19T18:39:54Z</time>
      </trkpt>
      <trkpt lat="45.76332" lon="4.81728">
        <ele>321</ele>
        <time>2010-11-19T18:39:55Z</time>
      </trkpt>
      <trkpt lat="45.76332" lon="4.81724">
        <ele>322</ele>
        <time>2010-11-19T18:39:56Z</time>
      </trkpt>
      <trkpt lat="45.76332" lon="4.8172">
        <ele>322</ele>
        <time>2010-11-19T18:39:57Z</time>
      </trkpt>
      <trkpt lat="45.76332" lon="4.81717">
        <ele>322</ele>
        <time>2010-11-19T18:39:58Z</time>
      </trkpt>
      <trkpt lat="45.76332" lon="4.81714">
        <ele>322</ele>
        <time>2010-11-19T18:39:59Z</time>
      </trkpt>
      <trkpt lat="45.76332" lon="4.8171">
        <ele>322</ele>
        <time>2010-11-19T18:40:00Z</time>
      </trkpt>
      <trkpt lat="45.76331" lon="4.81707">
        <ele>322</ele>
        <time>2010-11-19T18:40:01Z</time>
      </trkpt>
      <trkpt lat="45.76331" lon="4.81702">
        <ele>322</ele>
        <time>2010-11-19T18:40:02Z</time>
      </trkpt>
      <trkpt lat="45.76331" lon="4.81698">
        <ele>321</ele>
        <time>2010-11-19T18:40:03Z</time>
      </trkpt>
      <trkpt lat="45.7633" lon="4.81696">
        <ele>322</ele>
        <time>2010-11-19T18:40:05Z</time>
      </trkpt>
      <trkpt lat="45.76329" lon="4.81694">
        <ele>322</ele>
        <time>2010-11-19T18:40:05Z</time>
      </trkpt>
      <trkpt lat="45.76329" lon="4.81691">
        <ele>322</ele>
        <time>2010-11-19T18:40:06Z</time>
      </trkpt>
      <trkpt lat="45.76329" lon="4.81688">
        <ele>321</ele>
        <time>2010-11-19T18:40:07Z</time>
      </trkpt>
      <trkpt lat="45.76328" lon="4.81683">
        <ele>321</ele>
        <time>2010-11-19T18:40:08Z</time>
      </trkpt>
      <trkpt lat="45.76327" lon="4.81676">
        <ele>321</ele>
        <time>2010-11-19T18:40:09Z</time>
      </trkpt>
      <trkpt lat="45.76325" lon="4.81674">
        <ele>321</ele>
        <time>2010-11-19T18:40:10Z</time>
      </trkpt>
      <trkpt lat="45.76324" lon="4.81669">
        <ele>321</ele>
        <time>2010-11-19T18:40:11Z</time>
      </trkpt>
      <trkpt lat="45.76323" lon="4.81666">
        <ele>322</ele>
        <time>2010-11-19T18:40:12Z</time>
      </trkpt>
      <trkpt lat="45.76322" lon="4.81661">
        <ele>322</ele>
        <time>2010-11-19T18:40:13Z</time>
      </trkpt>
      <trkpt lat="45.76321" lon="4.81658">
        <ele>322</ele>
        <time>2010-11-19T18:40:14Z</time>
      </trkpt>
      <trkpt lat="45.7632" lon="4.81654">
        <ele>322</ele>
        <time>2010-11-19T18:40:15Z</time>
      </trkpt>
      <trkpt lat="45.7632" lon="4.81651">
        <ele>322</ele>
        <time>2010-11-19T18:40:16Z</time>
      </trkpt>
      <trkpt lat="45.7632" lon="4.81647">
        <ele>322</ele>
        <time>2010-11-19T18:40:17Z</time>
      </trkpt>
      <trkpt lat="45.76319" lon="4.81644">
        <ele>323</ele>
        <time>2010-11-19T18:40:18Z</time>
      </trkpt>
      <trkpt lat="45.7632" lon="4.81641">
        <ele>323</ele>
        <time>2010-11-19T18:40:19Z</time>
      </trkpt>
      <trkpt lat="45.76319" lon="4.81637">
        <ele>323</ele>
        <time>2010-11-19T18:40:20Z</time>
      </trkpt>
      <trkpt lat="45.76318" lon="4.81634">
        <ele>323</ele>
        <time>2010-11-19T18:40:21Z</time>
      </trkpt>
      <trkpt lat="45.76316" lon="4.81629">
        <ele>323</ele>
        <time>2010-11-19T18:40:22Z</time>
      </trkpt>
      <trkpt lat="45.76315" lon="4.81626">
        <ele>323</ele>
        <time>2010-11-19T18:40:23Z</time>
      </trkpt>
      <trkpt lat="45.76314" lon="4.81622">
        <ele>323</ele>
        <time>2010-11-19T18:40:24Z</time>
      </trkpt>
      <trkpt lat="45.76312" lon="4.81617">
        <ele>324</ele>
        <time>2010-11-19T18:40:25Z</time>
      </trkpt>
      <trkpt lat="45.76312" lon="4.81614">
        <ele>324</ele>
        <time>2010-11-19T18:40:27Z</time>
      </trkpt>
      <trkpt lat="45.76312" lon="4.81612">
        <ele>325</ele>
        <time>2010-11-19T18:40:27Z</time>
      </trkpt>
      <trkpt lat="45.76311" lon="4.81608">
        <ele>324</ele>
        <time>2010-11-19T18:40:28Z</time>
      </trkpt>
      <trkpt lat="45.76312" lon="4.81605">
        <ele>324</ele>
        <time>2010-11-19T18:40:29Z</time>
      </trkpt>
      <trkpt lat="45.76312" lon="4.81602">
        <ele>325</ele>
        <time>2010-11-19T18:40:30Z</time>
      </trkpt>
      <trkpt lat="45.76311" lon="4.81597">
        <ele>325</ele>
        <time>2010-11-19T18:40:31Z</time>
      </trkpt>
      <trkpt lat="45.7631" lon="4.81593">
        <ele>325</ele>
        <time>2010-11-19T18:40:32Z</time>
      </trkpt>
      <trkpt lat="45.76309" lon="4.81589">
        <ele>325</ele>
        <time>2010-11-19T18:40:33Z</time>
      </trkpt>
      <trkpt lat="45.76308" lon="4.81586">
        <ele>326</ele>
        <time>2010-11-19T18:40:34Z</time>
      </trkpt>
      <trkpt lat="45.76306" lon="4.81582">
        <ele>326</ele>
        <time>2010-11-19T18:40:35Z</time>
      </trkpt>
      <trkpt lat="45.76306" lon="4.81579">
        <ele>327</ele>
        <time>2010-11-19T18:40:36Z</time>
      </trkpt>
      <trkpt lat="45.76306" lon="4.81575">
        <ele>327</ele>
        <time>2010-11-19T18:40:37Z</time>
      </trkpt>
      <trkpt lat="45.76305" lon="4.81573">
        <ele>328</ele>
        <time>2010-11-19T18:40:38Z</time>
      </trkpt>
      <trkpt lat="45.76304" lon="4.8157">
        <ele>327</ele>
        <time>2010-11-19T18:40:39Z</time>
      </trkpt>
      <trkpt lat="45.76305" lon="4.81566">
        <ele>328</ele>
        <time>2010-11-19T18:40:40Z</time>
      </trkpt>
      <trkpt lat="45.76305" lon="4.81563">
        <ele>327</ele>
        <time>2010-11-19T18:40:41Z</time>
      </trkpt>
      <trkpt lat="45.76305" lon="4.81561">
        <ele>327</ele>
        <time>2010-11-19T18:40:42Z</time>
      </trkpt>
      <trkpt lat="45.76305" lon="4.81557">
        <ele>327</ele>
        <time>2010-11-19T18:40:43Z</time>
      </trkpt>
      <trkpt lat="45.76305" lon="4.81553">
        <ele>327</ele>
        <time>2010-11-19T18:40:44Z</time>
      </trkpt>
      <trkpt lat="45.76305" lon="4.8155">
        <ele>328</ele>
        <time>2010-11-19T18:40:45Z</time>
      </trkpt>
      <trkpt lat="45.76304" lon="4.81546">
        <ele>327</ele>
        <time>2010-11-19T18:40:46Z</time>
      </trkpt>
      <trkpt lat="45.76302" lon="4.81541">
        <ele>327</ele>
        <time>2010-11-19T18:40:47Z</time>
      </trkpt>
      <trkpt lat="45.763" lon="4.81538">
        <ele>327</ele>
        <time>2010-11-19T18:40:49Z</time>
      </trkpt>
      <trkpt lat="45.76301" lon="4.81537">
        <ele>327.29064941406</ele>
        <time>2010-11-19T18:40:49Z</time>
      </trkpt>
      <trkpt lat="45.76301" lon="4.8153">
        <ele>329</ele>
        <time>2010-11-19T18:40:50Z</time>
      </trkpt>
      <trkpt lat="45.76302" lon="4.81528">
        <ele>329</ele>
        <time>2010-11-19T18:40:51Z</time>
      </trkpt>
      <trkpt lat="45.76302" lon="4.81524">
        <ele>330</ele>
        <time>2010-11-19T18:40:52Z</time>
      </trkpt>
      <trkpt lat="45.76302" lon="4.81519">
        <ele>329</ele>
        <time>2010-11-19T18:40:53Z</time>
      </trkpt>
      <trkpt lat="45.76301" lon="4.81514">
        <ele>329</ele>
        <time>2010-11-19T18:40:54Z</time>
      </trkpt>
      <trkpt lat="45.76302" lon="4.8151">
        <ele>329</ele>
        <time>2010-11-19T18:40:55Z</time>
      </trkpt>
      <trkpt lat="45.76301" lon="4.81506">
        <ele>329</ele>
        <time>2010-11-19T18:40:56Z</time>
      </trkpt>
      <trkpt lat="45.76301" lon="4.81503">
        <ele>329</ele>
        <time>2010-11-19T18:40:57Z</time>
      </trkpt>
      <trkpt lat="45.76301" lon="4.81499">
        <ele>329</ele>
        <time>2010-11-19T18:40:58Z</time>
      </trkpt>
      <trkpt lat="45.76301" lon="4.81495">
        <ele>330</ele>
        <time>2010-11-19T18:40:59Z</time>
      </trkpt>
      <trkpt lat="45.763" lon="4.81491">
        <ele>330</ele>
        <time>2010-11-19T18:41:00Z</time>
      </trkpt>
      <trkpt lat="45.76301" lon="4.81487">
        <ele>331</ele>
        <time>2010-11-19T18:41:01Z</time>
      </trkpt>
      <trkpt lat="45.76301" lon="4.81483">
        <ele>331</ele>
        <time>2010-11-19T18:41:02Z</time>
      </trkpt>
      <trkpt lat="45.76299" lon="4.8148">
        <ele>331</ele>
        <time>2010-11-19T18:41:03Z</time>
      </trkpt>
      <trkpt lat="45.76299" lon="4.81476">
        <ele>331</ele>
        <time>2010-11-19T18:41:04Z</time>
      </trkpt>
      <trkpt lat="45.76299" lon="4.81472">
        <ele>331</ele>
        <time>2010-11-19T18:41:05Z</time>
      </trkpt>
      <trkpt lat="45.76299" lon="4.81468">
        <ele>332</ele>
        <time>2010-11-19T18:41:06Z</time>
      </trkpt>
      <trkpt lat="45.76299" lon="4.81462">
        <ele>332</ele>
        <time>2010-11-19T18:41:07Z</time>
      </trkpt>
      <trkpt lat="45.76297" lon="4.81459">
        <ele>332</ele>
        <time>2010-11-19T18:41:08Z</time>
      </trkpt>
      <trkpt lat="45.76296" lon="4.81455">
        <ele>331</ele>
        <time>2010-11-19T18:41:09Z</time>
      </trkpt>
      <trkpt lat="45.76296" lon="4.81452">
        <ele>331</ele>
        <time>2010-11-19T18:41:11Z</time>
      </trkpt>
      <trkpt lat="45.76295" lon="4.81449">
        <ele>331.60653686523</ele>
        <time>2010-11-19T18:41:11Z</time>
      </trkpt>
      <trkpt lat="45.76294" lon="4.81444">
        <ele>331</ele>
        <time>2010-11-19T18:41:12Z</time>
      </trkpt>
      <trkpt lat="45.76293" lon="4.8144">
        <ele>331</ele>
        <time>2010-11-19T18:41:13Z</time>
      </trkpt>
      <trkpt lat="45.76293" lon="4.81436">
        <ele>331</ele>
        <time>2010-11-19T18:41:14Z</time>
      </trkpt>
      <trkpt lat="45.76293" lon="4.81432">
        <ele>332</ele>
        <time>2010-11-19T18:41:15Z</time>
      </trkpt>
      <trkpt lat="45.76293" lon="4.81428">
        <ele>332</ele>
        <time>2010-11-19T18:41:16Z</time>
      </trkpt>
      <trkpt lat="45.76292" lon="4.81424">
        <ele>333</ele>
        <time>2010-11-19T18:41:17Z</time>
      </trkpt>
      <trkpt lat="45.76292" lon="4.8142">
        <ele>333</ele>
        <time>2010-11-19T18:41:18Z</time>
      </trkpt>
      <trkpt lat="45.76291" lon="4.81417">
        <ele>333</ele>
        <time>2010-11-19T18:41:19Z</time>
      </trkpt>
      <trkpt lat="45.7629" lon="4.81414">
        <ele>333</ele>
        <time>2010-11-19T18:41:20Z</time>
      </trkpt>
      <trkpt lat="45.7629" lon="4.8141">
        <ele>332</ele>
        <time>2010-11-19T18:41:21Z</time>
      </trkpt>
      <trkpt lat="45.76289" lon="4.81407">
        <ele>332</ele>
        <time>2010-11-19T18:41:22Z</time>
      </trkpt>
      <trkpt lat="45.7629" lon="4.81402">
        <ele>333</ele>
        <time>2010-11-19T18:41:23Z</time>
      </trkpt>
      <trkpt lat="45.7629" lon="4.81398">
        <ele>333</ele>
        <time>2010-11-19T18:41:24Z</time>
      </trkpt>
      <trkpt lat="45.76291" lon="4.81395">
        <ele>333</ele>
        <time>2010-11-19T18:41:25Z</time>
      </trkpt>
      <trkpt lat="45.76291" lon="4.8139">
        <ele>332</ele>
        <time>2010-11-19T18:41:26Z</time>
      </trkpt>
      <trkpt lat="45.76291" lon="4.81386">
        <ele>332</ele>
        <time>2010-11-19T18:41:27Z</time>
      </trkpt>
      <trkpt lat="45.76291" lon="4.81382">
        <ele>332</ele>
        <time>2010-11-19T18:41:28Z</time>
      </trkpt>
      <trkpt lat="45.76291" lon="4.81379">
        <ele>333</ele>
        <time>2010-11-19T18:41:29Z</time>
      </trkpt>
      <trkpt lat="45.76291" lon="4.81376">
        <ele>333</ele>
        <time>2010-11-19T18:41:30Z</time>
      </trkpt>
      <trkpt lat="45.76291" lon="4.81372">
        <ele>333</ele>
        <time>2010-11-19T18:41:31Z</time>
      </trkpt>
      <trkpt lat="45.76292" lon="4.81369">
        <ele>333</ele>
        <time>2010-11-19T18:41:33Z</time>
      </trkpt>
      <trkpt lat="45.76292" lon="4.81367">
        <ele>333</ele>
        <time>2010-11-19T18:41:33Z</time>
      </trkpt>
      <trkpt lat="45.76292" lon="4.81363">
        <ele>334</ele>
        <time>2010-11-19T18:41:34Z</time>
      </trkpt>
      <trkpt lat="45.76293" lon="4.8136">
        <ele>334</ele>
        <time>2010-11-19T18:41:35Z</time>
      </trkpt>
      <trkpt lat="45.76294" lon="4.81356">
        <ele>334</ele>
        <time>2010-11-19T18:41:36Z</time>
      </trkpt>
      <trkpt lat="45.76295" lon="4.81352">
        <ele>336</ele>
        <time>2010-11-19T18:41:37Z</time>
      </trkpt>
      <trkpt lat="45.76296" lon="4.8135">
        <ele>336</ele>
        <time>2010-11-19T18:41:38Z</time>
      </trkpt>
      <trkpt lat="45.76298" lon="4.81348">
        <ele>336</ele>
        <time>2010-11-19T18:41:39Z</time>
      </trkpt>
      <trkpt lat="45.76299" lon="4.81345">
        <ele>336</ele>
        <time>2010-11-19T18:41:40Z</time>
      </trkpt>
      <trkpt lat="45.76301" lon="4.81343">
        <ele>335</ele>
        <time>2010-11-19T18:41:41Z</time>
      </trkpt>
      <trkpt lat="45.76302" lon="4.81342">
        <ele>335</ele>
        <time>2010-11-19T18:41:42Z</time>
      </trkpt>
      <trkpt lat="45.76304" lon="4.8134">
        <ele>335</ele>
        <time>2010-11-19T18:41:43Z</time>
      </trkpt>
      <trkpt lat="45.76306" lon="4.81337">
        <ele>335</ele>
        <time>2010-11-19T18:41:44Z</time>
      </trkpt>
      <trkpt lat="45.76307" lon="4.81336">
        <ele>335</ele>
        <time>2010-11-19T18:41:45Z</time>
      </trkpt>
      <trkpt lat="45.7631" lon="4.81332">
        <ele>335</ele>
        <time>2010-11-19T18:41:46Z</time>
      </trkpt>
      <trkpt lat="45.76312" lon="4.8133">
        <ele>334</ele>
        <time>2010-11-19T18:41:47Z</time>
      </trkpt>
      <trkpt lat="45.76314" lon="4.81328">
        <ele>334</ele>
        <time>2010-11-19T18:41:48Z</time>
      </trkpt>
      <trkpt lat="45.76316" lon="4.81326">
        <ele>334</ele>
        <time>2010-11-19T18:41:49Z</time>
      </trkpt>
      <trkpt lat="45.76319" lon="4.81325">
        <ele>334</ele>
        <time>2010-11-19T18:41:50Z</time>
      </trkpt>
      <trkpt lat="45.76321" lon="4.81325">
        <ele>333</ele>
        <time>2010-11-19T18:41:51Z</time>
      </trkpt>
      <trkpt lat="45.76323" lon="4.81325">
        <ele>333</ele>
        <time>2010-11-19T18:41:52Z</time>
      </trkpt>
      <trkpt lat="45.76325" lon="4.81326">
        <ele>332</ele>
        <time>2010-11-19T18:41:53Z</time>
      </trkpt>
      <trkpt lat="45.76328" lon="4.81326">
        <ele>330</ele>
        <time>2010-11-19T18:41:55Z</time>
      </trkpt>
      <trkpt lat="45.76328" lon="4.81326">
        <ele>329.71838378906</ele>
        <time>2010-11-19T18:41:55Z</time>
      </trkpt>
      <trkpt lat="45.76334" lon="4.81326">
        <ele>327.01953125</ele>
        <time>2010-11-19T18:41:56Z</time>
      </trkpt>
      <trkpt lat="45.76336" lon="4.81326">
        <ele>327</ele>
        <time>2010-11-19T18:41:57Z</time>
      </trkpt>
      <trkpt lat="45.76339" lon="4.81327">
        <ele>326</ele>
        <time>2010-11-19T18:41:58Z</time>
      </trkpt>
      <trkpt lat="45.76344" lon="4.81328">
        <ele>327</ele>
        <time>2010-11-19T18:41:59Z</time>
      </trkpt>
      <trkpt lat="45.76347" lon="4.81329">
        <ele>326</ele>
        <time>2010-11-19T18:42:00Z</time>
      </trkpt>
      <trkpt lat="45.7635" lon="4.81329">
        <ele>327</ele>
        <time>2010-11-19T18:42:01Z</time>
      </trkpt>
      <trkpt lat="45.76353" lon="4.81329">
        <ele>327</ele>
        <time>2010-11-19T18:42:02Z</time>
      </trkpt>
      <trkpt lat="45.76357" lon="4.81328">
        <ele>327</ele>
        <time>2010-11-19T18:42:03Z</time>
      </trkpt>
      <trkpt lat="45.76361" lon="4.81328">
        <ele>328</ele>
        <time>2010-11-19T18:42:04Z</time>
      </trkpt>
      <trkpt lat="45.76364" lon="4.81327">
        <ele>329</ele>
        <time>2010-11-19T18:42:05Z</time>
      </trkpt>
      <trkpt lat="45.76367" lon="4.81328">
        <ele>328</ele>
        <time>2010-11-19T18:42:06Z</time>
      </trkpt>
      <trkpt lat="45.76369" lon="4.8133">
        <ele>328</ele>
        <time>2010-11-19T18:42:07Z</time>
      </trkpt>
      <trkpt lat="45.76373" lon="4.81329">
        <ele>328</ele>
        <time>2010-11-19T18:42:08Z</time>
      </trkpt>
      <trkpt lat="45.76377" lon="4.81328">
        <ele>327</ele>
        <time>2010-11-19T18:42:09Z</time>
      </trkpt>
      <trkpt lat="45.76381" lon="4.81328">
        <ele>327</ele>
        <time>2010-11-19T18:42:10Z</time>
      </trkpt>
      <trkpt lat="45.76383" lon="4.81328">
        <ele>328</ele>
        <time>2010-11-19T18:42:11Z</time>
      </trkpt>
      <trkpt lat="45.76386" lon="4.81327">
        <ele>328</ele>
        <time>2010-11-19T18:42:12Z</time>
      </trkpt>
      <trkpt lat="45.76389" lon="4.81325">
        <ele>328</ele>
        <time>2010-11-19T18:42:13Z</time>
      </trkpt>
      <trkpt lat="45.76393" lon="4.81323">
        <ele>329</ele>
        <time>2010-11-19T18:42:14Z</time>
      </trkpt>
      <trkpt lat="45.76394" lon="4.8132">
        <ele>329</ele>
        <time>2010-11-19T18:42:15Z</time>
      </trkpt>
      <trkpt lat="45.76391" lon="4.81317">
        <ele>328</ele>
        <time>2010-11-19T18:42:17Z</time>
      </trkpt>
      <trkpt lat="45.76392" lon="4.81314">
        <ele>328</ele>
        <time>2010-11-19T18:42:17Z</time>
      </trkpt>
      <trkpt lat="45.76394" lon="4.81312">
        <ele>328</ele>
        <time>2010-11-19T18:42:18Z</time>
      </trkpt>
      <trkpt lat="45.76395" lon="4.8131">
        <ele>328</ele>
        <time>2010-11-19T18:42:19Z</time>
      </trkpt>
      <trkpt lat="45.76396" lon="4.81308">
        <ele>328</ele>
        <time>2010-11-19T18:42:20Z</time>
      </trkpt>
      <trkpt lat="45.76396" lon="4.81305">
        <ele>328</ele>
        <time>2010-11-19T18:42:21Z</time>
      </trkpt>
      <trkpt lat="45.76398" lon="4.81303">
        <ele>328</ele>
        <time>2010-11-19T18:42:22Z</time>
      </trkpt>
      <trkpt lat="45.764" lon="4.81301">
        <ele>328</ele>
        <time>2010-11-19T18:42:23Z</time>
      </trkpt>
      <trkpt lat="45.76401" lon="4.81299">
        <ele>327</ele>
        <time>2010-11-19T18:42:24Z</time>
      </trkpt>
      <trkpt lat="45.76404" lon="4.81296">
        <ele>327</ele>
        <time>2010-11-19T18:42:25Z</time>
      </trkpt>
      <trkpt lat="45.76406" lon="4.81293">
        <ele>328</ele>
        <time>2010-11-19T18:42:26Z</time>
      </trkpt>
      <trkpt lat="45.76409" lon="4.81291">
        <ele>327</ele>
        <time>2010-11-19T18:42:27Z</time>
      </trkpt>
      <trkpt lat="45.76411" lon="4.81289">
        <ele>328</ele>
        <time>2010-11-19T18:42:28Z</time>
      </trkpt>
      <trkpt lat="45.76412" lon="4.81287">
        <ele>328</ele>
        <time>2010-11-19T18:42:29Z</time>
      </trkpt>
      <trkpt lat="45.76414" lon="4.81285">
        <ele>327</ele>
        <time>2010-11-19T18:42:30Z</time>
      </trkpt>
      <trkpt lat="45.76416" lon="4.81283">
        <ele>326</ele>
        <time>2010-11-19T18:42:31Z</time>
      </trkpt>
      <trkpt lat="45.76419" lon="4.81281">
        <ele>325</ele>
        <time>2010-11-19T18:42:32Z</time>
      </trkpt>
      <trkpt lat="45.7642" lon="4.81279">
        <ele>325</ele>
        <time>2010-11-19T18:42:33Z</time>
      </trkpt>
      <trkpt lat="45.76423" lon="4.81277">
        <ele>325</ele>
        <time>2010-11-19T18:42:34Z</time>
      </trkpt>
      <trkpt lat="45.76425" lon="4.81275">
        <ele>325</ele>
        <time>2010-11-19T18:42:35Z</time>
      </trkpt>
      <trkpt lat="45.76427" lon="4.81272">
        <ele>325</ele>
        <time>2010-11-19T18:42:36Z</time>
      </trkpt>
      <trkpt lat="45.76428" lon="4.8127">
        <ele>325</ele>
        <time>2010-11-19T18:42:37Z</time>
      </trkpt>
      <trkpt lat="45.76431" lon="4.81268">
        <ele>324</ele>
        <time>2010-11-19T18:42:39Z</time>
      </trkpt>
      <trkpt lat="45.76432" lon="4.81266">
        <ele>324.59240722656</ele>
        <time>2010-11-19T18:42:39Z</time>
      </trkpt>
      <trkpt lat="45.76436" lon="4.81263">
        <ele>323</ele>
        <time>2010-11-19T18:42:40Z</time>
      </trkpt>
      <trkpt lat="45.76438" lon="4.8126">
        <ele>323</ele>
        <time>2010-11-19T18:42:41Z</time>
      </trkpt>
      <trkpt lat="45.76439" lon="4.81256">
        <ele>322</ele>
        <time>2010-11-19T18:42:42Z</time>
      </trkpt>
      <trkpt lat="45.76441" lon="4.81254">
        <ele>322</ele>
        <time>2010-11-19T18:42:43Z</time>
      </trkpt>
      <trkpt lat="45.76443" lon="4.81252">
        <ele>322</ele>
        <time>2010-11-19T18:42:44Z</time>
      </trkpt>
      <trkpt lat="45.76445" lon="4.81249">
        <ele>321</ele>
        <time>2010-11-19T18:42:45Z</time>
      </trkpt>
      <trkpt lat="45.76447" lon="4.81246">
        <ele>321</ele>
        <time>2010-11-19T18:42:46Z</time>
      </trkpt>
      <trkpt lat="45.76449" lon="4.81244">
        <ele>320</ele>
        <time>2010-11-19T18:42:47Z</time>
      </trkpt>
      <trkpt lat="45.7645" lon="4.8124">
        <ele>320</ele>
        <time>2010-11-19T18:42:48Z</time>
      </trkpt>
      <trkpt lat="45.76453" lon="4.81237">
        <ele>320</ele>
        <time>2010-11-19T18:42:49Z</time>
      </trkpt>
      <trkpt lat="45.76454" lon="4.81233">
        <ele>320</ele>
        <time>2010-11-19T18:42:50Z</time>
      </trkpt>
      <trkpt lat="45.76457" lon="4.81231">
        <ele>320</ele>
        <time>2010-11-19T18:42:51Z</time>
      </trkpt>
      <trkpt lat="45.7646" lon="4.81228">
        <ele>320</ele>
        <time>2010-11-19T18:42:52Z</time>
      </trkpt>
      <trkpt lat="45.76463" lon="4.81224">
        <ele>320</ele>
        <time>2010-11-19T18:42:53Z</time>
      </trkpt>
      <trkpt lat="45.76464" lon="4.81221">
        <ele>320</ele>
        <time>2010-11-19T18:42:54Z</time>
      </trkpt>
      <trkpt lat="45.76467" lon="4.81218">
        <ele>319</ele>
        <time>2010-11-19T18:42:55Z</time>
      </trkpt>
      <trkpt lat="45.76469" lon="4.81216">
        <ele>319</ele>
        <time>2010-11-19T18:42:56Z</time>
      </trkpt>
      <trkpt lat="45.7647" lon="4.81213">
        <ele>319</ele>
        <time>2010-11-19T18:42:57Z</time>
      </trkpt>
      <trkpt lat="45.76472" lon="4.8121">
        <ele>319</ele>
        <time>2010-11-19T18:42:58Z</time>
      </trkpt>
      <trkpt lat="45.76475" lon="4.81207">
        <ele>318</ele>
        <time>2010-11-19T18:42:59Z</time>
      </trkpt>
      <trkpt lat="45.76477" lon="4.81203">
        <ele>318</ele>
        <time>2010-11-19T18:43:01Z</time>
      </trkpt>
      <trkpt lat="45.76477" lon="4.81203">
        <ele>318</ele>
        <time>2010-11-19T18:43:01Z</time>
      </trkpt>
      <trkpt lat="45.76479" lon="4.81197">
        <ele>318</ele>
        <time>2010-11-19T18:43:02Z</time>
      </trkpt>
      <trkpt lat="45.76481" lon="4.81194">
        <ele>318</ele>
        <time>2010-11-19T18:43:03Z</time>
      </trkpt>
      <trkpt lat="45.76483" lon="4.81192">
        <ele>319</ele>
        <time>2010-11-19T18:43:04Z</time>
      </trkpt>
      <trkpt lat="45.76484" lon="4.81189">
        <ele>319</ele>
        <time>2010-11-19T18:43:05Z</time>
      </trkpt>
      <trkpt lat="45.76485" lon="4.81187">
        <ele>318</ele>
        <time>2010-11-19T18:43:06Z</time>
      </trkpt>
      <trkpt lat="45.76487" lon="4.81186">
        <ele>318</ele>
        <time>2010-11-19T18:43:07Z</time>
      </trkpt>
      <trkpt lat="45.76488" lon="4.81182">
        <ele>317</ele>
        <time>2010-11-19T18:43:08Z</time>
      </trkpt>
      <trkpt lat="45.76489" lon="4.8118">
        <ele>317</ele>
        <time>2010-11-19T18:43:09Z</time>
      </trkpt>
      <trkpt lat="45.76489" lon="4.81176">
        <ele>318</ele>
        <time>2010-11-19T18:43:10Z</time>
      </trkpt>
      <trkpt lat="45.76491" lon="4.81173">
        <ele>317</ele>
        <time>2010-11-19T18:43:11Z</time>
      </trkpt>
      <trkpt lat="45.76492" lon="4.81171">
        <ele>317</ele>
        <time>2010-11-19T18:43:12Z</time>
      </trkpt>
      <trkpt lat="45.76493" lon="4.81168">
        <ele>317</ele>
        <time>2010-11-19T18:43:13Z</time>
      </trkpt>
      <trkpt lat="45.76494" lon="4.81165">
        <ele>317</ele>
        <time>2010-11-19T18:43:14Z</time>
      </trkpt>
      <trkpt lat="45.76495" lon="4.81163">
        <ele>317</ele>
        <time>2010-11-19T18:43:15Z</time>
      </trkpt>
      <trkpt lat="45.76496" lon="4.81157">
        <ele>316</ele>
        <time>2010-11-19T18:43:16Z</time>
      </trkpt>
      <trkpt lat="45.76497" lon="4.81152">
        <ele>316</ele>
        <time>2010-11-19T18:43:17Z</time>
      </trkpt>
      <trkpt lat="45.76497" lon="4.81149">
        <ele>316</ele>
        <time>2010-11-19T18:43:18Z</time>
      </trkpt>
      <trkpt lat="45.76498" lon="4.81144">
        <ele>316</ele>
        <time>2010-11-19T18:43:19Z</time>
      </trkpt>
      <trkpt lat="45.76498" lon="4.8114">
        <ele>317</ele>
        <time>2010-11-19T18:43:20Z</time>
      </trkpt>
      <trkpt lat="45.765" lon="4.81135">
        <ele>316</ele>
        <time>2010-11-19T18:43:22Z</time>
      </trkpt>
      <trkpt lat="45.76499" lon="4.81131">
        <ele>316</ele>
        <time>2010-11-19T18:43:23Z</time>
      </trkpt>
      <trkpt lat="45.76499" lon="4.81131">
        <ele>316.00512695312</ele>
        <time>2010-11-19T18:43:23Z</time>
      </trkpt>
      <trkpt lat="45.76502" lon="4.81125">
        <ele>316.00064086914</ele>
        <time>2010-11-19T18:43:24Z</time>
      </trkpt>
      <trkpt lat="45.76503" lon="4.81121">
        <ele>317</ele>
        <time>2010-11-19T18:43:25Z</time>
      </trkpt>
      <trkpt lat="45.76505" lon="4.81117">
        <ele>317</ele>
        <time>2010-11-19T18:43:26Z</time>
      </trkpt>
      <trkpt lat="45.76506" lon="4.81114">
        <ele>316</ele>
        <time>2010-11-19T18:43:27Z</time>
      </trkpt>
      <trkpt lat="45.76508" lon="4.8111">
        <ele>317</ele>
        <time>2010-11-19T18:43:28Z</time>
      </trkpt>
      <trkpt lat="45.76512" lon="4.81105">
        <ele>317</ele>
        <time>2010-11-19T18:43:29Z</time>
      </trkpt>
      <trkpt lat="45.76515" lon="4.811">
        <ele>317</ele>
        <time>2010-11-19T18:43:30Z</time>
      </trkpt>
      <trkpt lat="45.76517" lon="4.81097">
        <ele>316</ele>
        <time>2010-11-19T18:43:31Z</time>
      </trkpt>
      <trkpt lat="45.76519" lon="4.81093">
        <ele>315</ele>
        <time>2010-11-19T18:43:32Z</time>
      </trkpt>
      <trkpt lat="45.76521" lon="4.8109">
        <ele>315</ele>
        <time>2010-11-19T18:43:33Z</time>
      </trkpt>
      <trkpt lat="45.76522" lon="4.81087">
        <ele>315</ele>
        <time>2010-11-19T18:43:34Z</time>
      </trkpt>
      <trkpt lat="45.76522" lon="4.81083">
        <ele>316</ele>
        <time>2010-11-19T18:43:35Z</time>
      </trkpt>
      <trkpt lat="45.76523" lon="4.8108">
        <ele>315</ele>
        <time>2010-11-19T18:43:36Z</time>
      </trkpt>
      <trkpt lat="45.76524" lon="4.81075">
        <ele>316</ele>
        <time>2010-11-19T18:43:37Z</time>
      </trkpt>
      <trkpt lat="45.76524" lon="4.81071">
        <ele>317</ele>
        <time>2010-11-19T18:43:38Z</time>
      </trkpt>
      <trkpt lat="45.76526" lon="4.81067">
        <ele>317</ele>
        <time>2010-11-19T18:43:39Z</time>
      </trkpt>
      <trkpt lat="45.76526" lon="4.81064">
        <ele>320</ele>
        <time>2010-11-19T18:43:40Z</time>
      </trkpt>
      <trkpt lat="45.76527" lon="4.8106">
        <ele>321</ele>
        <time>2010-11-19T18:43:41Z</time>
      </trkpt>
      <trkpt lat="45.76529" lon="4.81058">
        <ele>322</ele>
        <time>2010-11-19T18:43:42Z</time>
      </trkpt>
      <trkpt lat="45.76531" lon="4.81057">
        <ele>322</ele>
        <time>2010-11-19T18:43:43Z</time>
      </trkpt>
      <trkpt lat="45.76534" lon="4.81055">
        <ele>323</ele>
        <time>2010-11-19T18:43:45Z</time>
      </trkpt>
      <trkpt lat="45.76535" lon="4.81055">
        <ele>323.15237426758</ele>
        <time>2010-11-19T18:43:45Z</time>
      </trkpt>
      <trkpt lat="45.76538" lon="4.8105">
        <ele>324</ele>
        <time>2010-11-19T18:43:46Z</time>
      </trkpt>
      <trkpt lat="45.7654" lon="4.81048">
        <ele>324</ele>
        <time>2010-11-19T18:43:47Z</time>
      </trkpt>
      <trkpt lat="45.76543" lon="4.81045">
        <ele>325</ele>
        <time>2010-11-19T18:43:48Z</time>
      </trkpt>
      <trkpt lat="45.76545" lon="4.81042">
        <ele>325</ele>
        <time>2010-11-19T18:43:49Z</time>
      </trkpt>
      <trkpt lat="45.76546" lon="4.81039">
        <ele>324</ele>
        <time>2010-11-19T18:43:50Z</time>
      </trkpt>
      <trkpt lat="45.76548" lon="4.81036">
        <ele>324</ele>
        <time>2010-11-19T18:43:51Z</time>
      </trkpt>
      <trkpt lat="45.76552" lon="4.81031">
        <ele>324</ele>
        <time>2010-11-19T18:43:52Z</time>
      </trkpt>
      <trkpt lat="45.76555" lon="4.81028">
        <ele>324</ele>
        <time>2010-11-19T18:43:53Z</time>
      </trkpt>
      <trkpt lat="45.76556" lon="4.81027">
        <ele>324</ele>
        <time>2010-11-19T18:43:54Z</time>
      </trkpt>
      <trkpt lat="45.76558" lon="4.81025">
        <ele>324</ele>
        <time>2010-11-19T18:43:55Z</time>
      </trkpt>
      <trkpt lat="45.7656" lon="4.81023">
        <ele>323</ele>
        <time>2010-11-19T18:43:56Z</time>
      </trkpt>
      <trkpt lat="45.76564" lon="4.81021">
        <ele>323</ele>
        <time>2010-11-19T18:43:57Z</time>
      </trkpt>
      <trkpt lat="45.76566" lon="4.81019">
        <ele>323</ele>
        <time>2010-11-19T18:43:58Z</time>
      </trkpt>
      <trkpt lat="45.76567" lon="4.81017">
        <ele>322</ele>
        <time>2010-11-19T18:43:59Z</time>
      </trkpt>
      <trkpt lat="45.76569" lon="4.81016">
        <ele>322</ele>
        <time>2010-11-19T18:44:00Z</time>
      </trkpt>
      <trkpt lat="45.76572" lon="4.81013">
        <ele>322</ele>
        <time>2010-11-19T18:44:01Z</time>
      </trkpt>
      <trkpt lat="45.76574" lon="4.81011">
        <ele>321</ele>
        <time>2010-11-19T18:44:02Z</time>
      </trkpt>
      <trkpt lat="45.76577" lon="4.81008">
        <ele>321</ele>
        <time>2010-11-19T18:44:03Z</time>
      </trkpt>
      <trkpt lat="45.76578" lon="4.81004">
        <ele>321</ele>
        <time>2010-11-19T18:44:04Z</time>
      </trkpt>
      <trkpt lat="45.76581" lon="4.81001">
        <ele>321</ele>
        <time>2010-11-19T18:44:05Z</time>
      </trkpt>
      <trkpt lat="45.76584" lon="4.81003">
        <ele>319</ele>
        <time>2010-11-19T18:44:07Z</time>
      </trkpt>
      <trkpt lat="45.76585" lon="4.81003">
        <ele>318.63098144531</ele>
        <time>2010-11-19T18:44:07Z</time>
      </trkpt>
      <trkpt lat="45.76592" lon="4.81006">
        <ele>316.10232543945</ele>
        <time>2010-11-19T18:44:08Z</time>
      </trkpt>
      <trkpt lat="45.76595" lon="4.81004">
        <ele>316</ele>
        <time>2010-11-19T18:44:09Z</time>
      </trkpt>
      <trkpt lat="45.76597" lon="4.81002">
        <ele>316</ele>
        <time>2010-11-19T18:44:10Z</time>
      </trkpt>
      <trkpt lat="45.766" lon="4.81001">
        <ele>316</ele>
        <time>2010-11-19T18:44:11Z</time>
      </trkpt>
      <trkpt lat="45.76602" lon="4.81">
        <ele>317</ele>
        <time>2010-11-19T18:44:12Z</time>
      </trkpt>
      <trkpt lat="45.76603" lon="4.80997">
        <ele>317</ele>
        <time>2010-11-19T18:44:13Z</time>
      </trkpt>
      <trkpt lat="45.76605" lon="4.80995">
        <ele>316</ele>
        <time>2010-11-19T18:44:14Z</time>
      </trkpt>
      <trkpt lat="45.76608" lon="4.80993">
        <ele>316</ele>
        <time>2010-11-19T18:44:15Z</time>
      </trkpt>
      <trkpt lat="45.76609" lon="4.80991">
        <ele>316</ele>
        <time>2010-11-19T18:44:16Z</time>
      </trkpt>
      <trkpt lat="45.76611" lon="4.80989">
        <ele>316</ele>
        <time>2010-11-19T18:44:17Z</time>
      </trkpt>
      <trkpt lat="45.76614" lon="4.80989">
        <ele>316</ele>
        <time>2010-11-19T18:44:18Z</time>
      </trkpt>
      <trkpt lat="45.76616" lon="4.80987">
        <ele>316</ele>
        <time>2010-11-19T18:44:19Z</time>
      </trkpt>
      <trkpt lat="45.76618" lon="4.80984">
        <ele>316</ele>
        <time>2010-11-19T18:44:20Z</time>
      </trkpt>
      <trkpt lat="45.76621" lon="4.80983">
        <ele>315</ele>
        <time>2010-11-19T18:44:21Z</time>
      </trkpt>
      <trkpt lat="45.76624" lon="4.80981">
        <ele>315</ele>
        <time>2010-11-19T18:44:22Z</time>
      </trkpt>
      <trkpt lat="45.76625" lon="4.8098">
        <ele>315</ele>
        <time>2010-11-19T18:44:23Z</time>
      </trkpt>
      <trkpt lat="45.76627" lon="4.80979">
        <ele>315</ele>
        <time>2010-11-19T18:44:24Z</time>
      </trkpt>
      <trkpt lat="45.76631" lon="4.80974">
        <ele>314</ele>
        <time>2010-11-19T18:44:25Z</time>
      </trkpt>
      <trkpt lat="45.76633" lon="4.80972">
        <ele>313</ele>
        <time>2010-11-19T18:44:26Z</time>
      </trkpt>
      <trkpt lat="45.76637" lon="4.8097">
        <ele>313</ele>
        <time>2010-11-19T18:44:27Z</time>
      </trkpt>
      <trkpt lat="45.7664" lon="4.80972">
        <ele>313</ele>
        <time>2010-11-19T18:44:29Z</time>
      </trkpt>
      <trkpt lat="45.76642" lon="4.80971">
        <ele>313</ele>
        <time>2010-11-19T18:44:29Z</time>
      </trkpt>
      <trkpt lat="45.76646" lon="4.80969">
        <ele>314</ele>
        <time>2010-11-19T18:44:30Z</time>
      </trkpt>
      <trkpt lat="45.76648" lon="4.80967">
        <ele>314</ele>
        <time>2010-11-19T18:44:31Z</time>
      </trkpt>
      <trkpt lat="45.7665" lon="4.80966">
        <ele>313</ele>
        <time>2010-11-19T18:44:32Z</time>
      </trkpt>
      <trkpt lat="45.76653" lon="4.80962">
        <ele>312</ele>
        <time>2010-11-19T18:44:33Z</time>
      </trkpt>
      <trkpt lat="45.76655" lon="4.80961">
        <ele>312</ele>
        <time>2010-11-19T18:44:34Z</time>
      </trkpt>
      <trkpt lat="45.76657" lon="4.80959">
        <ele>312</ele>
        <time>2010-11-19T18:44:35Z</time>
      </trkpt>
      <trkpt lat="45.76659" lon="4.80958">
        <ele>311</ele>
        <time>2010-11-19T18:44:36Z</time>
      </trkpt>
      <trkpt lat="45.76663" lon="4.8096">
        <ele>307</ele>
        <time>2010-11-19T18:44:37Z</time>
      </trkpt>
      <trkpt lat="45.76666" lon="4.80959">
        <ele>307</ele>
        <time>2010-11-19T18:44:38Z</time>
      </trkpt>
      <trkpt lat="45.76668" lon="4.80957">
        <ele>307</ele>
        <time>2010-11-19T18:44:39Z</time>
      </trkpt>
      <trkpt lat="45.7667" lon="4.80955">
        <ele>307</ele>
        <time>2010-11-19T18:44:40Z</time>
      </trkpt>
      <trkpt lat="45.76673" lon="4.80953">
        <ele>307</ele>
        <time>2010-11-19T18:44:41Z</time>
      </trkpt>
      <trkpt lat="45.76675" lon="4.80952">
        <ele>307</ele>
        <time>2010-11-19T18:44:42Z</time>
      </trkpt>
      <trkpt lat="45.76676" lon="4.80951">
        <ele>307</ele>
        <time>2010-11-19T18:44:43Z</time>
      </trkpt>
      <trkpt lat="45.76678" lon="4.80951">
        <ele>307</ele>
        <time>2010-11-19T18:44:44Z</time>
      </trkpt>
      <trkpt lat="45.76681" lon="4.80951">
        <ele>307</ele>
        <time>2010-11-19T18:44:45Z</time>
      </trkpt>
      <trkpt lat="45.76683" lon="4.8095">
        <ele>307</ele>
        <time>2010-11-19T18:44:46Z</time>
      </trkpt>
      <trkpt lat="45.76685" lon="4.80951">
        <ele>308</ele>
        <time>2010-11-19T18:44:47Z</time>
      </trkpt>
      <trkpt lat="45.76686" lon="4.80951">
        <ele>308</ele>
        <time>2010-11-19T18:44:48Z</time>
      </trkpt>
      <trkpt lat="45.76688" lon="4.8095">
        <ele>308</ele>
        <time>2010-11-19T18:44:49Z</time>
      </trkpt>
      <trkpt lat="45.76691" lon="4.8095">
        <ele>309</ele>
        <time>2010-11-19T18:44:51Z</time>
      </trkpt>
      <trkpt lat="45.76691" lon="4.8095">
        <ele>309</ele>
        <time>2010-11-19T18:44:51Z</time>
      </trkpt>
      <trkpt lat="45.76696" lon="4.8095">
        <ele>310</ele>
        <time>2010-11-19T18:44:52Z</time>
      </trkpt>
      <trkpt lat="45.76698" lon="4.8095">
        <ele>310</ele>
        <time>2010-11-19T18:44:53Z</time>
      </trkpt>
      <trkpt lat="45.767" lon="4.80949">
        <ele>310</ele>
        <time>2010-11-19T18:44:54Z</time>
      </trkpt>
      <trkpt lat="45.76703" lon="4.80949">
        <ele>310</ele>
        <time>2010-11-19T18:44:55Z</time>
      </trkpt>
      <trkpt lat="45.76706" lon="4.80947">
        <ele>310</ele>
        <time>2010-11-19T18:44:56Z</time>
      </trkpt>
      <trkpt lat="45.76707" lon="4.80946">
        <ele>310</ele>
        <time>2010-11-19T18:44:57Z</time>
      </trkpt>
      <trkpt lat="45.76711" lon="4.80944">
        <ele>310</ele>
        <time>2010-11-19T18:44:58Z</time>
      </trkpt>
      <trkpt lat="45.76712" lon="4.80943">
        <ele>310</ele>
        <time>2010-11-19T18:44:59Z</time>
      </trkpt>
      <trkpt lat="45.76715" lon="4.80943">
        <ele>309</ele>
        <time>2010-11-19T18:45:00Z</time>
      </trkpt>
      <trkpt lat="45.7672" lon="4.80946">
        <ele>308</ele>
        <time>2010-11-19T18:45:01Z</time>
      </trkpt>
      <trkpt lat="45.76725" lon="4.80953">
        <ele>306.40835571289</ele>
        <time>2010-11-19T18:45:02Z</time>
      </trkpt>
      <trkpt lat="45.76732" lon="4.80955">
        <ele>303</ele>
        <time>2010-11-19T18:45:03Z</time>
      </trkpt>
      <trkpt lat="45.76736" lon="4.80955">
        <ele>301</ele>
        <time>2010-11-19T18:45:04Z</time>
      </trkpt>
      <trkpt lat="45.7674" lon="4.80955">
        <ele>299</ele>
        <time>2010-11-19T18:45:05Z</time>
      </trkpt>
      <trkpt lat="45.76743" lon="4.80955">
        <ele>297</ele>
        <time>2010-11-19T18:45:06Z</time>
      </trkpt>
      <trkpt lat="45.76746" lon="4.80955">
        <ele>297</ele>
        <time>2010-11-19T18:45:07Z</time>
      </trkpt>
      <trkpt lat="45.76749" lon="4.80955">
        <ele>297</ele>
        <time>2010-11-19T18:45:08Z</time>
      </trkpt>
      <trkpt lat="45.76752" lon="4.80955">
        <ele>297</ele>
        <time>2010-11-19T18:45:09Z</time>
      </trkpt>
      <trkpt lat="45.76755" lon="4.80955">
        <ele>296</ele>
        <time>2010-11-19T18:45:10Z</time>
      </trkpt>
      <trkpt lat="45.76757" lon="4.80955">
        <ele>297</ele>
        <time>2010-11-19T18:45:11Z</time>
      </trkpt>
      <trkpt lat="45.76756" lon="4.8096">
        <ele>296</ele>
        <time>2010-11-19T18:45:13Z</time>
      </trkpt>
      <trkpt lat="45.76757" lon="4.80961">
        <ele>295.54214477539</ele>
        <time>2010-11-19T18:45:13Z</time>
      </trkpt>
      <trkpt lat="45.7676" lon="4.80962">
        <ele>295</ele>
        <time>2010-11-19T18:45:14Z</time>
      </trkpt>
      <trkpt lat="45.76762" lon="4.80964">
        <ele>294</ele>
        <time>2010-11-19T18:45:15Z</time>
      </trkpt>
      <trkpt lat="45.76762" lon="4.80964">
        <ele>294</ele>
        <time>2010-11-19T18:45:16Z</time>
      </trkpt>
      <trkpt lat="45.76764" lon="4.80965">
        <ele>295</ele>
        <time>2010-11-19T18:45:17Z</time>
      </trkpt>
      <trkpt lat="45.76766" lon="4.80966">
        <ele>294</ele>
        <time>2010-11-19T18:45:18Z</time>
      </trkpt>
      <trkpt lat="45.76769" lon="4.80965">
        <ele>295</ele>
        <time>2010-11-19T18:45:19Z</time>
      </trkpt>
      <trkpt lat="45.76776" lon="4.80962">
        <ele>296.4934387207</ele>
        <time>2010-11-19T18:45:20Z</time>
      </trkpt>
      <trkpt lat="45.76783" lon="4.80961">
        <ele>298.6911315918</ele>
        <time>2010-11-19T18:45:21Z</time>
      </trkpt>
      <trkpt lat="45.76787" lon="4.8096">
        <ele>299</ele>
        <time>2010-11-19T18:45:22Z</time>
      </trkpt>
      <trkpt lat="45.76791" lon="4.80959">
        <ele>301</ele>
        <time>2010-11-19T18:45:23Z</time>
      </trkpt>
      <trkpt lat="45.76793" lon="4.8096">
        <ele>301</ele>
        <time>2010-11-19T18:45:24Z</time>
      </trkpt>
      <trkpt lat="45.76796" lon="4.80961">
        <ele>299</ele>
        <time>2010-11-19T18:45:25Z</time>
      </trkpt>
      <trkpt lat="45.76799" lon="4.8096">
        <ele>299</ele>
        <time>2010-11-19T18:45:26Z</time>
      </trkpt>
      <trkpt lat="45.76803" lon="4.8096">
        <ele>297</ele>
        <time>2010-11-19T18:45:27Z</time>
      </trkpt>
      <trkpt lat="45.76806" lon="4.8096">
        <ele>296</ele>
        <time>2010-11-19T18:45:28Z</time>
      </trkpt>
      <trkpt lat="45.76809" lon="4.80961">
        <ele>296</ele>
        <time>2010-11-19T18:45:29Z</time>
      </trkpt>
      <trkpt lat="45.7681" lon="4.80962">
        <ele>296</ele>
        <time>2010-11-19T18:45:30Z</time>
      </trkpt>
      <trkpt lat="45.76812" lon="4.80963">
        <ele>296</ele>
        <time>2010-11-19T18:45:31Z</time>
      </trkpt>
      <trkpt lat="45.76813" lon="4.80964">
        <ele>296</ele>
        <time>2010-11-19T18:45:32Z</time>
      </trkpt>
      <trkpt lat="45.76815" lon="4.80965">
        <ele>296</ele>
        <time>2010-11-19T18:45:33Z</time>
      </trkpt>
      <trkpt lat="45.76816" lon="4.80965">
        <ele>296</ele>
        <time>2010-11-19T18:45:35Z</time>
      </trkpt>
      <trkpt lat="45.76816" lon="4.80965">
        <ele>296</ele>
        <time>2010-11-19T18:45:35Z</time>
      </trkpt>
      <trkpt lat="45.76817" lon="4.80967">
        <ele>296</ele>
        <time>2010-11-19T18:45:36Z</time>
      </trkpt>
      <trkpt lat="45.7682" lon="4.80967">
        <ele>297</ele>
        <time>2010-11-19T18:45:37Z</time>
      </trkpt>
      <trkpt lat="45.76825" lon="4.80966">
        <ele>297</ele>
        <time>2010-11-19T18:45:38Z</time>
      </trkpt>
      <trkpt lat="45.76831" lon="4.80967">
        <ele>295</ele>
        <time>2010-11-19T18:45:39Z</time>
      </trkpt>
      <trkpt lat="45.76833" lon="4.80968">
        <ele>294</ele>
        <time>2010-11-19T18:45:40Z</time>
      </trkpt>
      <trkpt lat="45.76834" lon="4.80971">
        <ele>294</ele>
        <time>2010-11-19T18:45:41Z</time>
      </trkpt>
      <trkpt lat="45.76835" lon="4.80974">
        <ele>294</ele>
        <time>2010-11-19T18:45:42Z</time>
      </trkpt>
      <trkpt lat="45.76831" lon="4.80977">
        <ele>292</ele>
        <time>2010-11-19T18:45:43Z</time>
      </trkpt>
      <trkpt lat="45.7683" lon="4.80978">
        <ele>292</ele>
        <time>2010-11-19T18:45:44Z</time>
      </trkpt>
      <trkpt lat="45.76829" lon="4.8098">
        <ele>291</ele>
        <time>2010-11-19T18:45:45Z</time>
      </trkpt>
      <trkpt lat="45.76828" lon="4.80982">
        <ele>290</ele>
        <time>2010-11-19T18:45:46Z</time>
      </trkpt>
      <trkpt lat="45.76826" lon="4.80983">
        <ele>290</ele>
        <time>2010-11-19T18:45:47Z</time>
      </trkpt>
      <trkpt lat="45.76824" lon="4.80986">
        <ele>289</ele>
        <time>2010-11-19T18:45:48Z</time>
      </trkpt>
      <trkpt lat="45.76822" lon="4.80988">
        <ele>289</ele>
        <time>2010-11-19T18:45:49Z</time>
      </trkpt>
      <trkpt lat="45.7682" lon="4.80989">
        <ele>288</ele>
        <time>2010-11-19T18:45:50Z</time>
      </trkpt>
      <trkpt lat="45.76817" lon="4.80991">
        <ele>288</ele>
        <time>2010-11-19T18:45:51Z</time>
      </trkpt>
      <trkpt lat="45.76815" lon="4.80992">
        <ele>287</ele>
        <time>2010-11-19T18:45:52Z</time>
      </trkpt>
      <trkpt lat="45.76813" lon="4.80994">
        <ele>287</ele>
        <time>2010-11-19T18:45:53Z</time>
      </trkpt>
      <trkpt lat="45.7681" lon="4.80994">
        <ele>287</ele>
        <time>2010-11-19T18:45:54Z</time>
      </trkpt>
      <trkpt lat="45.76808" lon="4.80995">
        <ele>287</ele>
        <time>2010-11-19T18:45:55Z</time>
      </trkpt>
      <trkpt lat="45.76806" lon="4.80995">
        <ele>287</ele>
        <time>2010-11-19T18:45:57Z</time>
      </trkpt>
      <trkpt lat="45.76805" lon="4.80995">
        <ele>287</ele>
        <time>2010-11-19T18:45:57Z</time>
      </trkpt>
      <trkpt lat="45.768" lon="4.80998">
        <ele>287</ele>
        <time>2010-11-19T18:45:58Z</time>
      </trkpt>
      <trkpt lat="45.76796" lon="4.81002">
        <ele>286</ele>
        <time>2010-11-19T18:45:59Z</time>
      </trkpt>
      <trkpt lat="45.76793" lon="4.81003">
        <ele>286</ele>
        <time>2010-11-19T18:46:00Z</time>
      </trkpt>
      <trkpt lat="45.7679" lon="4.81003">
        <ele>286</ele>
        <time>2010-11-19T18:46:01Z</time>
      </trkpt>
      <trkpt lat="45.76788" lon="4.81003">
        <ele>285</ele>
        <time>2010-11-19T18:46:02Z</time>
      </trkpt>
      <trkpt lat="45.76785" lon="4.81004">
        <ele>285</ele>
        <time>2010-11-19T18:46:03Z</time>
      </trkpt>
      <trkpt lat="45.76783" lon="4.81005">
        <ele>285</ele>
        <time>2010-11-19T18:46:04Z</time>
      </trkpt>
      <trkpt lat="45.76779" lon="4.8101">
        <ele>287</ele>
        <time>2010-11-19T18:46:05Z</time>
      </trkpt>
      <trkpt lat="45.76777" lon="4.81011">
        <ele>287</ele>
        <time>2010-11-19T18:46:06Z</time>
      </trkpt>
      <trkpt lat="45.76774" lon="4.81011">
        <ele>288</ele>
        <time>2010-11-19T18:46:07Z</time>
      </trkpt>
      <trkpt lat="45.76772" lon="4.81011">
        <ele>288</ele>
        <time>2010-11-19T18:46:08Z</time>
      </trkpt>
      <trkpt lat="45.76769" lon="4.81012">
        <ele>287</ele>
        <time>2010-11-19T18:46:09Z</time>
      </trkpt>
      <trkpt lat="45.76766" lon="4.81012">
        <ele>287</ele>
        <time>2010-11-19T18:46:10Z</time>
      </trkpt>
      <trkpt lat="45.76764" lon="4.81012">
        <ele>287</ele>
        <time>2010-11-19T18:46:11Z</time>
      </trkpt>
      <trkpt lat="45.7676" lon="4.81014">
        <ele>287</ele>
        <time>2010-11-19T18:46:12Z</time>
      </trkpt>
      <trkpt lat="45.76758" lon="4.81016">
        <ele>286</ele>
        <time>2010-11-19T18:46:13Z</time>
      </trkpt>
      <trkpt lat="45.76756" lon="4.81017">
        <ele>286</ele>
        <time>2010-11-19T18:46:14Z</time>
      </trkpt>
      <trkpt lat="45.76754" lon="4.81019">
        <ele>285</ele>
        <time>2010-11-19T18:46:15Z</time>
      </trkpt>
      <trkpt lat="45.76751" lon="4.81022">
        <ele>285</ele>
        <time>2010-11-19T18:46:16Z</time>
      </trkpt>
      <trkpt lat="45.76749" lon="4.81026">
        <ele>285</ele>
        <time>2010-11-19T18:46:17Z</time>
      </trkpt>
      <trkpt lat="45.76746" lon="4.81027">
        <ele>285</ele>
        <time>2010-11-19T18:46:19Z</time>
      </trkpt>
      <trkpt lat="45.76744" lon="4.81027">
        <ele>284.33770751953</ele>
        <time>2010-11-19T18:46:19Z</time>
      </trkpt>
      <trkpt lat="45.7674" lon="4.81027">
        <ele>283</ele>
        <time>2010-11-19T18:46:20Z</time>
      </trkpt>
      <trkpt lat="45.76737" lon="4.81029">
        <ele>282</ele>
        <time>2010-11-19T18:46:21Z</time>
      </trkpt>
      <trkpt lat="45.76735" lon="4.8103">
        <ele>282</ele>
        <time>2010-11-19T18:46:22Z</time>
      </trkpt>
      <trkpt lat="45.76729" lon="4.81032">
        <ele>283</ele>
        <time>2010-11-19T18:46:23Z</time>
      </trkpt>
      <trkpt lat="45.76724" lon="4.81033">
        <ele>283</ele>
        <time>2010-11-19T18:46:24Z</time>
      </trkpt>
      <trkpt lat="45.7672" lon="4.81035">
        <ele>283</ele>
        <time>2010-11-19T18:46:25Z</time>
      </trkpt>
      <trkpt lat="45.76717" lon="4.81037">
        <ele>283</ele>
        <time>2010-11-19T18:46:26Z</time>
      </trkpt>
      <trkpt lat="45.76714" lon="4.81039">
        <ele>283</ele>
        <time>2010-11-19T18:46:27Z</time>
      </trkpt>
      <trkpt lat="45.76712" lon="4.81041">
        <ele>282</ele>
        <time>2010-11-19T18:46:28Z</time>
      </trkpt>
      <trkpt lat="45.7671" lon="4.81043">
        <ele>281</ele>
        <time>2010-11-19T18:46:29Z</time>
      </trkpt>
      <trkpt lat="45.76707" lon="4.81045">
        <ele>281</ele>
        <time>2010-11-19T18:46:30Z</time>
      </trkpt>
      <trkpt lat="45.76705" lon="4.81047">
        <ele>281</ele>
        <time>2010-11-19T18:46:31Z</time>
      </trkpt>
      <trkpt lat="45.76703" lon="4.81049">
        <ele>279</ele>
        <time>2010-11-19T18:46:32Z</time>
      </trkpt>
      <trkpt lat="45.76699" lon="4.81051">
        <ele>279</ele>
        <time>2010-11-19T18:46:33Z</time>
      </trkpt>
      <trkpt lat="45.76697" lon="4.81053">
        <ele>279</ele>
        <time>2010-11-19T18:46:34Z</time>
      </trkpt>
      <trkpt lat="45.76694" lon="4.81055">
        <ele>278</ele>
        <time>2010-11-19T18:46:35Z</time>
      </trkpt>
      <trkpt lat="45.76692" lon="4.81058">
        <ele>277</ele>
        <time>2010-11-19T18:46:36Z</time>
      </trkpt>
      <trkpt lat="45.76691" lon="4.8106">
        <ele>277</ele>
        <time>2010-11-19T18:46:37Z</time>
      </trkpt>
      <trkpt lat="45.76689" lon="4.81062">
        <ele>276</ele>
        <time>2010-11-19T18:46:38Z</time>
      </trkpt>
      <trkpt lat="45.76687" lon="4.81064">
        <ele>276</ele>
        <time>2010-11-19T18:46:39Z</time>
      </trkpt>
      <trkpt lat="45.76684" lon="4.81068">
        <ele>276</ele>
        <time>2010-11-19T18:46:41Z</time>
      </trkpt>
      <trkpt lat="45.76684" lon="4.81068">
        <ele>275.99530029297</ele>
        <time>2010-11-19T18:46:41Z</time>
      </trkpt>
      <trkpt lat="45.7668" lon="4.8107">
        <ele>275.99896240234</ele>
        <time>2010-11-19T18:46:42Z</time>
      </trkpt>
      <trkpt lat="45.76676" lon="4.81073">
        <ele>276</ele>
        <time>2010-11-19T18:46:43Z</time>
      </trkpt>
      <trkpt lat="45.76674" lon="4.81076">
        <ele>277</ele>
        <time>2010-11-19T18:46:44Z</time>
      </trkpt>
      <trkpt lat="45.76672" lon="4.81078">
        <ele>277</ele>
        <time>2010-11-19T18:46:45Z</time>
      </trkpt>
      <trkpt lat="45.7667" lon="4.8108">
        <ele>277</ele>
        <time>2010-11-19T18:46:46Z</time>
      </trkpt>
      <trkpt lat="45.76668" lon="4.81084">
        <ele>277</ele>
        <time>2010-11-19T18:46:47Z</time>
      </trkpt>
      <trkpt lat="45.76666" lon="4.81086">
        <ele>278</ele>
        <time>2010-11-19T18:46:48Z</time>
      </trkpt>
      <trkpt lat="45.76663" lon="4.81087">
        <ele>278</ele>
        <time>2010-11-19T18:46:49Z</time>
      </trkpt>
      <trkpt lat="45.76661" lon="4.8109">
        <ele>278</ele>
        <time>2010-11-19T18:46:50Z</time>
      </trkpt>
      <trkpt lat="45.76659" lon="4.81092">
        <ele>278</ele>
        <time>2010-11-19T18:46:51Z</time>
      </trkpt>
      <trkpt lat="45.76656" lon="4.81092">
        <ele>278</ele>
        <time>2010-11-19T18:46:52Z</time>
      </trkpt>
      <trkpt lat="45.76654" lon="4.81096">
        <ele>278</ele>
        <time>2010-11-19T18:46:53Z</time>
      </trkpt>
      <trkpt lat="45.76653" lon="4.81099">
        <ele>278</ele>
        <time>2010-11-19T18:46:54Z</time>
      </trkpt>
      <trkpt lat="45.76651" lon="4.81102">
        <ele>277</ele>
        <time>2010-11-19T18:46:55Z</time>
      </trkpt>
      <trkpt lat="45.76655" lon="4.81108">
        <ele>275.22570800781</ele>
        <time>2010-11-19T18:46:56Z</time>
      </trkpt>
      <trkpt lat="45.76659" lon="4.81114">
        <ele>273</ele>
        <time>2010-11-19T18:46:57Z</time>
      </trkpt>
      <trkpt lat="45.7666" lon="4.81114">
        <ele>272</ele>
        <time>2010-11-19T18:46:58Z</time>
      </trkpt>
      <trkpt lat="45.76661" lon="4.81115">
        <ele>271</ele>
        <time>2010-11-19T18:46:59Z</time>
      </trkpt>
      <trkpt lat="45.76663" lon="4.81114">
        <ele>271</ele>
        <time>2010-11-19T18:47:00Z</time>
      </trkpt>
      <trkpt lat="45.76665" lon="4.81113">
        <ele>270</ele>
        <time>2010-11-19T18:47:01Z</time>
      </trkpt>
      <trkpt lat="45.76668" lon="4.8111">
        <ele>270</ele>
        <time>2010-11-19T18:47:03Z</time>
      </trkpt>
      <trkpt lat="45.76669" lon="4.81109">
        <ele>269.38793945312</ele>
        <time>2010-11-19T18:47:03Z</time>
      </trkpt>
      <trkpt lat="45.76673" lon="4.81107">
        <ele>269</ele>
        <time>2010-11-19T18:47:04Z</time>
      </trkpt>
      <trkpt lat="45.76675" lon="4.81104">
        <ele>269</ele>
        <time>2010-11-19T18:47:05Z</time>
      </trkpt>
      <trkpt lat="45.76677" lon="4.81101">
        <ele>268</ele>
        <time>2010-11-19T18:47:06Z</time>
      </trkpt>
      <trkpt lat="45.76681" lon="4.811">
        <ele>268</ele>
        <time>2010-11-19T18:47:07Z</time>
      </trkpt>
      <trkpt lat="45.76683" lon="4.81099">
        <ele>268</ele>
        <time>2010-11-19T18:47:08Z</time>
      </trkpt>
      <trkpt lat="45.76685" lon="4.81097">
        <ele>267</ele>
        <time>2010-11-19T18:47:09Z</time>
      </trkpt>
      <trkpt lat="45.76688" lon="4.81096">
        <ele>266</ele>
        <time>2010-11-19T18:47:10Z</time>
      </trkpt>
      <trkpt lat="45.7669" lon="4.81094">
        <ele>266</ele>
        <time>2010-11-19T18:47:11Z</time>
      </trkpt>
      <trkpt lat="45.76692" lon="4.81092">
        <ele>265</ele>
        <time>2010-11-19T18:47:12Z</time>
      </trkpt>
      <trkpt lat="45.76694" lon="4.8109">
        <ele>265</ele>
        <time>2010-11-19T18:47:13Z</time>
      </trkpt>
      <trkpt lat="45.76697" lon="4.8109">
        <ele>265</ele>
        <time>2010-11-19T18:47:14Z</time>
      </trkpt>
      <trkpt lat="45.76699" lon="4.81089">
        <ele>265</ele>
        <time>2010-11-19T18:47:15Z</time>
      </trkpt>
      <trkpt lat="45.76704" lon="4.81085">
        <ele>265</ele>
        <time>2010-11-19T18:47:16Z</time>
      </trkpt>
      <trkpt lat="45.76707" lon="4.81083">
        <ele>266</ele>
        <time>2010-11-19T18:47:17Z</time>
      </trkpt>
      <trkpt lat="45.7671" lon="4.81082">
        <ele>266</ele>
        <time>2010-11-19T18:47:18Z</time>
      </trkpt>
      <trkpt lat="45.76715" lon="4.8108">
        <ele>267</ele>
        <time>2010-11-19T18:47:19Z</time>
      </trkpt>
      <trkpt lat="45.76718" lon="4.8108">
        <ele>265</ele>
        <time>2010-11-19T18:47:20Z</time>
      </trkpt>
      <trkpt lat="45.7672" lon="4.8108">
        <ele>266</ele>
        <time>2010-11-19T18:47:21Z</time>
      </trkpt>
      <trkpt lat="45.76722" lon="4.81079">
        <ele>265</ele>
        <time>2010-11-19T18:47:22Z</time>
      </trkpt>
      <trkpt lat="45.76725" lon="4.81077">
        <ele>264</ele>
        <time>2010-11-19T18:47:23Z</time>
      </trkpt>
      <trkpt lat="45.76727" lon="4.81076">
        <ele>264</ele>
        <time>2010-11-19T18:47:25Z</time>
      </trkpt>
      <trkpt lat="45.76727" lon="4.81076">
        <ele>264</ele>
        <time>2010-11-19T18:47:25Z</time>
      </trkpt>
      <trkpt lat="45.7673" lon="4.81074">
        <ele>264.6448059082</ele>
        <time>2010-11-19T18:47:26Z</time>
      </trkpt>
      <trkpt lat="45.76734" lon="4.81072">
        <ele>265</ele>
        <time>2010-11-19T18:47:27Z</time>
      </trkpt>
      <trkpt lat="45.76736" lon="4.8107">
        <ele>265</ele>
        <time>2010-11-19T18:47:28Z</time>
      </trkpt>
      <trkpt lat="45.7674" lon="4.81069">
        <ele>264</ele>
        <time>2010-11-19T18:47:29Z</time>
      </trkpt>
      <trkpt lat="45.76743" lon="4.81067">
        <ele>265</ele>
        <time>2010-11-19T18:47:30Z</time>
      </trkpt>
      <trkpt lat="45.76746" lon="4.81065">
        <ele>265</ele>
        <time>2010-11-19T18:47:31Z</time>
      </trkpt>
      <trkpt lat="45.76747" lon="4.81065">
        <ele>264</ele>
        <time>2010-11-19T18:47:32Z</time>
      </trkpt>
      <trkpt lat="45.76747" lon="4.81069">
        <ele>263</ele>
        <time>2010-11-19T18:47:33Z</time>
      </trkpt>
      <trkpt lat="45.76748" lon="4.81069">
        <ele>263</ele>
        <time>2010-11-19T18:47:34Z</time>
      </trkpt>
      <trkpt lat="45.76748" lon="4.81071">
        <ele>262</ele>
        <time>2010-11-19T18:47:35Z</time>
      </trkpt>
      <trkpt lat="45.76748" lon="4.81073">
        <ele>262</ele>
        <time>2010-11-19T18:47:36Z</time>
      </trkpt>
      <trkpt lat="45.76747" lon="4.81076">
        <ele>262</ele>
        <time>2010-11-19T18:47:37Z</time>
      </trkpt>
      <trkpt lat="45.76741" lon="4.81079">
        <ele>262.89944458008</ele>
        <time>2010-11-19T18:47:38Z</time>
      </trkpt>
      <trkpt lat="45.76738" lon="4.81082">
        <ele>263</ele>
        <time>2010-11-19T18:47:39Z</time>
      </trkpt>
      <trkpt lat="45.76736" lon="4.81085">
        <ele>263</ele>
        <time>2010-11-19T18:47:40Z</time>
      </trkpt>
      <trkpt lat="45.76734" lon="4.81086">
        <ele>263</ele>
        <time>2010-11-19T18:47:41Z</time>
      </trkpt>
      <trkpt lat="45.76733" lon="4.81087">
        <ele>263</ele>
        <time>2010-11-19T18:47:42Z</time>
      </trkpt>
      <trkpt lat="45.76729" lon="4.81089">
        <ele>262</ele>
        <time>2010-11-19T18:47:43Z</time>
      </trkpt>
      <trkpt lat="45.76726" lon="4.81091">
        <ele>261</ele>
        <time>2010-11-19T18:47:44Z</time>
      </trkpt>
      <trkpt lat="45.76722" lon="4.81093">
        <ele>262</ele>
        <time>2010-11-19T18:47:45Z</time>
      </trkpt>
      <trkpt lat="45.76719" lon="4.81094">
        <ele>261</ele>
        <time>2010-11-19T18:47:46Z</time>
      </trkpt>
      <trkpt lat="45.76717" lon="4.81096">
        <ele>262</ele>
        <time>2010-11-19T18:47:48Z</time>
      </trkpt>
      <trkpt lat="45.76716" lon="4.81097">
        <ele>262</ele>
        <time>2010-11-19T18:47:48Z</time>
      </trkpt>
      <trkpt lat="45.76711" lon="4.81101">
        <ele>262</ele>
        <time>2010-11-19T18:47:49Z</time>
      </trkpt>
      <trkpt lat="45.76708" lon="4.81103">
        <ele>262</ele>
        <time>2010-11-19T18:47:50Z</time>
      </trkpt>
      <trkpt lat="45.76706" lon="4.81105">
        <ele>263</ele>
        <time>2010-11-19T18:47:51Z</time>
      </trkpt>
      <trkpt lat="45.76704" lon="4.81108">
        <ele>263</ele>
        <time>2010-11-19T18:47:52Z</time>
      </trkpt>
      <trkpt lat="45.76701" lon="4.8111">
        <ele>263</ele>
        <time>2010-11-19T18:47:53Z</time>
      </trkpt>
      <trkpt lat="45.76699" lon="4.81111">
        <ele>263</ele>
        <time>2010-11-19T18:47:54Z</time>
      </trkpt>
      <trkpt lat="45.76697" lon="4.81113">
        <ele>263</ele>
        <time>2010-11-19T18:47:55Z</time>
      </trkpt>
      <trkpt lat="45.76696" lon="4.81114">
        <ele>263</ele>
        <time>2010-11-19T18:47:56Z</time>
      </trkpt>
      <trkpt lat="45.76694" lon="4.81115">
        <ele>263</ele>
        <time>2010-11-19T18:47:57Z</time>
      </trkpt>
      <trkpt lat="45.76691" lon="4.81116">
        <ele>264</ele>
        <time>2010-11-19T18:47:58Z</time>
      </trkpt>
      <trkpt lat="45.7669" lon="4.81119">
        <ele>264</ele>
        <time>2010-11-19T18:47:59Z</time>
      </trkpt>
      <trkpt lat="45.76689" lon="4.8112">
        <ele>264</ele>
        <time>2010-11-19T18:48:00Z</time>
      </trkpt>
      <trkpt lat="45.76686" lon="4.81122">
        <ele>264</ele>
        <time>2010-11-19T18:48:01Z</time>
      </trkpt>
      <trkpt lat="45.76683" lon="4.81123">
        <ele>264</ele>
        <time>2010-11-19T18:48:02Z</time>
      </trkpt>
      <trkpt lat="45.76681" lon="4.81125">
        <ele>265</ele>
        <time>2010-11-19T18:48:03Z</time>
      </trkpt>
      <trkpt lat="45.7668" lon="4.81128">
        <ele>265</ele>
        <time>2010-11-19T18:48:04Z</time>
      </trkpt>
      <trkpt lat="45.76678" lon="4.81131">
        <ele>265</ele>
        <time>2010-11-19T18:48:05Z</time>
      </trkpt>
      <trkpt lat="45.76676" lon="4.81135">
        <ele>265</ele>
        <time>2010-11-19T18:48:06Z</time>
      </trkpt>
      <trkpt lat="45.76675" lon="4.81138">
        <ele>265</ele>
        <time>2010-11-19T18:48:07Z</time>
      </trkpt>
      <trkpt lat="45.76675" lon="4.81142">
        <ele>264</ele>
        <time>2010-11-19T18:48:08Z</time>
      </trkpt>
      <trkpt lat="45.76675" lon="4.81146">
        <ele>264</ele>
        <time>2010-11-19T18:48:10Z</time>
      </trkpt>
      <trkpt lat="45.76675" lon="4.81147">
        <ele>264</ele>
        <time>2010-11-19T18:48:10Z</time>
      </trkpt>
      <trkpt lat="45.76677" lon="4.81155">
        <ele>262.57055664062</ele>
        <time>2010-11-19T18:48:11Z</time>
      </trkpt>
      <trkpt lat="45.7668" lon="4.81164">
        <ele>260</ele>
        <time>2010-11-19T18:48:12Z</time>
      </trkpt>
      <trkpt lat="45.76681" lon="4.81168">
        <ele>260</ele>
        <time>2010-11-19T18:48:13Z</time>
      </trkpt>
      <trkpt lat="45.76683" lon="4.81172">
        <ele>258</ele>
        <time>2010-11-19T18:48:14Z</time>
      </trkpt>
      <trkpt lat="45.76687" lon="4.81175">
        <ele>256</ele>
        <time>2010-11-19T18:48:15Z</time>
      </trkpt>
      <trkpt lat="45.76689" lon="4.81179">
        <ele>255</ele>
        <time>2010-11-19T18:48:16Z</time>
      </trkpt>
      <trkpt lat="45.76691" lon="4.81182">
        <ele>254</ele>
        <time>2010-11-19T18:48:17Z</time>
      </trkpt>
      <trkpt lat="45.76692" lon="4.81185">
        <ele>253</ele>
        <time>2010-11-19T18:48:18Z</time>
      </trkpt>
      <trkpt lat="45.76695" lon="4.81187">
        <ele>253</ele>
        <time>2010-11-19T18:48:19Z</time>
      </trkpt>
      <trkpt lat="45.76696" lon="4.8119">
        <ele>252</ele>
        <time>2010-11-19T18:48:20Z</time>
      </trkpt>
      <trkpt lat="45.76697" lon="4.81192">
        <ele>252</ele>
        <time>2010-11-19T18:48:21Z</time>
      </trkpt>
      <trkpt lat="45.76698" lon="4.81194">
        <ele>252</ele>
        <time>2010-11-19T18:48:22Z</time>
      </trkpt>
      <trkpt lat="45.76701" lon="4.81194">
        <ele>251</ele>
        <time>2010-11-19T18:48:23Z</time>
      </trkpt>
      <trkpt lat="45.76703" lon="4.81194">
        <ele>251</ele>
        <time>2010-11-19T18:48:24Z</time>
      </trkpt>
      <trkpt lat="45.76705" lon="4.81194">
        <ele>250</ele>
        <time>2010-11-19T18:48:25Z</time>
      </trkpt>
      <trkpt lat="45.76706" lon="4.81193">
        <ele>250</ele>
        <time>2010-11-19T18:48:26Z</time>
      </trkpt>
      <trkpt lat="45.76708" lon="4.81193">
        <ele>250</ele>
        <time>2010-11-19T18:48:27Z</time>
      </trkpt>
      <trkpt lat="45.76709" lon="4.8119">
        <ele>250</ele>
        <time>2010-11-19T18:48:28Z</time>
      </trkpt>
      <trkpt lat="45.7671" lon="4.81187">
        <ele>250</ele>
        <time>2010-11-19T18:48:29Z</time>
      </trkpt>
      <trkpt lat="45.76711" lon="4.81184">
        <ele>250</ele>
        <time>2010-11-19T18:48:30Z</time>
      </trkpt>
      <trkpt lat="45.76713" lon="4.8118">
        <ele>250</ele>
        <time>2010-11-19T18:48:32Z</time>
      </trkpt>
      <trkpt lat="45.76713" lon="4.81179">
        <ele>250.05561828613</ele>
        <time>2010-11-19T18:48:32Z</time>
      </trkpt>
      <trkpt lat="45.76715" lon="4.81172">
        <ele>251</ele>
        <time>2010-11-19T18:48:33Z</time>
      </trkpt>
      <trkpt lat="45.76717" lon="4.81167">
        <ele>251</ele>
        <time>2010-11-19T18:48:34Z</time>
      </trkpt>
      <trkpt lat="45.76717" lon="4.81163">
        <ele>251</ele>
        <time>2010-11-19T18:48:35Z</time>
      </trkpt>
      <trkpt lat="45.76718" lon="4.81158">
        <ele>251</ele>
        <time>2010-11-19T18:48:36Z</time>
      </trkpt>
      <trkpt lat="45.7672" lon="4.81155">
        <ele>251</ele>
        <time>2010-11-19T18:48:37Z</time>
      </trkpt>
      <trkpt lat="45.76722" lon="4.81153">
        <ele>250</ele>
        <time>2010-11-19T18:48:38Z</time>
      </trkpt>
      <trkpt lat="45.76723" lon="4.8115">
        <ele>250</ele>
        <time>2010-11-19T18:48:39Z</time>
      </trkpt>
      <trkpt lat="45.76725" lon="4.81147">
        <ele>250</ele>
        <time>2010-11-19T18:48:40Z</time>
      </trkpt>
      <trkpt lat="45.76725" lon="4.81145">
        <ele>250</ele>
        <time>2010-11-19T18:48:41Z</time>
      </trkpt>
      <trkpt lat="45.76726" lon="4.81143">
        <ele>250</ele>
        <time>2010-11-19T18:48:42Z</time>
      </trkpt>
      <trkpt lat="45.76727" lon="4.81142">
        <ele>250</ele>
        <time>2010-11-19T18:48:43Z</time>
      </trkpt>
      <trkpt lat="45.76729" lon="4.8114">
        <ele>251</ele>
        <time>2010-11-19T18:48:44Z</time>
      </trkpt>
      <trkpt lat="45.76731" lon="4.81139">
        <ele>251</ele>
        <time>2010-11-19T18:48:45Z</time>
      </trkpt>
      <trkpt lat="45.76732" lon="4.81139">
        <ele>252</ele>
        <time>2010-11-19T18:48:46Z</time>
      </trkpt>
      <trkpt lat="45.76734" lon="4.81139">
        <ele>254</ele>
        <time>2010-11-19T18:48:47Z</time>
      </trkpt>
      <trkpt lat="45.76737" lon="4.81138">
        <ele>255</ele>
        <time>2010-11-19T18:48:48Z</time>
      </trkpt>
      <trkpt lat="45.7674" lon="4.81139">
        <ele>256</ele>
        <time>2010-11-19T18:48:49Z</time>
      </trkpt>
      <trkpt lat="45.76742" lon="4.81139">
        <ele>257</ele>
        <time>2010-11-19T18:48:50Z</time>
      </trkpt>
      <trkpt lat="45.76744" lon="4.81139">
        <ele>257</ele>
        <time>2010-11-19T18:48:51Z</time>
      </trkpt>
      <trkpt lat="45.76747" lon="4.81139">
        <ele>258</ele>
        <time>2010-11-19T18:48:52Z</time>
      </trkpt>
      <trkpt lat="45.7675" lon="4.81139">
        <ele>258</ele>
        <time>2010-11-19T18:48:54Z</time>
      </trkpt>
      <trkpt lat="45.76751" lon="4.8114">
        <ele>258</ele>
        <time>2010-11-19T18:48:54Z</time>
      </trkpt>
      <trkpt lat="45.76754" lon="4.8114">
        <ele>259</ele>
        <time>2010-11-19T18:48:55Z</time>
      </trkpt>
      <trkpt lat="45.76756" lon="4.81138">
        <ele>259</ele>
        <time>2010-11-19T18:48:56Z</time>
      </trkpt>
      <trkpt lat="45.76759" lon="4.81138">
        <ele>259</ele>
        <time>2010-11-19T18:48:57Z</time>
      </trkpt>
      <trkpt lat="45.76762" lon="4.81138">
        <ele>260</ele>
        <time>2010-11-19T18:48:58Z</time>
      </trkpt>
      <trkpt lat="45.76765" lon="4.81137">
        <ele>260</ele>
        <time>2010-11-19T18:48:59Z</time>
      </trkpt>
      <trkpt lat="45.76768" lon="4.81135">
        <ele>260</ele>
        <time>2010-11-19T18:49:00Z</time>
      </trkpt>
      <trkpt lat="45.76771" lon="4.81136">
        <ele>260</ele>
        <time>2010-11-19T18:49:01Z</time>
      </trkpt>
      <trkpt lat="45.76773" lon="4.81135">
        <ele>259</ele>
        <time>2010-11-19T18:49:02Z</time>
      </trkpt>
      <trkpt lat="45.76776" lon="4.81134">
        <ele>260</ele>
        <time>2010-11-19T18:49:03Z</time>
      </trkpt>
      <trkpt lat="45.76779" lon="4.81131">
        <ele>260</ele>
        <time>2010-11-19T18:49:04Z</time>
      </trkpt>
      <trkpt lat="45.76781" lon="4.81129">
        <ele>259</ele>
        <time>2010-11-19T18:49:05Z</time>
      </trkpt>
      <trkpt lat="45.76786" lon="4.8113">
        <ele>260</ele>
        <time>2010-11-19T18:49:07Z</time>
      </trkpt>
      <trkpt lat="45.76787" lon="4.81129">
        <ele>260</ele>
        <time>2010-11-19T18:49:07Z</time>
      </trkpt>
      <trkpt lat="45.7679" lon="4.81128">
        <ele>260</ele>
        <time>2010-11-19T18:49:08Z</time>
      </trkpt>
      <trkpt lat="45.76793" lon="4.81126">
        <ele>260</ele>
        <time>2010-11-19T18:49:09Z</time>
      </trkpt>
      <trkpt lat="45.76795" lon="4.81124">
        <ele>260</ele>
        <time>2010-11-19T18:49:10Z</time>
      </trkpt>
      <trkpt lat="45.76799" lon="4.81122">
        <ele>260</ele>
        <time>2010-11-19T18:49:11Z</time>
      </trkpt>
      <trkpt lat="45.76801" lon="4.81121">
        <ele>261</ele>
        <time>2010-11-19T18:49:12Z</time>
      </trkpt>
      <trkpt lat="45.76805" lon="4.8112">
        <ele>261</ele>
        <time>2010-11-19T18:49:13Z</time>
      </trkpt>
      <trkpt lat="45.76808" lon="4.8112">
        <ele>261</ele>
        <time>2010-11-19T18:49:14Z</time>
      </trkpt>
      <trkpt lat="45.76809" lon="4.81119">
        <ele>261</ele>
        <time>2010-11-19T18:49:16Z</time>
      </trkpt>
      <trkpt lat="45.7681" lon="4.81118">
        <ele>261</ele>
        <time>2010-11-19T18:49:16Z</time>
      </trkpt>
      <trkpt lat="45.76816" lon="4.81117">
        <ele>261</ele>
        <time>2010-11-19T18:49:17Z</time>
      </trkpt>
      <trkpt lat="45.76818" lon="4.81117">
        <ele>261</ele>
        <time>2010-11-19T18:49:18Z</time>
      </trkpt>
      <trkpt lat="45.76821" lon="4.81115">
        <ele>261</ele>
        <time>2010-11-19T18:49:19Z</time>
      </trkpt>
      <trkpt lat="45.76823" lon="4.81115">
        <ele>260</ele>
        <time>2010-11-19T18:49:20Z</time>
      </trkpt>
      <trkpt lat="45.76827" lon="4.81114">
        <ele>261</ele>
        <time>2010-11-19T18:49:21Z</time>
      </trkpt>
      <trkpt lat="45.7683" lon="4.81114">
        <ele>260</ele>
        <time>2010-11-19T18:49:22Z</time>
      </trkpt>
      <trkpt lat="45.76832" lon="4.81115">
        <ele>259</ele>
        <time>2010-11-19T18:49:23Z</time>
      </trkpt>
      <trkpt lat="45.76835" lon="4.81118">
        <ele>258</ele>
        <time>2010-11-19T18:49:24Z</time>
      </trkpt>
      <trkpt lat="45.76834" lon="4.81127">
        <ele>257.08694458008</ele>
        <time>2010-11-19T18:49:25Z</time>
      </trkpt>
      <trkpt lat="45.76834" lon="4.81132">
        <ele>257</ele>
        <time>2010-11-19T18:49:26Z</time>
      </trkpt>
      <trkpt lat="45.76835" lon="4.81132">
        <ele>256</ele>
        <time>2010-11-19T18:49:27Z</time>
      </trkpt>
      <trkpt lat="45.76837" lon="4.81134">
        <ele>254</ele>
        <time>2010-11-19T18:49:29Z</time>
      </trkpt>
      <trkpt lat="45.76838" lon="4.81136">
        <ele>254</ele>
        <time>2010-11-19T18:49:29Z</time>
      </trkpt>
      <trkpt lat="45.76837" lon="4.81139">
        <ele>253</ele>
        <time>2010-11-19T18:49:30Z</time>
      </trkpt>
      <trkpt lat="45.76836" lon="4.81142">
        <ele>252</ele>
        <time>2010-11-19T18:49:31Z</time>
      </trkpt>
      <trkpt lat="45.76834" lon="4.81145">
        <ele>251</ele>
        <time>2010-11-19T18:49:32Z</time>
      </trkpt>
      <trkpt lat="45.76832" lon="4.81149">
        <ele>251</ele>
        <time>2010-11-19T18:49:33Z</time>
      </trkpt>
      <trkpt lat="45.76829" lon="4.81152">
        <ele>251</ele>
        <time>2010-11-19T18:49:34Z</time>
      </trkpt>
      <trkpt lat="45.76825" lon="4.81155">
        <ele>250</ele>
        <time>2010-11-19T18:49:35Z</time>
      </trkpt>
      <trkpt lat="45.76822" lon="4.81157">
        <ele>249</ele>
        <time>2010-11-19T18:49:36Z</time>
      </trkpt>
      <trkpt lat="45.7682" lon="4.81159">
        <ele>249</ele>
        <time>2010-11-19T18:49:38Z</time>
      </trkpt>
      <trkpt lat="45.76819" lon="4.81158">
        <ele>248.39454650879</ele>
        <time>2010-11-19T18:49:38Z</time>
      </trkpt>
      <trkpt lat="45.76816" lon="4.81157">
        <ele>245</ele>
        <time>2010-11-19T18:49:39Z</time>
      </trkpt>
      <trkpt lat="45.76811" lon="4.81156">
        <ele>244</ele>
        <time>2010-11-19T18:49:40Z</time>
      </trkpt>
      <trkpt lat="45.76808" lon="4.81156">
        <ele>244</ele>
        <time>2010-11-19T18:49:41Z</time>
      </trkpt>
      <trkpt lat="45.76805" lon="4.81156">
        <ele>243</ele>
        <time>2010-11-19T18:49:42Z</time>
      </trkpt>
      <trkpt lat="45.76801" lon="4.81155">
        <ele>243</ele>
        <time>2010-11-19T18:49:43Z</time>
      </trkpt>
      <trkpt lat="45.76797" lon="4.81154">
        <ele>243</ele>
        <time>2010-11-19T18:49:44Z</time>
      </trkpt>
      <trkpt lat="45.76794" lon="4.81155">
        <ele>243</ele>
        <time>2010-11-19T18:49:45Z</time>
      </trkpt>
      <trkpt lat="45.76791" lon="4.81157">
        <ele>242</ele>
        <time>2010-11-19T18:49:46Z</time>
      </trkpt>
      <trkpt lat="45.76787" lon="4.81158">
        <ele>242</ele>
        <time>2010-11-19T18:49:47Z</time>
      </trkpt>
      <trkpt lat="45.76784" lon="4.81158">
        <ele>242</ele>
        <time>2010-11-19T18:49:48Z</time>
      </trkpt>
      <trkpt lat="45.76779" lon="4.81159">
        <ele>242</ele>
        <time>2010-11-19T18:49:49Z</time>
      </trkpt>
      <trkpt lat="45.76776" lon="4.81159">
        <ele>242</ele>
        <time>2010-11-19T18:49:50Z</time>
      </trkpt>
      <trkpt lat="45.76773" lon="4.81161">
        <ele>241</ele>
        <time>2010-11-19T18:49:51Z</time>
      </trkpt>
      <trkpt lat="45.7677" lon="4.81163">
        <ele>241</ele>
        <time>2010-11-19T18:49:52Z</time>
      </trkpt>
      <trkpt lat="45.76769" lon="4.81163">
        <ele>241</ele>
        <time>2010-11-19T18:49:53Z</time>
      </trkpt>
      <trkpt lat="45.76766" lon="4.81166">
        <ele>241</ele>
        <time>2010-11-19T18:49:54Z</time>
      </trkpt>
      <trkpt lat="45.76763" lon="4.81167">
        <ele>241</ele>
        <time>2010-11-19T18:49:55Z</time>
      </trkpt>
      <trkpt lat="45.76761" lon="4.81168">
        <ele>241</ele>
        <time>2010-11-19T18:49:56Z</time>
      </trkpt>
      <trkpt lat="45.76756" lon="4.81172">
        <ele>241</ele>
        <time>2010-11-19T18:49:57Z</time>
      </trkpt>
      <trkpt lat="45.76754" lon="4.81175">
        <ele>241</ele>
        <time>2010-11-19T18:49:58Z</time>
      </trkpt>
      <trkpt lat="45.76751" lon="4.81178">
        <ele>242</ele>
        <time>2010-11-19T18:50:00Z</time>
      </trkpt>
      <trkpt lat="45.76751" lon="4.81178">
        <ele>242.00325012207</ele>
        <time>2010-11-19T18:50:00Z</time>
      </trkpt>
      <trkpt lat="45.76749" lon="4.81182">
        <ele>242.5224609375</ele>
        <time>2010-11-19T18:50:01Z</time>
      </trkpt>
      <trkpt lat="45.76745" lon="4.81189">
        <ele>243</ele>
        <time>2010-11-19T18:50:02Z</time>
      </trkpt>
      <trkpt lat="45.76743" lon="4.81192">
        <ele>243</ele>
        <time>2010-11-19T18:50:03Z</time>
      </trkpt>
      <trkpt lat="45.7674" lon="4.81194">
        <ele>243</ele>
        <time>2010-11-19T18:50:04Z</time>
      </trkpt>
      <trkpt lat="45.76738" lon="4.81194">
        <ele>243</ele>
        <time>2010-11-19T18:50:05Z</time>
      </trkpt>
      <trkpt lat="45.76736" lon="4.81196">
        <ele>243</ele>
        <time>2010-11-19T18:50:06Z</time>
      </trkpt>
      <trkpt lat="45.76734" lon="4.81197">
        <ele>243</ele>
        <time>2010-11-19T18:50:07Z</time>
      </trkpt>
      <trkpt lat="45.76733" lon="4.81199">
        <ele>243</ele>
        <time>2010-11-19T18:50:08Z</time>
      </trkpt>
      <trkpt lat="45.76733" lon="4.81203">
        <ele>242</ele>
        <time>2010-11-19T18:50:09Z</time>
      </trkpt>
      <trkpt lat="45.76734" lon="4.81205">
        <ele>243</ele>
        <time>2010-11-19T18:50:10Z</time>
      </trkpt>
      <trkpt lat="45.76733" lon="4.81213">
        <ele>242</ele>
        <time>2010-11-19T18:50:11Z</time>
      </trkpt>
      <trkpt lat="45.76732" lon="4.81219">
        <ele>242</ele>
        <time>2010-11-19T18:50:12Z</time>
      </trkpt>
      <trkpt lat="45.76731" lon="4.81225">
        <ele>243</ele>
        <time>2010-11-19T18:50:13Z</time>
      </trkpt>
      <trkpt lat="45.76732" lon="4.8123">
        <ele>241</ele>
        <time>2010-11-19T18:50:14Z</time>
      </trkpt>
      <trkpt lat="45.76732" lon="4.81236">
        <ele>239</ele>
        <time>2010-11-19T18:50:15Z</time>
      </trkpt>
      <trkpt lat="45.76733" lon="4.81241">
        <ele>239</ele>
        <time>2010-11-19T18:50:16Z</time>
      </trkpt>
      <trkpt lat="45.76734" lon="4.81246">
        <ele>238</ele>
        <time>2010-11-19T18:50:17Z</time>
      </trkpt>
      <trkpt lat="45.76736" lon="4.81249">
        <ele>238</ele>
        <time>2010-11-19T18:50:18Z</time>
      </trkpt>
      <trkpt lat="45.76739" lon="4.81251">
        <ele>237</ele>
        <time>2010-11-19T18:50:19Z</time>
      </trkpt>
      <trkpt lat="45.76741" lon="4.81253">
        <ele>237</ele>
        <time>2010-11-19T18:50:20Z</time>
      </trkpt>
      <trkpt lat="45.76741" lon="4.81259">
        <ele>239</ele>
        <time>2010-11-19T18:50:21Z</time>
      </trkpt>
      <trkpt lat="45.76741" lon="4.81263">
        <ele>239</ele>
        <time>2010-11-19T18:50:23Z</time>
      </trkpt>
      <trkpt lat="45.76741" lon="4.81263">
        <ele>239</ele>
        <time>2010-11-19T18:50:23Z</time>
      </trkpt>
      <trkpt lat="45.76744" lon="4.81268">
        <ele>239.97299194336</ele>
        <time>2010-11-19T18:50:24Z</time>
      </trkpt>
      <trkpt lat="45.76747" lon="4.81271">
        <ele>240</ele>
        <time>2010-11-19T18:50:25Z</time>
      </trkpt>
      <trkpt lat="45.76748" lon="4.81273">
        <ele>240</ele>
        <time>2010-11-19T18:50:26Z</time>
      </trkpt>
      <trkpt lat="45.7675" lon="4.81275">
        <ele>240</ele>
        <time>2010-11-19T18:50:27Z</time>
      </trkpt>
      <trkpt lat="45.76751" lon="4.81277">
        <ele>240</ele>
        <time>2010-11-19T18:50:28Z</time>
      </trkpt>
      <trkpt lat="45.76755" lon="4.81277">
        <ele>239</ele>
        <time>2010-11-19T18:50:29Z</time>
      </trkpt>
      <trkpt lat="45.76757" lon="4.81281">
        <ele>240</ele>
        <time>2010-11-19T18:50:30Z</time>
      </trkpt>
      <trkpt lat="45.76759" lon="4.81283">
        <ele>239</ele>
        <time>2010-11-19T18:50:31Z</time>
      </trkpt>
      <trkpt lat="45.76761" lon="4.81285">
        <ele>239</ele>
        <time>2010-11-19T18:50:32Z</time>
      </trkpt>
      <trkpt lat="45.76764" lon="4.81287">
        <ele>239</ele>
        <time>2010-11-19T18:50:33Z</time>
      </trkpt>
      <trkpt lat="45.76767" lon="4.8129">
        <ele>239</ele>
        <time>2010-11-19T18:50:34Z</time>
      </trkpt>
      <trkpt lat="45.7677" lon="4.81291">
        <ele>239</ele>
        <time>2010-11-19T18:50:35Z</time>
      </trkpt>
      <trkpt lat="45.76773" lon="4.813">
        <ele>234.06129455566</ele>
        <time>2010-11-19T18:50:36Z</time>
      </trkpt>
      <trkpt lat="45.76775" lon="4.81305">
        <ele>233</ele>
        <time>2010-11-19T18:50:37Z</time>
      </trkpt>
      <trkpt lat="45.76777" lon="4.81307">
        <ele>231</ele>
        <time>2010-11-19T18:50:38Z</time>
      </trkpt>
      <trkpt lat="45.76779" lon="4.8131">
        <ele>230</ele>
        <time>2010-11-19T18:50:39Z</time>
      </trkpt>
      <trkpt lat="45.76781" lon="4.81312">
        <ele>229</ele>
        <time>2010-11-19T18:50:40Z</time>
      </trkpt>
      <trkpt lat="45.76784" lon="4.81314">
        <ele>229</ele>
        <time>2010-11-19T18:50:41Z</time>
      </trkpt>
      <trkpt lat="45.76786" lon="4.81315">
        <ele>229</ele>
        <time>2010-11-19T18:50:42Z</time>
      </trkpt>
      <trkpt lat="45.76791" lon="4.81315">
        <ele>229</ele>
        <time>2010-11-19T18:50:43Z</time>
      </trkpt>
      <trkpt lat="45.76794" lon="4.81315">
        <ele>229</ele>
        <time>2010-11-19T18:50:45Z</time>
      </trkpt>
      <trkpt lat="45.76795" lon="4.81315">
        <ele>229</ele>
        <time>2010-11-19T18:50:45Z</time>
      </trkpt>
      <trkpt lat="45.768" lon="4.81314">
        <ele>230</ele>
        <time>2010-11-19T18:50:46Z</time>
      </trkpt>
      <trkpt lat="45.76802" lon="4.81314">
        <ele>230</ele>
        <time>2010-11-19T18:50:47Z</time>
      </trkpt>
      <trkpt lat="45.76806" lon="4.81314">
        <ele>230</ele>
        <time>2010-11-19T18:50:48Z</time>
      </trkpt>
      <trkpt lat="45.76809" lon="4.81315">
        <ele>229</ele>
        <time>2010-11-19T18:50:49Z</time>
      </trkpt>
      <trkpt lat="45.76811" lon="4.81314">
        <ele>229</ele>
        <time>2010-11-19T18:50:50Z</time>
      </trkpt>
      <trkpt lat="45.76816" lon="4.81312">
        <ele>229</ele>
        <time>2010-11-19T18:50:51Z</time>
      </trkpt>
      <trkpt lat="45.76819" lon="4.81311">
        <ele>228</ele>
        <time>2010-11-19T18:50:52Z</time>
      </trkpt>
      <trkpt lat="45.76821" lon="4.81311">
        <ele>228</ele>
        <time>2010-11-19T18:50:53Z</time>
      </trkpt>
      <trkpt lat="45.76824" lon="4.81308">
        <ele>226</ele>
        <time>2010-11-19T18:50:54Z</time>
      </trkpt>
      <trkpt lat="45.76827" lon="4.81306">
        <ele>225</ele>
        <time>2010-11-19T18:50:55Z</time>
      </trkpt>
      <trkpt lat="45.76829" lon="4.81304">
        <ele>225</ele>
        <time>2010-11-19T18:50:56Z</time>
      </trkpt>
      <trkpt lat="45.76831" lon="4.81302">
        <ele>225</ele>
        <time>2010-11-19T18:50:57Z</time>
      </trkpt>
      <trkpt lat="45.76832" lon="4.813">
        <ele>225</ele>
        <time>2010-11-19T18:50:58Z</time>
      </trkpt>
      <trkpt lat="45.76834" lon="4.81298">
        <ele>225</ele>
        <time>2010-11-19T18:50:59Z</time>
      </trkpt>
      <trkpt lat="45.76837" lon="4.81298">
        <ele>225</ele>
        <time>2010-11-19T18:51:00Z</time>
      </trkpt>
      <trkpt lat="45.76839" lon="4.81297">
        <ele>225</ele>
        <time>2010-11-19T18:51:01Z</time>
      </trkpt>
      <trkpt lat="45.76842" lon="4.81296">
        <ele>224</ele>
        <time>2010-11-19T18:51:02Z</time>
      </trkpt>
      <trkpt lat="45.76844" lon="4.81295">
        <ele>224</ele>
        <time>2010-11-19T18:51:03Z</time>
      </trkpt>
      <trkpt lat="45.76846" lon="4.81294">
        <ele>224</ele>
        <time>2010-11-19T18:51:04Z</time>
      </trkpt>
      <trkpt lat="45.76849" lon="4.81292">
        <ele>224</ele>
        <time>2010-11-19T18:51:05Z</time>
      </trkpt>
      <trkpt lat="45.76851" lon="4.81291">
        <ele>224</ele>
        <time>2010-11-19T18:51:07Z</time>
      </trkpt>
      <trkpt lat="45.76853" lon="4.81291">
        <ele>224</ele>
        <time>2010-11-19T18:51:08Z</time>
      </trkpt>
      <trkpt lat="45.76856" lon="4.8129">
        <ele>225</ele>
        <time>2010-11-19T18:51:08Z</time>
      </trkpt>
      <trkpt lat="45.76858" lon="4.8129">
        <ele>225</ele>
        <time>2010-11-19T18:51:09Z</time>
      </trkpt>
      <trkpt lat="45.76861" lon="4.81289">
        <ele>225</ele>
        <time>2010-11-19T18:51:10Z</time>
      </trkpt>
      <trkpt lat="45.76863" lon="4.81288">
        <ele>225</ele>
        <time>2010-11-19T18:51:11Z</time>
      </trkpt>
      <trkpt lat="45.76866" lon="4.81286">
        <ele>225</ele>
        <time>2010-11-19T18:51:12Z</time>
      </trkpt>
      <trkpt lat="45.76869" lon="4.81286">
        <ele>225</ele>
        <time>2010-11-19T18:51:13Z</time>
      </trkpt>
      <trkpt lat="45.76872" lon="4.81285">
        <ele>224</ele>
        <time>2010-11-19T18:51:14Z</time>
      </trkpt>
      <trkpt lat="45.76874" lon="4.81285">
        <ele>224</ele>
        <time>2010-11-19T18:51:15Z</time>
      </trkpt>
      <trkpt lat="45.76877" lon="4.81285">
        <ele>223</ele>
        <time>2010-11-19T18:51:16Z</time>
      </trkpt>
      <trkpt lat="45.7688" lon="4.81284">
        <ele>222</ele>
        <time>2010-11-19T18:51:17Z</time>
      </trkpt>
      <trkpt lat="45.76882" lon="4.81283">
        <ele>222</ele>
        <time>2010-11-19T18:51:18Z</time>
      </trkpt>
      <trkpt lat="45.76884" lon="4.81283">
        <ele>222</ele>
        <time>2010-11-19T18:51:19Z</time>
      </trkpt>
      <trkpt lat="45.76887" lon="4.81282">
        <ele>222</ele>
        <time>2010-11-19T18:51:20Z</time>
      </trkpt>
      <trkpt lat="45.76889" lon="4.81281">
        <ele>222</ele>
        <time>2010-11-19T18:51:21Z</time>
      </trkpt>
      <trkpt lat="45.76892" lon="4.81281">
        <ele>222</ele>
        <time>2010-11-19T18:51:22Z</time>
      </trkpt>
      <trkpt lat="45.76895" lon="4.81281">
        <ele>221</ele>
        <time>2010-11-19T18:51:23Z</time>
      </trkpt>
      <trkpt lat="45.76897" lon="4.8128">
        <ele>221</ele>
        <time>2010-11-19T18:51:24Z</time>
      </trkpt>
      <trkpt lat="45.769" lon="4.81279">
        <ele>221</ele>
        <time>2010-11-19T18:51:25Z</time>
      </trkpt>
      <trkpt lat="45.76903" lon="4.81279">
        <ele>221</ele>
        <time>2010-11-19T18:51:26Z</time>
      </trkpt>
      <trkpt lat="45.76906" lon="4.81278">
        <ele>221</ele>
        <time>2010-11-19T18:51:27Z</time>
      </trkpt>
      <trkpt lat="45.76909" lon="4.81278">
        <ele>221</ele>
        <time>2010-11-19T18:51:29Z</time>
      </trkpt>
      <trkpt lat="45.76909" lon="4.81278">
        <ele>221</ele>
        <time>2010-11-19T18:51:29Z</time>
      </trkpt>
      <trkpt lat="45.76914" lon="4.81277">
        <ele>221</ele>
        <time>2010-11-19T18:51:30Z</time>
      </trkpt>
      <trkpt lat="45.76918" lon="4.81276">
        <ele>220</ele>
        <time>2010-11-19T18:51:31Z</time>
      </trkpt>
      <trkpt lat="45.7692" lon="4.81276">
        <ele>220</ele>
        <time>2010-11-19T18:51:32Z</time>
      </trkpt>
      <trkpt lat="45.76923" lon="4.81276">
        <ele>220</ele>
        <time>2010-11-19T18:51:33Z</time>
      </trkpt>
      <trkpt lat="45.76925" lon="4.81275">
        <ele>220</ele>
        <time>2010-11-19T18:51:34Z</time>
      </trkpt>
      <trkpt lat="45.76928" lon="4.81275">
        <ele>220</ele>
        <time>2010-11-19T18:51:35Z</time>
      </trkpt>
      <trkpt lat="45.76931" lon="4.81275">
        <ele>221</ele>
        <time>2010-11-19T18:51:36Z</time>
      </trkpt>
      <trkpt lat="45.76933" lon="4.81274">
        <ele>221</ele>
        <time>2010-11-19T18:51:37Z</time>
      </trkpt>
      <trkpt lat="45.76935" lon="4.81274">
        <ele>221</ele>
        <time>2010-11-19T18:51:38Z</time>
      </trkpt>
      <trkpt lat="45.76938" lon="4.81273">
        <ele>221</ele>
        <time>2010-11-19T18:51:39Z</time>
      </trkpt>
      <trkpt lat="45.76941" lon="4.81272">
        <ele>220</ele>
        <time>2010-11-19T18:51:40Z</time>
      </trkpt>
      <trkpt lat="45.76943" lon="4.81271">
        <ele>221</ele>
        <time>2010-11-19T18:51:41Z</time>
      </trkpt>
      <trkpt lat="45.76946" lon="4.8127">
        <ele>220</ele>
        <time>2010-11-19T18:51:42Z</time>
      </trkpt>
      <trkpt lat="45.76949" lon="4.8127">
        <ele>220</ele>
        <time>2010-11-19T18:51:43Z</time>
      </trkpt>
      <trkpt lat="45.76952" lon="4.81269">
        <ele>220</ele>
        <time>2010-11-19T18:51:44Z</time>
      </trkpt>
      <trkpt lat="45.76955" lon="4.8127">
        <ele>220</ele>
        <time>2010-11-19T18:51:45Z</time>
      </trkpt>
      <trkpt lat="45.76957" lon="4.81269">
        <ele>221</ele>
        <time>2010-11-19T18:51:46Z</time>
      </trkpt>
      <trkpt lat="45.7696" lon="4.81269">
        <ele>221</ele>
        <time>2010-11-19T18:51:47Z</time>
      </trkpt>
      <trkpt lat="45.76963" lon="4.8127">
        <ele>221</ele>
        <time>2010-11-19T18:51:48Z</time>
      </trkpt>
      <trkpt lat="45.76966" lon="4.8127">
        <ele>222</ele>
        <time>2010-11-19T18:51:49Z</time>
      </trkpt>
      <trkpt lat="45.76969" lon="4.81271">
        <ele>221</ele>
        <time>2010-11-19T18:51:51Z</time>
      </trkpt>
      <trkpt lat="45.76969" lon="4.81271">
        <ele>221</ele>
        <time>2010-11-19T18:51:51Z</time>
      </trkpt>
      <trkpt lat="45.76975" lon="4.8127">
        <ele>221</ele>
        <time>2010-11-19T18:51:52Z</time>
      </trkpt>
      <trkpt lat="45.76978" lon="4.8127">
        <ele>221</ele>
        <time>2010-11-19T18:51:53Z</time>
      </trkpt>
      <trkpt lat="45.76981" lon="4.81271">
        <ele>221</ele>
        <time>2010-11-19T18:51:54Z</time>
      </trkpt>
      <trkpt lat="45.76983" lon="4.81272">
        <ele>222</ele>
        <time>2010-11-19T18:51:55Z</time>
      </trkpt>
      <trkpt lat="45.76986" lon="4.81272">
        <ele>222</ele>
        <time>2010-11-19T18:51:56Z</time>
      </trkpt>
      <trkpt lat="45.76989" lon="4.81272">
        <ele>221</ele>
        <time>2010-11-19T18:51:57Z</time>
      </trkpt>
      <trkpt lat="45.76992" lon="4.81274">
        <ele>221</ele>
        <time>2010-11-19T18:51:58Z</time>
      </trkpt>
      <trkpt lat="45.76994" lon="4.81276">
        <ele>221</ele>
        <time>2010-11-19T18:51:59Z</time>
      </trkpt>
      <trkpt lat="45.76996" lon="4.81281">
        <ele>222</ele>
        <time>2010-11-19T18:52:00Z</time>
      </trkpt>
      <trkpt lat="45.76998" lon="4.81282">
        <ele>222</ele>
        <time>2010-11-19T18:52:01Z</time>
      </trkpt>
      <trkpt lat="45.77" lon="4.81284">
        <ele>222</ele>
        <time>2010-11-19T18:52:02Z</time>
      </trkpt>
      <trkpt lat="45.77001" lon="4.81286">
        <ele>222</ele>
        <time>2010-11-19T18:52:03Z</time>
      </trkpt>
      <trkpt lat="45.77001" lon="4.81291">
        <ele>223</ele>
        <time>2010-11-19T18:52:04Z</time>
      </trkpt>
      <trkpt lat="45.77001" lon="4.81296">
        <ele>224</ele>
        <time>2010-11-19T18:52:05Z</time>
      </trkpt>
      <trkpt lat="45.77001" lon="4.81299">
        <ele>224</ele>
        <time>2010-11-19T18:52:06Z</time>
      </trkpt>
      <trkpt lat="45.77" lon="4.81301">
        <ele>224</ele>
        <time>2010-11-19T18:52:07Z</time>
      </trkpt>
      <trkpt lat="45.77001" lon="4.81304">
        <ele>224</ele>
        <time>2010-11-19T18:52:08Z</time>
      </trkpt>
      <trkpt lat="45.77002" lon="4.81308">
        <ele>224</ele>
        <time>2010-11-19T18:52:09Z</time>
      </trkpt>
      <trkpt lat="45.77004" lon="4.81312">
        <ele>224</ele>
        <time>2010-11-19T18:52:10Z</time>
      </trkpt>
      <trkpt lat="45.77005" lon="4.81316">
        <ele>223</ele>
        <time>2010-11-19T18:52:11Z</time>
      </trkpt>
      <trkpt lat="45.77005" lon="4.81321">
        <ele>223</ele>
        <time>2010-11-19T18:52:13Z</time>
      </trkpt>
      <trkpt lat="45.77005" lon="4.81321">
        <ele>223</ele>
        <time>2010-11-19T18:52:13Z</time>
      </trkpt>
      <trkpt lat="45.77005" lon="4.81327">
        <ele>223</ele>
        <time>2010-11-19T18:52:14Z</time>
      </trkpt>
      <trkpt lat="45.77006" lon="4.81334">
        <ele>223</ele>
        <time>2010-11-19T18:52:15Z</time>
      </trkpt>
      <trkpt lat="45.77006" lon="4.81338">
        <ele>223</ele>
        <time>2010-11-19T18:52:16Z</time>
      </trkpt>
      <trkpt lat="45.77006" lon="4.81343">
        <ele>224</ele>
        <time>2010-11-19T18:52:17Z</time>
      </trkpt>
      <trkpt lat="45.77007" lon="4.81347">
        <ele>224</ele>
        <time>2010-11-19T18:52:18Z</time>
      </trkpt>
      <trkpt lat="45.77007" lon="4.81351">
        <ele>224</ele>
        <time>2010-11-19T18:52:19Z</time>
      </trkpt>
      <trkpt lat="45.77007" lon="4.81356">
        <ele>225</ele>
        <time>2010-11-19T18:52:20Z</time>
      </trkpt>
      <trkpt lat="45.77008" lon="4.8136">
        <ele>225</ele>
        <time>2010-11-19T18:52:21Z</time>
      </trkpt>
      <trkpt lat="45.77009" lon="4.81364">
        <ele>225</ele>
        <time>2010-11-19T18:52:22Z</time>
      </trkpt>
      <trkpt lat="45.77011" lon="4.81367">
        <ele>224</ele>
        <time>2010-11-19T18:52:23Z</time>
      </trkpt>
      <trkpt lat="45.77012" lon="4.8137">
        <ele>224</ele>
        <time>2010-11-19T18:52:24Z</time>
      </trkpt>
      <trkpt lat="45.77012" lon="4.81373">
        <ele>224</ele>
        <time>2010-11-19T18:52:25Z</time>
      </trkpt>
      <trkpt lat="45.77013" lon="4.81377">
        <ele>224</ele>
        <time>2010-11-19T18:52:26Z</time>
      </trkpt>
      <trkpt lat="45.77014" lon="4.81382">
        <ele>224</ele>
        <time>2010-11-19T18:52:27Z</time>
      </trkpt>
      <trkpt lat="45.77014" lon="4.81387">
        <ele>225</ele>
        <time>2010-11-19T18:52:28Z</time>
      </trkpt>
      <trkpt lat="45.77014" lon="4.81392">
        <ele>226</ele>
        <time>2010-11-19T18:52:29Z</time>
      </trkpt>
      <trkpt lat="45.77013" lon="4.81396">
        <ele>226</ele>
        <time>2010-11-19T18:52:30Z</time>
      </trkpt>
      <trkpt lat="45.77013" lon="4.814">
        <ele>226</ele>
        <time>2010-11-19T18:52:31Z</time>
      </trkpt>
      <trkpt lat="45.77013" lon="4.81404">
        <ele>226</ele>
        <time>2010-11-19T18:52:32Z</time>
      </trkpt>
      <trkpt lat="45.77012" lon="4.81407">
        <ele>226</ele>
        <time>2010-11-19T18:52:33Z</time>
      </trkpt>
      <trkpt lat="45.77009" lon="4.81409">
        <ele>225</ele>
        <time>2010-11-19T18:52:35Z</time>
      </trkpt>
      <trkpt lat="45.77009" lon="4.81409">
        <ele>225.41242980957</ele>
        <time>2010-11-19T18:52:35Z</time>
      </trkpt>
      <trkpt lat="45.77003" lon="4.81413">
        <ele>227</ele>
        <time>2010-11-19T18:52:36Z</time>
      </trkpt>
      <trkpt lat="45.77001" lon="4.81414">
        <ele>228</ele>
        <time>2010-11-19T18:52:37Z</time>
      </trkpt>
      <trkpt lat="45.76998" lon="4.81416">
        <ele>228</ele>
        <time>2010-11-19T18:52:38Z</time>
      </trkpt>
      <trkpt lat="45.76995" lon="4.81418">
        <ele>228</ele>
        <time>2010-11-19T18:52:39Z</time>
      </trkpt>
      <trkpt lat="45.76993" lon="4.8142">
        <ele>228</ele>
        <time>2010-11-19T18:52:40Z</time>
      </trkpt>
      <trkpt lat="45.76991" lon="4.81421">
        <ele>228</ele>
        <time>2010-11-19T18:52:41Z</time>
      </trkpt>
      <trkpt lat="45.76988" lon="4.81423">
        <ele>228</ele>
        <time>2010-11-19T18:52:42Z</time>
      </trkpt>
      <trkpt lat="45.76986" lon="4.81425">
        <ele>228</ele>
        <time>2010-11-19T18:52:43Z</time>
      </trkpt>
      <trkpt lat="45.76984" lon="4.81426">
        <ele>228</ele>
        <time>2010-11-19T18:52:44Z</time>
      </trkpt>
      <trkpt lat="45.76981" lon="4.81428">
        <ele>228</ele>
        <time>2010-11-19T18:52:45Z</time>
      </trkpt>
      <trkpt lat="45.76979" lon="4.81429">
        <ele>229</ele>
        <time>2010-11-19T18:52:46Z</time>
      </trkpt>
      <trkpt lat="45.76976" lon="4.81429">
        <ele>229</ele>
        <time>2010-11-19T18:52:47Z</time>
      </trkpt>
      <trkpt lat="45.76973" lon="4.81429">
        <ele>228</ele>
        <time>2010-11-19T18:52:48Z</time>
      </trkpt>
      <trkpt lat="45.76971" lon="4.8143">
        <ele>228</ele>
        <time>2010-11-19T18:52:49Z</time>
      </trkpt>
      <trkpt lat="45.76969" lon="4.81432">
        <ele>228</ele>
        <time>2010-11-19T18:52:50Z</time>
      </trkpt>
      <trkpt lat="45.76966" lon="4.81433">
        <ele>228</ele>
        <time>2010-11-19T18:52:51Z</time>
      </trkpt>
      <trkpt lat="45.76963" lon="4.81435">
        <ele>228</ele>
        <time>2010-11-19T18:52:52Z</time>
      </trkpt>
      <trkpt lat="45.76961" lon="4.81437">
        <ele>227</ele>
        <time>2010-11-19T18:52:53Z</time>
      </trkpt>
      <trkpt lat="45.76958" lon="4.81439">
        <ele>227</ele>
        <time>2010-11-19T18:52:54Z</time>
      </trkpt>
      <trkpt lat="45.76956" lon="4.81441">
        <ele>228</ele>
        <time>2010-11-19T18:52:55Z</time>
      </trkpt>
      <trkpt lat="45.76954" lon="4.81444">
        <ele>228</ele>
        <time>2010-11-19T18:52:57Z</time>
      </trkpt>
      <trkpt lat="45.76954" lon="4.81444">
        <ele>228</ele>
        <time>2010-11-19T18:52:57Z</time>
      </trkpt>
      <trkpt lat="45.76952" lon="4.81445">
        <ele>228</ele>
        <time>2010-11-19T18:52:58Z</time>
      </trkpt>
      <trkpt lat="45.76951" lon="4.81446">
        <ele>227</ele>
        <time>2010-11-19T18:52:59Z</time>
      </trkpt>
      <trkpt lat="45.7695" lon="4.81447">
        <ele>228</ele>
        <time>2010-11-19T18:53:00Z</time>
      </trkpt>
      <trkpt lat="45.76949" lon="4.81448">
        <ele>228</ele>
        <time>2010-11-19T18:53:01Z</time>
      </trkpt>
      <trkpt lat="45.76949" lon="4.81448">
        <ele>227</ele>
        <time>2010-11-19T18:53:02Z</time>
      </trkpt>
      <trkpt lat="45.76948" lon="4.81449">
        <ele>227</ele>
        <time>2010-11-19T18:53:03Z</time>
      </trkpt>
      <trkpt lat="45.76948" lon="4.81449">
        <ele>227</ele>
        <time>2010-11-19T18:53:04Z</time>
      </trkpt>
      <trkpt lat="45.76948" lon="4.81449">
        <ele>227</ele>
        <time>2010-11-19T18:53:05Z</time>
      </trkpt>
      <trkpt lat="45.76948" lon="4.81449">
        <ele>227</ele>
        <time>2010-11-19T18:53:06Z</time>
      </trkpt>
      <trkpt lat="45.76949" lon="4.81451">
        <ele>227</ele>
        <time>2010-11-19T18:53:07Z</time>
      </trkpt>
      <trkpt lat="45.76949" lon="4.81451">
        <ele>226</ele>
        <time>2010-11-19T18:53:08Z</time>
      </trkpt>
      <trkpt lat="45.76949" lon="4.81451">
        <ele>226</ele>
        <time>2010-11-19T18:53:09Z</time>
      </trkpt>
      <trkpt lat="45.76949" lon="4.81452">
        <ele>225</ele>
        <time>2010-11-19T18:53:10Z</time>
      </trkpt>
      <trkpt lat="45.76949" lon="4.81453">
        <ele>225</ele>
        <time>2010-11-19T18:53:11Z</time>
      </trkpt>
      <trkpt lat="45.76948" lon="4.81454">
        <ele>225</ele>
        <time>2010-11-19T18:53:12Z</time>
      </trkpt>
      <trkpt lat="45.76948" lon="4.81456">
        <ele>225</ele>
        <time>2010-11-19T18:53:13Z</time>
      </trkpt>
      <trkpt lat="45.76946" lon="4.81458">
        <ele>224</ele>
        <time>2010-11-19T18:53:14Z</time>
      </trkpt>
      <trkpt lat="45.76942" lon="4.8146">
        <ele>224</ele>
        <time>2010-11-19T18:53:15Z</time>
      </trkpt>
      <trkpt lat="45.7694" lon="4.81461">
        <ele>225</ele>
        <time>2010-11-19T18:53:16Z</time>
      </trkpt>
      <trkpt lat="45.76938" lon="4.81464">
        <ele>225</ele>
        <time>2010-11-19T18:53:17Z</time>
      </trkpt>
      <trkpt lat="45.76936" lon="4.81466">
        <ele>225</ele>
        <time>2010-11-19T18:53:19Z</time>
      </trkpt>
      <trkpt lat="45.76936" lon="4.81467">
        <ele>225</ele>
        <time>2010-11-19T18:53:19Z</time>
      </trkpt>
      <trkpt lat="45.76933" lon="4.81472">
        <ele>225</ele>
        <time>2010-11-19T18:53:20Z</time>
      </trkpt>
      <trkpt lat="45.76931" lon="4.81473">
        <ele>225</ele>
        <time>2010-11-19T18:53:21Z</time>
      </trkpt>
      <trkpt lat="45.76928" lon="4.81474">
        <ele>225</ele>
        <time>2010-11-19T18:53:22Z</time>
      </trkpt>
      <trkpt lat="45.76926" lon="4.81476">
        <ele>224</ele>
        <time>2010-11-19T18:53:23Z</time>
      </trkpt>
      <trkpt lat="45.76924" lon="4.81479">
        <ele>224</ele>
        <time>2010-11-19T18:53:24Z</time>
      </trkpt>
      <trkpt lat="45.76921" lon="4.8148">
        <ele>224</ele>
        <time>2010-11-19T18:53:25Z</time>
      </trkpt>
      <trkpt lat="45.76918" lon="4.81482">
        <ele>224</ele>
        <time>2010-11-19T18:53:26Z</time>
      </trkpt>
      <trkpt lat="45.76916" lon="4.81484">
        <ele>224</ele>
        <time>2010-11-19T18:53:27Z</time>
      </trkpt>
      <trkpt lat="45.76913" lon="4.81485">
        <ele>223</ele>
        <time>2010-11-19T18:53:28Z</time>
      </trkpt>
      <trkpt lat="45.76911" lon="4.81487">
        <ele>223</ele>
        <time>2010-11-19T18:53:29Z</time>
      </trkpt>
      <trkpt lat="45.76909" lon="4.81488">
        <ele>223</ele>
        <time>2010-11-19T18:53:30Z</time>
      </trkpt>
      <trkpt lat="45.76906" lon="4.81489">
        <ele>223</ele>
        <time>2010-11-19T18:53:31Z</time>
      </trkpt>
      <trkpt lat="45.76904" lon="4.81489">
        <ele>223</ele>
        <time>2010-11-19T18:53:32Z</time>
      </trkpt>
      <trkpt lat="45.76901" lon="4.8149">
        <ele>223</ele>
        <time>2010-11-19T18:53:33Z</time>
      </trkpt>
      <trkpt lat="45.76899" lon="4.81491">
        <ele>224</ele>
        <time>2010-11-19T18:53:34Z</time>
      </trkpt>
      <trkpt lat="45.76897" lon="4.81492">
        <ele>223</ele>
        <time>2010-11-19T18:53:35Z</time>
      </trkpt>
      <trkpt lat="45.76895" lon="4.81493">
        <ele>223</ele>
        <time>2010-11-19T18:53:36Z</time>
      </trkpt>
      <trkpt lat="45.76892" lon="4.81494">
        <ele>223</ele>
        <time>2010-11-19T18:53:37Z</time>
      </trkpt>
      <trkpt lat="45.7689" lon="4.81495">
        <ele>223</ele>
        <time>2010-11-19T18:53:38Z</time>
      </trkpt>
      <trkpt lat="45.76888" lon="4.81497">
        <ele>223</ele>
        <time>2010-11-19T18:53:39Z</time>
      </trkpt>
      <trkpt lat="45.76886" lon="4.81498">
        <ele>223</ele>
        <time>2010-11-19T18:53:41Z</time>
      </trkpt>
      <trkpt lat="45.76885" lon="4.81498">
        <ele>223.05735778809</ele>
        <time>2010-11-19T18:53:41Z</time>
      </trkpt>
      <trkpt lat="45.7688" lon="4.815">
        <ele>223.96434020996</ele>
        <time>2010-11-19T18:53:42Z</time>
      </trkpt>
      <trkpt lat="45.76877" lon="4.81502">
        <ele>224</ele>
        <time>2010-11-19T18:53:43Z</time>
      </trkpt>
      <trkpt lat="45.76875" lon="4.81504">
        <ele>224</ele>
        <time>2010-11-19T18:53:44Z</time>
      </trkpt>
      <trkpt lat="45.76873" lon="4.81505">
        <ele>223</ele>
        <time>2010-11-19T18:53:45Z</time>
      </trkpt>
      <trkpt lat="45.76871" lon="4.81507">
        <ele>223</ele>
        <time>2010-11-19T18:53:46Z</time>
      </trkpt>
      <trkpt lat="45.76869" lon="4.8151">
        <ele>223</ele>
        <time>2010-11-19T18:53:47Z</time>
      </trkpt>
      <trkpt lat="45.76867" lon="4.81512">
        <ele>222</ele>
        <time>2010-11-19T18:53:48Z</time>
      </trkpt>
      <trkpt lat="45.76865" lon="4.81516">
        <ele>222</ele>
        <time>2010-11-19T18:53:49Z</time>
      </trkpt>
      <trkpt lat="45.76863" lon="4.81518">
        <ele>222</ele>
        <time>2010-11-19T18:53:50Z</time>
      </trkpt>
      <trkpt lat="45.76861" lon="4.8152">
        <ele>222</ele>
        <time>2010-11-19T18:53:51Z</time>
      </trkpt>
      <trkpt lat="45.76859" lon="4.81523">
        <ele>221</ele>
        <time>2010-11-19T18:53:52Z</time>
      </trkpt>
      <trkpt lat="45.76856" lon="4.81525">
        <ele>221</ele>
        <time>2010-11-19T18:53:53Z</time>
      </trkpt>
      <trkpt lat="45.76854" lon="4.81527">
        <ele>221</ele>
        <time>2010-11-19T18:53:54Z</time>
      </trkpt>
      <trkpt lat="45.76852" lon="4.81529">
        <ele>221</ele>
        <time>2010-11-19T18:53:55Z</time>
      </trkpt>
      <trkpt lat="45.7685" lon="4.81532">
        <ele>221</ele>
        <time>2010-11-19T18:53:56Z</time>
      </trkpt>
      <trkpt lat="45.76848" lon="4.81534">
        <ele>221</ele>
        <time>2010-11-19T18:53:57Z</time>
      </trkpt>
      <trkpt lat="45.76846" lon="4.81537">
        <ele>221</ele>
        <time>2010-11-19T18:53:58Z</time>
      </trkpt>
      <trkpt lat="45.76844" lon="4.8154">
        <ele>221</ele>
        <time>2010-11-19T18:53:59Z</time>
      </trkpt>
      <trkpt lat="45.76843" lon="4.81543">
        <ele>221</ele>
        <time>2010-11-19T18:54:00Z</time>
      </trkpt>
      <trkpt lat="45.76842" lon="4.81546">
        <ele>221</ele>
        <time>2010-11-19T18:54:01Z</time>
      </trkpt>
      <trkpt lat="45.76841" lon="4.81549">
        <ele>221</ele>
        <time>2010-11-19T18:54:03Z</time>
      </trkpt>
      <trkpt lat="45.76841" lon="4.81549">
        <ele>221.08766174316</ele>
        <time>2010-11-19T18:54:03Z</time>
      </trkpt>
      <trkpt lat="45.76843" lon="4.81553">
        <ele>222</ele>
        <time>2010-11-19T18:54:04Z</time>
      </trkpt>
      <trkpt lat="45.76844" lon="4.81556">
        <ele>222</ele>
        <time>2010-11-19T18:54:05Z</time>
      </trkpt>
      <trkpt lat="45.76846" lon="4.81559">
        <ele>222</ele>
        <time>2010-11-19T18:54:06Z</time>
      </trkpt>
      <trkpt lat="45.76847" lon="4.81562">
        <ele>223</ele>
        <time>2010-11-19T18:54:07Z</time>
      </trkpt>
      <trkpt lat="45.76849" lon="4.81565">
        <ele>223</ele>
        <time>2010-11-19T18:54:08Z</time>
      </trkpt>
      <trkpt lat="45.7685" lon="4.81568">
        <ele>222</ele>
        <time>2010-11-19T18:54:09Z</time>
      </trkpt>
      <trkpt lat="45.76851" lon="4.81571">
        <ele>222</ele>
        <time>2010-11-19T18:54:10Z</time>
      </trkpt>
      <trkpt lat="45.76852" lon="4.81575">
        <ele>222</ele>
        <time>2010-11-19T18:54:11Z</time>
      </trkpt>
      <trkpt lat="45.76853" lon="4.81577">
        <ele>222</ele>
        <time>2010-11-19T18:54:12Z</time>
      </trkpt>
      <trkpt lat="45.76856" lon="4.81578">
        <ele>223</ele>
        <time>2010-11-19T18:54:13Z</time>
      </trkpt>
      <trkpt lat="45.76859" lon="4.81579">
        <ele>223</ele>
        <time>2010-11-19T18:54:14Z</time>
      </trkpt>
      <trkpt lat="45.7686" lon="4.8158">
        <ele>223</ele>
        <time>2010-11-19T18:54:15Z</time>
      </trkpt>
      <trkpt lat="45.7686" lon="4.81583">
        <ele>223</ele>
        <time>2010-11-19T18:54:16Z</time>
      </trkpt>
      <trkpt lat="45.76861" lon="4.81585">
        <ele>223</ele>
        <time>2010-11-19T18:54:17Z</time>
      </trkpt>
      <trkpt lat="45.76862" lon="4.81587">
        <ele>224</ele>
        <time>2010-11-19T18:54:18Z</time>
      </trkpt>
      <trkpt lat="45.76861" lon="4.8159">
        <ele>224</ele>
        <time>2010-11-19T18:54:19Z</time>
      </trkpt>
      <trkpt lat="45.76861" lon="4.81592">
        <ele>224</ele>
        <time>2010-11-19T18:54:20Z</time>
      </trkpt>
      <trkpt lat="45.76861" lon="4.81597">
        <ele>224</ele>
        <time>2010-11-19T18:54:21Z</time>
      </trkpt>
      <trkpt lat="45.76859" lon="4.816">
        <ele>224</ele>
        <time>2010-11-19T18:54:22Z</time>
      </trkpt>
      <trkpt lat="45.76859" lon="4.81605">
        <ele>224</ele>
        <time>2010-11-19T18:54:23Z</time>
      </trkpt>
      <trkpt lat="45.76858" lon="4.81607">
        <ele>224</ele>
        <time>2010-11-19T18:54:25Z</time>
      </trkpt>
      <trkpt lat="45.76858" lon="4.81608">
        <ele>223.74258422852</ele>
        <time>2010-11-19T18:54:25Z</time>
      </trkpt>
      <trkpt lat="45.76859" lon="4.81612">
        <ele>223</ele>
        <time>2010-11-19T18:54:26Z</time>
      </trkpt>
      <trkpt lat="45.76858" lon="4.81613">
        <ele>223</ele>
        <time>2010-11-19T18:54:27Z</time>
      </trkpt>
      <trkpt lat="45.76857" lon="4.81616">
        <ele>223</ele>
        <time>2010-11-19T18:54:28Z</time>
      </trkpt>
      <trkpt lat="45.76854" lon="4.81621">
        <ele>224</ele>
        <time>2010-11-19T18:54:29Z</time>
      </trkpt>
      <trkpt lat="45.76859" lon="4.81623">
        <ele>224</ele>
        <time>2010-11-19T18:54:30Z</time>
      </trkpt>
      <trkpt lat="45.76863" lon="4.81624">
        <ele>224</ele>
        <time>2010-11-19T18:54:31Z</time>
      </trkpt>
      <trkpt lat="45.76864" lon="4.81625">
        <ele>223</ele>
        <time>2010-11-19T18:54:32Z</time>
      </trkpt>
      <trkpt lat="45.76866" lon="4.81625">
        <ele>223</ele>
        <time>2010-11-19T18:54:33Z</time>
      </trkpt>
      <trkpt lat="45.76868" lon="4.81626">
        <ele>223</ele>
        <time>2010-11-19T18:54:34Z</time>
      </trkpt>
      <trkpt lat="45.76871" lon="4.81627">
        <ele>223</ele>
        <time>2010-11-19T18:54:35Z</time>
      </trkpt>
      <trkpt lat="45.76874" lon="4.81626">
        <ele>223</ele>
        <time>2010-11-19T18:54:36Z</time>
      </trkpt>
      <trkpt lat="45.76874" lon="4.81629">
        <ele>224</ele>
        <time>2010-11-19T18:54:37Z</time>
      </trkpt>
      <trkpt lat="45.76875" lon="4.81629">
        <ele>225</ele>
        <time>2010-11-19T18:54:38Z</time>
      </trkpt>
      <trkpt lat="45.76877" lon="4.81629">
        <ele>225</ele>
        <time>2010-11-19T18:54:39Z</time>
      </trkpt>
      <trkpt lat="45.76878" lon="4.81628">
        <ele>226</ele>
        <time>2010-11-19T18:54:40Z</time>
      </trkpt>
      <trkpt lat="45.7688" lon="4.81627">
        <ele>226</ele>
        <time>2010-11-19T18:54:41Z</time>
      </trkpt>
      <trkpt lat="45.76881" lon="4.81625">
        <ele>226</ele>
        <time>2010-11-19T18:54:42Z</time>
      </trkpt>
      <trkpt lat="45.76883" lon="4.81623">
        <ele>226</ele>
        <time>2010-11-19T18:54:43Z</time>
      </trkpt>
      <trkpt lat="45.76886" lon="4.81622">
        <ele>226</ele>
        <time>2010-11-19T18:54:44Z</time>
      </trkpt>
      <trkpt lat="45.76888" lon="4.81621">
        <ele>226</ele>
        <time>2010-11-19T18:54:45Z</time>
      </trkpt>
      <trkpt lat="45.7689" lon="4.81619">
        <ele>226</ele>
        <time>2010-11-19T18:54:47Z</time>
      </trkpt>
      <trkpt lat="45.7689" lon="4.81619">
        <ele>226</ele>
        <time>2010-11-19T18:54:47Z</time>
      </trkpt>
      <trkpt lat="45.76893" lon="4.81617">
        <ele>226</ele>
        <time>2010-11-19T18:54:48Z</time>
      </trkpt>
      <trkpt lat="45.76896" lon="4.81613">
        <ele>226</ele>
        <time>2010-11-19T18:54:49Z</time>
      </trkpt>
      <trkpt lat="45.76899" lon="4.81611">
        <ele>226</ele>
        <time>2010-11-19T18:54:50Z</time>
      </trkpt>
      <trkpt lat="45.76901" lon="4.81609">
        <ele>226</ele>
        <time>2010-11-19T18:54:51Z</time>
      </trkpt>
      <trkpt lat="45.76903" lon="4.81607">
        <ele>226</ele>
        <time>2010-11-19T18:54:52Z</time>
      </trkpt>
      <trkpt lat="45.76904" lon="4.81605">
        <ele>225</ele>
        <time>2010-11-19T18:54:53Z</time>
      </trkpt>
      <trkpt lat="45.76905" lon="4.81604">
        <ele>226</ele>
        <time>2010-11-19T18:54:54Z</time>
      </trkpt>
      <trkpt lat="45.76907" lon="4.81601">
        <ele>226</ele>
        <time>2010-11-19T18:54:55Z</time>
      </trkpt>
      <trkpt lat="45.76909" lon="4.81599">
        <ele>225</ele>
        <time>2010-11-19T18:54:56Z</time>
      </trkpt>
      <trkpt lat="45.76909" lon="4.81595">
        <ele>225</ele>
        <time>2010-11-19T18:54:57Z</time>
      </trkpt>
      <trkpt lat="45.76912" lon="4.81597">
        <ele>226</ele>
        <time>2010-11-19T18:54:58Z</time>
      </trkpt>
      <trkpt lat="45.76914" lon="4.81595">
        <ele>226</ele>
        <time>2010-11-19T18:54:59Z</time>
      </trkpt>
      <trkpt lat="45.76914" lon="4.81591">
        <ele>227</ele>
        <time>2010-11-19T18:55:00Z</time>
      </trkpt>
      <trkpt lat="45.76917" lon="4.8159">
        <ele>228</ele>
        <time>2010-11-19T18:55:01Z</time>
      </trkpt>
      <trkpt lat="45.76918" lon="4.81585">
        <ele>228</ele>
        <time>2010-11-19T18:55:02Z</time>
      </trkpt>
      <trkpt lat="45.76919" lon="4.81582">
        <ele>229</ele>
        <time>2010-11-19T18:55:03Z</time>
      </trkpt>
      <trkpt lat="45.76921" lon="4.81579">
        <ele>229</ele>
        <time>2010-11-19T18:55:04Z</time>
      </trkpt>
      <trkpt lat="45.76921" lon="4.81575">
        <ele>229</ele>
        <time>2010-11-19T18:55:05Z</time>
      </trkpt>
      <trkpt lat="45.76922" lon="4.81572">
        <ele>229</ele>
        <time>2010-11-19T18:55:06Z</time>
      </trkpt>
      <trkpt lat="45.76923" lon="4.81569">
        <ele>228</ele>
        <time>2010-11-19T18:55:07Z</time>
      </trkpt>
      <trkpt lat="45.76924" lon="4.81563">
        <ele>230</ele>
        <time>2010-11-19T18:55:08Z</time>
      </trkpt>
      <trkpt lat="45.76927" lon="4.81561">
        <ele>230</ele>
        <time>2010-11-19T18:55:10Z</time>
      </trkpt>
      <trkpt lat="45.76927" lon="4.81561">
        <ele>230.15214538574</ele>
        <time>2010-11-19T18:55:10Z</time>
      </trkpt>
      <trkpt lat="45.76931" lon="4.81556">
        <ele>232</ele>
        <time>2010-11-19T18:55:11Z</time>
      </trkpt>
      <trkpt lat="45.76931" lon="4.81557">
        <ele>229</ele>
        <time>2010-11-19T18:55:12Z</time>
      </trkpt>
      <trkpt lat="45.76931" lon="4.81557">
        <ele>227</ele>
        <time>2010-11-19T18:55:13Z</time>
      </trkpt>
      <trkpt lat="45.76931" lon="4.81558">
        <ele>225</ele>
        <time>2010-11-19T18:55:14Z</time>
      </trkpt>
      <trkpt lat="45.76931" lon="4.81561">
        <ele>224</ele>
        <time>2010-11-19T18:55:15Z</time>
      </trkpt>
      <trkpt lat="45.76929" lon="4.81563">
        <ele>224</ele>
        <time>2010-11-19T18:55:16Z</time>
      </trkpt>
      <trkpt lat="45.76927" lon="4.81566">
        <ele>224</ele>
        <time>2010-11-19T18:55:17Z</time>
      </trkpt>
      <trkpt lat="45.76926" lon="4.81569">
        <ele>225</ele>
        <time>2010-11-19T18:55:18Z</time>
      </trkpt>
      <trkpt lat="45.76925" lon="4.81572">
        <ele>226</ele>
        <time>2010-11-19T18:55:19Z</time>
      </trkpt>
      <trkpt lat="45.76923" lon="4.81575">
        <ele>227</ele>
        <time>2010-11-19T18:55:20Z</time>
      </trkpt>
      <trkpt lat="45.76921" lon="4.81577">
        <ele>228</ele>
        <time>2010-11-19T18:55:21Z</time>
      </trkpt>
      <trkpt lat="45.7692" lon="4.8158">
        <ele>227</ele>
        <time>2010-11-19T18:55:22Z</time>
      </trkpt>
      <trkpt lat="45.76919" lon="4.81583">
        <ele>228</ele>
        <time>2010-11-19T18:55:23Z</time>
      </trkpt>
      <trkpt lat="45.76917" lon="4.81586">
        <ele>228</ele>
        <time>2010-11-19T18:55:24Z</time>
      </trkpt>
      <trkpt lat="45.76915" lon="4.81589">
        <ele>229</ele>
        <time>2010-11-19T18:55:25Z</time>
      </trkpt>
      <trkpt lat="45.76913" lon="4.81592">
        <ele>229</ele>
        <time>2010-11-19T18:55:26Z</time>
      </trkpt>
      <trkpt lat="45.76912" lon="4.81595">
        <ele>229</ele>
        <time>2010-11-19T18:55:27Z</time>
      </trkpt>
      <trkpt lat="45.76911" lon="4.81598">
        <ele>229</ele>
        <time>2010-11-19T18:55:28Z</time>
      </trkpt>
      <trkpt lat="45.7691" lon="4.81601">
        <ele>230</ele>
        <time>2010-11-19T18:55:29Z</time>
      </trkpt>
      <trkpt lat="45.76909" lon="4.81605">
        <ele>230</ele>
        <time>2010-11-19T18:55:30Z</time>
      </trkpt>
      <trkpt lat="45.76908" lon="4.81607">
        <ele>231</ele>
        <time>2010-11-19T18:55:32Z</time>
      </trkpt>
      <trkpt lat="45.76908" lon="4.81607">
        <ele>231</ele>
        <time>2010-11-19T18:55:32Z</time>
      </trkpt>
      <trkpt lat="45.76905" lon="4.81611">
        <ele>231</ele>
        <time>2010-11-19T18:55:33Z</time>
      </trkpt>
      <trkpt lat="45.76902" lon="4.81616">
        <ele>232</ele>
        <time>2010-11-19T18:55:34Z</time>
      </trkpt>
      <trkpt lat="45.76901" lon="4.81619">
        <ele>232</ele>
        <time>2010-11-19T18:55:35Z</time>
      </trkpt>
      <trkpt lat="45.76899" lon="4.81621">
        <ele>233</ele>
        <time>2010-11-19T18:55:36Z</time>
      </trkpt>
      <trkpt lat="45.76897" lon="4.81624">
        <ele>233</ele>
        <time>2010-11-19T18:55:37Z</time>
      </trkpt>
      <trkpt lat="45.76896" lon="4.81627">
        <ele>234</ele>
        <time>2010-11-19T18:55:38Z</time>
      </trkpt>
      <trkpt lat="45.76894" lon="4.8163">
        <ele>234</ele>
        <time>2010-11-19T18:55:39Z</time>
      </trkpt>
      <trkpt lat="45.76892" lon="4.81632">
        <ele>234</ele>
        <time>2010-11-19T18:55:40Z</time>
      </trkpt>
      <trkpt lat="45.7689" lon="4.81635">
        <ele>234</ele>
        <time>2010-11-19T18:55:41Z</time>
      </trkpt>
      <trkpt lat="45.76889" lon="4.81638">
        <ele>235</ele>
        <time>2010-11-19T18:55:42Z</time>
      </trkpt>
      <trkpt lat="45.76887" lon="4.81641">
        <ele>235</ele>
        <time>2010-11-19T18:55:43Z</time>
      </trkpt>
      <trkpt lat="45.76887" lon="4.81644">
        <ele>234</ele>
        <time>2010-11-19T18:55:44Z</time>
      </trkpt>
      <trkpt lat="45.76886" lon="4.81647">
        <ele>235</ele>
        <time>2010-11-19T18:55:45Z</time>
      </trkpt>
      <trkpt lat="45.76884" lon="4.81651">
        <ele>235</ele>
        <time>2010-11-19T18:55:46Z</time>
      </trkpt>
      <trkpt lat="45.76883" lon="4.81654">
        <ele>235</ele>
        <time>2010-11-19T18:55:47Z</time>
      </trkpt>
      <trkpt lat="45.76882" lon="4.81657">
        <ele>236</ele>
        <time>2010-11-19T18:55:48Z</time>
      </trkpt>
      <trkpt lat="45.7688" lon="4.8166">
        <ele>236</ele>
        <time>2010-11-19T18:55:49Z</time>
      </trkpt>
      <trkpt lat="45.76879" lon="4.81664">
        <ele>236</ele>
        <time>2010-11-19T18:55:50Z</time>
      </trkpt>
      <trkpt lat="45.76879" lon="4.81667">
        <ele>236</ele>
        <time>2010-11-19T18:55:51Z</time>
      </trkpt>
      <trkpt lat="45.76878" lon="4.81671">
        <ele>236</ele>
        <time>2010-11-19T18:55:52Z</time>
      </trkpt>
      <trkpt lat="45.76878" lon="4.81674">
        <ele>237</ele>
        <time>2010-11-19T18:55:53Z</time>
      </trkpt>
      <trkpt lat="45.76877" lon="4.81678">
        <ele>237</ele>
        <time>2010-11-19T18:55:55Z</time>
      </trkpt>
      <trkpt lat="45.76877" lon="4.81678">
        <ele>237</ele>
        <time>2010-11-19T18:55:55Z</time>
      </trkpt>
      <trkpt lat="45.76876" lon="4.81685">
        <ele>238</ele>
        <time>2010-11-19T18:55:56Z</time>
      </trkpt>
      <trkpt lat="45.76876" lon="4.81688">
        <ele>238</ele>
        <time>2010-11-19T18:55:57Z</time>
      </trkpt>
      <trkpt lat="45.76875" lon="4.81691">
        <ele>238</ele>
        <time>2010-11-19T18:55:58Z</time>
      </trkpt>
      <trkpt lat="45.76875" lon="4.81695">
        <ele>239</ele>
        <time>2010-11-19T18:55:59Z</time>
      </trkpt>
      <trkpt lat="45.76874" lon="4.81698">
        <ele>239</ele>
        <time>2010-11-19T18:56:00Z</time>
      </trkpt>
      <trkpt lat="45.76874" lon="4.81701">
        <ele>239</ele>
        <time>2010-11-19T18:56:01Z</time>
      </trkpt>
      <trkpt lat="45.76873" lon="4.81704">
        <ele>239</ele>
        <time>2010-11-19T18:56:02Z</time>
      </trkpt>
      <trkpt lat="45.76873" lon="4.81708">
        <ele>239</ele>
        <time>2010-11-19T18:56:03Z</time>
      </trkpt>
      <trkpt lat="45.76873" lon="4.81711">
        <ele>240</ele>
        <time>2010-11-19T18:56:04Z</time>
      </trkpt>
      <trkpt lat="45.76874" lon="4.81713">
        <ele>240</ele>
        <time>2010-11-19T18:56:05Z</time>
      </trkpt>
      <trkpt lat="45.76876" lon="4.81716">
        <ele>240</ele>
        <time>2010-11-19T18:56:06Z</time>
      </trkpt>
      <trkpt lat="45.76877" lon="4.81719">
        <ele>239</ele>
        <time>2010-11-19T18:56:07Z</time>
      </trkpt>
      <trkpt lat="45.76879" lon="4.81718">
        <ele>239</ele>
        <time>2010-11-19T18:56:08Z</time>
      </trkpt>
      <trkpt lat="45.76881" lon="4.81716">
        <ele>238</ele>
        <time>2010-11-19T18:56:09Z</time>
      </trkpt>
      <trkpt lat="45.76881" lon="4.81713">
        <ele>238</ele>
        <time>2010-11-19T18:56:10Z</time>
      </trkpt>
      <trkpt lat="45.76883" lon="4.8171">
        <ele>238</ele>
        <time>2010-11-19T18:56:11Z</time>
      </trkpt>
      <trkpt lat="45.76884" lon="4.81706">
        <ele>238</ele>
        <time>2010-11-19T18:56:12Z</time>
      </trkpt>
      <trkpt lat="45.76886" lon="4.81701">
        <ele>238</ele>
        <time>2010-11-19T18:56:13Z</time>
      </trkpt>
      <trkpt lat="45.76887" lon="4.81697">
        <ele>238</ele>
        <time>2010-11-19T18:56:14Z</time>
      </trkpt>
      <trkpt lat="45.76888" lon="4.81695">
        <ele>238</ele>
        <time>2010-11-19T18:56:15Z</time>
      </trkpt>
      <trkpt lat="45.76889" lon="4.81691">
        <ele>238</ele>
        <time>2010-11-19T18:56:17Z</time>
      </trkpt>
      <trkpt lat="45.76889" lon="4.81691">
        <ele>238</ele>
        <time>2010-11-19T18:56:17Z</time>
      </trkpt>
      <trkpt lat="45.76891" lon="4.81686">
        <ele>238</ele>
        <time>2010-11-19T18:56:18Z</time>
      </trkpt>
      <trkpt lat="45.76892" lon="4.81682">
        <ele>238</ele>
        <time>2010-11-19T18:56:19Z</time>
      </trkpt>
      <trkpt lat="45.76894" lon="4.8168">
        <ele>238</ele>
        <time>2010-11-19T18:56:20Z</time>
      </trkpt>
      <trkpt lat="45.76896" lon="4.81678">
        <ele>238</ele>
        <time>2010-11-19T18:56:21Z</time>
      </trkpt>
      <trkpt lat="45.76897" lon="4.81676">
        <ele>238</ele>
        <time>2010-11-19T18:56:22Z</time>
      </trkpt>
      <trkpt lat="45.769" lon="4.81675">
        <ele>238</ele>
        <time>2010-11-19T18:56:23Z</time>
      </trkpt>
      <trkpt lat="45.76902" lon="4.81672">
        <ele>238</ele>
        <time>2010-11-19T18:56:24Z</time>
      </trkpt>
      <trkpt lat="45.76903" lon="4.81669">
        <ele>238</ele>
        <time>2010-11-19T18:56:25Z</time>
      </trkpt>
      <trkpt lat="45.76906" lon="4.81668">
        <ele>238</ele>
        <time>2010-11-19T18:56:26Z</time>
      </trkpt>
      <trkpt lat="45.76909" lon="4.81667">
        <ele>238</ele>
        <time>2010-11-19T18:56:27Z</time>
      </trkpt>
      <trkpt lat="45.76911" lon="4.81665">
        <ele>238</ele>
        <time>2010-11-19T18:56:28Z</time>
      </trkpt>
      <trkpt lat="45.76913" lon="4.81664">
        <ele>238</ele>
        <time>2010-11-19T18:56:29Z</time>
      </trkpt>
      <trkpt lat="45.76916" lon="4.81661">
        <ele>238</ele>
        <time>2010-11-19T18:56:30Z</time>
      </trkpt>
      <trkpt lat="45.76916" lon="4.81658">
        <ele>238</ele>
        <time>2010-11-19T18:56:31Z</time>
      </trkpt>
      <trkpt lat="45.76918" lon="4.81654">
        <ele>239</ele>
        <time>2010-11-19T18:56:32Z</time>
      </trkpt>
      <trkpt lat="45.76919" lon="4.81653">
        <ele>238</ele>
        <time>2010-11-19T18:56:33Z</time>
      </trkpt>
      <trkpt lat="45.7692" lon="4.8165">
        <ele>238</ele>
        <time>2010-11-19T18:56:34Z</time>
      </trkpt>
      <trkpt lat="45.76922" lon="4.81647">
        <ele>239</ele>
        <time>2010-11-19T18:56:35Z</time>
      </trkpt>
      <trkpt lat="45.76925" lon="4.81645">
        <ele>239</ele>
        <time>2010-11-19T18:56:36Z</time>
      </trkpt>
      <trkpt lat="45.76926" lon="4.81642">
        <ele>240</ele>
        <time>2010-11-19T18:56:37Z</time>
      </trkpt>
      <trkpt lat="45.76929" lon="4.81637">
        <ele>239</ele>
        <time>2010-11-19T18:56:40Z</time>
      </trkpt>
      <trkpt lat="45.76931" lon="4.81635">
        <ele>239.98524475098</ele>
        <time>2010-11-19T18:56:40Z</time>
      </trkpt>
      <trkpt lat="45.76932" lon="4.81632">
        <ele>241</ele>
        <time>2010-11-19T18:56:41Z</time>
      </trkpt>
      <trkpt lat="45.76933" lon="4.81631">
        <ele>241</ele>
        <time>2010-11-19T18:56:42Z</time>
      </trkpt>
      <trkpt lat="45.76936" lon="4.81629">
        <ele>241</ele>
        <time>2010-11-19T18:56:43Z</time>
      </trkpt>
      <trkpt lat="45.76938" lon="4.81626">
        <ele>241</ele>
        <time>2010-11-19T18:56:44Z</time>
      </trkpt>
      <trkpt lat="45.76941" lon="4.81623">
        <ele>242</ele>
        <time>2010-11-19T18:56:45Z</time>
      </trkpt>
      <trkpt lat="45.76942" lon="4.81621">
        <ele>242</ele>
        <time>2010-11-19T18:56:46Z</time>
      </trkpt>
      <trkpt lat="45.76943" lon="4.81619">
        <ele>242</ele>
        <time>2010-11-19T18:56:47Z</time>
      </trkpt>
      <trkpt lat="45.76945" lon="4.81617">
        <ele>242</ele>
        <time>2010-11-19T18:56:48Z</time>
      </trkpt>
      <trkpt lat="45.76947" lon="4.81614">
        <ele>241</ele>
        <time>2010-11-19T18:56:49Z</time>
      </trkpt>
      <trkpt lat="45.76949" lon="4.8161">
        <ele>241</ele>
        <time>2010-11-19T18:56:50Z</time>
      </trkpt>
      <trkpt lat="45.76952" lon="4.81609">
        <ele>242</ele>
        <time>2010-11-19T18:56:51Z</time>
      </trkpt>
      <trkpt lat="45.76953" lon="4.81606">
        <ele>242</ele>
        <time>2010-11-19T18:56:52Z</time>
      </trkpt>
      <trkpt lat="45.76956" lon="4.81604">
        <ele>242</ele>
        <time>2010-11-19T18:56:53Z</time>
      </trkpt>
      <trkpt lat="45.76958" lon="4.81601">
        <ele>242</ele>
        <time>2010-11-19T18:56:54Z</time>
      </trkpt>
      <trkpt lat="45.7696" lon="4.81597">
        <ele>242</ele>
        <time>2010-11-19T18:56:55Z</time>
      </trkpt>
      <trkpt lat="45.76963" lon="4.81595">
        <ele>243</ele>
        <time>2010-11-19T18:56:56Z</time>
      </trkpt>
      <trkpt lat="45.76964" lon="4.81594">
        <ele>243</ele>
        <time>2010-11-19T18:56:57Z</time>
      </trkpt>
      <trkpt lat="45.76966" lon="4.81592">
        <ele>244</ele>
        <time>2010-11-19T18:56:58Z</time>
      </trkpt>
      <trkpt lat="45.76969" lon="4.8159">
        <ele>246</ele>
        <time>2010-11-19T18:56:59Z</time>
      </trkpt>
      <trkpt lat="45.76972" lon="4.81589">
        <ele>246</ele>
        <time>2010-11-19T18:57:00Z</time>
      </trkpt>
      <trkpt lat="45.76976" lon="4.81588">
        <ele>247</ele>
        <time>2010-11-19T18:57:02Z</time>
      </trkpt>
      <trkpt lat="45.76976" lon="4.81588">
        <ele>247</ele>
        <time>2010-11-19T18:57:02Z</time>
      </trkpt>
      <trkpt lat="45.7698" lon="4.81587">
        <ele>247.88569641113</ele>
        <time>2010-11-19T18:57:03Z</time>
      </trkpt>
      <trkpt lat="45.76983" lon="4.81585">
        <ele>249</ele>
        <time>2010-11-19T18:57:04Z</time>
      </trkpt>
      <trkpt lat="45.76984" lon="4.81583">
        <ele>250</ele>
        <time>2010-11-19T18:57:05Z</time>
      </trkpt>
      <trkpt lat="45.76986" lon="4.81582">
        <ele>250</ele>
        <time>2010-11-19T18:57:06Z</time>
      </trkpt>
      <trkpt lat="45.76989" lon="4.8158">
        <ele>250</ele>
        <time>2010-11-19T18:57:07Z</time>
      </trkpt>
      <trkpt lat="45.76991" lon="4.8158">
        <ele>250</ele>
        <time>2010-11-19T18:57:08Z</time>
      </trkpt>
      <trkpt lat="45.76992" lon="4.81578">
        <ele>250</ele>
        <time>2010-11-19T18:57:09Z</time>
      </trkpt>
      <trkpt lat="45.76995" lon="4.81576">
        <ele>251</ele>
        <time>2010-11-19T18:57:10Z</time>
      </trkpt>
      <trkpt lat="45.76997" lon="4.81576">
        <ele>253</ele>
        <time>2010-11-19T18:57:11Z</time>
      </trkpt>
      <trkpt lat="45.76997" lon="4.81575">
        <ele>252</ele>
        <time>2010-11-19T18:57:12Z</time>
      </trkpt>
      <trkpt lat="45.76998" lon="4.81576">
        <ele>252</ele>
        <time>2010-11-19T18:57:13Z</time>
      </trkpt>
      <trkpt lat="45.77" lon="4.81577">
        <ele>252</ele>
        <time>2010-11-19T18:57:14Z</time>
      </trkpt>
      <trkpt lat="45.77001" lon="4.81579">
        <ele>253</ele>
        <time>2010-11-19T18:57:15Z</time>
      </trkpt>
      <trkpt lat="45.77002" lon="4.81581">
        <ele>253</ele>
        <time>2010-11-19T18:57:16Z</time>
      </trkpt>
      <trkpt lat="45.77003" lon="4.81582">
        <ele>253</ele>
        <time>2010-11-19T18:57:17Z</time>
      </trkpt>
      <trkpt lat="45.77003" lon="4.81584">
        <ele>253</ele>
        <time>2010-11-19T18:57:18Z</time>
      </trkpt>
      <trkpt lat="45.77005" lon="4.81586">
        <ele>253</ele>
        <time>2010-11-19T18:57:19Z</time>
      </trkpt>
      <trkpt lat="45.77006" lon="4.81588">
        <ele>254</ele>
        <time>2010-11-19T18:57:20Z</time>
      </trkpt>
      <trkpt lat="45.77007" lon="4.81591">
        <ele>255</ele>
        <time>2010-11-19T18:57:21Z</time>
      </trkpt>
      <trkpt lat="45.77008" lon="4.81592">
        <ele>255</ele>
        <time>2010-11-19T18:57:22Z</time>
      </trkpt>
      <trkpt lat="45.77009" lon="4.81596">
        <ele>255</ele>
        <time>2010-11-19T18:57:24Z</time>
      </trkpt>
      <trkpt lat="45.77009" lon="4.81596">
        <ele>255</ele>
        <time>2010-11-19T18:57:24Z</time>
      </trkpt>
      <trkpt lat="45.77011" lon="4.81599">
        <ele>255</ele>
        <time>2010-11-19T18:57:25Z</time>
      </trkpt>
      <trkpt lat="45.77014" lon="4.81601">
        <ele>256</ele>
        <time>2010-11-19T18:57:26Z</time>
      </trkpt>
      <trkpt lat="45.77016" lon="4.81602">
        <ele>256</ele>
        <time>2010-11-19T18:57:27Z</time>
      </trkpt>
      <trkpt lat="45.77017" lon="4.81603">
        <ele>256</ele>
        <time>2010-11-19T18:57:28Z</time>
      </trkpt>
      <trkpt lat="45.77019" lon="4.81603">
        <ele>256</ele>
        <time>2010-11-19T18:57:29Z</time>
      </trkpt>
      <trkpt lat="45.7702" lon="4.81604">
        <ele>256</ele>
        <time>2010-11-19T18:57:30Z</time>
      </trkpt>
      <trkpt lat="45.77022" lon="4.81603">
        <ele>256</ele>
        <time>2010-11-19T18:57:31Z</time>
      </trkpt>
      <trkpt lat="45.77024" lon="4.81603">
        <ele>256</ele>
        <time>2010-11-19T18:57:32Z</time>
      </trkpt>
      <trkpt lat="45.77027" lon="4.81601">
        <ele>256</ele>
        <time>2010-11-19T18:57:33Z</time>
      </trkpt>
      <trkpt lat="45.77029" lon="4.81601">
        <ele>256</ele>
        <time>2010-11-19T18:57:34Z</time>
      </trkpt>
      <trkpt lat="45.77031" lon="4.81599">
        <ele>256</ele>
        <time>2010-11-19T18:57:35Z</time>
      </trkpt>
      <trkpt lat="45.77033" lon="4.816">
        <ele>256</ele>
        <time>2010-11-19T18:57:36Z</time>
      </trkpt>
      <trkpt lat="45.77036" lon="4.816">
        <ele>256</ele>
        <time>2010-11-19T18:57:37Z</time>
      </trkpt>
      <trkpt lat="45.77038" lon="4.81601">
        <ele>256</ele>
        <time>2010-11-19T18:57:38Z</time>
      </trkpt>
      <trkpt lat="45.77039" lon="4.81601">
        <ele>257</ele>
        <time>2010-11-19T18:57:39Z</time>
      </trkpt>
      <trkpt lat="45.77041" lon="4.816">
        <ele>257</ele>
        <time>2010-11-19T18:57:40Z</time>
      </trkpt>
      <trkpt lat="45.77043" lon="4.81599">
        <ele>257</ele>
        <time>2010-11-19T18:57:41Z</time>
      </trkpt>
      <trkpt lat="45.77045" lon="4.81598">
        <ele>257</ele>
        <time>2010-11-19T18:57:42Z</time>
      </trkpt>
      <trkpt lat="45.77047" lon="4.81598">
        <ele>257</ele>
        <time>2010-11-19T18:57:43Z</time>
      </trkpt>
      <trkpt lat="45.77049" lon="4.81597">
        <ele>257</ele>
        <time>2010-11-19T18:57:44Z</time>
      </trkpt>
      <trkpt lat="45.77051" lon="4.81598">
        <ele>258</ele>
        <time>2010-11-19T18:57:45Z</time>
      </trkpt>
      <trkpt lat="45.77055" lon="4.81598">
        <ele>258</ele>
        <time>2010-11-19T18:57:47Z</time>
      </trkpt>
      <trkpt lat="45.77055" lon="4.81598">
        <ele>258</ele>
        <time>2010-11-19T18:57:47Z</time>
      </trkpt>
      <trkpt lat="45.7706" lon="4.81599">
        <ele>257</ele>
        <time>2010-11-19T18:57:48Z</time>
      </trkpt>
      <trkpt lat="45.77061" lon="4.816">
        <ele>257</ele>
        <time>2010-11-19T18:57:49Z</time>
      </trkpt>
      <trkpt lat="45.77065" lon="4.81599">
        <ele>257</ele>
        <time>2010-11-19T18:57:50Z</time>
      </trkpt>
      <trkpt lat="45.77068" lon="4.81597">
        <ele>256</ele>
        <time>2010-11-19T18:57:51Z</time>
      </trkpt>
      <trkpt lat="45.7707" lon="4.81597">
        <ele>256</ele>
        <time>2010-11-19T18:57:52Z</time>
      </trkpt>
      <trkpt lat="45.77072" lon="4.81597">
        <ele>256</ele>
        <time>2010-11-19T18:57:53Z</time>
      </trkpt>
      <trkpt lat="45.77073" lon="4.81597">
        <ele>256</ele>
        <time>2010-11-19T18:57:54Z</time>
      </trkpt>
      <trkpt lat="45.77076" lon="4.81595">
        <ele>255</ele>
        <time>2010-11-19T18:57:55Z</time>
      </trkpt>
      <trkpt lat="45.77076" lon="4.81595">
        <ele>255</ele>
        <time>2010-11-19T18:57:56Z</time>
      </trkpt>
      <trkpt lat="45.77078" lon="4.81595">
        <ele>255</ele>
        <time>2010-11-19T18:57:57Z</time>
      </trkpt>
      <trkpt lat="45.7708" lon="4.81597">
        <ele>255</ele>
        <time>2010-11-19T18:57:58Z</time>
      </trkpt>
      <trkpt lat="45.77083" lon="4.816">
        <ele>256</ele>
        <time>2010-11-19T18:57:59Z</time>
      </trkpt>
      <trkpt lat="45.77086" lon="4.81602">
        <ele>256</ele>
        <time>2010-11-19T18:58:00Z</time>
      </trkpt>
      <trkpt lat="45.77089" lon="4.81602">
        <ele>256</ele>
        <time>2010-11-19T18:58:01Z</time>
      </trkpt>
      <trkpt lat="45.77092" lon="4.81602">
        <ele>256</ele>
        <time>2010-11-19T18:58:02Z</time>
      </trkpt>
      <trkpt lat="45.77093" lon="4.81604">
        <ele>256</ele>
        <time>2010-11-19T18:58:03Z</time>
      </trkpt>
      <trkpt lat="45.77095" lon="4.81605">
        <ele>256</ele>
        <time>2010-11-19T18:58:04Z</time>
      </trkpt>
      <trkpt lat="45.77096" lon="4.81606">
        <ele>257</ele>
        <time>2010-11-19T18:58:05Z</time>
      </trkpt>
      <trkpt lat="45.77098" lon="4.81605">
        <ele>258</ele>
        <time>2010-11-19T18:58:06Z</time>
      </trkpt>
      <trkpt lat="45.77101" lon="4.81606">
        <ele>258</ele>
        <time>2010-11-19T18:58:07Z</time>
      </trkpt>
      <trkpt lat="45.77104" lon="4.81605">
        <ele>258</ele>
        <time>2010-11-19T18:58:09Z</time>
      </trkpt>
      <trkpt lat="45.77104" lon="4.81605">
        <ele>258</ele>
        <time>2010-11-19T18:58:09Z</time>
      </trkpt>
      <trkpt lat="45.77107" lon="4.81605">
        <ele>258</ele>
        <time>2010-11-19T18:58:10Z</time>
      </trkpt>
      <trkpt lat="45.77114" lon="4.81605">
        <ele>258</ele>
        <time>2010-11-19T18:58:11Z</time>
      </trkpt>
      <trkpt lat="45.77117" lon="4.81604">
        <ele>258</ele>
        <time>2010-11-19T18:58:12Z</time>
      </trkpt>
      <trkpt lat="45.77119" lon="4.81605">
        <ele>258</ele>
        <time>2010-11-19T18:58:13Z</time>
      </trkpt>
      <trkpt lat="45.77121" lon="4.81606">
        <ele>258</ele>
        <time>2010-11-19T18:58:14Z</time>
      </trkpt>
      <trkpt lat="45.77123" lon="4.81606">
        <ele>259</ele>
        <time>2010-11-19T18:58:15Z</time>
      </trkpt>
      <trkpt lat="45.77124" lon="4.81606">
        <ele>258</ele>
        <time>2010-11-19T18:58:16Z</time>
      </trkpt>
      <trkpt lat="45.77126" lon="4.81606">
        <ele>259</ele>
        <time>2010-11-19T18:58:17Z</time>
      </trkpt>
      <trkpt lat="45.77129" lon="4.81607">
        <ele>260</ele>
        <time>2010-11-19T18:58:18Z</time>
      </trkpt>
      <trkpt lat="45.77132" lon="4.81609">
        <ele>260</ele>
        <time>2010-11-19T18:58:19Z</time>
      </trkpt>
      <trkpt lat="45.77132" lon="4.81611">
        <ele>262</ele>
        <time>2010-11-19T18:58:20Z</time>
      </trkpt>
      <trkpt lat="45.77133" lon="4.81613">
        <ele>262</ele>
        <time>2010-11-19T18:58:21Z</time>
      </trkpt>
      <trkpt lat="45.77134" lon="4.81615">
        <ele>260</ele>
        <time>2010-11-19T18:58:22Z</time>
      </trkpt>
      <trkpt lat="45.77135" lon="4.81617">
        <ele>261</ele>
        <time>2010-11-19T18:58:23Z</time>
      </trkpt>
      <trkpt lat="45.77134" lon="4.81621">
        <ele>262</ele>
        <time>2010-11-19T18:58:24Z</time>
      </trkpt>
      <trkpt lat="45.77133" lon="4.81624">
        <ele>263</ele>
        <time>2010-11-19T18:58:25Z</time>
      </trkpt>
      <trkpt lat="45.77133" lon="4.81627">
        <ele>265</ele>
        <time>2010-11-19T18:58:26Z</time>
      </trkpt>
      <trkpt lat="45.77134" lon="4.81629">
        <ele>266</ele>
        <time>2010-11-19T18:58:27Z</time>
      </trkpt>
      <trkpt lat="45.77134" lon="4.81631">
        <ele>267</ele>
        <time>2010-11-19T18:58:28Z</time>
      </trkpt>
      <trkpt lat="45.77134" lon="4.81635">
        <ele>267</ele>
        <time>2010-11-19T18:58:29Z</time>
      </trkpt>
      <trkpt lat="45.77136" lon="4.81636">
        <ele>268</ele>
        <time>2010-11-19T18:58:30Z</time>
      </trkpt>
      <trkpt lat="45.77136" lon="4.81639">
        <ele>268</ele>
        <time>2010-11-19T18:58:32Z</time>
      </trkpt>
      <trkpt lat="45.77136" lon="4.81639">
        <ele>268</ele>
        <time>2010-11-19T18:58:32Z</time>
      </trkpt>
      <trkpt lat="45.77138" lon="4.81644">
        <ele>268</ele>
        <time>2010-11-19T18:58:33Z</time>
      </trkpt>
      <trkpt lat="45.77139" lon="4.81647">
        <ele>268</ele>
        <time>2010-11-19T18:58:34Z</time>
      </trkpt>
      <trkpt lat="45.77139" lon="4.81649">
        <ele>268</ele>
        <time>2010-11-19T18:58:35Z</time>
      </trkpt>
      <trkpt lat="45.77142" lon="4.81651">
        <ele>269</ele>
        <time>2010-11-19T18:58:36Z</time>
      </trkpt>
      <trkpt lat="45.77142" lon="4.81652">
        <ele>268</ele>
        <time>2010-11-19T18:58:37Z</time>
      </trkpt>
      <trkpt lat="45.77142" lon="4.81653">
        <ele>269</ele>
        <time>2010-11-19T18:58:38Z</time>
      </trkpt>
      <trkpt lat="45.77145" lon="4.81655">
        <ele>270</ele>
        <time>2010-11-19T18:58:39Z</time>
      </trkpt>
      <trkpt lat="45.77146" lon="4.81658">
        <ele>271</ele>
        <time>2010-11-19T18:58:40Z</time>
      </trkpt>
      <trkpt lat="45.77148" lon="4.81659">
        <ele>272</ele>
        <time>2010-11-19T18:58:41Z</time>
      </trkpt>
      <trkpt lat="45.7715" lon="4.81661">
        <ele>272</ele>
        <time>2010-11-19T18:58:42Z</time>
      </trkpt>
      <trkpt lat="45.77152" lon="4.81663">
        <ele>272</ele>
        <time>2010-11-19T18:58:43Z</time>
      </trkpt>
      <trkpt lat="45.77154" lon="4.81664">
        <ele>272</ele>
        <time>2010-11-19T18:58:44Z</time>
      </trkpt>
      <trkpt lat="45.77156" lon="4.81665">
        <ele>271</ele>
        <time>2010-11-19T18:58:45Z</time>
      </trkpt>
      <trkpt lat="45.77159" lon="4.81666">
        <ele>271</ele>
        <time>2010-11-19T18:58:46Z</time>
      </trkpt>
      <trkpt lat="45.77162" lon="4.81668">
        <ele>271</ele>
        <time>2010-11-19T18:58:47Z</time>
      </trkpt>
      <trkpt lat="45.77164" lon="4.81669">
        <ele>271</ele>
        <time>2010-11-19T18:58:48Z</time>
      </trkpt>
      <trkpt lat="45.77165" lon="4.81669">
        <ele>270</ele>
        <time>2010-11-19T18:58:49Z</time>
      </trkpt>
      <trkpt lat="45.77168" lon="4.81671">
        <ele>270</ele>
        <time>2010-11-19T18:58:50Z</time>
      </trkpt>
      <trkpt lat="45.7717" lon="4.81672">
        <ele>269</ele>
        <time>2010-11-19T18:58:51Z</time>
      </trkpt>
      <trkpt lat="45.77171" lon="4.81674">
        <ele>270</ele>
        <time>2010-11-19T18:58:52Z</time>
      </trkpt>
      <trkpt lat="45.77173" lon="4.81675">
        <ele>270</ele>
        <time>2010-11-19T18:58:55Z</time>
      </trkpt>
      <trkpt lat="45.77173" lon="4.81675">
        <ele>270.00436401367</ele>
        <time>2010-11-19T18:58:55Z</time>
      </trkpt>
      <trkpt lat="45.77174" lon="4.81678">
        <ele>270.58056640625</ele>
        <time>2010-11-19T18:58:55Z</time>
      </trkpt>
      <trkpt lat="45.77175" lon="4.81681">
        <ele>272</ele>
        <time>2010-11-19T18:58:56Z</time>
      </trkpt>
      <trkpt lat="45.77176" lon="4.81682">
        <ele>272</ele>
        <time>2010-11-19T18:58:57Z</time>
      </trkpt>
      <trkpt lat="45.77177" lon="4.81685">
        <ele>272</ele>
        <time>2010-11-19T18:58:58Z</time>
      </trkpt>
      <trkpt lat="45.77179" lon="4.81687">
        <ele>272</ele>
        <time>2010-11-19T18:58:59Z</time>
      </trkpt>
      <trkpt lat="45.77181" lon="4.81689">
        <ele>272</ele>
        <time>2010-11-19T18:59:00Z</time>
      </trkpt>
      <trkpt lat="45.77183" lon="4.81693">
        <ele>272</ele>
        <time>2010-11-19T18:59:01Z</time>
      </trkpt>
      <trkpt lat="45.77184" lon="4.81697">
        <ele>272</ele>
        <time>2010-11-19T18:59:02Z</time>
      </trkpt>
      <trkpt lat="45.77185" lon="4.81701">
        <ele>272</ele>
        <time>2010-11-19T18:59:03Z</time>
      </trkpt>
      <trkpt lat="45.77186" lon="4.81704">
        <ele>271</ele>
        <time>2010-11-19T18:59:04Z</time>
      </trkpt>
      <trkpt lat="45.77188" lon="4.81707">
        <ele>271</ele>
        <time>2010-11-19T18:59:05Z</time>
      </trkpt>
      <trkpt lat="45.77189" lon="4.81711">
        <ele>271</ele>
        <time>2010-11-19T18:59:06Z</time>
      </trkpt>
      <trkpt lat="45.77189" lon="4.81715">
        <ele>271</ele>
        <time>2010-11-19T18:59:07Z</time>
      </trkpt>
      <trkpt lat="45.7719" lon="4.81717">
        <ele>271</ele>
        <time>2010-11-19T18:59:08Z</time>
      </trkpt>
      <trkpt lat="45.77191" lon="4.81719">
        <ele>271</ele>
        <time>2010-11-19T18:59:09Z</time>
      </trkpt>
      <trkpt lat="45.77192" lon="4.81722">
        <ele>272</ele>
        <time>2010-11-19T18:59:10Z</time>
      </trkpt>
      <trkpt lat="45.77193" lon="4.81726">
        <ele>272</ele>
        <time>2010-11-19T18:59:11Z</time>
      </trkpt>
      <trkpt lat="45.77194" lon="4.8173">
        <ele>271</ele>
        <time>2010-11-19T18:59:12Z</time>
      </trkpt>
      <trkpt lat="45.77195" lon="4.81733">
        <ele>271</ele>
        <time>2010-11-19T18:59:13Z</time>
      </trkpt>
      <trkpt lat="45.77196" lon="4.81737">
        <ele>271</ele>
        <time>2010-11-19T18:59:14Z</time>
      </trkpt>
      <trkpt lat="45.77197" lon="4.81742">
        <ele>271</ele>
        <time>2010-11-19T18:59:15Z</time>
      </trkpt>
      <trkpt lat="45.77198" lon="4.81745">
        <ele>272</ele>
        <time>2010-11-19T18:59:17Z</time>
      </trkpt>
      <trkpt lat="45.77198" lon="4.81745">
        <ele>272</ele>
        <time>2010-11-19T18:59:17Z</time>
      </trkpt>
      <trkpt lat="45.772" lon="4.8175">
        <ele>272.9323425293</ele>
        <time>2010-11-19T18:59:18Z</time>
      </trkpt>
      <trkpt lat="45.77201" lon="4.81753">
        <ele>273</ele>
        <time>2010-11-19T18:59:19Z</time>
      </trkpt>
      <trkpt lat="45.77202" lon="4.81756">
        <ele>271</ele>
        <time>2010-11-19T18:59:20Z</time>
      </trkpt>
      <trkpt lat="45.77203" lon="4.81759">
        <ele>272</ele>
        <time>2010-11-19T18:59:21Z</time>
      </trkpt>
      <trkpt lat="45.77204" lon="4.81762">
        <ele>272</ele>
        <time>2010-11-19T18:59:22Z</time>
      </trkpt>
      <trkpt lat="45.77205" lon="4.81765">
        <ele>272</ele>
        <time>2010-11-19T18:59:23Z</time>
      </trkpt>
      <trkpt lat="45.77206" lon="4.81768">
        <ele>271</ele>
        <time>2010-11-19T18:59:24Z</time>
      </trkpt>
      <trkpt lat="45.77208" lon="4.8177">
        <ele>272</ele>
        <time>2010-11-19T18:59:25Z</time>
      </trkpt>
      <trkpt lat="45.7721" lon="4.81773">
        <ele>272</ele>
        <time>2010-11-19T18:59:26Z</time>
      </trkpt>
      <trkpt lat="45.77211" lon="4.81776">
        <ele>272</ele>
        <time>2010-11-19T18:59:27Z</time>
      </trkpt>
      <trkpt lat="45.77212" lon="4.81781">
        <ele>273</ele>
        <time>2010-11-19T18:59:28Z</time>
      </trkpt>
      <trkpt lat="45.77213" lon="4.81785">
        <ele>273</ele>
        <time>2010-11-19T18:59:29Z</time>
      </trkpt>
      <trkpt lat="45.77213" lon="4.81788">
        <ele>273</ele>
        <time>2010-11-19T18:59:30Z</time>
      </trkpt>
      <trkpt lat="45.77214" lon="4.81792">
        <ele>273</ele>
        <time>2010-11-19T18:59:31Z</time>
      </trkpt>
      <trkpt lat="45.77215" lon="4.81796">
        <ele>274</ele>
        <time>2010-11-19T18:59:32Z</time>
      </trkpt>
      <trkpt lat="45.77216" lon="4.818">
        <ele>275</ele>
        <time>2010-11-19T18:59:33Z</time>
      </trkpt>
      <trkpt lat="45.77217" lon="4.81804">
        <ele>276</ele>
        <time>2010-11-19T18:59:34Z</time>
      </trkpt>
      <trkpt lat="45.77218" lon="4.81807">
        <ele>276</ele>
        <time>2010-11-19T18:59:35Z</time>
      </trkpt>
      <trkpt lat="45.77219" lon="4.81809">
        <ele>276</ele>
        <time>2010-11-19T18:59:36Z</time>
      </trkpt>
      <trkpt lat="45.77218" lon="4.81814">
        <ele>276</ele>
        <time>2010-11-19T18:59:37Z</time>
      </trkpt>
      <trkpt lat="45.77219" lon="4.81818">
        <ele>277</ele>
        <time>2010-11-19T18:59:38Z</time>
      </trkpt>
      <trkpt lat="45.77219" lon="4.81822">
        <ele>276</ele>
        <time>2010-11-19T18:59:40Z</time>
      </trkpt>
      <trkpt lat="45.77219" lon="4.81822">
        <ele>276</ele>
        <time>2010-11-19T18:59:40Z</time>
      </trkpt>
      <trkpt lat="45.7722" lon="4.8183">
        <ele>275.02478027344</ele>
        <time>2010-11-19T18:59:41Z</time>
      </trkpt>
      <trkpt lat="45.7722" lon="4.81834">
        <ele>274</ele>
        <time>2010-11-19T18:59:42Z</time>
      </trkpt>
      <trkpt lat="45.77221" lon="4.81837">
        <ele>274</ele>
        <time>2010-11-19T18:59:43Z</time>
      </trkpt>
      <trkpt lat="45.77222" lon="4.81841">
        <ele>274</ele>
        <time>2010-11-19T18:59:44Z</time>
      </trkpt>
      <trkpt lat="45.77223" lon="4.81844">
        <ele>274</ele>
        <time>2010-11-19T18:59:45Z</time>
      </trkpt>
      <trkpt lat="45.77224" lon="4.81848">
        <ele>274</ele>
        <time>2010-11-19T18:59:46Z</time>
      </trkpt>
      <trkpt lat="45.77225" lon="4.81851">
        <ele>274</ele>
        <time>2010-11-19T18:59:47Z</time>
      </trkpt>
      <trkpt lat="45.77226" lon="4.81855">
        <ele>275</ele>
        <time>2010-11-19T18:59:48Z</time>
      </trkpt>
      <trkpt lat="45.77227" lon="4.81858">
        <ele>276</ele>
        <time>2010-11-19T18:59:49Z</time>
      </trkpt>
      <trkpt lat="45.77227" lon="4.81862">
        <ele>277</ele>
        <time>2010-11-19T18:59:50Z</time>
      </trkpt>
      <trkpt lat="45.77228" lon="4.81866">
        <ele>278</ele>
        <time>2010-11-19T18:59:51Z</time>
      </trkpt>
      <trkpt lat="45.77229" lon="4.81869">
        <ele>279</ele>
        <time>2010-11-19T18:59:52Z</time>
      </trkpt>
      <trkpt lat="45.77229" lon="4.81873">
        <ele>278</ele>
        <time>2010-11-19T18:59:53Z</time>
      </trkpt>
      <trkpt lat="45.7723" lon="4.81878">
        <ele>278</ele>
        <time>2010-11-19T18:59:54Z</time>
      </trkpt>
      <trkpt lat="45.77232" lon="4.8188">
        <ele>277</ele>
        <time>2010-11-19T18:59:55Z</time>
      </trkpt>
      <trkpt lat="45.77233" lon="4.81883">
        <ele>277</ele>
        <time>2010-11-19T18:59:56Z</time>
      </trkpt>
      <trkpt lat="45.77235" lon="4.81885">
        <ele>276</ele>
        <time>2010-11-19T18:59:57Z</time>
      </trkpt>
      <trkpt lat="45.77236" lon="4.81888">
        <ele>276</ele>
        <time>2010-11-19T18:59:58Z</time>
      </trkpt>
      <trkpt lat="45.77237" lon="4.81892">
        <ele>276</ele>
        <time>2010-11-19T18:59:59Z</time>
      </trkpt>
      <trkpt lat="45.77239" lon="4.81896">
        <ele>277</ele>
        <time>2010-11-19T19:00:00Z</time>
      </trkpt>
      <trkpt lat="45.7724" lon="4.81899">
        <ele>276</ele>
        <time>2010-11-19T19:00:02Z</time>
      </trkpt>
      <trkpt lat="45.7724" lon="4.81899">
        <ele>276.00537109375</ele>
        <time>2010-11-19T19:00:02Z</time>
      </trkpt>
      <trkpt lat="45.77242" lon="4.81902">
        <ele>276.6057434082</ele>
        <time>2010-11-19T19:00:03Z</time>
      </trkpt>
      <trkpt lat="45.77243" lon="4.81909">
        <ele>278</ele>
        <time>2010-11-19T19:00:04Z</time>
      </trkpt>
      <trkpt lat="45.77244" lon="4.81913">
        <ele>279</ele>
        <time>2010-11-19T19:00:05Z</time>
      </trkpt>
      <trkpt lat="45.77245" lon="4.81915">
        <ele>280</ele>
        <time>2010-11-19T19:00:06Z</time>
      </trkpt>
      <trkpt lat="45.77247" lon="4.81918">
        <ele>281</ele>
        <time>2010-11-19T19:00:07Z</time>
      </trkpt>
      <trkpt lat="45.77249" lon="4.81922">
        <ele>282</ele>
        <time>2010-11-19T19:00:08Z</time>
      </trkpt>
      <trkpt lat="45.77249" lon="4.81925">
        <ele>283</ele>
        <time>2010-11-19T19:00:09Z</time>
      </trkpt>
      <trkpt lat="45.7725" lon="4.81929">
        <ele>284</ele>
        <time>2010-11-19T19:00:10Z</time>
      </trkpt>
      <trkpt lat="45.77251" lon="4.81932">
        <ele>285</ele>
        <time>2010-11-19T19:00:11Z</time>
      </trkpt>
      <trkpt lat="45.77252" lon="4.81936">
        <ele>285</ele>
        <time>2010-11-19T19:00:12Z</time>
      </trkpt>
      <trkpt lat="45.77252" lon="4.81938">
        <ele>286</ele>
        <time>2010-11-19T19:00:13Z</time>
      </trkpt>
      <trkpt lat="45.77253" lon="4.81942">
        <ele>286</ele>
        <time>2010-11-19T19:00:14Z</time>
      </trkpt>
      <trkpt lat="45.77255" lon="4.81946">
        <ele>286</ele>
        <time>2010-11-19T19:00:15Z</time>
      </trkpt>
      <trkpt lat="45.77256" lon="4.8195">
        <ele>287</ele>
        <time>2010-11-19T19:00:16Z</time>
      </trkpt>
      <trkpt lat="45.77258" lon="4.81953">
        <ele>287</ele>
        <time>2010-11-19T19:00:17Z</time>
      </trkpt>
      <trkpt lat="45.77259" lon="4.81958">
        <ele>286</ele>
        <time>2010-11-19T19:00:18Z</time>
      </trkpt>
      <trkpt lat="45.7726" lon="4.81962">
        <ele>285</ele>
        <time>2010-11-19T19:00:19Z</time>
      </trkpt>
      <trkpt lat="45.77261" lon="4.81966">
        <ele>286</ele>
        <time>2010-11-19T19:00:20Z</time>
      </trkpt>
      <trkpt lat="45.77261" lon="4.81972">
        <ele>288</ele>
        <time>2010-11-19T19:00:21Z</time>
      </trkpt>
      <trkpt lat="45.77262" lon="4.81976">
        <ele>289</ele>
        <time>2010-11-19T19:00:22Z</time>
      </trkpt>
      <trkpt lat="45.77263" lon="4.81979">
        <ele>290</ele>
        <time>2010-11-19T19:00:23Z</time>
      </trkpt>
      <trkpt lat="45.77264" lon="4.81982">
        <ele>291</ele>
        <time>2010-11-19T19:00:25Z</time>
      </trkpt>
      <trkpt lat="45.77264" lon="4.81982">
        <ele>291</ele>
        <time>2010-11-19T19:00:25Z</time>
      </trkpt>
      <trkpt lat="45.77267" lon="4.81988">
        <ele>291</ele>
        <time>2010-11-19T19:00:26Z</time>
      </trkpt>
      <trkpt lat="45.77269" lon="4.8199">
        <ele>291</ele>
        <time>2010-11-19T19:00:27Z</time>
      </trkpt>
      <trkpt lat="45.77271" lon="4.81994">
        <ele>291</ele>
        <time>2010-11-19T19:00:28Z</time>
      </trkpt>
      <trkpt lat="45.77272" lon="4.81998">
        <ele>292</ele>
        <time>2010-11-19T19:00:29Z</time>
      </trkpt>
      <trkpt lat="45.77273" lon="4.82001">
        <ele>291</ele>
        <time>2010-11-19T19:00:30Z</time>
      </trkpt>
      <trkpt lat="45.77274" lon="4.82003">
        <ele>291</ele>
        <time>2010-11-19T19:00:31Z</time>
      </trkpt>
      <trkpt lat="45.77275" lon="4.82008">
        <ele>291</ele>
        <time>2010-11-19T19:00:32Z</time>
      </trkpt>
      <trkpt lat="45.77276" lon="4.82011">
        <ele>290</ele>
        <time>2010-11-19T19:00:33Z</time>
      </trkpt>
      <trkpt lat="45.77277" lon="4.82015">
        <ele>289</ele>
        <time>2010-11-19T19:00:34Z</time>
      </trkpt>
      <trkpt lat="45.77278" lon="4.8202">
        <ele>290</ele>
        <time>2010-11-19T19:00:35Z</time>
      </trkpt>
      <trkpt lat="45.77279" lon="4.82022">
        <ele>290</ele>
        <time>2010-11-19T19:00:36Z</time>
      </trkpt>
      <trkpt lat="45.77279" lon="4.82027">
        <ele>290</ele>
        <time>2010-11-19T19:00:37Z</time>
      </trkpt>
      <trkpt lat="45.7728" lon="4.82031">
        <ele>290</ele>
        <time>2010-11-19T19:00:38Z</time>
      </trkpt>
      <trkpt lat="45.77281" lon="4.82034">
        <ele>291</ele>
        <time>2010-11-19T19:00:39Z</time>
      </trkpt>
      <trkpt lat="45.77281" lon="4.82037">
        <ele>291</ele>
        <time>2010-11-19T19:00:40Z</time>
      </trkpt>
      <trkpt lat="45.77282" lon="4.82042">
        <ele>292</ele>
        <time>2010-11-19T19:00:41Z</time>
      </trkpt>
      <trkpt lat="45.77285" lon="4.82046">
        <ele>291</ele>
        <time>2010-11-19T19:00:42Z</time>
      </trkpt>
      <trkpt lat="45.77286" lon="4.82049">
        <ele>291</ele>
        <time>2010-11-19T19:00:43Z</time>
      </trkpt>
      <trkpt lat="45.77287" lon="4.82053">
        <ele>291</ele>
        <time>2010-11-19T19:00:44Z</time>
      </trkpt>
      <trkpt lat="45.77288" lon="4.82056">
        <ele>291</ele>
        <time>2010-11-19T19:00:45Z</time>
      </trkpt>
      <trkpt lat="45.77288" lon="4.8206">
        <ele>290</ele>
        <time>2010-11-19T19:00:47Z</time>
      </trkpt>
      <trkpt lat="45.77288" lon="4.8206">
        <ele>290.0087890625</ele>
        <time>2010-11-19T19:00:47Z</time>
      </trkpt>
      <trkpt lat="45.77288" lon="4.82064">
        <ele>291.19845581055</ele>
        <time>2010-11-19T19:00:48Z</time>
      </trkpt>
      <trkpt lat="45.77289" lon="4.82074">
        <ele>294</ele>
        <time>2010-11-19T19:00:49Z</time>
      </trkpt>
      <trkpt lat="45.7729" lon="4.82078">
        <ele>294</ele>
        <time>2010-11-19T19:00:50Z</time>
      </trkpt>
      <trkpt lat="45.77291" lon="4.8208">
        <ele>295</ele>
        <time>2010-11-19T19:00:51Z</time>
      </trkpt>
      <trkpt lat="45.77292" lon="4.82084">
        <ele>295</ele>
        <time>2010-11-19T19:00:52Z</time>
      </trkpt>
      <trkpt lat="45.77293" lon="4.82087">
        <ele>295</ele>
        <time>2010-11-19T19:00:53Z</time>
      </trkpt>
      <trkpt lat="45.77294" lon="4.82092">
        <ele>295</ele>
        <time>2010-11-19T19:00:54Z</time>
      </trkpt>
      <trkpt lat="45.77295" lon="4.82095">
        <ele>295</ele>
        <time>2010-11-19T19:00:55Z</time>
      </trkpt>
      <trkpt lat="45.77296" lon="4.821">
        <ele>296</ele>
        <time>2010-11-19T19:00:56Z</time>
      </trkpt>
      <trkpt lat="45.77298" lon="4.82103">
        <ele>296</ele>
        <time>2010-11-19T19:00:57Z</time>
      </trkpt>
      <trkpt lat="45.77298" lon="4.82108">
        <ele>296</ele>
        <time>2010-11-19T19:00:58Z</time>
      </trkpt>
      <trkpt lat="45.77299" lon="4.82112">
        <ele>296</ele>
        <time>2010-11-19T19:00:59Z</time>
      </trkpt>
      <trkpt lat="45.77301" lon="4.82116">
        <ele>295</ele>
        <time>2010-11-19T19:01:00Z</time>
      </trkpt>
      <trkpt lat="45.77301" lon="4.8212">
        <ele>295</ele>
        <time>2010-11-19T19:01:01Z</time>
      </trkpt>
      <trkpt lat="45.77303" lon="4.82123">
        <ele>295</ele>
        <time>2010-11-19T19:01:02Z</time>
      </trkpt>
      <trkpt lat="45.77305" lon="4.82127">
        <ele>295</ele>
        <time>2010-11-19T19:01:03Z</time>
      </trkpt>
      <trkpt lat="45.77307" lon="4.82131">
        <ele>297</ele>
        <time>2010-11-19T19:01:04Z</time>
      </trkpt>
      <trkpt lat="45.77308" lon="4.82135">
        <ele>297</ele>
        <time>2010-11-19T19:01:05Z</time>
      </trkpt>
      <trkpt lat="45.77309" lon="4.82138">
        <ele>297</ele>
        <time>2010-11-19T19:01:06Z</time>
      </trkpt>
      <trkpt lat="45.7731" lon="4.82142">
        <ele>298</ele>
        <time>2010-11-19T19:01:07Z</time>
      </trkpt>
      <trkpt lat="45.77311" lon="4.82142">
        <ele>298</ele>
        <time>2010-11-19T19:01:08Z</time>
      </trkpt>
      <trkpt lat="45.7731" lon="4.82143">
        <ele>299</ele>
        <time>2010-11-19T19:01:10Z</time>
      </trkpt>
      <trkpt lat="45.7731" lon="4.82143">
        <ele>299.00564575195</ele>
        <time>2010-11-19T19:01:10Z</time>
      </trkpt>
      <trkpt lat="45.77309" lon="4.82145">
        <ele>300</ele>
        <time>2010-11-19T19:01:11Z</time>
      </trkpt>
      <trkpt lat="45.77309" lon="4.82146">
        <ele>300</ele>
        <time>2010-11-19T19:01:12Z</time>
      </trkpt>
      <trkpt lat="45.77309" lon="4.82146">
        <ele>300</ele>
        <time>2010-11-19T19:01:13Z</time>
      </trkpt>
      <trkpt lat="45.77308" lon="4.82146">
        <ele>301</ele>
        <time>2010-11-19T19:01:14Z</time>
      </trkpt>
      <trkpt lat="45.77308" lon="4.82146">
        <ele>301</ele>
        <time>2010-11-19T19:01:15Z</time>
      </trkpt>
      <trkpt lat="45.77308" lon="4.82146">
        <ele>301</ele>
        <time>2010-11-19T19:01:16Z</time>
      </trkpt>
      <trkpt lat="45.77308" lon="4.82147">
        <ele>301</ele>
        <time>2010-11-19T19:01:17Z</time>
      </trkpt>
      <trkpt lat="45.77308" lon="4.82149">
        <ele>301</ele>
        <time>2010-11-19T19:01:18Z</time>
      </trkpt>
      <trkpt lat="45.77308" lon="4.82151">
        <ele>301</ele>
        <time>2010-11-19T19:01:19Z</time>
      </trkpt>
      <trkpt lat="45.77308" lon="4.82153">
        <ele>301</ele>
        <time>2010-11-19T19:01:20Z</time>
      </trkpt>
      <trkpt lat="45.77309" lon="4.82156">
        <ele>300</ele>
        <time>2010-11-19T19:01:21Z</time>
      </trkpt>
      <trkpt lat="45.7731" lon="4.82159">
        <ele>300</ele>
        <time>2010-11-19T19:01:22Z</time>
      </trkpt>
      <trkpt lat="45.77312" lon="4.82161">
        <ele>300</ele>
        <time>2010-11-19T19:01:23Z</time>
      </trkpt>
      <trkpt lat="45.77313" lon="4.82165">
        <ele>300</ele>
        <time>2010-11-19T19:01:24Z</time>
      </trkpt>
      <trkpt lat="45.77314" lon="4.82168">
        <ele>299</ele>
        <time>2010-11-19T19:01:25Z</time>
      </trkpt>
      <trkpt lat="45.77314" lon="4.82171">
        <ele>300</ele>
        <time>2010-11-19T19:01:26Z</time>
      </trkpt>
      <trkpt lat="45.77315" lon="4.82174">
        <ele>300</ele>
        <time>2010-11-19T19:01:27Z</time>
      </trkpt>
      <trkpt lat="45.77315" lon="4.82178">
        <ele>299</ele>
        <time>2010-11-19T19:01:28Z</time>
      </trkpt>
      <trkpt lat="45.77316" lon="4.82181">
        <ele>299</ele>
        <time>2010-11-19T19:01:29Z</time>
      </trkpt>
      <trkpt lat="45.77317" lon="4.82186">
        <ele>300</ele>
        <time>2010-11-19T19:01:30Z</time>
      </trkpt>
      <trkpt lat="45.77317" lon="4.82189">
        <ele>299</ele>
        <time>2010-11-19T19:01:33Z</time>
      </trkpt>
      <trkpt lat="45.77317" lon="4.82189">
        <ele>299</ele>
        <time>2010-11-19T19:01:33Z</time>
      </trkpt>
      <trkpt lat="45.77318" lon="4.82192">
        <ele>299</ele>
        <time>2010-11-19T19:01:33Z</time>
      </trkpt>
      <trkpt lat="45.77323" lon="4.82198">
        <ele>299</ele>
        <time>2010-11-19T19:01:34Z</time>
      </trkpt>
      <trkpt lat="45.77326" lon="4.82203">
        <ele>298</ele>
        <time>2010-11-19T19:01:35Z</time>
      </trkpt>
      <trkpt lat="45.77328" lon="4.82206">
        <ele>298</ele>
        <time>2010-11-19T19:01:36Z</time>
      </trkpt>
      <trkpt lat="45.7733" lon="4.82208">
        <ele>298</ele>
        <time>2010-11-19T19:01:37Z</time>
      </trkpt>
      <trkpt lat="45.77332" lon="4.82211">
        <ele>298</ele>
        <time>2010-11-19T19:01:38Z</time>
      </trkpt>
      <trkpt lat="45.77335" lon="4.82213">
        <ele>298</ele>
        <time>2010-11-19T19:01:39Z</time>
      </trkpt>
      <trkpt lat="45.77336" lon="4.82217">
        <ele>298</ele>
        <time>2010-11-19T19:01:40Z</time>
      </trkpt>
      <trkpt lat="45.77338" lon="4.8222">
        <ele>298</ele>
        <time>2010-11-19T19:01:41Z</time>
      </trkpt>
      <trkpt lat="45.7734" lon="4.82224">
        <ele>298</ele>
        <time>2010-11-19T19:01:42Z</time>
      </trkpt>
      <trkpt lat="45.77341" lon="4.82228">
        <ele>297</ele>
        <time>2010-11-19T19:01:43Z</time>
      </trkpt>
      <trkpt lat="45.77343" lon="4.82232">
        <ele>297</ele>
        <time>2010-11-19T19:01:44Z</time>
      </trkpt>
      <trkpt lat="45.77344" lon="4.82235">
        <ele>297</ele>
        <time>2010-11-19T19:01:45Z</time>
      </trkpt>
      <trkpt lat="45.77345" lon="4.82239">
        <ele>296</ele>
        <time>2010-11-19T19:01:46Z</time>
      </trkpt>
      <trkpt lat="45.7735" lon="4.82242">
        <ele>296.97622680664</ele>
        <time>2010-11-19T19:01:47Z</time>
      </trkpt>
      <trkpt lat="45.77352" lon="4.82246">
        <ele>297</ele>
        <time>2010-11-19T19:01:48Z</time>
      </trkpt>
      <trkpt lat="45.77353" lon="4.82249">
        <ele>296</ele>
        <time>2010-11-19T19:01:49Z</time>
      </trkpt>
      <trkpt lat="45.77354" lon="4.82253">
        <ele>297</ele>
        <time>2010-11-19T19:01:50Z</time>
      </trkpt>
      <trkpt lat="45.77355" lon="4.82256">
        <ele>296</ele>
        <time>2010-11-19T19:01:51Z</time>
      </trkpt>
      <trkpt lat="45.77357" lon="4.82259">
        <ele>295</ele>
        <time>2010-11-19T19:01:52Z</time>
      </trkpt>
      <trkpt lat="45.77358" lon="4.82262">
        <ele>295</ele>
        <time>2010-11-19T19:01:53Z</time>
      </trkpt>
      <trkpt lat="45.77359" lon="4.82266">
        <ele>295</ele>
        <time>2010-11-19T19:01:55Z</time>
      </trkpt>
      <trkpt lat="45.77359" lon="4.82266">
        <ele>295</ele>
        <time>2010-11-19T19:01:55Z</time>
      </trkpt>
      <trkpt lat="45.7736" lon="4.82271">
        <ele>295</ele>
        <time>2010-11-19T19:01:56Z</time>
      </trkpt>
      <trkpt lat="45.7736" lon="4.82277">
        <ele>295</ele>
        <time>2010-11-19T19:01:57Z</time>
      </trkpt>
      <trkpt lat="45.7736" lon="4.82281">
        <ele>295</ele>
        <time>2010-11-19T19:01:58Z</time>
      </trkpt>
      <trkpt lat="45.77361" lon="4.82284">
        <ele>296</ele>
        <time>2010-11-19T19:01:59Z</time>
      </trkpt>
      <trkpt lat="45.77363" lon="4.82287">
        <ele>296</ele>
        <time>2010-11-19T19:02:00Z</time>
      </trkpt>
      <trkpt lat="45.77363" lon="4.82292">
        <ele>296</ele>
        <time>2010-11-19T19:02:01Z</time>
      </trkpt>
      <trkpt lat="45.77364" lon="4.82295">
        <ele>296</ele>
        <time>2010-11-19T19:02:02Z</time>
      </trkpt>
      <trkpt lat="45.77366" lon="4.82298">
        <ele>295</ele>
        <time>2010-11-19T19:02:03Z</time>
      </trkpt>
      <trkpt lat="45.77366" lon="4.82304">
        <ele>296</ele>
        <time>2010-11-19T19:02:04Z</time>
      </trkpt>
      <trkpt lat="45.77366" lon="4.82308">
        <ele>296</ele>
        <time>2010-11-19T19:02:05Z</time>
      </trkpt>
      <trkpt lat="45.77366" lon="4.82313">
        <ele>297</ele>
        <time>2010-11-19T19:02:06Z</time>
      </trkpt>
      <trkpt lat="45.77367" lon="4.82316">
        <ele>297</ele>
        <time>2010-11-19T19:02:07Z</time>
      </trkpt>
      <trkpt lat="45.77368" lon="4.82319">
        <ele>298</ele>
        <time>2010-11-19T19:02:08Z</time>
      </trkpt>
      <trkpt lat="45.7737" lon="4.82322">
        <ele>297</ele>
        <time>2010-11-19T19:02:09Z</time>
      </trkpt>
      <trkpt lat="45.7737" lon="4.82325">
        <ele>298</ele>
        <time>2010-11-19T19:02:10Z</time>
      </trkpt>
      <trkpt lat="45.77369" lon="4.82328">
        <ele>298</ele>
        <time>2010-11-19T19:02:11Z</time>
      </trkpt>
      <trkpt lat="45.77369" lon="4.82328">
        <ele>297</ele>
        <time>2010-11-19T19:02:12Z</time>
      </trkpt>
      <trkpt lat="45.7737" lon="4.8233">
        <ele>297</ele>
        <time>2010-11-19T19:02:13Z</time>
      </trkpt>
      <trkpt lat="45.7737" lon="4.82331">
        <ele>297</ele>
        <time>2010-11-19T19:02:14Z</time>
      </trkpt>
      <trkpt lat="45.77369" lon="4.82333">
        <ele>297</ele>
        <time>2010-11-19T19:02:15Z</time>
      </trkpt>
      <trkpt lat="45.77368" lon="4.82333">
        <ele>297</ele>
        <time>2010-11-19T19:02:16Z</time>
      </trkpt>
      <trkpt lat="45.77366" lon="4.82334">
        <ele>297</ele>
        <time>2010-11-19T19:02:19Z</time>
      </trkpt>
      <trkpt lat="45.77366" lon="4.82334">
        <ele>297</ele>
        <time>2010-11-19T19:02:19Z</time>
      </trkpt>
      <trkpt lat="45.77363" lon="4.82337">
        <ele>298</ele>
        <time>2010-11-19T19:02:20Z</time>
      </trkpt>
      <trkpt lat="45.77361" lon="4.82338">
        <ele>298</ele>
        <time>2010-11-19T19:02:20Z</time>
      </trkpt>
      <trkpt lat="45.7736" lon="4.82341">
        <ele>298</ele>
        <time>2010-11-19T19:02:21Z</time>
      </trkpt>
      <trkpt lat="45.77358" lon="4.82343">
        <ele>297</ele>
        <time>2010-11-19T19:02:22Z</time>
      </trkpt>
      <trkpt lat="45.77357" lon="4.82345">
        <ele>297</ele>
        <time>2010-11-19T19:02:23Z</time>
      </trkpt>
      <trkpt lat="45.77355" lon="4.82348">
        <ele>297</ele>
        <time>2010-11-19T19:02:24Z</time>
      </trkpt>
      <trkpt lat="45.77354" lon="4.8235">
        <ele>297</ele>
        <time>2010-11-19T19:02:25Z</time>
      </trkpt>
      <trkpt lat="45.77353" lon="4.82351">
        <ele>298</ele>
        <time>2010-11-19T19:02:26Z</time>
      </trkpt>
      <trkpt lat="45.77351" lon="4.82352">
        <ele>298</ele>
        <time>2010-11-19T19:02:27Z</time>
      </trkpt>
      <trkpt lat="45.7735" lon="4.82353">
        <ele>297</ele>
        <time>2010-11-19T19:02:28Z</time>
      </trkpt>
      <trkpt lat="45.77349" lon="4.82357">
        <ele>296</ele>
        <time>2010-11-19T19:02:29Z</time>
      </trkpt>
      <trkpt lat="45.77347" lon="4.82358">
        <ele>296</ele>
        <time>2010-11-19T19:02:31Z</time>
      </trkpt>
      <trkpt lat="45.77347" lon="4.82359">
        <ele>296</ele>
        <time>2010-11-19T19:02:32Z</time>
      </trkpt>
      <trkpt lat="45.77346" lon="4.8236">
        <ele>295.6882019043</ele>
        <time>2010-11-19T19:02:32Z</time>
      </trkpt>
      <trkpt lat="45.77341" lon="4.82366">
        <ele>296</ele>
        <time>2010-11-19T19:02:33Z</time>
      </trkpt>
      <trkpt lat="45.77339" lon="4.8237">
        <ele>296</ele>
        <time>2010-11-19T19:02:34Z</time>
      </trkpt>
      <trkpt lat="45.77338" lon="4.82373">
        <ele>296</ele>
        <time>2010-11-19T19:02:35Z</time>
      </trkpt>
      <trkpt lat="45.77336" lon="4.82376">
        <ele>295</ele>
        <time>2010-11-19T19:02:36Z</time>
      </trkpt>
      <trkpt lat="45.77334" lon="4.82379">
        <ele>295</ele>
        <time>2010-11-19T19:02:37Z</time>
      </trkpt>
      <trkpt lat="45.77332" lon="4.82382">
        <ele>295</ele>
        <time>2010-11-19T19:02:38Z</time>
      </trkpt>
      <trkpt lat="45.7733" lon="4.82386">
        <ele>295</ele>
        <time>2010-11-19T19:02:39Z</time>
      </trkpt>
      <trkpt lat="45.77329" lon="4.82388">
        <ele>294</ele>
        <time>2010-11-19T19:02:41Z</time>
      </trkpt>
      <trkpt lat="45.77329" lon="4.82388">
        <ele>294</ele>
        <time>2010-11-19T19:02:41Z</time>
      </trkpt>
      <trkpt lat="45.77327" lon="4.82392">
        <ele>294</ele>
        <time>2010-11-19T19:02:42Z</time>
      </trkpt>
      <trkpt lat="45.77322" lon="4.82399">
        <ele>294</ele>
        <time>2010-11-19T19:02:43Z</time>
      </trkpt>
      <trkpt lat="45.77318" lon="4.82404">
        <ele>293</ele>
        <time>2010-11-19T19:02:44Z</time>
      </trkpt>
      <trkpt lat="45.77315" lon="4.82408">
        <ele>294</ele>
        <time>2010-11-19T19:02:45Z</time>
      </trkpt>
      <trkpt lat="45.77313" lon="4.8241">
        <ele>296</ele>
        <time>2010-11-19T19:02:46Z</time>
      </trkpt>
      <trkpt lat="45.77313" lon="4.82412">
        <ele>295</ele>
        <time>2010-11-19T19:02:47Z</time>
      </trkpt>
      <trkpt lat="45.77311" lon="4.82416">
        <ele>294</ele>
        <time>2010-11-19T19:02:48Z</time>
      </trkpt>
      <trkpt lat="45.7731" lon="4.82418">
        <ele>294</ele>
        <time>2010-11-19T19:02:49Z</time>
      </trkpt>
      <trkpt lat="45.7731" lon="4.82419">
        <ele>294</ele>
        <time>2010-11-19T19:02:50Z</time>
      </trkpt>
      <trkpt lat="45.77309" lon="4.82424">
        <ele>294</ele>
        <time>2010-11-19T19:02:51Z</time>
      </trkpt>
      <trkpt lat="45.77308" lon="4.82427">
        <ele>295</ele>
        <time>2010-11-19T19:02:52Z</time>
      </trkpt>
      <trkpt lat="45.77306" lon="4.8243">
        <ele>295</ele>
        <time>2010-11-19T19:02:53Z</time>
      </trkpt>
      <trkpt lat="45.77305" lon="4.82432">
        <ele>296</ele>
        <time>2010-11-19T19:02:54Z</time>
      </trkpt>
      <trkpt lat="45.77303" lon="4.82434">
        <ele>296</ele>
        <time>2010-11-19T19:02:55Z</time>
      </trkpt>
      <trkpt lat="45.77303" lon="4.82437">
        <ele>296</ele>
        <time>2010-11-19T19:02:56Z</time>
      </trkpt>
      <trkpt lat="45.77302" lon="4.82441">
        <ele>296</ele>
        <time>2010-11-19T19:02:57Z</time>
      </trkpt>
      <trkpt lat="45.77298" lon="4.82444">
        <ele>295</ele>
        <time>2010-11-19T19:02:58Z</time>
      </trkpt>
      <trkpt lat="45.77291" lon="4.82448">
        <ele>294</ele>
        <time>2010-11-19T19:02:59Z</time>
      </trkpt>
      <trkpt lat="45.77287" lon="4.82452">
        <ele>294</ele>
        <time>2010-11-19T19:03:00Z</time>
      </trkpt>
      <trkpt lat="45.77284" lon="4.82455">
        <ele>295</ele>
        <time>2010-11-19T19:03:01Z</time>
      </trkpt>
      <trkpt lat="45.77283" lon="4.82459">
        <ele>296</ele>
        <time>2010-11-19T19:03:02Z</time>
      </trkpt>
      <trkpt lat="45.77281" lon="4.82462">
        <ele>295</ele>
        <time>2010-11-19T19:03:05Z</time>
      </trkpt>
      <trkpt lat="45.77281" lon="4.82462">
        <ele>295.00332641602</ele>
        <time>2010-11-19T19:03:05Z</time>
      </trkpt>
      <trkpt lat="45.7728" lon="4.82464">
        <ele>295.00247192383</ele>
        <time>2010-11-19T19:03:05Z</time>
      </trkpt>
      <trkpt lat="45.77277" lon="4.82473">
        <ele>295.00018310547</ele>
        <time>2010-11-19T19:03:06Z</time>
      </trkpt>
      <trkpt lat="45.77276" lon="4.82477">
        <ele>295</ele>
        <time>2010-11-19T19:03:07Z</time>
      </trkpt>
      <trkpt lat="45.77273" lon="4.8248">
        <ele>294</ele>
        <time>2010-11-19T19:03:08Z</time>
      </trkpt>
      <trkpt lat="45.77271" lon="4.82484">
        <ele>294</ele>
        <time>2010-11-19T19:03:09Z</time>
      </trkpt>
      <trkpt lat="45.7727" lon="4.82488">
        <ele>294</ele>
        <time>2010-11-19T19:03:10Z</time>
      </trkpt>
      <trkpt lat="45.77269" lon="4.82491">
        <ele>293</ele>
        <time>2010-11-19T19:03:11Z</time>
      </trkpt>
      <trkpt lat="45.77266" lon="4.82495">
        <ele>293</ele>
        <time>2010-11-19T19:03:12Z</time>
      </trkpt>
      <trkpt lat="45.77264" lon="4.82499">
        <ele>293</ele>
        <time>2010-11-19T19:03:13Z</time>
      </trkpt>
      <trkpt lat="45.77263" lon="4.82505">
        <ele>293</ele>
        <time>2010-11-19T19:03:14Z</time>
      </trkpt>
      <trkpt lat="45.77262" lon="4.82509">
        <ele>293</ele>
        <time>2010-11-19T19:03:15Z</time>
      </trkpt>
      <trkpt lat="45.7726" lon="4.82515">
        <ele>293</ele>
        <time>2010-11-19T19:03:16Z</time>
      </trkpt>
      <trkpt lat="45.7726" lon="4.82518">
        <ele>293</ele>
        <time>2010-11-19T19:03:17Z</time>
      </trkpt>
      <trkpt lat="45.77256" lon="4.82522">
        <ele>292</ele>
        <time>2010-11-19T19:03:18Z</time>
      </trkpt>
      <trkpt lat="45.77256" lon="4.82526">
        <ele>292</ele>
        <time>2010-11-19T19:03:19Z</time>
      </trkpt>
      <trkpt lat="45.77256" lon="4.8253">
        <ele>292</ele>
        <time>2010-11-19T19:03:20Z</time>
      </trkpt>
      <trkpt lat="45.77256" lon="4.82533">
        <ele>291</ele>
        <time>2010-11-19T19:03:21Z</time>
      </trkpt>
      <trkpt lat="45.77255" lon="4.82537">
        <ele>291</ele>
        <time>2010-11-19T19:03:22Z</time>
      </trkpt>
      <trkpt lat="45.77254" lon="4.82544">
        <ele>290</ele>
        <time>2010-11-19T19:03:23Z</time>
      </trkpt>
      <trkpt lat="45.77253" lon="4.8255">
        <ele>289</ele>
        <time>2010-11-19T19:03:24Z</time>
      </trkpt>
      <trkpt lat="45.77251" lon="4.82555">
        <ele>290</ele>
        <time>2010-11-19T19:03:25Z</time>
      </trkpt>
      <trkpt lat="45.77247" lon="4.82558">
        <ele>291</ele>
        <time>2010-11-19T19:03:27Z</time>
      </trkpt>
      <trkpt lat="45.77247" lon="4.82558">
        <ele>291</ele>
        <time>2010-11-19T19:03:27Z</time>
      </trkpt>
      <trkpt lat="45.77244" lon="4.82559">
        <ele>291</ele>
        <time>2010-11-19T19:03:28Z</time>
      </trkpt>
      <trkpt lat="45.77243" lon="4.82561">
        <ele>291</ele>
        <time>2010-11-19T19:03:29Z</time>
      </trkpt>
      <trkpt lat="45.77242" lon="4.82561">
        <ele>291</ele>
        <time>2010-11-19T19:03:30Z</time>
      </trkpt>
      <trkpt lat="45.77239" lon="4.82563">
        <ele>290</ele>
        <time>2010-11-19T19:03:31Z</time>
      </trkpt>
      <trkpt lat="45.77237" lon="4.82563">
        <ele>290</ele>
        <time>2010-11-19T19:03:32Z</time>
      </trkpt>
      <trkpt lat="45.77233" lon="4.82564">
        <ele>289</ele>
        <time>2010-11-19T19:03:33Z</time>
      </trkpt>
      <trkpt lat="45.77227" lon="4.82567">
        <ele>288</ele>
        <time>2010-11-19T19:03:34Z</time>
      </trkpt>
      <trkpt lat="45.77222" lon="4.82569">
        <ele>287</ele>
        <time>2010-11-19T19:03:35Z</time>
      </trkpt>
      <trkpt lat="45.77219" lon="4.82571">
        <ele>286</ele>
        <time>2010-11-19T19:03:36Z</time>
      </trkpt>
      <trkpt lat="45.77215" lon="4.82578">
        <ele>287</ele>
        <time>2010-11-19T19:03:37Z</time>
      </trkpt>
      <trkpt lat="45.77212" lon="4.8258">
        <ele>286</ele>
        <time>2010-11-19T19:03:38Z</time>
      </trkpt>
      <trkpt lat="45.77208" lon="4.8258">
        <ele>287</ele>
        <time>2010-11-19T19:03:39Z</time>
      </trkpt>
      <trkpt lat="45.77206" lon="4.82579">
        <ele>286</ele>
        <time>2010-11-19T19:03:40Z</time>
      </trkpt>
      <trkpt lat="45.77205" lon="4.82578">
        <ele>285</ele>
        <time>2010-11-19T19:03:41Z</time>
      </trkpt>
      <trkpt lat="45.77203" lon="4.82577">
        <ele>286</ele>
        <time>2010-11-19T19:03:42Z</time>
      </trkpt>
      <trkpt lat="45.77201" lon="4.8258">
        <ele>285</ele>
        <time>2010-11-19T19:03:43Z</time>
      </trkpt>
      <trkpt lat="45.77198" lon="4.82581">
        <ele>285</ele>
        <time>2010-11-19T19:03:44Z</time>
      </trkpt>
      <trkpt lat="45.77195" lon="4.82581">
        <ele>285</ele>
        <time>2010-11-19T19:03:45Z</time>
      </trkpt>
      <trkpt lat="45.77192" lon="4.82581">
        <ele>286</ele>
        <time>2010-11-19T19:03:46Z</time>
      </trkpt>
      <trkpt lat="45.77189" lon="4.82581">
        <ele>286</ele>
        <time>2010-11-19T19:03:47Z</time>
      </trkpt>
      <trkpt lat="45.77187" lon="4.82581">
        <ele>287</ele>
        <time>2010-11-19T19:03:48Z</time>
      </trkpt>
      <trkpt lat="45.77182" lon="4.82581">
        <ele>287</ele>
        <time>2010-11-19T19:03:51Z</time>
      </trkpt>
      <trkpt lat="45.77182" lon="4.82581">
        <ele>287.00643920898</ele>
        <time>2010-11-19T19:03:51Z</time>
      </trkpt>
      <trkpt lat="45.7718" lon="4.82581">
        <ele>287.31546020508</ele>
        <time>2010-11-19T19:03:51Z</time>
      </trkpt>
      <trkpt lat="45.77174" lon="4.82578">
        <ele>288</ele>
        <time>2010-11-19T19:03:52Z</time>
      </trkpt>
      <trkpt lat="45.77171" lon="4.82578">
        <ele>288</ele>
        <time>2010-11-19T19:03:53Z</time>
      </trkpt>
      <trkpt lat="45.77168" lon="4.82578">
        <ele>288</ele>
        <time>2010-11-19T19:03:54Z</time>
      </trkpt>
      <trkpt lat="45.77164" lon="4.82578">
        <ele>288</ele>
        <time>2010-11-19T19:03:55Z</time>
      </trkpt>
      <trkpt lat="45.77161" lon="4.82579">
        <ele>288</ele>
        <time>2010-11-19T19:03:56Z</time>
      </trkpt>
      <trkpt lat="45.77155" lon="4.8258">
        <ele>287</ele>
        <time>2010-11-19T19:03:57Z</time>
      </trkpt>
      <trkpt lat="45.77148" lon="4.82584">
        <ele>286</ele>
        <time>2010-11-19T19:03:58Z</time>
      </trkpt>
      <trkpt lat="45.77142" lon="4.82586">
        <ele>286</ele>
        <time>2010-11-19T19:03:59Z</time>
      </trkpt>
      <trkpt lat="45.7714" lon="4.82585">
        <ele>286</ele>
        <time>2010-11-19T19:04:00Z</time>
      </trkpt>
      <trkpt lat="45.77137" lon="4.82587">
        <ele>285</ele>
        <time>2010-11-19T19:04:01Z</time>
      </trkpt>
      <trkpt lat="45.77133" lon="4.82585">
        <ele>286</ele>
        <time>2010-11-19T19:04:02Z</time>
      </trkpt>
      <trkpt lat="45.77129" lon="4.82584">
        <ele>286</ele>
        <time>2010-11-19T19:04:03Z</time>
      </trkpt>
      <trkpt lat="45.77127" lon="4.82584">
        <ele>286</ele>
        <time>2010-11-19T19:04:04Z</time>
      </trkpt>
      <trkpt lat="45.77124" lon="4.82584">
        <ele>285</ele>
        <time>2010-11-19T19:04:05Z</time>
      </trkpt>
      <trkpt lat="45.77119" lon="4.82583">
        <ele>285</ele>
        <time>2010-11-19T19:04:06Z</time>
      </trkpt>
      <trkpt lat="45.77115" lon="4.82582">
        <ele>286</ele>
        <time>2010-11-19T19:04:07Z</time>
      </trkpt>
      <trkpt lat="45.7711" lon="4.82583">
        <ele>286</ele>
        <time>2010-11-19T19:04:08Z</time>
      </trkpt>
      <trkpt lat="45.77104" lon="4.82583">
        <ele>286</ele>
        <time>2010-11-19T19:04:09Z</time>
      </trkpt>
      <trkpt lat="45.77099" lon="4.82585">
        <ele>285</ele>
        <time>2010-11-19T19:04:10Z</time>
      </trkpt>
      <trkpt lat="45.77093" lon="4.82586">
        <ele>284</ele>
        <time>2010-11-19T19:04:11Z</time>
      </trkpt>
      <trkpt lat="45.7709" lon="4.82584">
        <ele>282</ele>
        <time>2010-11-19T19:04:13Z</time>
      </trkpt>
      <trkpt lat="45.7709" lon="4.82584">
        <ele>281.99652099609</ele>
        <time>2010-11-19T19:04:13Z</time>
      </trkpt>
      <trkpt lat="45.77086" lon="4.82585">
        <ele>281.55844116211</ele>
        <time>2010-11-19T19:04:14Z</time>
      </trkpt>
      <trkpt lat="45.77079" lon="4.82587">
        <ele>281.02056884766</ele>
        <time>2010-11-19T19:04:15Z</time>
      </trkpt>
      <trkpt lat="45.77073" lon="4.82586">
        <ele>281</ele>
        <time>2010-11-19T19:04:16Z</time>
      </trkpt>
      <trkpt lat="45.7707" lon="4.82586">
        <ele>281</ele>
        <time>2010-11-19T19:04:17Z</time>
      </trkpt>
      <trkpt lat="45.77066" lon="4.82586">
        <ele>281</ele>
        <time>2010-11-19T19:04:18Z</time>
      </trkpt>
      <trkpt lat="45.77062" lon="4.82589">
        <ele>282</ele>
        <time>2010-11-19T19:04:19Z</time>
      </trkpt>
      <trkpt lat="45.77059" lon="4.82592">
        <ele>282</ele>
        <time>2010-11-19T19:04:20Z</time>
      </trkpt>
      <trkpt lat="45.77055" lon="4.82592">
        <ele>283</ele>
        <time>2010-11-19T19:04:21Z</time>
      </trkpt>
      <trkpt lat="45.77051" lon="4.82584">
        <ele>283</ele>
        <time>2010-11-19T19:04:22Z</time>
      </trkpt>
      <trkpt lat="45.77048" lon="4.82578">
        <ele>283</ele>
        <time>2010-11-19T19:04:23Z</time>
      </trkpt>
      <trkpt lat="45.77048" lon="4.82576">
        <ele>282</ele>
        <time>2010-11-19T19:04:24Z</time>
      </trkpt>
      <trkpt lat="45.77045" lon="4.82575">
        <ele>281</ele>
        <time>2010-11-19T19:04:25Z</time>
      </trkpt>
      <trkpt lat="45.77043" lon="4.82577">
        <ele>281</ele>
        <time>2010-11-19T19:04:26Z</time>
      </trkpt>
      <trkpt lat="45.77038" lon="4.82578">
        <ele>280</ele>
        <time>2010-11-19T19:04:27Z</time>
      </trkpt>
      <trkpt lat="45.77035" lon="4.82578">
        <ele>279</ele>
        <time>2010-11-19T19:04:28Z</time>
      </trkpt>
      <trkpt lat="45.7703" lon="4.82577">
        <ele>279</ele>
        <time>2010-11-19T19:04:29Z</time>
      </trkpt>
      <trkpt lat="45.77027" lon="4.82576">
        <ele>279</ele>
        <time>2010-11-19T19:04:30Z</time>
      </trkpt>
      <trkpt lat="45.77024" lon="4.82577">
        <ele>279</ele>
        <time>2010-11-19T19:04:31Z</time>
      </trkpt>
      <trkpt lat="45.77023" lon="4.82577">
        <ele>278</ele>
        <time>2010-11-19T19:04:32Z</time>
      </trkpt>
      <trkpt lat="45.77021" lon="4.82578">
        <ele>278</ele>
        <time>2010-11-19T19:04:33Z</time>
      </trkpt>
      <trkpt lat="45.77019" lon="4.82578">
        <ele>279</ele>
        <time>2010-11-19T19:04:34Z</time>
      </trkpt>
      <trkpt lat="45.77016" lon="4.82578">
        <ele>279</ele>
        <time>2010-11-19T19:04:36Z</time>
      </trkpt>
      <trkpt lat="45.77016" lon="4.82578">
        <ele>278.99368286133</ele>
        <time>2010-11-19T19:04:36Z</time>
      </trkpt>
      <trkpt lat="45.77012" lon="4.82578">
        <ele>278</ele>
        <time>2010-11-19T19:04:37Z</time>
      </trkpt>
      <trkpt lat="45.77011" lon="4.82578">
        <ele>278</ele>
        <time>2010-11-19T19:04:38Z</time>
      </trkpt>
      <trkpt lat="45.77009" lon="4.82578">
        <ele>277</ele>
        <time>2010-11-19T19:04:39Z</time>
      </trkpt>
      <trkpt lat="45.77007" lon="4.82579">
        <ele>278</ele>
        <time>2010-11-19T19:04:40Z</time>
      </trkpt>
      <trkpt lat="45.77005" lon="4.82579">
        <ele>279</ele>
        <time>2010-11-19T19:04:41Z</time>
      </trkpt>
      <trkpt lat="45.77004" lon="4.82577">
        <ele>278</ele>
        <time>2010-11-19T19:04:42Z</time>
      </trkpt>
      <trkpt lat="45.77001" lon="4.82577">
        <ele>278</ele>
        <time>2010-11-19T19:04:43Z</time>
      </trkpt>
      <trkpt lat="45.77" lon="4.82578">
        <ele>279</ele>
        <time>2010-11-19T19:04:44Z</time>
      </trkpt>
      <trkpt lat="45.76999" lon="4.82577">
        <ele>278</ele>
        <time>2010-11-19T19:04:45Z</time>
      </trkpt>
      <trkpt lat="45.76999" lon="4.82577">
        <ele>278</ele>
        <time>2010-11-19T19:04:46Z</time>
      </trkpt>
      <trkpt lat="45.76997" lon="4.82577">
        <ele>278</ele>
        <time>2010-11-19T19:04:47Z</time>
      </trkpt>
      <trkpt lat="45.76994" lon="4.82577">
        <ele>278</ele>
        <time>2010-11-19T19:04:48Z</time>
      </trkpt>
      <trkpt lat="45.76993" lon="4.82577">
        <ele>278</ele>
        <time>2010-11-19T19:04:49Z</time>
      </trkpt>
      <trkpt lat="45.76992" lon="4.82577">
        <ele>277</ele>
        <time>2010-11-19T19:04:50Z</time>
      </trkpt>
      <trkpt lat="45.76992" lon="4.82575">
        <ele>277</ele>
        <time>2010-11-19T19:04:51Z</time>
      </trkpt>
      <trkpt lat="45.76993" lon="4.82572">
        <ele>275</ele>
        <time>2010-11-19T19:04:52Z</time>
      </trkpt>
      <trkpt lat="45.76993" lon="4.82571">
        <ele>275</ele>
        <time>2010-11-19T19:04:53Z</time>
      </trkpt>
      <trkpt lat="45.76993" lon="4.82569">
        <ele>275</ele>
        <time>2010-11-19T19:04:54Z</time>
      </trkpt>
      <trkpt lat="45.76992" lon="4.82566">
        <ele>275</ele>
        <time>2010-11-19T19:04:55Z</time>
      </trkpt>
      <trkpt lat="45.76993" lon="4.82564">
        <ele>274</ele>
        <time>2010-11-19T19:04:56Z</time>
      </trkpt>
      <trkpt lat="45.76994" lon="4.82564">
        <ele>274</ele>
        <time>2010-11-19T19:04:58Z</time>
      </trkpt>
      <trkpt lat="45.76994" lon="4.82564">
        <ele>274</ele>
        <time>2010-11-19T19:04:58Z</time>
      </trkpt>
      <trkpt lat="45.76994" lon="4.8256">
        <ele>274</ele>
        <time>2010-11-19T19:04:59Z</time>
      </trkpt>
      <trkpt lat="45.76994" lon="4.82554">
        <ele>274</ele>
        <time>2010-11-19T19:05:00Z</time>
      </trkpt>
      <trkpt lat="45.76993" lon="4.82551">
        <ele>274</ele>
        <time>2010-11-19T19:05:01Z</time>
      </trkpt>
      <trkpt lat="45.76993" lon="4.82546">
        <ele>275</ele>
        <time>2010-11-19T19:05:02Z</time>
      </trkpt>
      <trkpt lat="45.76992" lon="4.82544">
        <ele>275</ele>
        <time>2010-11-19T19:05:03Z</time>
      </trkpt>
      <trkpt lat="45.76991" lon="4.82538">
        <ele>275</ele>
        <time>2010-11-19T19:05:04Z</time>
      </trkpt>
      <trkpt lat="45.7699" lon="4.82536">
        <ele>276</ele>
        <time>2010-11-19T19:05:05Z</time>
      </trkpt>
      <trkpt lat="45.76989" lon="4.82535">
        <ele>276</ele>
        <time>2010-11-19T19:05:06Z</time>
      </trkpt>
      <trkpt lat="45.76989" lon="4.82535">
        <ele>276</ele>
        <time>2010-11-19T19:05:07Z</time>
      </trkpt>
      <trkpt lat="45.76989" lon="4.82534">
        <ele>276</ele>
        <time>2010-11-19T19:05:08Z</time>
      </trkpt>
      <trkpt lat="45.76987" lon="4.82533">
        <ele>276</ele>
        <time>2010-11-19T19:05:09Z</time>
      </trkpt>
      <trkpt lat="45.76987" lon="4.82533">
        <ele>276</ele>
        <time>2010-11-19T19:05:10Z</time>
      </trkpt>
      <trkpt lat="45.76987" lon="4.82528">
        <ele>278</ele>
        <time>2010-11-19T19:05:11Z</time>
      </trkpt>
      <trkpt lat="45.76986" lon="4.82524">
        <ele>278</ele>
        <time>2010-11-19T19:05:14Z</time>
      </trkpt>
      <trkpt lat="45.76985" lon="4.82523">
        <ele>278</ele>
        <time>2010-11-19T19:05:15Z</time>
      </trkpt>
      <trkpt lat="45.76984" lon="4.82522">
        <ele>278</ele>
        <time>2010-11-19T19:05:15Z</time>
      </trkpt>
      <trkpt lat="45.76982" lon="4.82519">
        <ele>278</ele>
        <time>2010-11-19T19:05:15Z</time>
      </trkpt>
      <trkpt lat="45.76982" lon="4.82517">
        <ele>278</ele>
        <time>2010-11-19T19:05:16Z</time>
      </trkpt>
    </trkseg>
  </trk>
</gpx>